<?xml version="1.0" encoding="UTF-8" standalone="no" ?>
<gpx xmlns="http://www.topografix.com/GPX/1/1" xmlns:xsi="http://www.w3.org/2001/XMLSchema-instance" xsi:schemaLocation="http://www.topografix.com/GPX/1/1 http://www.topografix.com/GPX/1/1/gpx.xsd" version="1.1" creator="VisuGPX - https://www.visugpx.com">
  <metadata>
    <name>Tête des Chaudières, initiation</name>
    <desc><![CDATA[Initiation sous  la Tête des Chaudières
Mauvais temps -> pas fini...]]></desc>
  </metadata>
  <trk>
    <name><![CDATA[Trk003]]></name>
    <trkseg>
      <trkpt lat="45.02115" lon="5.52876">
        <ele>1228</ele>
        <time>2013-02-02T08:10:56Z</time>
      </trkpt>
      <trkpt lat="45.02112" lon="5.5288">
        <ele>1228</ele>
        <time>2013-02-02T08:11:01Z</time>
      </trkpt>
      <trkpt lat="45.02108" lon="5.52885">
        <ele>1228</ele>
        <time>2013-02-02T08:11:06Z</time>
      </trkpt>
      <trkpt lat="45.02105" lon="5.5289">
        <ele>1228</ele>
        <time>2013-02-02T08:11:11Z</time>
      </trkpt>
      <trkpt lat="45.02102" lon="5.52895">
        <ele>1228</ele>
        <time>2013-02-02T08:11:16Z</time>
      </trkpt>
      <trkpt lat="45.02099" lon="5.52899">
        <ele>1228</ele>
        <time>2013-02-02T08:11:21Z</time>
      </trkpt>
      <trkpt lat="45.02095" lon="5.52903">
        <ele>1228</ele>
        <time>2013-02-02T08:11:26Z</time>
      </trkpt>
      <trkpt lat="45.02092" lon="5.52907">
        <ele>1228</ele>
        <time>2013-02-02T08:11:31Z</time>
      </trkpt>
      <trkpt lat="45.02088" lon="5.52911">
        <ele>1228</ele>
        <time>2013-02-02T08:11:36Z</time>
      </trkpt>
      <trkpt lat="45.02084" lon="5.52913">
        <ele>1229</ele>
        <time>2013-02-02T08:11:41Z</time>
      </trkpt>
      <trkpt lat="45.02079" lon="5.52916">
        <ele>1229</ele>
        <time>2013-02-02T08:11:46Z</time>
      </trkpt>
      <trkpt lat="45.02074" lon="5.52918">
        <ele>1229</ele>
        <time>2013-02-02T08:11:51Z</time>
      </trkpt>
      <trkpt lat="45.02069" lon="5.5292">
        <ele>1230</ele>
        <time>2013-02-02T08:11:56Z</time>
      </trkpt>
      <trkpt lat="45.02063" lon="5.5292">
        <ele>1230</ele>
        <time>2013-02-02T08:12:01Z</time>
      </trkpt>
      <trkpt lat="45.02057" lon="5.52919">
        <ele>1230</ele>
        <time>2013-02-02T08:12:06Z</time>
      </trkpt>
      <trkpt lat="45.02052" lon="5.52921">
        <ele>1231</ele>
        <time>2013-02-02T08:12:11Z</time>
      </trkpt>
      <trkpt lat="45.02046" lon="5.52923">
        <ele>1231</ele>
        <time>2013-02-02T08:12:16Z</time>
      </trkpt>
      <trkpt lat="45.02042" lon="5.52925">
        <ele>1231</ele>
        <time>2013-02-02T08:12:21Z</time>
      </trkpt>
      <trkpt lat="45.0204" lon="5.5293">
        <ele>1233</ele>
        <time>2013-02-02T08:12:26Z</time>
      </trkpt>
      <trkpt lat="45.02039" lon="5.52931">
        <ele>1233</ele>
        <time>2013-02-02T08:12:31Z</time>
      </trkpt>
      <trkpt lat="45.02038" lon="5.52932">
        <ele>1231</ele>
        <time>2013-02-02T08:12:36Z</time>
      </trkpt>
      <trkpt lat="45.02036" lon="5.52934">
        <ele>1231</ele>
        <time>2013-02-02T08:12:41Z</time>
      </trkpt>
      <trkpt lat="45.02033" lon="5.52938">
        <ele>1231</ele>
        <time>2013-02-02T08:12:46Z</time>
      </trkpt>
      <trkpt lat="45.0203" lon="5.5294">
        <ele>1231</ele>
        <time>2013-02-02T08:12:51Z</time>
      </trkpt>
      <trkpt lat="45.02029" lon="5.52941">
        <ele>1231</ele>
        <time>2013-02-02T08:12:56Z</time>
      </trkpt>
      <trkpt lat="45.02028" lon="5.52941">
        <ele>1232</ele>
        <time>2013-02-02T08:13:01Z</time>
      </trkpt>
      <trkpt lat="45.02023" lon="5.52941">
        <ele>1232</ele>
        <time>2013-02-02T08:13:06Z</time>
      </trkpt>
      <trkpt lat="45.02018" lon="5.5294">
        <ele>1232</ele>
        <time>2013-02-02T08:13:11Z</time>
      </trkpt>
      <trkpt lat="45.02012" lon="5.52941">
        <ele>1232</ele>
        <time>2013-02-02T08:13:16Z</time>
      </trkpt>
      <trkpt lat="45.02006" lon="5.52941">
        <ele>1232</ele>
        <time>2013-02-02T08:13:21Z</time>
      </trkpt>
      <trkpt lat="45.02" lon="5.52941">
        <ele>1233</ele>
        <time>2013-02-02T08:13:26Z</time>
      </trkpt>
      <trkpt lat="45.01995" lon="5.52942">
        <ele>1234</ele>
        <time>2013-02-02T08:13:31Z</time>
      </trkpt>
      <trkpt lat="45.01989" lon="5.52944">
        <ele>1234</ele>
        <time>2013-02-02T08:13:36Z</time>
      </trkpt>
      <trkpt lat="45.01984" lon="5.52944">
        <ele>1234</ele>
        <time>2013-02-02T08:13:41Z</time>
      </trkpt>
      <trkpt lat="45.01979" lon="5.52944">
        <ele>1235</ele>
        <time>2013-02-02T08:13:46Z</time>
      </trkpt>
      <trkpt lat="45.01973" lon="5.52943">
        <ele>1236</ele>
        <time>2013-02-02T08:13:51Z</time>
      </trkpt>
      <trkpt lat="45.01967" lon="5.52944">
        <ele>1238</ele>
        <time>2013-02-02T08:13:56Z</time>
      </trkpt>
      <trkpt lat="45.01962" lon="5.52945">
        <ele>1240</ele>
        <time>2013-02-02T08:14:01Z</time>
      </trkpt>
      <trkpt lat="45.01955" lon="5.52947">
        <ele>1241</ele>
        <time>2013-02-02T08:14:06Z</time>
      </trkpt>
      <trkpt lat="45.01949" lon="5.52948">
        <ele>1241</ele>
        <time>2013-02-02T08:14:11Z</time>
      </trkpt>
      <trkpt lat="45.01943" lon="5.52948">
        <ele>1242</ele>
        <time>2013-02-02T08:14:16Z</time>
      </trkpt>
      <trkpt lat="45.01938" lon="5.52948">
        <ele>1242</ele>
        <time>2013-02-02T08:14:21Z</time>
      </trkpt>
      <trkpt lat="45.01932" lon="5.52948">
        <ele>1242</ele>
        <time>2013-02-02T08:14:26Z</time>
      </trkpt>
      <trkpt lat="45.01927" lon="5.52948">
        <ele>1242</ele>
        <time>2013-02-02T08:14:31Z</time>
      </trkpt>
      <trkpt lat="45.0192" lon="5.52947">
        <ele>1242</ele>
        <time>2013-02-02T08:14:36Z</time>
      </trkpt>
      <trkpt lat="45.01916" lon="5.52946">
        <ele>1241</ele>
        <time>2013-02-02T08:14:41Z</time>
      </trkpt>
      <trkpt lat="45.0191" lon="5.52945">
        <ele>1241</ele>
        <time>2013-02-02T08:14:46Z</time>
      </trkpt>
      <trkpt lat="45.01906" lon="5.52945">
        <ele>1242</ele>
        <time>2013-02-02T08:14:51Z</time>
      </trkpt>
      <trkpt lat="45.019" lon="5.52944">
        <ele>1241</ele>
        <time>2013-02-02T08:14:56Z</time>
      </trkpt>
      <trkpt lat="45.01896" lon="5.52944">
        <ele>1243</ele>
        <time>2013-02-02T08:15:01Z</time>
      </trkpt>
      <trkpt lat="45.01891" lon="5.52943">
        <ele>1245</ele>
        <time>2013-02-02T08:15:06Z</time>
      </trkpt>
      <trkpt lat="45.01886" lon="5.5294">
        <ele>1245</ele>
        <time>2013-02-02T08:15:11Z</time>
      </trkpt>
      <trkpt lat="45.0188" lon="5.52937">
        <ele>1244</ele>
        <time>2013-02-02T08:15:16Z</time>
      </trkpt>
      <trkpt lat="45.01873" lon="5.52936">
        <ele>1243</ele>
        <time>2013-02-02T08:15:21Z</time>
      </trkpt>
      <trkpt lat="45.01868" lon="5.52933">
        <ele>1244</ele>
        <time>2013-02-02T08:15:26Z</time>
      </trkpt>
      <trkpt lat="45.01862" lon="5.52932">
        <ele>1244</ele>
        <time>2013-02-02T08:15:31Z</time>
      </trkpt>
      <trkpt lat="45.01857" lon="5.52933">
        <ele>1245</ele>
        <time>2013-02-02T08:15:36Z</time>
      </trkpt>
      <trkpt lat="45.01852" lon="5.52933">
        <ele>1243</ele>
        <time>2013-02-02T08:15:41Z</time>
      </trkpt>
      <trkpt lat="45.01848" lon="5.52935">
        <ele>1241</ele>
        <time>2013-02-02T08:15:46Z</time>
      </trkpt>
      <trkpt lat="45.01845" lon="5.52938">
        <ele>1241</ele>
        <time>2013-02-02T08:15:51Z</time>
      </trkpt>
      <trkpt lat="45.01843" lon="5.52938">
        <ele>1239</ele>
        <time>2013-02-02T08:15:56Z</time>
      </trkpt>
      <trkpt lat="45.01841" lon="5.52939">
        <ele>1235</ele>
        <time>2013-02-02T08:16:01Z</time>
      </trkpt>
      <trkpt lat="45.01838" lon="5.52943">
        <ele>1234</ele>
        <time>2013-02-02T08:16:06Z</time>
      </trkpt>
      <trkpt lat="45.01835" lon="5.52948">
        <ele>1235</ele>
        <time>2013-02-02T08:16:11Z</time>
      </trkpt>
      <trkpt lat="45.01832" lon="5.52952">
        <ele>1233</ele>
        <time>2013-02-02T08:16:16Z</time>
      </trkpt>
      <trkpt lat="45.01826" lon="5.52957">
        <ele>1235</ele>
        <time>2013-02-02T08:16:21Z</time>
      </trkpt>
      <trkpt lat="45.01822" lon="5.52956">
        <ele>1235</ele>
        <time>2013-02-02T08:16:26Z</time>
      </trkpt>
      <trkpt lat="45.01818" lon="5.52956">
        <ele>1237</ele>
        <time>2013-02-02T08:16:31Z</time>
      </trkpt>
      <trkpt lat="45.01815" lon="5.52956">
        <ele>1237</ele>
        <time>2013-02-02T08:16:36Z</time>
      </trkpt>
      <trkpt lat="45.01814" lon="5.52956">
        <ele>1237</ele>
        <time>2013-02-02T08:16:41Z</time>
      </trkpt>
      <trkpt lat="45.01815" lon="5.52953">
        <ele>1237</ele>
        <time>2013-02-02T08:20:01Z</time>
      </trkpt>
      <trkpt lat="45.01814" lon="5.52953">
        <ele>1235</ele>
        <time>2013-02-02T08:20:06Z</time>
      </trkpt>
      <trkpt lat="45.01813" lon="5.52953">
        <ele>1234</ele>
        <time>2013-02-02T08:20:11Z</time>
      </trkpt>
      <trkpt lat="45.01813" lon="5.52952">
        <ele>1231</ele>
        <time>2013-02-02T08:20:16Z</time>
      </trkpt>
      <trkpt lat="45.0181" lon="5.52955">
        <ele>1232</ele>
        <time>2013-02-02T08:20:21Z</time>
      </trkpt>
      <trkpt lat="45.01809" lon="5.52959">
        <ele>1232</ele>
        <time>2013-02-02T08:20:26Z</time>
      </trkpt>
      <trkpt lat="45.01809" lon="5.52962">
        <ele>1233</ele>
        <time>2013-02-02T08:20:31Z</time>
      </trkpt>
      <trkpt lat="45.01809" lon="5.52961">
        <ele>1233</ele>
        <time>2013-02-02T08:20:36Z</time>
      </trkpt>
      <trkpt lat="45.01809" lon="5.52962">
        <ele>1234</ele>
        <time>2013-02-02T08:20:41Z</time>
      </trkpt>
      <trkpt lat="45.01811" lon="5.52962">
        <ele>1239</ele>
        <time>2013-02-02T08:22:11Z</time>
      </trkpt>
      <trkpt lat="45.01811" lon="5.52962">
        <ele>1239</ele>
        <time>2013-02-02T08:22:16Z</time>
      </trkpt>
      <trkpt lat="45.01811" lon="5.52962">
        <ele>1240</ele>
        <time>2013-02-02T08:22:21Z</time>
      </trkpt>
      <trkpt lat="45.0181" lon="5.52961">
        <ele>1241</ele>
        <time>2013-02-02T08:22:26Z</time>
      </trkpt>
      <trkpt lat="45.0181" lon="5.52961">
        <ele>1242</ele>
        <time>2013-02-02T08:22:31Z</time>
      </trkpt>
      <trkpt lat="45.01808" lon="5.52959">
        <ele>1242</ele>
        <time>2013-02-02T08:22:36Z</time>
      </trkpt>
      <trkpt lat="45.01805" lon="5.52958">
        <ele>1242</ele>
        <time>2013-02-02T08:22:41Z</time>
      </trkpt>
      <trkpt lat="45.01804" lon="5.52958">
        <ele>1241</ele>
        <time>2013-02-02T08:22:46Z</time>
      </trkpt>
      <trkpt lat="45.01804" lon="5.52959">
        <ele>1241</ele>
        <time>2013-02-02T08:22:51Z</time>
      </trkpt>
      <trkpt lat="45.01804" lon="5.52959">
        <ele>1240</ele>
        <time>2013-02-02T08:22:56Z</time>
      </trkpt>
      <trkpt lat="45.01805" lon="5.52959">
        <ele>1240</ele>
        <time>2013-02-02T08:23:01Z</time>
      </trkpt>
      <trkpt lat="45.01805" lon="5.5296">
        <ele>1240</ele>
        <time>2013-02-02T08:23:06Z</time>
      </trkpt>
      <trkpt lat="45.01805" lon="5.5296">
        <ele>1240</ele>
        <time>2013-02-02T08:23:11Z</time>
      </trkpt>
      <trkpt lat="45.01805" lon="5.5296">
        <ele>1240</ele>
        <time>2013-02-02T08:23:16Z</time>
      </trkpt>
      <trkpt lat="45.01805" lon="5.52959">
        <ele>1241</ele>
        <time>2013-02-02T08:23:21Z</time>
      </trkpt>
      <trkpt lat="45.01805" lon="5.52959">
        <ele>1241</ele>
        <time>2013-02-02T08:23:26Z</time>
      </trkpt>
      <trkpt lat="45.01805" lon="5.52959">
        <ele>1241</ele>
        <time>2013-02-02T08:23:31Z</time>
      </trkpt>
      <trkpt lat="45.01805" lon="5.52959">
        <ele>1240</ele>
        <time>2013-02-02T08:23:36Z</time>
      </trkpt>
      <trkpt lat="45.01804" lon="5.5296">
        <ele>1239</ele>
        <time>2013-02-02T08:23:41Z</time>
      </trkpt>
      <trkpt lat="45.01801" lon="5.5296">
        <ele>1240</ele>
        <time>2013-02-02T08:23:46Z</time>
      </trkpt>
      <trkpt lat="45.01797" lon="5.52959">
        <ele>1240</ele>
        <time>2013-02-02T08:23:51Z</time>
      </trkpt>
      <trkpt lat="45.01793" lon="5.52959">
        <ele>1241</ele>
        <time>2013-02-02T08:23:56Z</time>
      </trkpt>
      <trkpt lat="45.0179" lon="5.52959">
        <ele>1242</ele>
        <time>2013-02-02T08:24:01Z</time>
      </trkpt>
      <trkpt lat="45.01788" lon="5.52962">
        <ele>1244</ele>
        <time>2013-02-02T08:24:06Z</time>
      </trkpt>
      <trkpt lat="45.01785" lon="5.52964">
        <ele>1245</ele>
        <time>2013-02-02T08:24:11Z</time>
      </trkpt>
      <trkpt lat="45.01784" lon="5.52965">
        <ele>1248</ele>
        <time>2013-02-02T08:24:16Z</time>
      </trkpt>
      <trkpt lat="45.01786" lon="5.52967">
        <ele>1249</ele>
        <time>2013-02-02T08:24:41Z</time>
      </trkpt>
      <trkpt lat="45.01786" lon="5.52965">
        <ele>1247</ele>
        <time>2013-02-02T08:24:46Z</time>
      </trkpt>
      <trkpt lat="45.01783" lon="5.52965">
        <ele>1246</ele>
        <time>2013-02-02T08:24:56Z</time>
      </trkpt>
      <trkpt lat="45.01779" lon="5.52968">
        <ele>1248</ele>
        <time>2013-02-02T08:25:01Z</time>
      </trkpt>
      <trkpt lat="45.01772" lon="5.52971">
        <ele>1248</ele>
        <time>2013-02-02T08:25:06Z</time>
      </trkpt>
      <trkpt lat="45.01769" lon="5.52975">
        <ele>1251</ele>
        <time>2013-02-02T08:25:11Z</time>
      </trkpt>
      <trkpt lat="45.01765" lon="5.52978">
        <ele>1252</ele>
        <time>2013-02-02T08:25:16Z</time>
      </trkpt>
      <trkpt lat="45.01761" lon="5.52983">
        <ele>1254</ele>
        <time>2013-02-02T08:25:21Z</time>
      </trkpt>
      <trkpt lat="45.01756" lon="5.52987">
        <ele>1251</ele>
        <time>2013-02-02T08:25:26Z</time>
      </trkpt>
      <trkpt lat="45.01751" lon="5.5299">
        <ele>1252</ele>
        <time>2013-02-02T08:25:31Z</time>
      </trkpt>
      <trkpt lat="45.01746" lon="5.52994">
        <ele>1252</ele>
        <time>2013-02-02T08:25:36Z</time>
      </trkpt>
      <trkpt lat="45.01742" lon="5.52998">
        <ele>1253</ele>
        <time>2013-02-02T08:25:41Z</time>
      </trkpt>
      <trkpt lat="45.01738" lon="5.52999">
        <ele>1252</ele>
        <time>2013-02-02T08:25:46Z</time>
      </trkpt>
      <trkpt lat="45.01734" lon="5.53001">
        <ele>1253</ele>
        <time>2013-02-02T08:25:51Z</time>
      </trkpt>
      <trkpt lat="45.0173" lon="5.53003">
        <ele>1253</ele>
        <time>2013-02-02T08:25:56Z</time>
      </trkpt>
      <trkpt lat="45.01727" lon="5.53005">
        <ele>1253</ele>
        <time>2013-02-02T08:26:01Z</time>
      </trkpt>
      <trkpt lat="45.01724" lon="5.53006">
        <ele>1253</ele>
        <time>2013-02-02T08:26:06Z</time>
      </trkpt>
      <trkpt lat="45.01722" lon="5.53006">
        <ele>1250</ele>
        <time>2013-02-02T08:26:11Z</time>
      </trkpt>
      <trkpt lat="45.01722" lon="5.53005">
        <ele>1249</ele>
        <time>2013-02-02T08:26:16Z</time>
      </trkpt>
      <trkpt lat="45.0172" lon="5.53007">
        <ele>1247</ele>
        <time>2013-02-02T08:26:21Z</time>
      </trkpt>
      <trkpt lat="45.01716" lon="5.53008">
        <ele>1247</ele>
        <time>2013-02-02T08:26:26Z</time>
      </trkpt>
      <trkpt lat="45.01713" lon="5.5301">
        <ele>1249</ele>
        <time>2013-02-02T08:26:31Z</time>
      </trkpt>
      <trkpt lat="45.0171" lon="5.53013">
        <ele>1251</ele>
        <time>2013-02-02T08:26:36Z</time>
      </trkpt>
      <trkpt lat="45.01707" lon="5.53015">
        <ele>1252</ele>
        <time>2013-02-02T08:26:41Z</time>
      </trkpt>
      <trkpt lat="45.01703" lon="5.53017">
        <ele>1254</ele>
        <time>2013-02-02T08:26:46Z</time>
      </trkpt>
      <trkpt lat="45.017" lon="5.5302">
        <ele>1255</ele>
        <time>2013-02-02T08:26:51Z</time>
      </trkpt>
      <trkpt lat="45.01696" lon="5.53023">
        <ele>1255</ele>
        <time>2013-02-02T08:26:56Z</time>
      </trkpt>
      <trkpt lat="45.01692" lon="5.53026">
        <ele>1255</ele>
        <time>2013-02-02T08:27:01Z</time>
      </trkpt>
      <trkpt lat="45.01688" lon="5.53029">
        <ele>1255</ele>
        <time>2013-02-02T08:27:06Z</time>
      </trkpt>
      <trkpt lat="45.01685" lon="5.53032">
        <ele>1257</ele>
        <time>2013-02-02T08:27:11Z</time>
      </trkpt>
      <trkpt lat="45.0168" lon="5.53033">
        <ele>1259</ele>
        <time>2013-02-02T08:27:16Z</time>
      </trkpt>
      <trkpt lat="45.01677" lon="5.53033">
        <ele>1261</ele>
        <time>2013-02-02T08:27:21Z</time>
      </trkpt>
      <trkpt lat="45.01673" lon="5.53033">
        <ele>1262</ele>
        <time>2013-02-02T08:27:26Z</time>
      </trkpt>
      <trkpt lat="45.0167" lon="5.53036">
        <ele>1264</ele>
        <time>2013-02-02T08:27:31Z</time>
      </trkpt>
      <trkpt lat="45.01666" lon="5.53038">
        <ele>1266</ele>
        <time>2013-02-02T08:27:36Z</time>
      </trkpt>
      <trkpt lat="45.01663" lon="5.5304">
        <ele>1269</ele>
        <time>2013-02-02T08:27:41Z</time>
      </trkpt>
      <trkpt lat="45.01658" lon="5.5304">
        <ele>1271</ele>
        <time>2013-02-02T08:27:46Z</time>
      </trkpt>
      <trkpt lat="45.01653" lon="5.53042">
        <ele>1273</ele>
        <time>2013-02-02T08:27:51Z</time>
      </trkpt>
      <trkpt lat="45.0165" lon="5.53044">
        <ele>1275</ele>
        <time>2013-02-02T08:27:56Z</time>
      </trkpt>
      <trkpt lat="45.01645" lon="5.53045">
        <ele>1278</ele>
        <time>2013-02-02T08:28:01Z</time>
      </trkpt>
      <trkpt lat="45.01642" lon="5.53046">
        <ele>1279</ele>
        <time>2013-02-02T08:28:06Z</time>
      </trkpt>
      <trkpt lat="45.01639" lon="5.53046">
        <ele>1278</ele>
        <time>2013-02-02T08:28:11Z</time>
      </trkpt>
      <trkpt lat="45.01636" lon="5.53047">
        <ele>1280</ele>
        <time>2013-02-02T08:28:16Z</time>
      </trkpt>
      <trkpt lat="45.01631" lon="5.53047">
        <ele>1282</ele>
        <time>2013-02-02T08:28:21Z</time>
      </trkpt>
      <trkpt lat="45.01627" lon="5.53048">
        <ele>1284</ele>
        <time>2013-02-02T08:28:26Z</time>
      </trkpt>
      <trkpt lat="45.01624" lon="5.53048">
        <ele>1285</ele>
        <time>2013-02-02T08:28:31Z</time>
      </trkpt>
      <trkpt lat="45.01621" lon="5.53048">
        <ele>1285</ele>
        <time>2013-02-02T08:28:36Z</time>
      </trkpt>
      <trkpt lat="45.01618" lon="5.53048">
        <ele>1286</ele>
        <time>2013-02-02T08:28:41Z</time>
      </trkpt>
      <trkpt lat="45.01616" lon="5.53048">
        <ele>1286</ele>
        <time>2013-02-02T08:28:46Z</time>
      </trkpt>
      <trkpt lat="45.01614" lon="5.53048">
        <ele>1286</ele>
        <time>2013-02-02T08:28:51Z</time>
      </trkpt>
      <trkpt lat="45.0161" lon="5.53045">
        <ele>1284</ele>
        <time>2013-02-02T08:28:56Z</time>
      </trkpt>
      <trkpt lat="45.01607" lon="5.53045">
        <ele>1285</ele>
        <time>2013-02-02T08:29:01Z</time>
      </trkpt>
      <trkpt lat="45.01605" lon="5.53045">
        <ele>1286</ele>
        <time>2013-02-02T08:29:06Z</time>
      </trkpt>
      <trkpt lat="45.01602" lon="5.53043">
        <ele>1285</ele>
        <time>2013-02-02T08:29:11Z</time>
      </trkpt>
      <trkpt lat="45.01602" lon="5.53044">
        <ele>1284</ele>
        <time>2013-02-02T08:29:16Z</time>
      </trkpt>
      <trkpt lat="45.01601" lon="5.53044">
        <ele>1285</ele>
        <time>2013-02-02T08:29:21Z</time>
      </trkpt>
      <trkpt lat="45.016" lon="5.53045">
        <ele>1287</ele>
        <time>2013-02-02T08:29:26Z</time>
      </trkpt>
      <trkpt lat="45.01597" lon="5.53044">
        <ele>1285</ele>
        <time>2013-02-02T08:29:31Z</time>
      </trkpt>
      <trkpt lat="45.01595" lon="5.53043">
        <ele>1287</ele>
        <time>2013-02-02T08:29:36Z</time>
      </trkpt>
      <trkpt lat="45.01592" lon="5.53043">
        <ele>1290</ele>
        <time>2013-02-02T08:29:41Z</time>
      </trkpt>
      <trkpt lat="45.01589" lon="5.53043">
        <ele>1290</ele>
        <time>2013-02-02T08:29:46Z</time>
      </trkpt>
      <trkpt lat="45.01587" lon="5.53045">
        <ele>1292</ele>
        <time>2013-02-02T08:29:51Z</time>
      </trkpt>
      <trkpt lat="45.01587" lon="5.53048">
        <ele>1294</ele>
        <time>2013-02-02T08:29:56Z</time>
      </trkpt>
      <trkpt lat="45.01587" lon="5.53048">
        <ele>1293</ele>
        <time>2013-02-02T08:30:01Z</time>
      </trkpt>
      <trkpt lat="45.01586" lon="5.53048">
        <ele>1293</ele>
        <time>2013-02-02T08:30:06Z</time>
      </trkpt>
      <trkpt lat="45.01585" lon="5.53046">
        <ele>1294</ele>
        <time>2013-02-02T08:30:11Z</time>
      </trkpt>
      <trkpt lat="45.01584" lon="5.53046">
        <ele>1288</ele>
        <time>2013-02-02T08:30:16Z</time>
      </trkpt>
      <trkpt lat="45.01582" lon="5.53047">
        <ele>1284</ele>
        <time>2013-02-02T08:30:21Z</time>
      </trkpt>
      <trkpt lat="45.01582" lon="5.53047">
        <ele>1281</ele>
        <time>2013-02-02T08:30:26Z</time>
      </trkpt>
      <trkpt lat="45.01581" lon="5.53048">
        <ele>1281</ele>
        <time>2013-02-02T08:30:31Z</time>
      </trkpt>
      <trkpt lat="45.01581" lon="5.53049">
        <ele>1281</ele>
        <time>2013-02-02T08:30:36Z</time>
      </trkpt>
      <trkpt lat="45.01581" lon="5.53048">
        <ele>1282</ele>
        <time>2013-02-02T08:30:41Z</time>
      </trkpt>
      <trkpt lat="45.01579" lon="5.53047">
        <ele>1281</ele>
        <time>2013-02-02T08:30:46Z</time>
      </trkpt>
      <trkpt lat="45.01579" lon="5.53041">
        <ele>1280</ele>
        <time>2013-02-02T08:33:26Z</time>
      </trkpt>
      <trkpt lat="45.01576" lon="5.53039">
        <ele>1281</ele>
        <time>2013-02-02T08:33:31Z</time>
      </trkpt>
      <trkpt lat="45.01574" lon="5.53035">
        <ele>1281</ele>
        <time>2013-02-02T08:33:36Z</time>
      </trkpt>
      <trkpt lat="45.01571" lon="5.53033">
        <ele>1281</ele>
        <time>2013-02-02T08:33:41Z</time>
      </trkpt>
      <trkpt lat="45.01568" lon="5.53031">
        <ele>1283</ele>
        <time>2013-02-02T08:33:46Z</time>
      </trkpt>
      <trkpt lat="45.01567" lon="5.53029">
        <ele>1285</ele>
        <time>2013-02-02T08:33:51Z</time>
      </trkpt>
      <trkpt lat="45.01565" lon="5.53029">
        <ele>1287</ele>
        <time>2013-02-02T08:33:56Z</time>
      </trkpt>
      <trkpt lat="45.01562" lon="5.53027">
        <ele>1288</ele>
        <time>2013-02-02T08:34:01Z</time>
      </trkpt>
      <trkpt lat="45.0156" lon="5.53024">
        <ele>1288</ele>
        <time>2013-02-02T08:34:06Z</time>
      </trkpt>
      <trkpt lat="45.01557" lon="5.53021">
        <ele>1289</ele>
        <time>2013-02-02T08:34:11Z</time>
      </trkpt>
      <trkpt lat="45.01554" lon="5.53017">
        <ele>1289</ele>
        <time>2013-02-02T08:34:16Z</time>
      </trkpt>
      <trkpt lat="45.01553" lon="5.53014">
        <ele>1288</ele>
        <time>2013-02-02T08:34:21Z</time>
      </trkpt>
      <trkpt lat="45.01551" lon="5.53013">
        <ele>1288</ele>
        <time>2013-02-02T08:34:26Z</time>
      </trkpt>
      <trkpt lat="45.01548" lon="5.53015">
        <ele>1288</ele>
        <time>2013-02-02T08:34:31Z</time>
      </trkpt>
      <trkpt lat="45.01545" lon="5.53018">
        <ele>1288</ele>
        <time>2013-02-02T08:34:36Z</time>
      </trkpt>
      <trkpt lat="45.01542" lon="5.53019">
        <ele>1288</ele>
        <time>2013-02-02T08:34:41Z</time>
      </trkpt>
      <trkpt lat="45.01539" lon="5.53022">
        <ele>1289</ele>
        <time>2013-02-02T08:34:46Z</time>
      </trkpt>
      <trkpt lat="45.01536" lon="5.53024">
        <ele>1290</ele>
        <time>2013-02-02T08:34:51Z</time>
      </trkpt>
      <trkpt lat="45.01534" lon="5.53027">
        <ele>1290</ele>
        <time>2013-02-02T08:34:56Z</time>
      </trkpt>
      <trkpt lat="45.01531" lon="5.5303">
        <ele>1291</ele>
        <time>2013-02-02T08:35:01Z</time>
      </trkpt>
      <trkpt lat="45.01529" lon="5.53033">
        <ele>1291</ele>
        <time>2013-02-02T08:35:06Z</time>
      </trkpt>
      <trkpt lat="45.01528" lon="5.53036">
        <ele>1291</ele>
        <time>2013-02-02T08:35:11Z</time>
      </trkpt>
      <trkpt lat="45.01526" lon="5.53041">
        <ele>1291</ele>
        <time>2013-02-02T08:35:16Z</time>
      </trkpt>
      <trkpt lat="45.01526" lon="5.53042">
        <ele>1290</ele>
        <time>2013-02-02T08:35:21Z</time>
      </trkpt>
      <trkpt lat="45.01526" lon="5.53045">
        <ele>1290</ele>
        <time>2013-02-02T08:35:26Z</time>
      </trkpt>
      <trkpt lat="45.01526" lon="5.53048">
        <ele>1290</ele>
        <time>2013-02-02T08:35:31Z</time>
      </trkpt>
      <trkpt lat="45.01524" lon="5.53052">
        <ele>1291</ele>
        <time>2013-02-02T08:35:36Z</time>
      </trkpt>
      <trkpt lat="45.01524" lon="5.53053">
        <ele>1290</ele>
        <time>2013-02-02T08:35:41Z</time>
      </trkpt>
      <trkpt lat="45.01524" lon="5.53053">
        <ele>1289</ele>
        <time>2013-02-02T08:35:46Z</time>
      </trkpt>
      <trkpt lat="45.01524" lon="5.53054">
        <ele>1289</ele>
        <time>2013-02-02T08:35:51Z</time>
      </trkpt>
      <trkpt lat="45.01524" lon="5.53057">
        <ele>1290</ele>
        <time>2013-02-02T08:35:56Z</time>
      </trkpt>
      <trkpt lat="45.01523" lon="5.53061">
        <ele>1291</ele>
        <time>2013-02-02T08:36:01Z</time>
      </trkpt>
      <trkpt lat="45.01522" lon="5.53066">
        <ele>1292</ele>
        <time>2013-02-02T08:36:06Z</time>
      </trkpt>
      <trkpt lat="45.01521" lon="5.5307">
        <ele>1293</ele>
        <time>2013-02-02T08:36:11Z</time>
      </trkpt>
      <trkpt lat="45.01521" lon="5.53074">
        <ele>1294</ele>
        <time>2013-02-02T08:36:16Z</time>
      </trkpt>
      <trkpt lat="45.01519" lon="5.53077">
        <ele>1295</ele>
        <time>2013-02-02T08:36:21Z</time>
      </trkpt>
      <trkpt lat="45.01519" lon="5.5308">
        <ele>1295</ele>
        <time>2013-02-02T08:36:26Z</time>
      </trkpt>
      <trkpt lat="45.01519" lon="5.5308">
        <ele>1296</ele>
        <time>2013-02-02T08:36:31Z</time>
      </trkpt>
      <trkpt lat="45.01519" lon="5.5308">
        <ele>1296</ele>
        <time>2013-02-02T08:36:36Z</time>
      </trkpt>
      <trkpt lat="45.01516" lon="5.53081">
        <ele>1296</ele>
        <time>2013-02-02T08:36:41Z</time>
      </trkpt>
      <trkpt lat="45.01513" lon="5.53082">
        <ele>1296</ele>
        <time>2013-02-02T08:36:46Z</time>
      </trkpt>
      <trkpt lat="45.01513" lon="5.53083">
        <ele>1295</ele>
        <time>2013-02-02T08:36:51Z</time>
      </trkpt>
      <trkpt lat="45.0151" lon="5.53085">
        <ele>1296</ele>
        <time>2013-02-02T08:36:56Z</time>
      </trkpt>
      <trkpt lat="45.01507" lon="5.53088">
        <ele>1297</ele>
        <time>2013-02-02T08:37:01Z</time>
      </trkpt>
      <trkpt lat="45.01503" lon="5.5309">
        <ele>1298</ele>
        <time>2013-02-02T08:37:06Z</time>
      </trkpt>
      <trkpt lat="45.015" lon="5.53092">
        <ele>1299</ele>
        <time>2013-02-02T08:37:11Z</time>
      </trkpt>
      <trkpt lat="45.01497" lon="5.53094">
        <ele>1300</ele>
        <time>2013-02-02T08:37:16Z</time>
      </trkpt>
      <trkpt lat="45.01495" lon="5.53096">
        <ele>1300</ele>
        <time>2013-02-02T08:37:21Z</time>
      </trkpt>
      <trkpt lat="45.01493" lon="5.53098">
        <ele>1301</ele>
        <time>2013-02-02T08:37:26Z</time>
      </trkpt>
      <trkpt lat="45.0149" lon="5.53101">
        <ele>1302</ele>
        <time>2013-02-02T08:37:31Z</time>
      </trkpt>
      <trkpt lat="45.01489" lon="5.53103">
        <ele>1303</ele>
        <time>2013-02-02T08:37:36Z</time>
      </trkpt>
      <trkpt lat="45.01489" lon="5.53104">
        <ele>1303</ele>
        <time>2013-02-02T08:37:41Z</time>
      </trkpt>
      <trkpt lat="45.01487" lon="5.53105">
        <ele>1303</ele>
        <time>2013-02-02T08:37:46Z</time>
      </trkpt>
      <trkpt lat="45.01484" lon="5.53106">
        <ele>1304</ele>
        <time>2013-02-02T08:37:51Z</time>
      </trkpt>
      <trkpt lat="45.01483" lon="5.53108">
        <ele>1304</ele>
        <time>2013-02-02T08:37:56Z</time>
      </trkpt>
      <trkpt lat="45.01481" lon="5.53111">
        <ele>1305</ele>
        <time>2013-02-02T08:38:01Z</time>
      </trkpt>
      <trkpt lat="45.01479" lon="5.53113">
        <ele>1306</ele>
        <time>2013-02-02T08:38:06Z</time>
      </trkpt>
      <trkpt lat="45.01478" lon="5.53115">
        <ele>1307</ele>
        <time>2013-02-02T08:38:11Z</time>
      </trkpt>
      <trkpt lat="45.01476" lon="5.53117">
        <ele>1308</ele>
        <time>2013-02-02T08:38:16Z</time>
      </trkpt>
      <trkpt lat="45.01474" lon="5.53119">
        <ele>1308</ele>
        <time>2013-02-02T08:38:21Z</time>
      </trkpt>
      <trkpt lat="45.01472" lon="5.53121">
        <ele>1308</ele>
        <time>2013-02-02T08:38:26Z</time>
      </trkpt>
      <trkpt lat="45.01471" lon="5.53124">
        <ele>1308</ele>
        <time>2013-02-02T08:38:31Z</time>
      </trkpt>
      <trkpt lat="45.01468" lon="5.53126">
        <ele>1309</ele>
        <time>2013-02-02T08:38:36Z</time>
      </trkpt>
      <trkpt lat="45.01466" lon="5.53127">
        <ele>1310</ele>
        <time>2013-02-02T08:38:41Z</time>
      </trkpt>
      <trkpt lat="45.01463" lon="5.53129">
        <ele>1310</ele>
        <time>2013-02-02T08:38:46Z</time>
      </trkpt>
      <trkpt lat="45.01461" lon="5.53131">
        <ele>1310</ele>
        <time>2013-02-02T08:38:51Z</time>
      </trkpt>
      <trkpt lat="45.01458" lon="5.53132">
        <ele>1311</ele>
        <time>2013-02-02T08:38:56Z</time>
      </trkpt>
      <trkpt lat="45.01456" lon="5.53133">
        <ele>1311</ele>
        <time>2013-02-02T08:39:01Z</time>
      </trkpt>
      <trkpt lat="45.01453" lon="5.53133">
        <ele>1312</ele>
        <time>2013-02-02T08:39:06Z</time>
      </trkpt>
      <trkpt lat="45.0145" lon="5.53134">
        <ele>1312</ele>
        <time>2013-02-02T08:39:11Z</time>
      </trkpt>
      <trkpt lat="45.01448" lon="5.53134">
        <ele>1312</ele>
        <time>2013-02-02T08:39:16Z</time>
      </trkpt>
      <trkpt lat="45.01445" lon="5.53135">
        <ele>1313</ele>
        <time>2013-02-02T08:39:21Z</time>
      </trkpt>
      <trkpt lat="45.01443" lon="5.53136">
        <ele>1314</ele>
        <time>2013-02-02T08:39:26Z</time>
      </trkpt>
      <trkpt lat="45.01441" lon="5.53137">
        <ele>1315</ele>
        <time>2013-02-02T08:39:31Z</time>
      </trkpt>
      <trkpt lat="45.01438" lon="5.53138">
        <ele>1315</ele>
        <time>2013-02-02T08:39:36Z</time>
      </trkpt>
      <trkpt lat="45.01435" lon="5.53139">
        <ele>1316</ele>
        <time>2013-02-02T08:39:41Z</time>
      </trkpt>
      <trkpt lat="45.01433" lon="5.53141">
        <ele>1317</ele>
        <time>2013-02-02T08:39:46Z</time>
      </trkpt>
      <trkpt lat="45.01431" lon="5.53142">
        <ele>1317</ele>
        <time>2013-02-02T08:39:51Z</time>
      </trkpt>
      <trkpt lat="45.01429" lon="5.53144">
        <ele>1318</ele>
        <time>2013-02-02T08:39:56Z</time>
      </trkpt>
      <trkpt lat="45.01426" lon="5.53145">
        <ele>1318</ele>
        <time>2013-02-02T08:40:01Z</time>
      </trkpt>
      <trkpt lat="45.01424" lon="5.53146">
        <ele>1318</ele>
        <time>2013-02-02T08:40:06Z</time>
      </trkpt>
      <trkpt lat="45.01423" lon="5.53147">
        <ele>1319</ele>
        <time>2013-02-02T08:40:11Z</time>
      </trkpt>
      <trkpt lat="45.01421" lon="5.53149">
        <ele>1319</ele>
        <time>2013-02-02T08:40:16Z</time>
      </trkpt>
      <trkpt lat="45.01417" lon="5.5315">
        <ele>1320</ele>
        <time>2013-02-02T08:40:21Z</time>
      </trkpt>
      <trkpt lat="45.01414" lon="5.53152">
        <ele>1321</ele>
        <time>2013-02-02T08:40:26Z</time>
      </trkpt>
      <trkpt lat="45.0141" lon="5.53153">
        <ele>1322</ele>
        <time>2013-02-02T08:40:31Z</time>
      </trkpt>
      <trkpt lat="45.01407" lon="5.53154">
        <ele>1322</ele>
        <time>2013-02-02T08:40:36Z</time>
      </trkpt>
      <trkpt lat="45.01404" lon="5.53155">
        <ele>1322</ele>
        <time>2013-02-02T08:40:41Z</time>
      </trkpt>
      <trkpt lat="45.014" lon="5.53156">
        <ele>1322</ele>
        <time>2013-02-02T08:40:46Z</time>
      </trkpt>
      <trkpt lat="45.01395" lon="5.53157">
        <ele>1323</ele>
        <time>2013-02-02T08:40:51Z</time>
      </trkpt>
      <trkpt lat="45.01392" lon="5.53159">
        <ele>1323</ele>
        <time>2013-02-02T08:40:56Z</time>
      </trkpt>
      <trkpt lat="45.01388" lon="5.5316">
        <ele>1323</ele>
        <time>2013-02-02T08:41:01Z</time>
      </trkpt>
      <trkpt lat="45.01384" lon="5.53161">
        <ele>1324</ele>
        <time>2013-02-02T08:41:06Z</time>
      </trkpt>
      <trkpt lat="45.0138" lon="5.53162">
        <ele>1324</ele>
        <time>2013-02-02T08:41:11Z</time>
      </trkpt>
      <trkpt lat="45.01377" lon="5.53163">
        <ele>1325</ele>
        <time>2013-02-02T08:41:16Z</time>
      </trkpt>
      <trkpt lat="45.01373" lon="5.53164">
        <ele>1325</ele>
        <time>2013-02-02T08:41:21Z</time>
      </trkpt>
      <trkpt lat="45.0137" lon="5.53164">
        <ele>1325</ele>
        <time>2013-02-02T08:41:26Z</time>
      </trkpt>
      <trkpt lat="45.01368" lon="5.53164">
        <ele>1326</ele>
        <time>2013-02-02T08:41:31Z</time>
      </trkpt>
      <trkpt lat="45.01365" lon="5.53164">
        <ele>1327</ele>
        <time>2013-02-02T08:41:36Z</time>
      </trkpt>
      <trkpt lat="45.01362" lon="5.53165">
        <ele>1328</ele>
        <time>2013-02-02T08:41:41Z</time>
      </trkpt>
      <trkpt lat="45.01361" lon="5.53165">
        <ele>1329</ele>
        <time>2013-02-02T08:41:46Z</time>
      </trkpt>
      <trkpt lat="45.01358" lon="5.53165">
        <ele>1330</ele>
        <time>2013-02-02T08:41:51Z</time>
      </trkpt>
      <trkpt lat="45.01356" lon="5.53165">
        <ele>1330</ele>
        <time>2013-02-02T08:41:56Z</time>
      </trkpt>
      <trkpt lat="45.01354" lon="5.53164">
        <ele>1330</ele>
        <time>2013-02-02T08:42:01Z</time>
      </trkpt>
      <trkpt lat="45.01353" lon="5.53165">
        <ele>1330</ele>
        <time>2013-02-02T08:42:06Z</time>
      </trkpt>
      <trkpt lat="45.0135" lon="5.53165">
        <ele>1331</ele>
        <time>2013-02-02T08:42:11Z</time>
      </trkpt>
      <trkpt lat="45.01346" lon="5.53165">
        <ele>1331</ele>
        <time>2013-02-02T08:42:16Z</time>
      </trkpt>
      <trkpt lat="45.01343" lon="5.53165">
        <ele>1331</ele>
        <time>2013-02-02T08:42:21Z</time>
      </trkpt>
      <trkpt lat="45.01342" lon="5.53165">
        <ele>1330</ele>
        <time>2013-02-02T08:42:26Z</time>
      </trkpt>
      <trkpt lat="45.01339" lon="5.53165">
        <ele>1330</ele>
        <time>2013-02-02T08:42:31Z</time>
      </trkpt>
      <trkpt lat="45.01337" lon="5.53165">
        <ele>1330</ele>
        <time>2013-02-02T08:42:36Z</time>
      </trkpt>
      <trkpt lat="45.01334" lon="5.53165">
        <ele>1330</ele>
        <time>2013-02-02T08:42:41Z</time>
      </trkpt>
      <trkpt lat="45.0133" lon="5.53165">
        <ele>1331</ele>
        <time>2013-02-02T08:42:46Z</time>
      </trkpt>
      <trkpt lat="45.01327" lon="5.53167">
        <ele>1333</ele>
        <time>2013-02-02T08:42:51Z</time>
      </trkpt>
      <trkpt lat="45.01323" lon="5.53167">
        <ele>1334</ele>
        <time>2013-02-02T08:42:56Z</time>
      </trkpt>
      <trkpt lat="45.0132" lon="5.53166">
        <ele>1335</ele>
        <time>2013-02-02T08:43:01Z</time>
      </trkpt>
      <trkpt lat="45.0132" lon="5.53165">
        <ele>1334</ele>
        <time>2013-02-02T08:43:06Z</time>
      </trkpt>
      <trkpt lat="45.01317" lon="5.53166">
        <ele>1335</ele>
        <time>2013-02-02T08:43:11Z</time>
      </trkpt>
      <trkpt lat="45.01313" lon="5.53166">
        <ele>1337</ele>
        <time>2013-02-02T08:43:16Z</time>
      </trkpt>
      <trkpt lat="45.0131" lon="5.53166">
        <ele>1337</ele>
        <time>2013-02-02T08:43:21Z</time>
      </trkpt>
      <trkpt lat="45.01307" lon="5.53166">
        <ele>1338</ele>
        <time>2013-02-02T08:43:26Z</time>
      </trkpt>
      <trkpt lat="45.01305" lon="5.53166">
        <ele>1338</ele>
        <time>2013-02-02T08:43:31Z</time>
      </trkpt>
      <trkpt lat="45.01304" lon="5.53167">
        <ele>1339</ele>
        <time>2013-02-02T08:43:36Z</time>
      </trkpt>
      <trkpt lat="45.01301" lon="5.53169">
        <ele>1341</ele>
        <time>2013-02-02T08:43:41Z</time>
      </trkpt>
      <trkpt lat="45.01299" lon="5.53168">
        <ele>1340</ele>
        <time>2013-02-02T08:43:46Z</time>
      </trkpt>
      <trkpt lat="45.01295" lon="5.53168">
        <ele>1339</ele>
        <time>2013-02-02T08:43:51Z</time>
      </trkpt>
      <trkpt lat="45.01293" lon="5.53168">
        <ele>1339</ele>
        <time>2013-02-02T08:43:56Z</time>
      </trkpt>
      <trkpt lat="45.01292" lon="5.53168">
        <ele>1339</ele>
        <time>2013-02-02T08:44:01Z</time>
      </trkpt>
      <trkpt lat="45.01289" lon="5.53167">
        <ele>1339</ele>
        <time>2013-02-02T08:44:06Z</time>
      </trkpt>
      <trkpt lat="45.01286" lon="5.53167">
        <ele>1340</ele>
        <time>2013-02-02T08:44:11Z</time>
      </trkpt>
      <trkpt lat="45.01284" lon="5.53167">
        <ele>1340</ele>
        <time>2013-02-02T08:44:16Z</time>
      </trkpt>
      <trkpt lat="45.01281" lon="5.53165">
        <ele>1340</ele>
        <time>2013-02-02T08:44:21Z</time>
      </trkpt>
      <trkpt lat="45.01278" lon="5.53164">
        <ele>1340</ele>
        <time>2013-02-02T08:44:26Z</time>
      </trkpt>
      <trkpt lat="45.01276" lon="5.53162">
        <ele>1340</ele>
        <time>2013-02-02T08:44:31Z</time>
      </trkpt>
      <trkpt lat="45.01274" lon="5.5316">
        <ele>1341</ele>
        <time>2013-02-02T08:44:36Z</time>
      </trkpt>
      <trkpt lat="45.01272" lon="5.53159">
        <ele>1342</ele>
        <time>2013-02-02T08:44:41Z</time>
      </trkpt>
      <trkpt lat="45.0127" lon="5.53158">
        <ele>1342</ele>
        <time>2013-02-02T08:44:46Z</time>
      </trkpt>
      <trkpt lat="45.01268" lon="5.53157">
        <ele>1344</ele>
        <time>2013-02-02T08:44:51Z</time>
      </trkpt>
      <trkpt lat="45.01266" lon="5.53155">
        <ele>1344</ele>
        <time>2013-02-02T08:44:56Z</time>
      </trkpt>
      <trkpt lat="45.01264" lon="5.53154">
        <ele>1344</ele>
        <time>2013-02-02T08:45:01Z</time>
      </trkpt>
      <trkpt lat="45.01262" lon="5.53154">
        <ele>1347</ele>
        <time>2013-02-02T08:45:06Z</time>
      </trkpt>
      <trkpt lat="45.01259" lon="5.53154">
        <ele>1349</ele>
        <time>2013-02-02T08:45:11Z</time>
      </trkpt>
      <trkpt lat="45.01257" lon="5.53153">
        <ele>1350</ele>
        <time>2013-02-02T08:45:16Z</time>
      </trkpt>
      <trkpt lat="45.01254" lon="5.53152">
        <ele>1351</ele>
        <time>2013-02-02T08:45:21Z</time>
      </trkpt>
      <trkpt lat="45.01252" lon="5.53151">
        <ele>1352</ele>
        <time>2013-02-02T08:45:26Z</time>
      </trkpt>
      <trkpt lat="45.01249" lon="5.5315">
        <ele>1352</ele>
        <time>2013-02-02T08:45:31Z</time>
      </trkpt>
      <trkpt lat="45.01246" lon="5.5315">
        <ele>1353</ele>
        <time>2013-02-02T08:45:36Z</time>
      </trkpt>
      <trkpt lat="45.01244" lon="5.5315">
        <ele>1354</ele>
        <time>2013-02-02T08:45:41Z</time>
      </trkpt>
      <trkpt lat="45.01241" lon="5.53151">
        <ele>1355</ele>
        <time>2013-02-02T08:45:46Z</time>
      </trkpt>
      <trkpt lat="45.0124" lon="5.53152">
        <ele>1355</ele>
        <time>2013-02-02T08:45:51Z</time>
      </trkpt>
      <trkpt lat="45.01239" lon="5.53153">
        <ele>1355</ele>
        <time>2013-02-02T08:45:56Z</time>
      </trkpt>
      <trkpt lat="45.01238" lon="5.53154">
        <ele>1355</ele>
        <time>2013-02-02T08:46:01Z</time>
      </trkpt>
      <trkpt lat="45.01237" lon="5.53154">
        <ele>1355</ele>
        <time>2013-02-02T08:46:06Z</time>
      </trkpt>
      <trkpt lat="45.01237" lon="5.53153">
        <ele>1354</ele>
        <time>2013-02-02T08:46:11Z</time>
      </trkpt>
      <trkpt lat="45.01238" lon="5.53153">
        <ele>1353</ele>
        <time>2013-02-02T08:46:16Z</time>
      </trkpt>
      <trkpt lat="45.01241" lon="5.53153">
        <ele>1355</ele>
        <time>2013-02-02T08:46:21Z</time>
      </trkpt>
      <trkpt lat="45.01243" lon="5.53152">
        <ele>1356</ele>
        <time>2013-02-02T08:46:26Z</time>
      </trkpt>
      <trkpt lat="45.01243" lon="5.53152">
        <ele>1356</ele>
        <time>2013-02-02T08:46:31Z</time>
      </trkpt>
      <trkpt lat="45.01242" lon="5.53152">
        <ele>1356</ele>
        <time>2013-02-02T08:46:36Z</time>
      </trkpt>
      <trkpt lat="45.01242" lon="5.53153">
        <ele>1358</ele>
        <time>2013-02-02T08:46:41Z</time>
      </trkpt>
      <trkpt lat="45.01241" lon="5.53153">
        <ele>1357</ele>
        <time>2013-02-02T08:46:46Z</time>
      </trkpt>
      <trkpt lat="45.01241" lon="5.53152">
        <ele>1357</ele>
        <time>2013-02-02T08:46:51Z</time>
      </trkpt>
      <trkpt lat="45.01241" lon="5.53153">
        <ele>1357</ele>
        <time>2013-02-02T08:46:56Z</time>
      </trkpt>
      <trkpt lat="45.01239" lon="5.53153">
        <ele>1356</ele>
        <time>2013-02-02T08:47:01Z</time>
      </trkpt>
      <trkpt lat="45.01238" lon="5.53155">
        <ele>1356</ele>
        <time>2013-02-02T08:47:06Z</time>
      </trkpt>
      <trkpt lat="45.01237" lon="5.53159">
        <ele>1356</ele>
        <time>2013-02-02T08:47:11Z</time>
      </trkpt>
      <trkpt lat="45.01236" lon="5.53162">
        <ele>1356</ele>
        <time>2013-02-02T08:47:16Z</time>
      </trkpt>
      <trkpt lat="45.01234" lon="5.53165">
        <ele>1356</ele>
        <time>2013-02-02T08:47:21Z</time>
      </trkpt>
      <trkpt lat="45.01233" lon="5.53169">
        <ele>1356</ele>
        <time>2013-02-02T08:47:26Z</time>
      </trkpt>
      <trkpt lat="45.01233" lon="5.53172">
        <ele>1356</ele>
        <time>2013-02-02T08:47:31Z</time>
      </trkpt>
      <trkpt lat="45.01231" lon="5.53175">
        <ele>1357</ele>
        <time>2013-02-02T08:47:36Z</time>
      </trkpt>
      <trkpt lat="45.01231" lon="5.53177">
        <ele>1358</ele>
        <time>2013-02-02T08:47:41Z</time>
      </trkpt>
      <trkpt lat="45.0123" lon="5.5318">
        <ele>1359</ele>
        <time>2013-02-02T08:47:46Z</time>
      </trkpt>
      <trkpt lat="45.01229" lon="5.53183">
        <ele>1360</ele>
        <time>2013-02-02T08:47:51Z</time>
      </trkpt>
      <trkpt lat="45.01227" lon="5.53186">
        <ele>1360</ele>
        <time>2013-02-02T08:47:56Z</time>
      </trkpt>
      <trkpt lat="45.01225" lon="5.53188">
        <ele>1361</ele>
        <time>2013-02-02T08:48:01Z</time>
      </trkpt>
      <trkpt lat="45.01222" lon="5.5319">
        <ele>1362</ele>
        <time>2013-02-02T08:48:06Z</time>
      </trkpt>
      <trkpt lat="45.01221" lon="5.53193">
        <ele>1362</ele>
        <time>2013-02-02T08:48:11Z</time>
      </trkpt>
      <trkpt lat="45.0122" lon="5.53198">
        <ele>1365</ele>
        <time>2013-02-02T08:48:16Z</time>
      </trkpt>
      <trkpt lat="45.01218" lon="5.53201">
        <ele>1365</ele>
        <time>2013-02-02T08:48:21Z</time>
      </trkpt>
      <trkpt lat="45.01215" lon="5.53203">
        <ele>1364</ele>
        <time>2013-02-02T08:48:26Z</time>
      </trkpt>
      <trkpt lat="45.01212" lon="5.53205">
        <ele>1364</ele>
        <time>2013-02-02T08:48:31Z</time>
      </trkpt>
      <trkpt lat="45.0121" lon="5.53207">
        <ele>1363</ele>
        <time>2013-02-02T08:48:36Z</time>
      </trkpt>
      <trkpt lat="45.01207" lon="5.5321">
        <ele>1364</ele>
        <time>2013-02-02T08:48:41Z</time>
      </trkpt>
      <trkpt lat="45.01205" lon="5.53212">
        <ele>1365</ele>
        <time>2013-02-02T08:48:46Z</time>
      </trkpt>
      <trkpt lat="45.01202" lon="5.53214">
        <ele>1366</ele>
        <time>2013-02-02T08:48:51Z</time>
      </trkpt>
      <trkpt lat="45.01201" lon="5.53215">
        <ele>1367</ele>
        <time>2013-02-02T08:48:56Z</time>
      </trkpt>
      <trkpt lat="45.01199" lon="5.53217">
        <ele>1367</ele>
        <time>2013-02-02T08:49:01Z</time>
      </trkpt>
      <trkpt lat="45.01197" lon="5.53217">
        <ele>1367</ele>
        <time>2013-02-02T08:49:06Z</time>
      </trkpt>
      <trkpt lat="45.01195" lon="5.53218">
        <ele>1369</ele>
        <time>2013-02-02T08:49:11Z</time>
      </trkpt>
      <trkpt lat="45.01192" lon="5.53218">
        <ele>1370</ele>
        <time>2013-02-02T08:49:16Z</time>
      </trkpt>
      <trkpt lat="45.01189" lon="5.53218">
        <ele>1369</ele>
        <time>2013-02-02T08:49:21Z</time>
      </trkpt>
      <trkpt lat="45.01186" lon="5.53219">
        <ele>1370</ele>
        <time>2013-02-02T08:49:26Z</time>
      </trkpt>
      <trkpt lat="45.01184" lon="5.53219">
        <ele>1370</ele>
        <time>2013-02-02T08:49:31Z</time>
      </trkpt>
      <trkpt lat="45.01181" lon="5.5322">
        <ele>1371</ele>
        <time>2013-02-02T08:49:36Z</time>
      </trkpt>
      <trkpt lat="45.01179" lon="5.53219">
        <ele>1371</ele>
        <time>2013-02-02T08:49:41Z</time>
      </trkpt>
      <trkpt lat="45.01176" lon="5.53218">
        <ele>1371</ele>
        <time>2013-02-02T08:49:46Z</time>
      </trkpt>
      <trkpt lat="45.01175" lon="5.53219">
        <ele>1373</ele>
        <time>2013-02-02T08:49:51Z</time>
      </trkpt>
      <trkpt lat="45.01173" lon="5.53221">
        <ele>1376</ele>
        <time>2013-02-02T08:49:56Z</time>
      </trkpt>
      <trkpt lat="45.0117" lon="5.53221">
        <ele>1376</ele>
        <time>2013-02-02T08:50:01Z</time>
      </trkpt>
      <trkpt lat="45.01168" lon="5.53222">
        <ele>1378</ele>
        <time>2013-02-02T08:50:06Z</time>
      </trkpt>
      <trkpt lat="45.01165" lon="5.53222">
        <ele>1378</ele>
        <time>2013-02-02T08:50:11Z</time>
      </trkpt>
      <trkpt lat="45.01164" lon="5.53223">
        <ele>1378</ele>
        <time>2013-02-02T08:50:16Z</time>
      </trkpt>
      <trkpt lat="45.01164" lon="5.53221">
        <ele>1374</ele>
        <time>2013-02-02T08:50:21Z</time>
      </trkpt>
      <trkpt lat="45.01163" lon="5.5322">
        <ele>1374</ele>
        <time>2013-02-02T08:50:26Z</time>
      </trkpt>
      <trkpt lat="45.0116" lon="5.53221">
        <ele>1375</ele>
        <time>2013-02-02T08:50:31Z</time>
      </trkpt>
      <trkpt lat="45.01157" lon="5.53221">
        <ele>1376</ele>
        <time>2013-02-02T08:50:36Z</time>
      </trkpt>
      <trkpt lat="45.01155" lon="5.53222">
        <ele>1376</ele>
        <time>2013-02-02T08:50:41Z</time>
      </trkpt>
      <trkpt lat="45.01152" lon="5.53222">
        <ele>1375</ele>
        <time>2013-02-02T08:50:46Z</time>
      </trkpt>
      <trkpt lat="45.01149" lon="5.53222">
        <ele>1377</ele>
        <time>2013-02-02T08:50:51Z</time>
      </trkpt>
      <trkpt lat="45.01147" lon="5.53223">
        <ele>1378</ele>
        <time>2013-02-02T08:50:56Z</time>
      </trkpt>
      <trkpt lat="45.01144" lon="5.53223">
        <ele>1379</ele>
        <time>2013-02-02T08:51:01Z</time>
      </trkpt>
      <trkpt lat="45.01142" lon="5.53223">
        <ele>1379</ele>
        <time>2013-02-02T08:51:06Z</time>
      </trkpt>
      <trkpt lat="45.0114" lon="5.53223">
        <ele>1381</ele>
        <time>2013-02-02T08:51:11Z</time>
      </trkpt>
      <trkpt lat="45.01138" lon="5.53223">
        <ele>1382</ele>
        <time>2013-02-02T08:51:16Z</time>
      </trkpt>
      <trkpt lat="45.01135" lon="5.53222">
        <ele>1383</ele>
        <time>2013-02-02T08:51:21Z</time>
      </trkpt>
      <trkpt lat="45.01133" lon="5.53223">
        <ele>1384</ele>
        <time>2013-02-02T08:51:26Z</time>
      </trkpt>
      <trkpt lat="45.01132" lon="5.53224">
        <ele>1384</ele>
        <time>2013-02-02T08:51:31Z</time>
      </trkpt>
      <trkpt lat="45.01131" lon="5.53224">
        <ele>1384</ele>
        <time>2013-02-02T08:51:36Z</time>
      </trkpt>
      <trkpt lat="45.01128" lon="5.53224">
        <ele>1385</ele>
        <time>2013-02-02T08:51:41Z</time>
      </trkpt>
      <trkpt lat="45.01126" lon="5.53225">
        <ele>1385</ele>
        <time>2013-02-02T08:51:46Z</time>
      </trkpt>
      <trkpt lat="45.01124" lon="5.53226">
        <ele>1385</ele>
        <time>2013-02-02T08:51:51Z</time>
      </trkpt>
      <trkpt lat="45.01121" lon="5.53227">
        <ele>1386</ele>
        <time>2013-02-02T08:51:56Z</time>
      </trkpt>
      <trkpt lat="45.01119" lon="5.53228">
        <ele>1387</ele>
        <time>2013-02-02T08:52:01Z</time>
      </trkpt>
      <trkpt lat="45.01118" lon="5.5323">
        <ele>1387</ele>
        <time>2013-02-02T08:52:06Z</time>
      </trkpt>
      <trkpt lat="45.01116" lon="5.53231">
        <ele>1387</ele>
        <time>2013-02-02T08:52:11Z</time>
      </trkpt>
      <trkpt lat="45.01114" lon="5.53233">
        <ele>1388</ele>
        <time>2013-02-02T08:52:16Z</time>
      </trkpt>
      <trkpt lat="45.01112" lon="5.53235">
        <ele>1388</ele>
        <time>2013-02-02T08:52:21Z</time>
      </trkpt>
      <trkpt lat="45.01109" lon="5.53239">
        <ele>1388</ele>
        <time>2013-02-02T08:52:26Z</time>
      </trkpt>
      <trkpt lat="45.01106" lon="5.53241">
        <ele>1388</ele>
        <time>2013-02-02T08:52:31Z</time>
      </trkpt>
      <trkpt lat="45.01103" lon="5.53242">
        <ele>1389</ele>
        <time>2013-02-02T08:52:36Z</time>
      </trkpt>
      <trkpt lat="45.01101" lon="5.53244">
        <ele>1389</ele>
        <time>2013-02-02T08:52:41Z</time>
      </trkpt>
      <trkpt lat="45.011" lon="5.53245">
        <ele>1390</ele>
        <time>2013-02-02T08:52:46Z</time>
      </trkpt>
      <trkpt lat="45.01097" lon="5.53247">
        <ele>1391</ele>
        <time>2013-02-02T08:52:51Z</time>
      </trkpt>
      <trkpt lat="45.01095" lon="5.53251">
        <ele>1391</ele>
        <time>2013-02-02T08:52:56Z</time>
      </trkpt>
      <trkpt lat="45.01092" lon="5.53253">
        <ele>1391</ele>
        <time>2013-02-02T08:53:01Z</time>
      </trkpt>
      <trkpt lat="45.0109" lon="5.53254">
        <ele>1391</ele>
        <time>2013-02-02T08:53:06Z</time>
      </trkpt>
      <trkpt lat="45.01088" lon="5.53255">
        <ele>1391</ele>
        <time>2013-02-02T08:53:11Z</time>
      </trkpt>
      <trkpt lat="45.01086" lon="5.53257">
        <ele>1392</ele>
        <time>2013-02-02T08:53:16Z</time>
      </trkpt>
      <trkpt lat="45.01083" lon="5.53259">
        <ele>1392</ele>
        <time>2013-02-02T08:53:21Z</time>
      </trkpt>
      <trkpt lat="45.01082" lon="5.53259">
        <ele>1392</ele>
        <time>2013-02-02T08:53:26Z</time>
      </trkpt>
      <trkpt lat="45.01082" lon="5.53259">
        <ele>1392</ele>
        <time>2013-02-02T08:53:31Z</time>
      </trkpt>
      <trkpt lat="45.0108" lon="5.5326">
        <ele>1393</ele>
        <time>2013-02-02T08:53:36Z</time>
      </trkpt>
      <trkpt lat="45.01078" lon="5.53261">
        <ele>1394</ele>
        <time>2013-02-02T08:53:41Z</time>
      </trkpt>
      <trkpt lat="45.01077" lon="5.53263">
        <ele>1396</ele>
        <time>2013-02-02T08:53:46Z</time>
      </trkpt>
      <trkpt lat="45.01075" lon="5.53265">
        <ele>1397</ele>
        <time>2013-02-02T08:53:51Z</time>
      </trkpt>
      <trkpt lat="45.01074" lon="5.53267">
        <ele>1397</ele>
        <time>2013-02-02T08:53:56Z</time>
      </trkpt>
      <trkpt lat="45.01073" lon="5.5327">
        <ele>1398</ele>
        <time>2013-02-02T08:54:01Z</time>
      </trkpt>
      <trkpt lat="45.01072" lon="5.53272">
        <ele>1398</ele>
        <time>2013-02-02T08:54:06Z</time>
      </trkpt>
      <trkpt lat="45.0107" lon="5.53274">
        <ele>1398</ele>
        <time>2013-02-02T08:54:11Z</time>
      </trkpt>
      <trkpt lat="45.01068" lon="5.53276">
        <ele>1399</ele>
        <time>2013-02-02T08:54:16Z</time>
      </trkpt>
      <trkpt lat="45.01067" lon="5.53279">
        <ele>1399</ele>
        <time>2013-02-02T08:54:21Z</time>
      </trkpt>
      <trkpt lat="45.01066" lon="5.5328">
        <ele>1400</ele>
        <time>2013-02-02T08:54:26Z</time>
      </trkpt>
      <trkpt lat="45.01064" lon="5.53283">
        <ele>1401</ele>
        <time>2013-02-02T08:54:31Z</time>
      </trkpt>
      <trkpt lat="45.01063" lon="5.5329">
        <ele>1401</ele>
        <time>2013-02-02T08:54:36Z</time>
      </trkpt>
      <trkpt lat="45.01061" lon="5.53293">
        <ele>1401</ele>
        <time>2013-02-02T08:54:41Z</time>
      </trkpt>
      <trkpt lat="45.01058" lon="5.53295">
        <ele>1401</ele>
        <time>2013-02-02T08:54:46Z</time>
      </trkpt>
      <trkpt lat="45.01057" lon="5.53294">
        <ele>1402</ele>
        <time>2013-02-02T08:54:51Z</time>
      </trkpt>
      <trkpt lat="45.01052" lon="5.53296">
        <ele>1406</ele>
        <time>2013-02-02T09:03:01Z</time>
      </trkpt>
      <trkpt lat="45.01053" lon="5.53295">
        <ele>1408</ele>
        <time>2013-02-02T09:03:06Z</time>
      </trkpt>
      <trkpt lat="45.01053" lon="5.53295">
        <ele>1408</ele>
        <time>2013-02-02T09:03:11Z</time>
      </trkpt>
      <trkpt lat="45.01054" lon="5.53294">
        <ele>1409</ele>
        <time>2013-02-02T09:03:16Z</time>
      </trkpt>
      <trkpt lat="45.01054" lon="5.53293">
        <ele>1410</ele>
        <time>2013-02-02T09:03:21Z</time>
      </trkpt>
      <trkpt lat="45.01054" lon="5.53293">
        <ele>1409</ele>
        <time>2013-02-02T09:03:26Z</time>
      </trkpt>
      <trkpt lat="45.01054" lon="5.53293">
        <ele>1409</ele>
        <time>2013-02-02T09:03:31Z</time>
      </trkpt>
      <trkpt lat="45.01053" lon="5.53293">
        <ele>1409</ele>
        <time>2013-02-02T09:03:36Z</time>
      </trkpt>
      <trkpt lat="45.01053" lon="5.53295">
        <ele>1409</ele>
        <time>2013-02-02T09:03:41Z</time>
      </trkpt>
      <trkpt lat="45.01051" lon="5.53301">
        <ele>1409</ele>
        <time>2013-02-02T09:03:46Z</time>
      </trkpt>
      <trkpt lat="45.01051" lon="5.53304">
        <ele>1409</ele>
        <time>2013-02-02T09:03:51Z</time>
      </trkpt>
      <trkpt lat="45.01049" lon="5.53306">
        <ele>1409</ele>
        <time>2013-02-02T09:03:56Z</time>
      </trkpt>
      <trkpt lat="45.0105" lon="5.53308">
        <ele>1409</ele>
        <time>2013-02-02T09:04:01Z</time>
      </trkpt>
      <trkpt lat="45.01051" lon="5.53311">
        <ele>1409</ele>
        <time>2013-02-02T09:04:06Z</time>
      </trkpt>
      <trkpt lat="45.01053" lon="5.5331">
        <ele>1409</ele>
        <time>2013-02-02T09:04:11Z</time>
      </trkpt>
      <trkpt lat="45.01052" lon="5.53311">
        <ele>1409</ele>
        <time>2013-02-02T09:04:16Z</time>
      </trkpt>
      <trkpt lat="45.01052" lon="5.53311">
        <ele>1408</ele>
        <time>2013-02-02T09:04:21Z</time>
      </trkpt>
      <trkpt lat="45.01052" lon="5.53311">
        <ele>1408</ele>
        <time>2013-02-02T09:04:26Z</time>
      </trkpt>
      <trkpt lat="45.01051" lon="5.53311">
        <ele>1408</ele>
        <time>2013-02-02T09:04:31Z</time>
      </trkpt>
      <trkpt lat="45.01051" lon="5.53311">
        <ele>1408</ele>
        <time>2013-02-02T09:04:36Z</time>
      </trkpt>
      <trkpt lat="45.01051" lon="5.53311">
        <ele>1408</ele>
        <time>2013-02-02T09:04:41Z</time>
      </trkpt>
      <trkpt lat="45.01051" lon="5.53312">
        <ele>1407</ele>
        <time>2013-02-02T09:04:46Z</time>
      </trkpt>
      <trkpt lat="45.01051" lon="5.53312">
        <ele>1407</ele>
        <time>2013-02-02T09:04:51Z</time>
      </trkpt>
      <trkpt lat="45.01051" lon="5.53311">
        <ele>1407</ele>
        <time>2013-02-02T09:04:56Z</time>
      </trkpt>
      <trkpt lat="45.01051" lon="5.53311">
        <ele>1407</ele>
        <time>2013-02-02T09:05:01Z</time>
      </trkpt>
      <trkpt lat="45.0105" lon="5.53312">
        <ele>1407</ele>
        <time>2013-02-02T09:05:06Z</time>
      </trkpt>
      <trkpt lat="45.0105" lon="5.53312">
        <ele>1407</ele>
        <time>2013-02-02T09:05:11Z</time>
      </trkpt>
      <trkpt lat="45.0105" lon="5.53312">
        <ele>1407</ele>
        <time>2013-02-02T09:05:16Z</time>
      </trkpt>
      <trkpt lat="45.0105" lon="5.53312">
        <ele>1407</ele>
        <time>2013-02-02T09:05:21Z</time>
      </trkpt>
      <trkpt lat="45.0105" lon="5.53312">
        <ele>1407</ele>
        <time>2013-02-02T09:05:26Z</time>
      </trkpt>
      <trkpt lat="45.0105" lon="5.53312">
        <ele>1407</ele>
        <time>2013-02-02T09:05:31Z</time>
      </trkpt>
      <trkpt lat="45.0105" lon="5.53312">
        <ele>1407</ele>
        <time>2013-02-02T09:05:36Z</time>
      </trkpt>
      <trkpt lat="45.0105" lon="5.53313">
        <ele>1407</ele>
        <time>2013-02-02T09:05:41Z</time>
      </trkpt>
      <trkpt lat="45.0105" lon="5.53313">
        <ele>1407</ele>
        <time>2013-02-02T09:05:46Z</time>
      </trkpt>
      <trkpt lat="45.01051" lon="5.53312">
        <ele>1407</ele>
        <time>2013-02-02T09:05:51Z</time>
      </trkpt>
      <trkpt lat="45.01051" lon="5.53312">
        <ele>1407</ele>
        <time>2013-02-02T09:05:56Z</time>
      </trkpt>
      <trkpt lat="45.01051" lon="5.53312">
        <ele>1407</ele>
        <time>2013-02-02T09:06:01Z</time>
      </trkpt>
      <trkpt lat="45.01051" lon="5.53312">
        <ele>1407</ele>
        <time>2013-02-02T09:06:06Z</time>
      </trkpt>
      <trkpt lat="45.01051" lon="5.53312">
        <ele>1407</ele>
        <time>2013-02-02T09:06:11Z</time>
      </trkpt>
      <trkpt lat="45.01051" lon="5.53312">
        <ele>1407</ele>
        <time>2013-02-02T09:06:16Z</time>
      </trkpt>
      <trkpt lat="45.01051" lon="5.53312">
        <ele>1407</ele>
        <time>2013-02-02T09:06:21Z</time>
      </trkpt>
      <trkpt lat="45.01051" lon="5.53313">
        <ele>1407</ele>
        <time>2013-02-02T09:06:26Z</time>
      </trkpt>
      <trkpt lat="45.01051" lon="5.53313">
        <ele>1407</ele>
        <time>2013-02-02T09:06:31Z</time>
      </trkpt>
      <trkpt lat="45.01051" lon="5.53313">
        <ele>1407</ele>
        <time>2013-02-02T09:06:36Z</time>
      </trkpt>
      <trkpt lat="45.01051" lon="5.53313">
        <ele>1407</ele>
        <time>2013-02-02T09:06:41Z</time>
      </trkpt>
      <trkpt lat="45.0105" lon="5.53313">
        <ele>1407</ele>
        <time>2013-02-02T09:06:46Z</time>
      </trkpt>
      <trkpt lat="45.01051" lon="5.53313">
        <ele>1407</ele>
        <time>2013-02-02T09:06:51Z</time>
      </trkpt>
      <trkpt lat="45.0105" lon="5.53313">
        <ele>1407</ele>
        <time>2013-02-02T09:06:56Z</time>
      </trkpt>
      <trkpt lat="45.0105" lon="5.53313">
        <ele>1407</ele>
        <time>2013-02-02T09:07:01Z</time>
      </trkpt>
      <trkpt lat="45.0105" lon="5.53313">
        <ele>1407</ele>
        <time>2013-02-02T09:07:06Z</time>
      </trkpt>
      <trkpt lat="45.0105" lon="5.53313">
        <ele>1407</ele>
        <time>2013-02-02T09:07:11Z</time>
      </trkpt>
      <trkpt lat="45.0105" lon="5.53313">
        <ele>1407</ele>
        <time>2013-02-02T09:07:16Z</time>
      </trkpt>
      <trkpt lat="45.0105" lon="5.53313">
        <ele>1407</ele>
        <time>2013-02-02T09:07:21Z</time>
      </trkpt>
      <trkpt lat="45.0105" lon="5.53313">
        <ele>1407</ele>
        <time>2013-02-02T09:07:26Z</time>
      </trkpt>
      <trkpt lat="45.0105" lon="5.53313">
        <ele>1407</ele>
        <time>2013-02-02T09:07:31Z</time>
      </trkpt>
      <trkpt lat="45.0105" lon="5.53312">
        <ele>1407</ele>
        <time>2013-02-02T09:07:36Z</time>
      </trkpt>
      <trkpt lat="45.0105" lon="5.53313">
        <ele>1407</ele>
        <time>2013-02-02T09:07:41Z</time>
      </trkpt>
      <trkpt lat="45.0105" lon="5.53313">
        <ele>1407</ele>
        <time>2013-02-02T09:07:46Z</time>
      </trkpt>
      <trkpt lat="45.0105" lon="5.53313">
        <ele>1407</ele>
        <time>2013-02-02T09:07:51Z</time>
      </trkpt>
      <trkpt lat="45.0105" lon="5.53313">
        <ele>1407</ele>
        <time>2013-02-02T09:07:56Z</time>
      </trkpt>
      <trkpt lat="45.0105" lon="5.53313">
        <ele>1407</ele>
        <time>2013-02-02T09:08:01Z</time>
      </trkpt>
      <trkpt lat="45.01051" lon="5.53313">
        <ele>1406</ele>
        <time>2013-02-02T09:08:06Z</time>
      </trkpt>
      <trkpt lat="45.0105" lon="5.53314">
        <ele>1406</ele>
        <time>2013-02-02T09:08:11Z</time>
      </trkpt>
      <trkpt lat="45.01051" lon="5.53314">
        <ele>1407</ele>
        <time>2013-02-02T09:08:16Z</time>
      </trkpt>
      <trkpt lat="45.01051" lon="5.53314">
        <ele>1407</ele>
        <time>2013-02-02T09:08:21Z</time>
      </trkpt>
      <trkpt lat="45.01051" lon="5.53314">
        <ele>1407</ele>
        <time>2013-02-02T09:08:26Z</time>
      </trkpt>
      <trkpt lat="45.01051" lon="5.53313">
        <ele>1407</ele>
        <time>2013-02-02T09:08:31Z</time>
      </trkpt>
      <trkpt lat="45.01051" lon="5.53314">
        <ele>1408</ele>
        <time>2013-02-02T09:08:36Z</time>
      </trkpt>
      <trkpt lat="45.01051" lon="5.53314">
        <ele>1408</ele>
        <time>2013-02-02T09:08:41Z</time>
      </trkpt>
      <trkpt lat="45.01051" lon="5.53314">
        <ele>1408</ele>
        <time>2013-02-02T09:08:46Z</time>
      </trkpt>
      <trkpt lat="45.01051" lon="5.53314">
        <ele>1408</ele>
        <time>2013-02-02T09:08:51Z</time>
      </trkpt>
      <trkpt lat="45.01051" lon="5.53314">
        <ele>1408</ele>
        <time>2013-02-02T09:08:56Z</time>
      </trkpt>
      <trkpt lat="45.01051" lon="5.53314">
        <ele>1408</ele>
        <time>2013-02-02T09:09:01Z</time>
      </trkpt>
      <trkpt lat="45.01051" lon="5.53314">
        <ele>1408</ele>
        <time>2013-02-02T09:09:06Z</time>
      </trkpt>
      <trkpt lat="45.01051" lon="5.53314">
        <ele>1408</ele>
        <time>2013-02-02T09:09:11Z</time>
      </trkpt>
      <trkpt lat="45.01051" lon="5.53314">
        <ele>1408</ele>
        <time>2013-02-02T09:09:16Z</time>
      </trkpt>
      <trkpt lat="45.01051" lon="5.53314">
        <ele>1408</ele>
        <time>2013-02-02T09:09:21Z</time>
      </trkpt>
      <trkpt lat="45.01051" lon="5.53315">
        <ele>1408</ele>
        <time>2013-02-02T09:09:26Z</time>
      </trkpt>
      <trkpt lat="45.01047" lon="5.53317">
        <ele>1408</ele>
        <time>2013-02-02T09:09:31Z</time>
      </trkpt>
      <trkpt lat="45.01043" lon="5.53319">
        <ele>1409</ele>
        <time>2013-02-02T09:09:36Z</time>
      </trkpt>
      <trkpt lat="45.01038" lon="5.53321">
        <ele>1409</ele>
        <time>2013-02-02T09:09:41Z</time>
      </trkpt>
      <trkpt lat="45.01035" lon="5.53325">
        <ele>1411</ele>
        <time>2013-02-02T09:09:46Z</time>
      </trkpt>
      <trkpt lat="45.01033" lon="5.53326">
        <ele>1411</ele>
        <time>2013-02-02T09:09:51Z</time>
      </trkpt>
      <trkpt lat="45.01033" lon="5.53327">
        <ele>1411</ele>
        <time>2013-02-02T09:09:56Z</time>
      </trkpt>
      <trkpt lat="45.01032" lon="5.53329">
        <ele>1412</ele>
        <time>2013-02-02T09:10:01Z</time>
      </trkpt>
      <trkpt lat="45.01032" lon="5.53329">
        <ele>1412</ele>
        <time>2013-02-02T09:10:06Z</time>
      </trkpt>
      <trkpt lat="45.01032" lon="5.53329">
        <ele>1412</ele>
        <time>2013-02-02T09:10:11Z</time>
      </trkpt>
      <trkpt lat="45.01033" lon="5.53329">
        <ele>1413</ele>
        <time>2013-02-02T09:10:16Z</time>
      </trkpt>
      <trkpt lat="45.01033" lon="5.53329">
        <ele>1413</ele>
        <time>2013-02-02T09:10:21Z</time>
      </trkpt>
      <trkpt lat="45.01033" lon="5.53329">
        <ele>1413</ele>
        <time>2013-02-02T09:10:26Z</time>
      </trkpt>
      <trkpt lat="45.01033" lon="5.53329">
        <ele>1413</ele>
        <time>2013-02-02T09:10:31Z</time>
      </trkpt>
      <trkpt lat="45.01033" lon="5.53329">
        <ele>1413</ele>
        <time>2013-02-02T09:10:36Z</time>
      </trkpt>
      <trkpt lat="45.0103" lon="5.5333">
        <ele>1413</ele>
        <time>2013-02-02T09:10:41Z</time>
      </trkpt>
      <trkpt lat="45.01029" lon="5.5333">
        <ele>1413</ele>
        <time>2013-02-02T09:10:46Z</time>
      </trkpt>
      <trkpt lat="45.01027" lon="5.53329">
        <ele>1414</ele>
        <time>2013-02-02T09:12:01Z</time>
      </trkpt>
      <trkpt lat="45.01022" lon="5.53331">
        <ele>1415</ele>
        <time>2013-02-02T09:12:06Z</time>
      </trkpt>
      <trkpt lat="45.01019" lon="5.53334">
        <ele>1416</ele>
        <time>2013-02-02T09:12:11Z</time>
      </trkpt>
      <trkpt lat="45.01014" lon="5.53337">
        <ele>1417</ele>
        <time>2013-02-02T09:12:16Z</time>
      </trkpt>
      <trkpt lat="45.01011" lon="5.53339">
        <ele>1418</ele>
        <time>2013-02-02T09:12:21Z</time>
      </trkpt>
      <trkpt lat="45.01007" lon="5.53342">
        <ele>1419</ele>
        <time>2013-02-02T09:12:26Z</time>
      </trkpt>
      <trkpt lat="45.01002" lon="5.53343">
        <ele>1420</ele>
        <time>2013-02-02T09:12:31Z</time>
      </trkpt>
      <trkpt lat="45.00998" lon="5.53345">
        <ele>1421</ele>
        <time>2013-02-02T09:12:36Z</time>
      </trkpt>
      <trkpt lat="45.00995" lon="5.53346">
        <ele>1422</ele>
        <time>2013-02-02T09:12:41Z</time>
      </trkpt>
      <trkpt lat="45.00994" lon="5.53346">
        <ele>1423</ele>
        <time>2013-02-02T09:12:46Z</time>
      </trkpt>
      <trkpt lat="45.00991" lon="5.53347">
        <ele>1424</ele>
        <time>2013-02-02T09:12:51Z</time>
      </trkpt>
      <trkpt lat="45.00987" lon="5.53347">
        <ele>1425</ele>
        <time>2013-02-02T09:12:56Z</time>
      </trkpt>
      <trkpt lat="45.00985" lon="5.53347">
        <ele>1426</ele>
        <time>2013-02-02T09:13:01Z</time>
      </trkpt>
      <trkpt lat="45.00984" lon="5.53347">
        <ele>1428</ele>
        <time>2013-02-02T09:13:06Z</time>
      </trkpt>
      <trkpt lat="45.00982" lon="5.53347">
        <ele>1429</ele>
        <time>2013-02-02T09:13:11Z</time>
      </trkpt>
      <trkpt lat="45.00982" lon="5.53347">
        <ele>1428</ele>
        <time>2013-02-02T09:13:16Z</time>
      </trkpt>
      <trkpt lat="45.0098" lon="5.53347">
        <ele>1428</ele>
        <time>2013-02-02T09:13:21Z</time>
      </trkpt>
      <trkpt lat="45.00977" lon="5.53348">
        <ele>1428</ele>
        <time>2013-02-02T09:13:26Z</time>
      </trkpt>
      <trkpt lat="45.00974" lon="5.53349">
        <ele>1428</ele>
        <time>2013-02-02T09:13:31Z</time>
      </trkpt>
      <trkpt lat="45.00973" lon="5.53349">
        <ele>1429</ele>
        <time>2013-02-02T09:13:36Z</time>
      </trkpt>
      <trkpt lat="45.0097" lon="5.5335">
        <ele>1429</ele>
        <time>2013-02-02T09:13:41Z</time>
      </trkpt>
      <trkpt lat="45.00966" lon="5.5335">
        <ele>1429</ele>
        <time>2013-02-02T09:13:46Z</time>
      </trkpt>
      <trkpt lat="45.00962" lon="5.53351">
        <ele>1430</ele>
        <time>2013-02-02T09:13:51Z</time>
      </trkpt>
      <trkpt lat="45.00958" lon="5.53352">
        <ele>1431</ele>
        <time>2013-02-02T09:13:56Z</time>
      </trkpt>
      <trkpt lat="45.00953" lon="5.53354">
        <ele>1431</ele>
        <time>2013-02-02T09:14:01Z</time>
      </trkpt>
      <trkpt lat="45.00949" lon="5.53356">
        <ele>1432</ele>
        <time>2013-02-02T09:14:06Z</time>
      </trkpt>
      <trkpt lat="45.00946" lon="5.53358">
        <ele>1432</ele>
        <time>2013-02-02T09:14:11Z</time>
      </trkpt>
      <trkpt lat="45.00943" lon="5.5336">
        <ele>1433</ele>
        <time>2013-02-02T09:14:16Z</time>
      </trkpt>
      <trkpt lat="45.0094" lon="5.5336">
        <ele>1433</ele>
        <time>2013-02-02T09:14:21Z</time>
      </trkpt>
      <trkpt lat="45.00937" lon="5.53362">
        <ele>1434</ele>
        <time>2013-02-02T09:14:26Z</time>
      </trkpt>
      <trkpt lat="45.00934" lon="5.53362">
        <ele>1435</ele>
        <time>2013-02-02T09:14:31Z</time>
      </trkpt>
      <trkpt lat="45.0093" lon="5.53363">
        <ele>1436</ele>
        <time>2013-02-02T09:14:36Z</time>
      </trkpt>
      <trkpt lat="45.00928" lon="5.53362">
        <ele>1437</ele>
        <time>2013-02-02T09:14:41Z</time>
      </trkpt>
      <trkpt lat="45.00926" lon="5.53363">
        <ele>1438</ele>
        <time>2013-02-02T09:14:46Z</time>
      </trkpt>
      <trkpt lat="45.00924" lon="5.53362">
        <ele>1440</ele>
        <time>2013-02-02T09:14:51Z</time>
      </trkpt>
      <trkpt lat="45.00922" lon="5.53362">
        <ele>1441</ele>
        <time>2013-02-02T09:14:56Z</time>
      </trkpt>
      <trkpt lat="45.00919" lon="5.53363">
        <ele>1442</ele>
        <time>2013-02-02T09:15:01Z</time>
      </trkpt>
      <trkpt lat="45.00919" lon="5.53363">
        <ele>1444</ele>
        <time>2013-02-02T09:15:06Z</time>
      </trkpt>
      <trkpt lat="45.0092" lon="5.53362">
        <ele>1445</ele>
        <time>2013-02-02T09:15:11Z</time>
      </trkpt>
      <trkpt lat="45.00917" lon="5.53363">
        <ele>1445</ele>
        <time>2013-02-02T09:15:16Z</time>
      </trkpt>
      <trkpt lat="45.00914" lon="5.53363">
        <ele>1446</ele>
        <time>2013-02-02T09:15:21Z</time>
      </trkpt>
      <trkpt lat="45.00911" lon="5.53363">
        <ele>1444</ele>
        <time>2013-02-02T09:15:26Z</time>
      </trkpt>
      <trkpt lat="45.00908" lon="5.53363">
        <ele>1443</ele>
        <time>2013-02-02T09:15:31Z</time>
      </trkpt>
      <trkpt lat="45.00905" lon="5.53362">
        <ele>1444</ele>
        <time>2013-02-02T09:15:36Z</time>
      </trkpt>
      <trkpt lat="45.00901" lon="5.53362">
        <ele>1446</ele>
        <time>2013-02-02T09:15:41Z</time>
      </trkpt>
      <trkpt lat="45.00898" lon="5.53361">
        <ele>1448</ele>
        <time>2013-02-02T09:15:46Z</time>
      </trkpt>
      <trkpt lat="45.00893" lon="5.53359">
        <ele>1449</ele>
        <time>2013-02-02T09:15:51Z</time>
      </trkpt>
      <trkpt lat="45.00889" lon="5.53358">
        <ele>1451</ele>
        <time>2013-02-02T09:15:56Z</time>
      </trkpt>
      <trkpt lat="45.00884" lon="5.53355">
        <ele>1452</ele>
        <time>2013-02-02T09:16:01Z</time>
      </trkpt>
      <trkpt lat="45.00877" lon="5.53352">
        <ele>1454</ele>
        <time>2013-02-02T09:16:06Z</time>
      </trkpt>
      <trkpt lat="45.00874" lon="5.53349">
        <ele>1454</ele>
        <time>2013-02-02T09:16:11Z</time>
      </trkpt>
      <trkpt lat="45.00871" lon="5.53347">
        <ele>1454</ele>
        <time>2013-02-02T09:16:16Z</time>
      </trkpt>
      <trkpt lat="45.00868" lon="5.53345">
        <ele>1455</ele>
        <time>2013-02-02T09:16:21Z</time>
      </trkpt>
      <trkpt lat="45.00863" lon="5.53341">
        <ele>1457</ele>
        <time>2013-02-02T09:16:26Z</time>
      </trkpt>
      <trkpt lat="45.0086" lon="5.53338">
        <ele>1459</ele>
        <time>2013-02-02T09:16:31Z</time>
      </trkpt>
      <trkpt lat="45.00858" lon="5.53337">
        <ele>1459</ele>
        <time>2013-02-02T09:16:36Z</time>
      </trkpt>
      <trkpt lat="45.00856" lon="5.53336">
        <ele>1459</ele>
        <time>2013-02-02T09:16:41Z</time>
      </trkpt>
      <trkpt lat="45.00855" lon="5.53338">
        <ele>1461</ele>
        <time>2013-02-02T09:16:46Z</time>
      </trkpt>
      <trkpt lat="45.00855" lon="5.53338">
        <ele>1461</ele>
        <time>2013-02-02T09:16:51Z</time>
      </trkpt>
      <trkpt lat="45.00854" lon="5.53337">
        <ele>1462</ele>
        <time>2013-02-02T09:16:56Z</time>
      </trkpt>
      <trkpt lat="45.00854" lon="5.53336">
        <ele>1462</ele>
        <time>2013-02-02T09:17:01Z</time>
      </trkpt>
      <trkpt lat="45.00854" lon="5.53336">
        <ele>1461</ele>
        <time>2013-02-02T09:17:06Z</time>
      </trkpt>
      <trkpt lat="45.00854" lon="5.53336">
        <ele>1460</ele>
        <time>2013-02-02T09:17:11Z</time>
      </trkpt>
      <trkpt lat="45.00853" lon="5.53335">
        <ele>1461</ele>
        <time>2013-02-02T09:17:16Z</time>
      </trkpt>
      <trkpt lat="45.00852" lon="5.53333">
        <ele>1461</ele>
        <time>2013-02-02T09:17:21Z</time>
      </trkpt>
      <trkpt lat="45.0085" lon="5.53332">
        <ele>1462</ele>
        <time>2013-02-02T09:17:26Z</time>
      </trkpt>
      <trkpt lat="45.00848" lon="5.5333">
        <ele>1463</ele>
        <time>2013-02-02T09:17:31Z</time>
      </trkpt>
      <trkpt lat="45.00847" lon="5.53328">
        <ele>1463</ele>
        <time>2013-02-02T09:17:36Z</time>
      </trkpt>
      <trkpt lat="45.00845" lon="5.53327">
        <ele>1462</ele>
        <time>2013-02-02T09:17:41Z</time>
      </trkpt>
      <trkpt lat="45.00844" lon="5.53327">
        <ele>1463</ele>
        <time>2013-02-02T09:17:46Z</time>
      </trkpt>
      <trkpt lat="45.00842" lon="5.53325">
        <ele>1464</ele>
        <time>2013-02-02T09:17:51Z</time>
      </trkpt>
      <trkpt lat="45.00839" lon="5.53325">
        <ele>1464</ele>
        <time>2013-02-02T09:17:56Z</time>
      </trkpt>
      <trkpt lat="45.00837" lon="5.53324">
        <ele>1463</ele>
        <time>2013-02-02T09:18:01Z</time>
      </trkpt>
      <trkpt lat="45.00835" lon="5.53322">
        <ele>1464</ele>
        <time>2013-02-02T09:18:06Z</time>
      </trkpt>
      <trkpt lat="45.00832" lon="5.53321">
        <ele>1465</ele>
        <time>2013-02-02T09:18:11Z</time>
      </trkpt>
      <trkpt lat="45.00831" lon="5.53321">
        <ele>1466</ele>
        <time>2013-02-02T09:18:16Z</time>
      </trkpt>
      <trkpt lat="45.00828" lon="5.53321">
        <ele>1466</ele>
        <time>2013-02-02T09:18:21Z</time>
      </trkpt>
      <trkpt lat="45.00826" lon="5.5332">
        <ele>1467</ele>
        <time>2013-02-02T09:18:26Z</time>
      </trkpt>
      <trkpt lat="45.00824" lon="5.53319">
        <ele>1468</ele>
        <time>2013-02-02T09:18:31Z</time>
      </trkpt>
      <trkpt lat="45.00822" lon="5.53317">
        <ele>1469</ele>
        <time>2013-02-02T09:18:36Z</time>
      </trkpt>
      <trkpt lat="45.00819" lon="5.53317">
        <ele>1468</ele>
        <time>2013-02-02T09:18:41Z</time>
      </trkpt>
      <trkpt lat="45.00818" lon="5.53317">
        <ele>1469</ele>
        <time>2013-02-02T09:18:46Z</time>
      </trkpt>
      <trkpt lat="45.00815" lon="5.53317">
        <ele>1469</ele>
        <time>2013-02-02T09:18:51Z</time>
      </trkpt>
      <trkpt lat="45.00813" lon="5.53317">
        <ele>1469</ele>
        <time>2013-02-02T09:18:56Z</time>
      </trkpt>
      <trkpt lat="45.00812" lon="5.53317">
        <ele>1470</ele>
        <time>2013-02-02T09:19:01Z</time>
      </trkpt>
      <trkpt lat="45.00812" lon="5.53317">
        <ele>1471</ele>
        <time>2013-02-02T09:19:06Z</time>
      </trkpt>
      <trkpt lat="45.00811" lon="5.53316">
        <ele>1472</ele>
        <time>2013-02-02T09:19:11Z</time>
      </trkpt>
      <trkpt lat="45.00808" lon="5.53314">
        <ele>1473</ele>
        <time>2013-02-02T09:19:16Z</time>
      </trkpt>
      <trkpt lat="45.00806" lon="5.53315">
        <ele>1473</ele>
        <time>2013-02-02T09:19:21Z</time>
      </trkpt>
      <trkpt lat="45.00803" lon="5.53315">
        <ele>1474</ele>
        <time>2013-02-02T09:19:26Z</time>
      </trkpt>
      <trkpt lat="45.00802" lon="5.53315">
        <ele>1474</ele>
        <time>2013-02-02T09:19:31Z</time>
      </trkpt>
      <trkpt lat="45.00802" lon="5.53315">
        <ele>1474</ele>
        <time>2013-02-02T09:19:36Z</time>
      </trkpt>
      <trkpt lat="45.00799" lon="5.53315">
        <ele>1474</ele>
        <time>2013-02-02T09:19:41Z</time>
      </trkpt>
      <trkpt lat="45.00799" lon="5.53317">
        <ele>1475</ele>
        <time>2013-02-02T09:19:46Z</time>
      </trkpt>
      <trkpt lat="45.00799" lon="5.53318">
        <ele>1476</ele>
        <time>2013-02-02T09:19:51Z</time>
      </trkpt>
      <trkpt lat="45.00797" lon="5.5332">
        <ele>1476</ele>
        <time>2013-02-02T09:19:56Z</time>
      </trkpt>
      <trkpt lat="45.00796" lon="5.53319">
        <ele>1476</ele>
        <time>2013-02-02T09:20:01Z</time>
      </trkpt>
      <trkpt lat="45.00793" lon="5.5332">
        <ele>1475</ele>
        <time>2013-02-02T09:20:06Z</time>
      </trkpt>
      <trkpt lat="45.00791" lon="5.5332">
        <ele>1475</ele>
        <time>2013-02-02T09:20:11Z</time>
      </trkpt>
      <trkpt lat="45.00789" lon="5.53321">
        <ele>1475</ele>
        <time>2013-02-02T09:20:16Z</time>
      </trkpt>
      <trkpt lat="45.00787" lon="5.5332">
        <ele>1476</ele>
        <time>2013-02-02T09:20:21Z</time>
      </trkpt>
      <trkpt lat="45.00785" lon="5.53321">
        <ele>1477</ele>
        <time>2013-02-02T09:20:26Z</time>
      </trkpt>
      <trkpt lat="45.00782" lon="5.53321">
        <ele>1477</ele>
        <time>2013-02-02T09:20:31Z</time>
      </trkpt>
      <trkpt lat="45.0078" lon="5.53322">
        <ele>1478</ele>
        <time>2013-02-02T09:20:36Z</time>
      </trkpt>
      <trkpt lat="45.00778" lon="5.53324">
        <ele>1478</ele>
        <time>2013-02-02T09:20:41Z</time>
      </trkpt>
      <trkpt lat="45.00776" lon="5.53326">
        <ele>1478</ele>
        <time>2013-02-02T09:20:46Z</time>
      </trkpt>
      <trkpt lat="45.00774" lon="5.53328">
        <ele>1479</ele>
        <time>2013-02-02T09:20:51Z</time>
      </trkpt>
      <trkpt lat="45.00772" lon="5.53331">
        <ele>1479</ele>
        <time>2013-02-02T09:20:56Z</time>
      </trkpt>
      <trkpt lat="45.0077" lon="5.53332">
        <ele>1480</ele>
        <time>2013-02-02T09:21:01Z</time>
      </trkpt>
      <trkpt lat="45.00767" lon="5.53334">
        <ele>1480</ele>
        <time>2013-02-02T09:21:06Z</time>
      </trkpt>
      <trkpt lat="45.00764" lon="5.53335">
        <ele>1481</ele>
        <time>2013-02-02T09:21:11Z</time>
      </trkpt>
      <trkpt lat="45.00761" lon="5.53336">
        <ele>1482</ele>
        <time>2013-02-02T09:21:16Z</time>
      </trkpt>
      <trkpt lat="45.0076" lon="5.53337">
        <ele>1482</ele>
        <time>2013-02-02T09:21:21Z</time>
      </trkpt>
      <trkpt lat="45.0076" lon="5.53336">
        <ele>1482</ele>
        <time>2013-02-02T09:21:26Z</time>
      </trkpt>
      <trkpt lat="45.00759" lon="5.53335">
        <ele>1483</ele>
        <time>2013-02-02T09:21:31Z</time>
      </trkpt>
      <trkpt lat="45.00759" lon="5.53336">
        <ele>1482</ele>
        <time>2013-02-02T09:21:36Z</time>
      </trkpt>
      <trkpt lat="45.00758" lon="5.53335">
        <ele>1483</ele>
        <time>2013-02-02T09:21:41Z</time>
      </trkpt>
      <trkpt lat="45.00758" lon="5.53335">
        <ele>1483</ele>
        <time>2013-02-02T09:21:46Z</time>
      </trkpt>
      <trkpt lat="45.00757" lon="5.53334">
        <ele>1484</ele>
        <time>2013-02-02T09:21:51Z</time>
      </trkpt>
      <trkpt lat="45.00757" lon="5.53333">
        <ele>1484</ele>
        <time>2013-02-02T09:21:56Z</time>
      </trkpt>
      <trkpt lat="45.00756" lon="5.53332">
        <ele>1485</ele>
        <time>2013-02-02T09:22:01Z</time>
      </trkpt>
      <trkpt lat="45.00755" lon="5.53331">
        <ele>1485</ele>
        <time>2013-02-02T09:22:06Z</time>
      </trkpt>
      <trkpt lat="45.00755" lon="5.53331">
        <ele>1484</ele>
        <time>2013-02-02T09:22:11Z</time>
      </trkpt>
      <trkpt lat="45.00755" lon="5.53331">
        <ele>1484</ele>
        <time>2013-02-02T09:22:16Z</time>
      </trkpt>
      <trkpt lat="45.00756" lon="5.53332">
        <ele>1484</ele>
        <time>2013-02-02T09:22:21Z</time>
      </trkpt>
      <trkpt lat="45.00755" lon="5.53331">
        <ele>1484</ele>
        <time>2013-02-02T09:22:26Z</time>
      </trkpt>
      <trkpt lat="45.00755" lon="5.53331">
        <ele>1484</ele>
        <time>2013-02-02T09:22:31Z</time>
      </trkpt>
      <trkpt lat="45.00755" lon="5.53331">
        <ele>1483</ele>
        <time>2013-02-02T09:22:36Z</time>
      </trkpt>
      <trkpt lat="45.00755" lon="5.53332">
        <ele>1483</ele>
        <time>2013-02-02T09:22:41Z</time>
      </trkpt>
      <trkpt lat="45.00755" lon="5.53332">
        <ele>1483</ele>
        <time>2013-02-02T09:22:46Z</time>
      </trkpt>
      <trkpt lat="45.00755" lon="5.53332">
        <ele>1483</ele>
        <time>2013-02-02T09:22:51Z</time>
      </trkpt>
      <trkpt lat="45.00755" lon="5.53333">
        <ele>1483</ele>
        <time>2013-02-02T09:22:56Z</time>
      </trkpt>
      <trkpt lat="45.00755" lon="5.53333">
        <ele>1482</ele>
        <time>2013-02-02T09:23:01Z</time>
      </trkpt>
      <trkpt lat="45.00756" lon="5.53333">
        <ele>1483</ele>
        <time>2013-02-02T09:23:06Z</time>
      </trkpt>
      <trkpt lat="45.00756" lon="5.53332">
        <ele>1484</ele>
        <time>2013-02-02T09:23:11Z</time>
      </trkpt>
      <trkpt lat="45.00756" lon="5.53332">
        <ele>1485</ele>
        <time>2013-02-02T09:23:16Z</time>
      </trkpt>
      <trkpt lat="45.00757" lon="5.53333">
        <ele>1484</ele>
        <time>2013-02-02T09:23:21Z</time>
      </trkpt>
      <trkpt lat="45.00757" lon="5.53332">
        <ele>1484</ele>
        <time>2013-02-02T09:23:26Z</time>
      </trkpt>
      <trkpt lat="45.00758" lon="5.53332">
        <ele>1485</ele>
        <time>2013-02-02T09:23:31Z</time>
      </trkpt>
      <trkpt lat="45.00758" lon="5.53331">
        <ele>1486</ele>
        <time>2013-02-02T09:23:36Z</time>
      </trkpt>
      <trkpt lat="45.00757" lon="5.53332">
        <ele>1484</ele>
        <time>2013-02-02T09:23:41Z</time>
      </trkpt>
      <trkpt lat="45.00753" lon="5.53334">
        <ele>1483</ele>
        <time>2013-02-02T09:23:46Z</time>
      </trkpt>
      <trkpt lat="45.0075" lon="5.53335">
        <ele>1483</ele>
        <time>2013-02-02T09:23:51Z</time>
      </trkpt>
      <trkpt lat="45.00747" lon="5.53334">
        <ele>1484</ele>
        <time>2013-02-02T09:23:56Z</time>
      </trkpt>
      <trkpt lat="45.00744" lon="5.53334">
        <ele>1485</ele>
        <time>2013-02-02T09:24:01Z</time>
      </trkpt>
      <trkpt lat="45.0074" lon="5.53335">
        <ele>1486</ele>
        <time>2013-02-02T09:24:06Z</time>
      </trkpt>
      <trkpt lat="45.00736" lon="5.53335">
        <ele>1486</ele>
        <time>2013-02-02T09:24:11Z</time>
      </trkpt>
      <trkpt lat="45.00732" lon="5.53335">
        <ele>1486</ele>
        <time>2013-02-02T09:24:16Z</time>
      </trkpt>
      <trkpt lat="45.00728" lon="5.53335">
        <ele>1486</ele>
        <time>2013-02-02T09:24:21Z</time>
      </trkpt>
      <trkpt lat="45.00723" lon="5.53335">
        <ele>1486</ele>
        <time>2013-02-02T09:24:26Z</time>
      </trkpt>
      <trkpt lat="45.0072" lon="5.53336">
        <ele>1486</ele>
        <time>2013-02-02T09:24:31Z</time>
      </trkpt>
      <trkpt lat="45.00716" lon="5.53337">
        <ele>1487</ele>
        <time>2013-02-02T09:24:36Z</time>
      </trkpt>
      <trkpt lat="45.00713" lon="5.53338">
        <ele>1488</ele>
        <time>2013-02-02T09:24:41Z</time>
      </trkpt>
      <trkpt lat="45.0071" lon="5.5334">
        <ele>1488</ele>
        <time>2013-02-02T09:24:46Z</time>
      </trkpt>
      <trkpt lat="45.00706" lon="5.53342">
        <ele>1489</ele>
        <time>2013-02-02T09:24:51Z</time>
      </trkpt>
      <trkpt lat="45.00702" lon="5.53343">
        <ele>1489</ele>
        <time>2013-02-02T09:24:56Z</time>
      </trkpt>
      <trkpt lat="45.00698" lon="5.53342">
        <ele>1489</ele>
        <time>2013-02-02T09:25:01Z</time>
      </trkpt>
      <trkpt lat="45.00695" lon="5.53343">
        <ele>1490</ele>
        <time>2013-02-02T09:25:06Z</time>
      </trkpt>
      <trkpt lat="45.00692" lon="5.53343">
        <ele>1491</ele>
        <time>2013-02-02T09:25:11Z</time>
      </trkpt>
      <trkpt lat="45.00689" lon="5.53344">
        <ele>1492</ele>
        <time>2013-02-02T09:25:16Z</time>
      </trkpt>
      <trkpt lat="45.00687" lon="5.53346">
        <ele>1494</ele>
        <time>2013-02-02T09:25:21Z</time>
      </trkpt>
      <trkpt lat="45.00685" lon="5.53348">
        <ele>1495</ele>
        <time>2013-02-02T09:25:26Z</time>
      </trkpt>
      <trkpt lat="45.00681" lon="5.5335">
        <ele>1495</ele>
        <time>2013-02-02T09:25:31Z</time>
      </trkpt>
      <trkpt lat="45.00678" lon="5.53352">
        <ele>1495</ele>
        <time>2013-02-02T09:25:36Z</time>
      </trkpt>
      <trkpt lat="45.00675" lon="5.53354">
        <ele>1496</ele>
        <time>2013-02-02T09:25:41Z</time>
      </trkpt>
      <trkpt lat="45.00672" lon="5.53356">
        <ele>1496</ele>
        <time>2013-02-02T09:25:46Z</time>
      </trkpt>
      <trkpt lat="45.00669" lon="5.53358">
        <ele>1497</ele>
        <time>2013-02-02T09:25:51Z</time>
      </trkpt>
      <trkpt lat="45.00666" lon="5.53358">
        <ele>1497</ele>
        <time>2013-02-02T09:25:56Z</time>
      </trkpt>
      <trkpt lat="45.00663" lon="5.53359">
        <ele>1498</ele>
        <time>2013-02-02T09:26:01Z</time>
      </trkpt>
      <trkpt lat="45.0066" lon="5.53359">
        <ele>1499</ele>
        <time>2013-02-02T09:26:06Z</time>
      </trkpt>
      <trkpt lat="45.00657" lon="5.53359">
        <ele>1499</ele>
        <time>2013-02-02T09:26:11Z</time>
      </trkpt>
      <trkpt lat="45.00654" lon="5.53359">
        <ele>1500</ele>
        <time>2013-02-02T09:26:16Z</time>
      </trkpt>
      <trkpt lat="45.00652" lon="5.5336">
        <ele>1500</ele>
        <time>2013-02-02T09:26:21Z</time>
      </trkpt>
      <trkpt lat="45.00649" lon="5.5336">
        <ele>1500</ele>
        <time>2013-02-02T09:26:26Z</time>
      </trkpt>
      <trkpt lat="45.00646" lon="5.53358">
        <ele>1501</ele>
        <time>2013-02-02T09:26:31Z</time>
      </trkpt>
      <trkpt lat="45.00642" lon="5.53357">
        <ele>1502</ele>
        <time>2013-02-02T09:26:36Z</time>
      </trkpt>
      <trkpt lat="45.0064" lon="5.53356">
        <ele>1503</ele>
        <time>2013-02-02T09:26:41Z</time>
      </trkpt>
      <trkpt lat="45.00638" lon="5.53355">
        <ele>1503</ele>
        <time>2013-02-02T09:26:46Z</time>
      </trkpt>
      <trkpt lat="45.00635" lon="5.53355">
        <ele>1504</ele>
        <time>2013-02-02T09:26:51Z</time>
      </trkpt>
      <trkpt lat="45.00632" lon="5.53354">
        <ele>1505</ele>
        <time>2013-02-02T09:26:56Z</time>
      </trkpt>
      <trkpt lat="45.0063" lon="5.53354">
        <ele>1506</ele>
        <time>2013-02-02T09:27:01Z</time>
      </trkpt>
      <trkpt lat="45.00627" lon="5.53353">
        <ele>1507</ele>
        <time>2013-02-02T09:27:06Z</time>
      </trkpt>
      <trkpt lat="45.00624" lon="5.53353">
        <ele>1508</ele>
        <time>2013-02-02T09:27:11Z</time>
      </trkpt>
      <trkpt lat="45.00621" lon="5.53352">
        <ele>1508</ele>
        <time>2013-02-02T09:27:16Z</time>
      </trkpt>
      <trkpt lat="45.0062" lon="5.53351">
        <ele>1509</ele>
        <time>2013-02-02T09:27:21Z</time>
      </trkpt>
      <trkpt lat="45.00618" lon="5.53349">
        <ele>1508</ele>
        <time>2013-02-02T09:27:26Z</time>
      </trkpt>
      <trkpt lat="45.00615" lon="5.53341">
        <ele>1507</ele>
        <time>2013-02-02T09:27:31Z</time>
      </trkpt>
      <trkpt lat="45.00612" lon="5.53339">
        <ele>1508</ele>
        <time>2013-02-02T09:27:36Z</time>
      </trkpt>
      <trkpt lat="45.00612" lon="5.53339">
        <ele>1507</ele>
        <time>2013-02-02T09:27:41Z</time>
      </trkpt>
      <trkpt lat="45.00612" lon="5.53339">
        <ele>1507</ele>
        <time>2013-02-02T09:27:46Z</time>
      </trkpt>
      <trkpt lat="45.00612" lon="5.53339">
        <ele>1507</ele>
        <time>2013-02-02T09:27:51Z</time>
      </trkpt>
      <trkpt lat="45.00612" lon="5.53338">
        <ele>1507</ele>
        <time>2013-02-02T09:27:56Z</time>
      </trkpt>
      <trkpt lat="45.00611" lon="5.53338">
        <ele>1507</ele>
        <time>2013-02-02T09:28:01Z</time>
      </trkpt>
      <trkpt lat="45.00609" lon="5.53338">
        <ele>1508</ele>
        <time>2013-02-02T09:28:06Z</time>
      </trkpt>
      <trkpt lat="45.00606" lon="5.53335">
        <ele>1510</ele>
        <time>2013-02-02T09:28:11Z</time>
      </trkpt>
      <trkpt lat="45.00603" lon="5.53334">
        <ele>1512</ele>
        <time>2013-02-02T09:28:16Z</time>
      </trkpt>
      <trkpt lat="45.006" lon="5.53333">
        <ele>1511</ele>
        <time>2013-02-02T09:28:21Z</time>
      </trkpt>
      <trkpt lat="45.00597" lon="5.53332">
        <ele>1510</ele>
        <time>2013-02-02T09:28:26Z</time>
      </trkpt>
      <trkpt lat="45.00594" lon="5.53331">
        <ele>1511</ele>
        <time>2013-02-02T09:28:31Z</time>
      </trkpt>
      <trkpt lat="45.00591" lon="5.53332">
        <ele>1511</ele>
        <time>2013-02-02T09:28:36Z</time>
      </trkpt>
      <trkpt lat="45.00589" lon="5.53332">
        <ele>1512</ele>
        <time>2013-02-02T09:28:41Z</time>
      </trkpt>
      <trkpt lat="45.00589" lon="5.53332">
        <ele>1512</ele>
        <time>2013-02-02T09:28:46Z</time>
      </trkpt>
      <trkpt lat="45.00589" lon="5.53332">
        <ele>1512</ele>
        <time>2013-02-02T09:28:51Z</time>
      </trkpt>
      <trkpt lat="45.00588" lon="5.53333">
        <ele>1511</ele>
        <time>2013-02-02T09:28:56Z</time>
      </trkpt>
      <trkpt lat="45.00588" lon="5.53333">
        <ele>1511</ele>
        <time>2013-02-02T09:29:01Z</time>
      </trkpt>
      <trkpt lat="45.00588" lon="5.53332">
        <ele>1511</ele>
        <time>2013-02-02T09:29:06Z</time>
      </trkpt>
      <trkpt lat="45.00588" lon="5.53332">
        <ele>1511</ele>
        <time>2013-02-02T09:29:11Z</time>
      </trkpt>
      <trkpt lat="45.00588" lon="5.53332">
        <ele>1511</ele>
        <time>2013-02-02T09:29:16Z</time>
      </trkpt>
      <trkpt lat="45.00588" lon="5.53333">
        <ele>1511</ele>
        <time>2013-02-02T09:29:21Z</time>
      </trkpt>
      <trkpt lat="45.00587" lon="5.53333">
        <ele>1511</ele>
        <time>2013-02-02T09:29:26Z</time>
      </trkpt>
      <trkpt lat="45.00586" lon="5.53333">
        <ele>1512</ele>
        <time>2013-02-02T09:29:31Z</time>
      </trkpt>
      <trkpt lat="45.00586" lon="5.53336">
        <ele>1513</ele>
        <time>2013-02-02T09:29:36Z</time>
      </trkpt>
      <trkpt lat="45.00587" lon="5.53338">
        <ele>1515</ele>
        <time>2013-02-02T09:29:41Z</time>
      </trkpt>
      <trkpt lat="45.00588" lon="5.53341">
        <ele>1515</ele>
        <time>2013-02-02T09:29:46Z</time>
      </trkpt>
      <trkpt lat="45.00588" lon="5.53341">
        <ele>1515</ele>
        <time>2013-02-02T09:29:51Z</time>
      </trkpt>
      <trkpt lat="45.00589" lon="5.53343">
        <ele>1516</ele>
        <time>2013-02-02T09:29:56Z</time>
      </trkpt>
      <trkpt lat="45.00588" lon="5.53344">
        <ele>1516</ele>
        <time>2013-02-02T09:30:01Z</time>
      </trkpt>
      <trkpt lat="45.00586" lon="5.53343">
        <ele>1515</ele>
        <time>2013-02-02T09:30:06Z</time>
      </trkpt>
      <trkpt lat="45.00583" lon="5.53342">
        <ele>1516</ele>
        <time>2013-02-02T09:30:11Z</time>
      </trkpt>
      <trkpt lat="45.0058" lon="5.53341">
        <ele>1517</ele>
        <time>2013-02-02T09:30:16Z</time>
      </trkpt>
      <trkpt lat="45.00576" lon="5.5334">
        <ele>1517</ele>
        <time>2013-02-02T09:30:21Z</time>
      </trkpt>
      <trkpt lat="45.00573" lon="5.53341">
        <ele>1518</ele>
        <time>2013-02-02T09:30:26Z</time>
      </trkpt>
      <trkpt lat="45.0057" lon="5.53342">
        <ele>1518</ele>
        <time>2013-02-02T09:30:31Z</time>
      </trkpt>
      <trkpt lat="45.00566" lon="5.53344">
        <ele>1519</ele>
        <time>2013-02-02T09:30:36Z</time>
      </trkpt>
      <trkpt lat="45.00562" lon="5.53345">
        <ele>1519</ele>
        <time>2013-02-02T09:30:41Z</time>
      </trkpt>
      <trkpt lat="45.00558" lon="5.53346">
        <ele>1519</ele>
        <time>2013-02-02T09:30:46Z</time>
      </trkpt>
      <trkpt lat="45.00554" lon="5.53348">
        <ele>1519</ele>
        <time>2013-02-02T09:30:51Z</time>
      </trkpt>
      <trkpt lat="45.00552" lon="5.53349">
        <ele>1519</ele>
        <time>2013-02-02T09:30:56Z</time>
      </trkpt>
      <trkpt lat="45.00549" lon="5.53348">
        <ele>1520</ele>
        <time>2013-02-02T09:31:01Z</time>
      </trkpt>
      <trkpt lat="45.00547" lon="5.53348">
        <ele>1521</ele>
        <time>2013-02-02T09:31:06Z</time>
      </trkpt>
      <trkpt lat="45.00546" lon="5.53348">
        <ele>1522</ele>
        <time>2013-02-02T09:31:11Z</time>
      </trkpt>
      <trkpt lat="45.00546" lon="5.53348">
        <ele>1522</ele>
        <time>2013-02-02T09:31:16Z</time>
      </trkpt>
      <trkpt lat="45.00545" lon="5.53348">
        <ele>1522</ele>
        <time>2013-02-02T09:31:21Z</time>
      </trkpt>
      <trkpt lat="45.00543" lon="5.53347">
        <ele>1522</ele>
        <time>2013-02-02T09:31:26Z</time>
      </trkpt>
      <trkpt lat="45.00543" lon="5.53346">
        <ele>1522</ele>
        <time>2013-02-02T09:31:31Z</time>
      </trkpt>
      <trkpt lat="45.00541" lon="5.53346">
        <ele>1522</ele>
        <time>2013-02-02T09:31:36Z</time>
      </trkpt>
      <trkpt lat="45.00541" lon="5.53348">
        <ele>1522</ele>
        <time>2013-02-02T09:31:41Z</time>
      </trkpt>
      <trkpt lat="45.0054" lon="5.53348">
        <ele>1521</ele>
        <time>2013-02-02T09:31:46Z</time>
      </trkpt>
      <trkpt lat="45.00539" lon="5.53348">
        <ele>1520</ele>
        <time>2013-02-02T09:31:51Z</time>
      </trkpt>
      <trkpt lat="45.00539" lon="5.53348">
        <ele>1519</ele>
        <time>2013-02-02T09:31:56Z</time>
      </trkpt>
      <trkpt lat="45.00539" lon="5.53349">
        <ele>1519</ele>
        <time>2013-02-02T09:32:01Z</time>
      </trkpt>
      <trkpt lat="45.00541" lon="5.53351">
        <ele>1519</ele>
        <time>2013-02-02T09:32:06Z</time>
      </trkpt>
      <trkpt lat="45.00539" lon="5.5335">
        <ele>1519</ele>
        <time>2013-02-02T09:32:11Z</time>
      </trkpt>
      <trkpt lat="45.00536" lon="5.53348">
        <ele>1521</ele>
        <time>2013-02-02T09:32:16Z</time>
      </trkpt>
      <trkpt lat="45.00535" lon="5.53348">
        <ele>1523</ele>
        <time>2013-02-02T09:32:21Z</time>
      </trkpt>
      <trkpt lat="45.00534" lon="5.53349">
        <ele>1523</ele>
        <time>2013-02-02T09:32:26Z</time>
      </trkpt>
      <trkpt lat="45.00531" lon="5.53349">
        <ele>1522</ele>
        <time>2013-02-02T09:32:31Z</time>
      </trkpt>
      <trkpt lat="45.00531" lon="5.53349">
        <ele>1521</ele>
        <time>2013-02-02T09:32:36Z</time>
      </trkpt>
      <trkpt lat="45.0053" lon="5.53348">
        <ele>1520</ele>
        <time>2013-02-02T09:32:41Z</time>
      </trkpt>
      <trkpt lat="45.0053" lon="5.53347">
        <ele>1520</ele>
        <time>2013-02-02T09:32:46Z</time>
      </trkpt>
      <trkpt lat="45.00528" lon="5.53347">
        <ele>1521</ele>
        <time>2013-02-02T09:32:51Z</time>
      </trkpt>
      <trkpt lat="45.00528" lon="5.53347">
        <ele>1522</ele>
        <time>2013-02-02T09:32:56Z</time>
      </trkpt>
      <trkpt lat="45.00529" lon="5.53348">
        <ele>1522</ele>
        <time>2013-02-02T09:33:01Z</time>
      </trkpt>
      <trkpt lat="45.0053" lon="5.53351">
        <ele>1523</ele>
        <time>2013-02-02T09:33:06Z</time>
      </trkpt>
      <trkpt lat="45.00531" lon="5.53352">
        <ele>1524</ele>
        <time>2013-02-02T09:33:11Z</time>
      </trkpt>
      <trkpt lat="45.00532" lon="5.53351">
        <ele>1525</ele>
        <time>2013-02-02T09:33:16Z</time>
      </trkpt>
      <trkpt lat="45.00533" lon="5.53352">
        <ele>1525</ele>
        <time>2013-02-02T09:33:21Z</time>
      </trkpt>
      <trkpt lat="45.00534" lon="5.53353">
        <ele>1526</ele>
        <time>2013-02-02T09:33:26Z</time>
      </trkpt>
      <trkpt lat="45.00535" lon="5.53355">
        <ele>1526</ele>
        <time>2013-02-02T09:33:31Z</time>
      </trkpt>
      <trkpt lat="45.00536" lon="5.53358">
        <ele>1526</ele>
        <time>2013-02-02T09:33:36Z</time>
      </trkpt>
      <trkpt lat="45.00537" lon="5.53361">
        <ele>1527</ele>
        <time>2013-02-02T09:33:41Z</time>
      </trkpt>
      <trkpt lat="45.00538" lon="5.53365">
        <ele>1527</ele>
        <time>2013-02-02T09:33:46Z</time>
      </trkpt>
      <trkpt lat="45.00538" lon="5.53365">
        <ele>1527</ele>
        <time>2013-02-02T09:33:51Z</time>
      </trkpt>
      <trkpt lat="45.00539" lon="5.53367">
        <ele>1527</ele>
        <time>2013-02-02T09:33:56Z</time>
      </trkpt>
      <trkpt lat="45.00536" lon="5.53367">
        <ele>1527</ele>
        <time>2013-02-02T09:34:01Z</time>
      </trkpt>
      <trkpt lat="45.00533" lon="5.53367">
        <ele>1528</ele>
        <time>2013-02-02T09:34:06Z</time>
      </trkpt>
      <trkpt lat="45.00531" lon="5.53367">
        <ele>1528</ele>
        <time>2013-02-02T09:34:11Z</time>
      </trkpt>
      <trkpt lat="45.0053" lon="5.53367">
        <ele>1529</ele>
        <time>2013-02-02T09:34:16Z</time>
      </trkpt>
      <trkpt lat="45.0053" lon="5.53367">
        <ele>1529</ele>
        <time>2013-02-02T09:34:21Z</time>
      </trkpt>
      <trkpt lat="45.00528" lon="5.53368">
        <ele>1530</ele>
        <time>2013-02-02T09:34:26Z</time>
      </trkpt>
      <trkpt lat="45.00526" lon="5.53367">
        <ele>1530</ele>
        <time>2013-02-02T09:34:31Z</time>
      </trkpt>
      <trkpt lat="45.00525" lon="5.53367">
        <ele>1530</ele>
        <time>2013-02-02T09:34:36Z</time>
      </trkpt>
      <trkpt lat="45.00525" lon="5.53367">
        <ele>1530</ele>
        <time>2013-02-02T09:34:41Z</time>
      </trkpt>
      <trkpt lat="45.00522" lon="5.53366">
        <ele>1531</ele>
        <time>2013-02-02T09:34:46Z</time>
      </trkpt>
      <trkpt lat="45.00522" lon="5.53368">
        <ele>1531</ele>
        <time>2013-02-02T09:34:51Z</time>
      </trkpt>
      <trkpt lat="45.00523" lon="5.53371">
        <ele>1531</ele>
        <time>2013-02-02T09:34:56Z</time>
      </trkpt>
      <trkpt lat="45.00525" lon="5.53374">
        <ele>1532</ele>
        <time>2013-02-02T09:35:01Z</time>
      </trkpt>
      <trkpt lat="45.00525" lon="5.53375">
        <ele>1532</ele>
        <time>2013-02-02T09:35:06Z</time>
      </trkpt>
      <trkpt lat="45.00525" lon="5.53376">
        <ele>1532</ele>
        <time>2013-02-02T09:35:11Z</time>
      </trkpt>
      <trkpt lat="45.00526" lon="5.53378">
        <ele>1533</ele>
        <time>2013-02-02T09:35:16Z</time>
      </trkpt>
      <trkpt lat="45.00523" lon="5.53376">
        <ele>1533</ele>
        <time>2013-02-02T09:35:21Z</time>
      </trkpt>
      <trkpt lat="45.0052" lon="5.53375">
        <ele>1534</ele>
        <time>2013-02-02T09:35:26Z</time>
      </trkpt>
      <trkpt lat="45.00516" lon="5.53373">
        <ele>1535</ele>
        <time>2013-02-02T09:35:31Z</time>
      </trkpt>
      <trkpt lat="45.00514" lon="5.53373">
        <ele>1536</ele>
        <time>2013-02-02T09:35:36Z</time>
      </trkpt>
      <trkpt lat="45.00511" lon="5.53373">
        <ele>1537</ele>
        <time>2013-02-02T09:35:41Z</time>
      </trkpt>
      <trkpt lat="45.00507" lon="5.53374">
        <ele>1538</ele>
        <time>2013-02-02T09:35:46Z</time>
      </trkpt>
      <trkpt lat="45.00504" lon="5.53374">
        <ele>1538</ele>
        <time>2013-02-02T09:35:51Z</time>
      </trkpt>
      <trkpt lat="45.00502" lon="5.53374">
        <ele>1539</ele>
        <time>2013-02-02T09:35:56Z</time>
      </trkpt>
      <trkpt lat="45.005" lon="5.53375">
        <ele>1540</ele>
        <time>2013-02-02T09:36:01Z</time>
      </trkpt>
      <trkpt lat="45.00499" lon="5.53375">
        <ele>1540</ele>
        <time>2013-02-02T09:36:06Z</time>
      </trkpt>
      <trkpt lat="45.00499" lon="5.53375">
        <ele>1540</ele>
        <time>2013-02-02T09:36:11Z</time>
      </trkpt>
      <trkpt lat="45.00499" lon="5.53375">
        <ele>1540</ele>
        <time>2013-02-02T09:36:16Z</time>
      </trkpt>
      <trkpt lat="45.00499" lon="5.53374">
        <ele>1540</ele>
        <time>2013-02-02T09:36:21Z</time>
      </trkpt>
      <trkpt lat="45.00497" lon="5.53373">
        <ele>1541</ele>
        <time>2013-02-02T09:36:26Z</time>
      </trkpt>
      <trkpt lat="45.00494" lon="5.53373">
        <ele>1541</ele>
        <time>2013-02-02T09:36:31Z</time>
      </trkpt>
      <trkpt lat="45.00494" lon="5.53373">
        <ele>1541</ele>
        <time>2013-02-02T09:36:36Z</time>
      </trkpt>
      <trkpt lat="45.00495" lon="5.53374">
        <ele>1541</ele>
        <time>2013-02-02T09:36:41Z</time>
      </trkpt>
      <trkpt lat="45.00496" lon="5.53374">
        <ele>1541</ele>
        <time>2013-02-02T09:36:46Z</time>
      </trkpt>
      <trkpt lat="45.00494" lon="5.53374">
        <ele>1542</ele>
        <time>2013-02-02T09:36:51Z</time>
      </trkpt>
      <trkpt lat="45.00494" lon="5.53374">
        <ele>1543</ele>
        <time>2013-02-02T09:36:56Z</time>
      </trkpt>
      <trkpt lat="45.00492" lon="5.53374">
        <ele>1543</ele>
        <time>2013-02-02T09:37:01Z</time>
      </trkpt>
      <trkpt lat="45.00489" lon="5.53374">
        <ele>1545</ele>
        <time>2013-02-02T09:37:06Z</time>
      </trkpt>
      <trkpt lat="45.00485" lon="5.53374">
        <ele>1546</ele>
        <time>2013-02-02T09:37:11Z</time>
      </trkpt>
      <trkpt lat="45.00481" lon="5.53374">
        <ele>1547</ele>
        <time>2013-02-02T09:37:16Z</time>
      </trkpt>
      <trkpt lat="45.00478" lon="5.53375">
        <ele>1547</ele>
        <time>2013-02-02T09:37:21Z</time>
      </trkpt>
      <trkpt lat="45.00475" lon="5.53374">
        <ele>1548</ele>
        <time>2013-02-02T09:37:26Z</time>
      </trkpt>
      <trkpt lat="45.00472" lon="5.53372">
        <ele>1549</ele>
        <time>2013-02-02T09:37:31Z</time>
      </trkpt>
      <trkpt lat="45.00471" lon="5.53372">
        <ele>1549</ele>
        <time>2013-02-02T09:37:36Z</time>
      </trkpt>
      <trkpt lat="45.00471" lon="5.53371">
        <ele>1549</ele>
        <time>2013-02-02T09:37:41Z</time>
      </trkpt>
      <trkpt lat="45.00469" lon="5.5337">
        <ele>1549</ele>
        <time>2013-02-02T09:37:46Z</time>
      </trkpt>
      <trkpt lat="45.00469" lon="5.5337">
        <ele>1549</ele>
        <time>2013-02-02T09:37:51Z</time>
      </trkpt>
      <trkpt lat="45.00469" lon="5.5337">
        <ele>1549</ele>
        <time>2013-02-02T09:37:56Z</time>
      </trkpt>
      <trkpt lat="45.00469" lon="5.5337">
        <ele>1549</ele>
        <time>2013-02-02T09:38:01Z</time>
      </trkpt>
      <trkpt lat="45.00468" lon="5.5337">
        <ele>1548</ele>
        <time>2013-02-02T09:38:06Z</time>
      </trkpt>
      <trkpt lat="45.00468" lon="5.5337">
        <ele>1548</ele>
        <time>2013-02-02T09:38:11Z</time>
      </trkpt>
      <trkpt lat="45.00467" lon="5.5337">
        <ele>1548</ele>
        <time>2013-02-02T09:38:16Z</time>
      </trkpt>
      <trkpt lat="45.00467" lon="5.5337">
        <ele>1547</ele>
        <time>2013-02-02T09:38:21Z</time>
      </trkpt>
      <trkpt lat="45.00467" lon="5.5337">
        <ele>1547</ele>
        <time>2013-02-02T09:38:26Z</time>
      </trkpt>
      <trkpt lat="45.00467" lon="5.5337">
        <ele>1547</ele>
        <time>2013-02-02T09:38:31Z</time>
      </trkpt>
      <trkpt lat="45.00467" lon="5.5337">
        <ele>1547</ele>
        <time>2013-02-02T09:38:36Z</time>
      </trkpt>
      <trkpt lat="45.00467" lon="5.5337">
        <ele>1546</ele>
        <time>2013-02-02T09:38:41Z</time>
      </trkpt>
      <trkpt lat="45.00466" lon="5.5337">
        <ele>1546</ele>
        <time>2013-02-02T09:38:46Z</time>
      </trkpt>
      <trkpt lat="45.00466" lon="5.5337">
        <ele>1545</ele>
        <time>2013-02-02T09:38:51Z</time>
      </trkpt>
      <trkpt lat="45.00466" lon="5.5337">
        <ele>1545</ele>
        <time>2013-02-02T09:38:56Z</time>
      </trkpt>
      <trkpt lat="45.00463" lon="5.53369">
        <ele>1545</ele>
        <time>2013-02-02T09:39:01Z</time>
      </trkpt>
      <trkpt lat="45.00462" lon="5.5337">
        <ele>1546</ele>
        <time>2013-02-02T09:39:06Z</time>
      </trkpt>
      <trkpt lat="45.00459" lon="5.5337">
        <ele>1547</ele>
        <time>2013-02-02T09:39:11Z</time>
      </trkpt>
      <trkpt lat="45.00455" lon="5.5337">
        <ele>1548</ele>
        <time>2013-02-02T09:39:16Z</time>
      </trkpt>
      <trkpt lat="45.00451" lon="5.53369">
        <ele>1549</ele>
        <time>2013-02-02T09:39:21Z</time>
      </trkpt>
      <trkpt lat="45.00448" lon="5.53368">
        <ele>1550</ele>
        <time>2013-02-02T09:39:26Z</time>
      </trkpt>
      <trkpt lat="45.00446" lon="5.53367">
        <ele>1551</ele>
        <time>2013-02-02T09:39:31Z</time>
      </trkpt>
      <trkpt lat="45.00445" lon="5.53371">
        <ele>1552</ele>
        <time>2013-02-02T09:39:36Z</time>
      </trkpt>
      <trkpt lat="45.00446" lon="5.53375">
        <ele>1552</ele>
        <time>2013-02-02T09:39:41Z</time>
      </trkpt>
      <trkpt lat="45.00447" lon="5.53379">
        <ele>1553</ele>
        <time>2013-02-02T09:39:46Z</time>
      </trkpt>
      <trkpt lat="45.00448" lon="5.53382">
        <ele>1554</ele>
        <time>2013-02-02T09:39:51Z</time>
      </trkpt>
      <trkpt lat="45.00449" lon="5.53386">
        <ele>1555</ele>
        <time>2013-02-02T09:39:56Z</time>
      </trkpt>
      <trkpt lat="45.00448" lon="5.5339">
        <ele>1555</ele>
        <time>2013-02-02T09:40:01Z</time>
      </trkpt>
      <trkpt lat="45.00447" lon="5.53394">
        <ele>1556</ele>
        <time>2013-02-02T09:40:06Z</time>
      </trkpt>
      <trkpt lat="45.00444" lon="5.53394">
        <ele>1557</ele>
        <time>2013-02-02T09:40:11Z</time>
      </trkpt>
      <trkpt lat="45.00443" lon="5.53392">
        <ele>1559</ele>
        <time>2013-02-02T09:40:16Z</time>
      </trkpt>
      <trkpt lat="45.0044" lon="5.53392">
        <ele>1560</ele>
        <time>2013-02-02T09:40:21Z</time>
      </trkpt>
      <trkpt lat="45.00437" lon="5.53391">
        <ele>1561</ele>
        <time>2013-02-02T09:40:26Z</time>
      </trkpt>
      <trkpt lat="45.00435" lon="5.53389">
        <ele>1561</ele>
        <time>2013-02-02T09:40:31Z</time>
      </trkpt>
      <trkpt lat="45.00432" lon="5.53388">
        <ele>1562</ele>
        <time>2013-02-02T09:40:36Z</time>
      </trkpt>
      <trkpt lat="45.0043" lon="5.53386">
        <ele>1563</ele>
        <time>2013-02-02T09:40:41Z</time>
      </trkpt>
      <trkpt lat="45.00428" lon="5.53385">
        <ele>1564</ele>
        <time>2013-02-02T09:40:46Z</time>
      </trkpt>
      <trkpt lat="45.00428" lon="5.53385">
        <ele>1564</ele>
        <time>2013-02-02T09:40:51Z</time>
      </trkpt>
      <trkpt lat="45.00428" lon="5.53385">
        <ele>1564</ele>
        <time>2013-02-02T09:40:56Z</time>
      </trkpt>
      <trkpt lat="45.00428" lon="5.53385">
        <ele>1564</ele>
        <time>2013-02-02T09:41:01Z</time>
      </trkpt>
      <trkpt lat="45.00428" lon="5.53385">
        <ele>1564</ele>
        <time>2013-02-02T09:41:06Z</time>
      </trkpt>
      <trkpt lat="45.00427" lon="5.53385">
        <ele>1564</ele>
        <time>2013-02-02T09:41:11Z</time>
      </trkpt>
      <trkpt lat="45.00427" lon="5.53385">
        <ele>1563</ele>
        <time>2013-02-02T09:41:16Z</time>
      </trkpt>
      <trkpt lat="45.00427" lon="5.53385">
        <ele>1563</ele>
        <time>2013-02-02T09:41:21Z</time>
      </trkpt>
      <trkpt lat="45.00426" lon="5.53384">
        <ele>1563</ele>
        <time>2013-02-02T09:41:26Z</time>
      </trkpt>
      <trkpt lat="45.00423" lon="5.53383">
        <ele>1564</ele>
        <time>2013-02-02T09:41:31Z</time>
      </trkpt>
      <trkpt lat="45.00423" lon="5.53383">
        <ele>1563</ele>
        <time>2013-02-02T09:41:36Z</time>
      </trkpt>
      <trkpt lat="45.00421" lon="5.53382">
        <ele>1563</ele>
        <time>2013-02-02T09:41:41Z</time>
      </trkpt>
      <trkpt lat="45.00417" lon="5.5338">
        <ele>1564</ele>
        <time>2013-02-02T09:41:46Z</time>
      </trkpt>
      <trkpt lat="45.00416" lon="5.53379">
        <ele>1564</ele>
        <time>2013-02-02T09:41:51Z</time>
      </trkpt>
      <trkpt lat="45.00416" lon="5.53383">
        <ele>1565</ele>
        <time>2013-02-02T09:41:56Z</time>
      </trkpt>
      <trkpt lat="45.00416" lon="5.53386">
        <ele>1565</ele>
        <time>2013-02-02T09:42:01Z</time>
      </trkpt>
      <trkpt lat="45.00416" lon="5.53389">
        <ele>1565</ele>
        <time>2013-02-02T09:42:06Z</time>
      </trkpt>
      <trkpt lat="45.00415" lon="5.53394">
        <ele>1566</ele>
        <time>2013-02-02T09:42:11Z</time>
      </trkpt>
      <trkpt lat="45.00414" lon="5.53396">
        <ele>1567</ele>
        <time>2013-02-02T09:42:16Z</time>
      </trkpt>
      <trkpt lat="45.00411" lon="5.53394">
        <ele>1568</ele>
        <time>2013-02-02T09:42:21Z</time>
      </trkpt>
      <trkpt lat="45.00408" lon="5.53392">
        <ele>1569</ele>
        <time>2013-02-02T09:42:26Z</time>
      </trkpt>
      <trkpt lat="45.00406" lon="5.5339">
        <ele>1570</ele>
        <time>2013-02-02T09:42:31Z</time>
      </trkpt>
      <trkpt lat="45.00403" lon="5.53388">
        <ele>1571</ele>
        <time>2013-02-02T09:42:36Z</time>
      </trkpt>
      <trkpt lat="45.00401" lon="5.53386">
        <ele>1572</ele>
        <time>2013-02-02T09:42:41Z</time>
      </trkpt>
      <trkpt lat="45.00398" lon="5.53384">
        <ele>1572</ele>
        <time>2013-02-02T09:42:46Z</time>
      </trkpt>
      <trkpt lat="45.00396" lon="5.53383">
        <ele>1573</ele>
        <time>2013-02-02T09:42:51Z</time>
      </trkpt>
      <trkpt lat="45.00394" lon="5.53382">
        <ele>1574</ele>
        <time>2013-02-02T09:42:56Z</time>
      </trkpt>
      <trkpt lat="45.00391" lon="5.5338">
        <ele>1574</ele>
        <time>2013-02-02T09:43:01Z</time>
      </trkpt>
      <trkpt lat="45.00391" lon="5.5338">
        <ele>1575</ele>
        <time>2013-02-02T09:43:06Z</time>
      </trkpt>
      <trkpt lat="45.00392" lon="5.53381">
        <ele>1576</ele>
        <time>2013-02-02T09:43:11Z</time>
      </trkpt>
      <trkpt lat="45.00392" lon="5.53382">
        <ele>1575</ele>
        <time>2013-02-02T09:43:16Z</time>
      </trkpt>
      <trkpt lat="45.00393" lon="5.53382">
        <ele>1576</ele>
        <time>2013-02-02T09:43:21Z</time>
      </trkpt>
      <trkpt lat="45.00393" lon="5.53383">
        <ele>1576</ele>
        <time>2013-02-02T09:43:26Z</time>
      </trkpt>
      <trkpt lat="45.00393" lon="5.53383">
        <ele>1576</ele>
        <time>2013-02-02T09:43:31Z</time>
      </trkpt>
      <trkpt lat="45.00393" lon="5.53383">
        <ele>1575</ele>
        <time>2013-02-02T09:43:36Z</time>
      </trkpt>
      <trkpt lat="45.00393" lon="5.53383">
        <ele>1575</ele>
        <time>2013-02-02T09:43:41Z</time>
      </trkpt>
      <trkpt lat="45.00393" lon="5.53383">
        <ele>1575</ele>
        <time>2013-02-02T09:43:46Z</time>
      </trkpt>
      <trkpt lat="45.00392" lon="5.53383">
        <ele>1574</ele>
        <time>2013-02-02T09:43:51Z</time>
      </trkpt>
      <trkpt lat="45.00392" lon="5.53383">
        <ele>1574</ele>
        <time>2013-02-02T09:43:56Z</time>
      </trkpt>
      <trkpt lat="45.00392" lon="5.53383">
        <ele>1574</ele>
        <time>2013-02-02T09:44:01Z</time>
      </trkpt>
      <trkpt lat="45.00392" lon="5.53383">
        <ele>1574</ele>
        <time>2013-02-02T09:44:06Z</time>
      </trkpt>
      <trkpt lat="45.00392" lon="5.53383">
        <ele>1574</ele>
        <time>2013-02-02T09:44:11Z</time>
      </trkpt>
      <trkpt lat="45.00392" lon="5.53383">
        <ele>1573</ele>
        <time>2013-02-02T09:44:16Z</time>
      </trkpt>
      <trkpt lat="45.00392" lon="5.53383">
        <ele>1573</ele>
        <time>2013-02-02T09:44:21Z</time>
      </trkpt>
      <trkpt lat="45.00392" lon="5.53382">
        <ele>1573</ele>
        <time>2013-02-02T09:44:26Z</time>
      </trkpt>
      <trkpt lat="45.00391" lon="5.53382">
        <ele>1572</ele>
        <time>2013-02-02T09:44:31Z</time>
      </trkpt>
      <trkpt lat="45.00391" lon="5.53382">
        <ele>1572</ele>
        <time>2013-02-02T09:44:36Z</time>
      </trkpt>
      <trkpt lat="45.00391" lon="5.53382">
        <ele>1572</ele>
        <time>2013-02-02T09:44:41Z</time>
      </trkpt>
      <trkpt lat="45.00391" lon="5.53382">
        <ele>1571</ele>
        <time>2013-02-02T09:44:46Z</time>
      </trkpt>
      <trkpt lat="45.00391" lon="5.53382">
        <ele>1571</ele>
        <time>2013-02-02T09:44:51Z</time>
      </trkpt>
      <trkpt lat="45.0039" lon="5.53382">
        <ele>1571</ele>
        <time>2013-02-02T09:44:56Z</time>
      </trkpt>
      <trkpt lat="45.00388" lon="5.5338">
        <ele>1572</ele>
        <time>2013-02-02T09:45:01Z</time>
      </trkpt>
      <trkpt lat="45.00387" lon="5.53382">
        <ele>1572</ele>
        <time>2013-02-02T09:45:06Z</time>
      </trkpt>
      <trkpt lat="45.00387" lon="5.53387">
        <ele>1572</ele>
        <time>2013-02-02T09:45:11Z</time>
      </trkpt>
      <trkpt lat="45.00387" lon="5.53392">
        <ele>1572</ele>
        <time>2013-02-02T09:45:16Z</time>
      </trkpt>
      <trkpt lat="45.00387" lon="5.53396">
        <ele>1573</ele>
        <time>2013-02-02T09:45:21Z</time>
      </trkpt>
      <trkpt lat="45.00387" lon="5.534">
        <ele>1574</ele>
        <time>2013-02-02T09:45:26Z</time>
      </trkpt>
      <trkpt lat="45.00387" lon="5.53405">
        <ele>1574</ele>
        <time>2013-02-02T09:45:31Z</time>
      </trkpt>
      <trkpt lat="45.00387" lon="5.53409">
        <ele>1575</ele>
        <time>2013-02-02T09:45:36Z</time>
      </trkpt>
      <trkpt lat="45.00387" lon="5.53413">
        <ele>1576</ele>
        <time>2013-02-02T09:45:41Z</time>
      </trkpt>
      <trkpt lat="45.00388" lon="5.53414">
        <ele>1577</ele>
        <time>2013-02-02T09:45:46Z</time>
      </trkpt>
      <trkpt lat="45.00385" lon="5.53411">
        <ele>1578</ele>
        <time>2013-02-02T09:45:51Z</time>
      </trkpt>
      <trkpt lat="45.00382" lon="5.53409">
        <ele>1579</ele>
        <time>2013-02-02T09:45:56Z</time>
      </trkpt>
      <trkpt lat="45.0038" lon="5.53407">
        <ele>1580</ele>
        <time>2013-02-02T09:46:01Z</time>
      </trkpt>
      <trkpt lat="45.00378" lon="5.53404">
        <ele>1582</ele>
        <time>2013-02-02T09:46:06Z</time>
      </trkpt>
      <trkpt lat="45.00375" lon="5.53402">
        <ele>1583</ele>
        <time>2013-02-02T09:46:11Z</time>
      </trkpt>
      <trkpt lat="45.00373" lon="5.534">
        <ele>1584</ele>
        <time>2013-02-02T09:46:16Z</time>
      </trkpt>
      <trkpt lat="45.00371" lon="5.53397">
        <ele>1585</ele>
        <time>2013-02-02T09:46:21Z</time>
      </trkpt>
      <trkpt lat="45.00369" lon="5.53395">
        <ele>1586</ele>
        <time>2013-02-02T09:46:26Z</time>
      </trkpt>
      <trkpt lat="45.00366" lon="5.53394">
        <ele>1587</ele>
        <time>2013-02-02T09:46:31Z</time>
      </trkpt>
      <trkpt lat="45.00364" lon="5.53392">
        <ele>1588</ele>
        <time>2013-02-02T09:46:36Z</time>
      </trkpt>
      <trkpt lat="45.00362" lon="5.5339">
        <ele>1589</ele>
        <time>2013-02-02T09:46:41Z</time>
      </trkpt>
      <trkpt lat="45.00362" lon="5.53392">
        <ele>1589</ele>
        <time>2013-02-02T09:46:46Z</time>
      </trkpt>
      <trkpt lat="45.00362" lon="5.53396">
        <ele>1589</ele>
        <time>2013-02-02T09:46:51Z</time>
      </trkpt>
      <trkpt lat="45.00362" lon="5.534">
        <ele>1590</ele>
        <time>2013-02-02T09:46:56Z</time>
      </trkpt>
      <trkpt lat="45.00362" lon="5.53405">
        <ele>1591</ele>
        <time>2013-02-02T09:47:01Z</time>
      </trkpt>
      <trkpt lat="45.00362" lon="5.53408">
        <ele>1591</ele>
        <time>2013-02-02T09:47:06Z</time>
      </trkpt>
      <trkpt lat="45.00361" lon="5.53412">
        <ele>1592</ele>
        <time>2013-02-02T09:47:11Z</time>
      </trkpt>
      <trkpt lat="45.00361" lon="5.53413">
        <ele>1593</ele>
        <time>2013-02-02T09:47:16Z</time>
      </trkpt>
      <trkpt lat="45.00358" lon="5.5341">
        <ele>1594</ele>
        <time>2013-02-02T09:47:21Z</time>
      </trkpt>
      <trkpt lat="45.00356" lon="5.53408">
        <ele>1595</ele>
        <time>2013-02-02T09:47:26Z</time>
      </trkpt>
      <trkpt lat="45.00353" lon="5.53405">
        <ele>1596</ele>
        <time>2013-02-02T09:47:31Z</time>
      </trkpt>
      <trkpt lat="45.00351" lon="5.53402">
        <ele>1597</ele>
        <time>2013-02-02T09:47:36Z</time>
      </trkpt>
      <trkpt lat="45.0035" lon="5.534">
        <ele>1600</ele>
        <time>2013-02-02T09:47:41Z</time>
      </trkpt>
      <trkpt lat="45.00349" lon="5.53399">
        <ele>1600</ele>
        <time>2013-02-02T09:47:46Z</time>
      </trkpt>
      <trkpt lat="45.00348" lon="5.53399">
        <ele>1600</ele>
        <time>2013-02-02T09:47:51Z</time>
      </trkpt>
      <trkpt lat="45.00348" lon="5.534">
        <ele>1600</ele>
        <time>2013-02-02T09:47:56Z</time>
      </trkpt>
      <trkpt lat="45.00347" lon="5.53405">
        <ele>1601</ele>
        <time>2013-02-02T09:48:01Z</time>
      </trkpt>
      <trkpt lat="45.00346" lon="5.53409">
        <ele>1601</ele>
        <time>2013-02-02T09:48:06Z</time>
      </trkpt>
      <trkpt lat="45.00346" lon="5.53413">
        <ele>1602</ele>
        <time>2013-02-02T09:48:11Z</time>
      </trkpt>
      <trkpt lat="45.00345" lon="5.53417">
        <ele>1602</ele>
        <time>2013-02-02T09:48:16Z</time>
      </trkpt>
      <trkpt lat="45.00345" lon="5.5342">
        <ele>1603</ele>
        <time>2013-02-02T09:48:21Z</time>
      </trkpt>
      <trkpt lat="45.00345" lon="5.53424">
        <ele>1604</ele>
        <time>2013-02-02T09:48:26Z</time>
      </trkpt>
      <trkpt lat="45.00345" lon="5.53429">
        <ele>1605</ele>
        <time>2013-02-02T09:48:31Z</time>
      </trkpt>
      <trkpt lat="45.00345" lon="5.53432">
        <ele>1605</ele>
        <time>2013-02-02T09:48:36Z</time>
      </trkpt>
      <trkpt lat="45.00343" lon="5.53431">
        <ele>1607</ele>
        <time>2013-02-02T09:48:41Z</time>
      </trkpt>
      <trkpt lat="45.0034" lon="5.53429">
        <ele>1608</ele>
        <time>2013-02-02T09:48:46Z</time>
      </trkpt>
      <trkpt lat="45.00337" lon="5.53427">
        <ele>1608</ele>
        <time>2013-02-02T09:48:51Z</time>
      </trkpt>
      <trkpt lat="45.00335" lon="5.53425">
        <ele>1610</ele>
        <time>2013-02-02T09:48:56Z</time>
      </trkpt>
      <trkpt lat="45.00334" lon="5.53425">
        <ele>1609</ele>
        <time>2013-02-02T09:49:01Z</time>
      </trkpt>
      <trkpt lat="45.00334" lon="5.53425">
        <ele>1609</ele>
        <time>2013-02-02T09:49:06Z</time>
      </trkpt>
      <trkpt lat="45.00333" lon="5.53423">
        <ele>1610</ele>
        <time>2013-02-02T09:49:11Z</time>
      </trkpt>
      <trkpt lat="45.00331" lon="5.53421">
        <ele>1610</ele>
        <time>2013-02-02T09:49:16Z</time>
      </trkpt>
      <trkpt lat="45.00331" lon="5.53421">
        <ele>1610</ele>
        <time>2013-02-02T09:49:21Z</time>
      </trkpt>
      <trkpt lat="45.00332" lon="5.53421">
        <ele>1610</ele>
        <time>2013-02-02T09:49:26Z</time>
      </trkpt>
      <trkpt lat="45.00332" lon="5.53421">
        <ele>1611</ele>
        <time>2013-02-02T09:49:31Z</time>
      </trkpt>
      <trkpt lat="45.0033" lon="5.53419">
        <ele>1611</ele>
        <time>2013-02-02T09:49:36Z</time>
      </trkpt>
      <trkpt lat="45.00329" lon="5.53417">
        <ele>1612</ele>
        <time>2013-02-02T09:49:41Z</time>
      </trkpt>
      <trkpt lat="45.00328" lon="5.53417">
        <ele>1612</ele>
        <time>2013-02-02T09:49:46Z</time>
      </trkpt>
      <trkpt lat="45.00328" lon="5.53417">
        <ele>1611</ele>
        <time>2013-02-02T09:49:51Z</time>
      </trkpt>
      <trkpt lat="45.00328" lon="5.53417">
        <ele>1611</ele>
        <time>2013-02-02T09:49:56Z</time>
      </trkpt>
      <trkpt lat="45.00328" lon="5.53417">
        <ele>1611</ele>
        <time>2013-02-02T09:50:01Z</time>
      </trkpt>
      <trkpt lat="45.00327" lon="5.53416">
        <ele>1611</ele>
        <time>2013-02-02T09:50:06Z</time>
      </trkpt>
      <trkpt lat="45.00326" lon="5.53414">
        <ele>1612</ele>
        <time>2013-02-02T09:50:11Z</time>
      </trkpt>
      <trkpt lat="45.00326" lon="5.53413">
        <ele>1612</ele>
        <time>2013-02-02T09:50:16Z</time>
      </trkpt>
      <trkpt lat="45.00325" lon="5.53413">
        <ele>1612</ele>
        <time>2013-02-02T09:50:21Z</time>
      </trkpt>
      <trkpt lat="45.00325" lon="5.53413">
        <ele>1612</ele>
        <time>2013-02-02T09:50:26Z</time>
      </trkpt>
      <trkpt lat="45.00325" lon="5.53413">
        <ele>1612</ele>
        <time>2013-02-02T09:50:31Z</time>
      </trkpt>
      <trkpt lat="45.00325" lon="5.53413">
        <ele>1612</ele>
        <time>2013-02-02T09:50:36Z</time>
      </trkpt>
      <trkpt lat="45.00325" lon="5.53413">
        <ele>1612</ele>
        <time>2013-02-02T09:50:41Z</time>
      </trkpt>
      <trkpt lat="45.00325" lon="5.53413">
        <ele>1612</ele>
        <time>2013-02-02T09:50:46Z</time>
      </trkpt>
      <trkpt lat="45.00325" lon="5.53413">
        <ele>1611</ele>
        <time>2013-02-02T09:50:51Z</time>
      </trkpt>
      <trkpt lat="45.00325" lon="5.53413">
        <ele>1611</ele>
        <time>2013-02-02T09:50:56Z</time>
      </trkpt>
      <trkpt lat="45.00325" lon="5.53413">
        <ele>1611</ele>
        <time>2013-02-02T09:51:01Z</time>
      </trkpt>
      <trkpt lat="45.00323" lon="5.53412">
        <ele>1611</ele>
        <time>2013-02-02T09:51:06Z</time>
      </trkpt>
      <trkpt lat="45.00321" lon="5.5341">
        <ele>1612</ele>
        <time>2013-02-02T09:51:11Z</time>
      </trkpt>
      <trkpt lat="45.00322" lon="5.53409">
        <ele>1613</ele>
        <time>2013-02-02T09:51:16Z</time>
      </trkpt>
      <trkpt lat="45.00321" lon="5.53409">
        <ele>1614</ele>
        <time>2013-02-02T09:51:21Z</time>
      </trkpt>
      <trkpt lat="45.0032" lon="5.53408">
        <ele>1615</ele>
        <time>2013-02-02T09:51:26Z</time>
      </trkpt>
      <trkpt lat="45.0032" lon="5.53408">
        <ele>1615</ele>
        <time>2013-02-02T09:51:31Z</time>
      </trkpt>
      <trkpt lat="45.0032" lon="5.53408">
        <ele>1615</ele>
        <time>2013-02-02T09:51:36Z</time>
      </trkpt>
      <trkpt lat="45.00319" lon="5.53408">
        <ele>1615</ele>
        <time>2013-02-02T09:51:41Z</time>
      </trkpt>
      <trkpt lat="45.00319" lon="5.5341">
        <ele>1616</ele>
        <time>2013-02-02T09:51:46Z</time>
      </trkpt>
      <trkpt lat="45.00319" lon="5.53414">
        <ele>1617</ele>
        <time>2013-02-02T09:51:51Z</time>
      </trkpt>
      <trkpt lat="45.00319" lon="5.53417">
        <ele>1617</ele>
        <time>2013-02-02T09:51:56Z</time>
      </trkpt>
      <trkpt lat="45.00319" lon="5.53419">
        <ele>1617</ele>
        <time>2013-02-02T09:52:01Z</time>
      </trkpt>
      <trkpt lat="45.00318" lon="5.53423">
        <ele>1618</ele>
        <time>2013-02-02T09:52:06Z</time>
      </trkpt>
      <trkpt lat="45.00318" lon="5.53427">
        <ele>1619</ele>
        <time>2013-02-02T09:52:11Z</time>
      </trkpt>
      <trkpt lat="45.00319" lon="5.53431">
        <ele>1620</ele>
        <time>2013-02-02T09:52:16Z</time>
      </trkpt>
      <trkpt lat="45.00319" lon="5.53433">
        <ele>1621</ele>
        <time>2013-02-02T09:52:21Z</time>
      </trkpt>
      <trkpt lat="45.00319" lon="5.53434">
        <ele>1621</ele>
        <time>2013-02-02T09:52:26Z</time>
      </trkpt>
      <trkpt lat="45.00318" lon="5.53434">
        <ele>1620</ele>
        <time>2013-02-02T09:52:31Z</time>
      </trkpt>
      <trkpt lat="45.00319" lon="5.53436">
        <ele>1620</ele>
        <time>2013-02-02T09:52:36Z</time>
      </trkpt>
      <trkpt lat="45.00317" lon="5.53435">
        <ele>1622</ele>
        <time>2013-02-02T09:52:41Z</time>
      </trkpt>
      <trkpt lat="45.00315" lon="5.53433">
        <ele>1623</ele>
        <time>2013-02-02T09:52:46Z</time>
      </trkpt>
      <trkpt lat="45.00313" lon="5.53431">
        <ele>1624</ele>
        <time>2013-02-02T09:52:51Z</time>
      </trkpt>
      <trkpt lat="45.00312" lon="5.5343">
        <ele>1624</ele>
        <time>2013-02-02T09:52:56Z</time>
      </trkpt>
      <trkpt lat="45.00311" lon="5.53429">
        <ele>1624</ele>
        <time>2013-02-02T09:53:01Z</time>
      </trkpt>
      <trkpt lat="45.0031" lon="5.53428">
        <ele>1624</ele>
        <time>2013-02-02T09:53:06Z</time>
      </trkpt>
      <trkpt lat="45.00309" lon="5.53428">
        <ele>1624</ele>
        <time>2013-02-02T09:53:11Z</time>
      </trkpt>
      <trkpt lat="45.00309" lon="5.53428">
        <ele>1624</ele>
        <time>2013-02-02T09:53:16Z</time>
      </trkpt>
      <trkpt lat="45.00309" lon="5.53428">
        <ele>1624</ele>
        <time>2013-02-02T09:53:21Z</time>
      </trkpt>
      <trkpt lat="45.00309" lon="5.53428">
        <ele>1624</ele>
        <time>2013-02-02T09:53:26Z</time>
      </trkpt>
      <trkpt lat="45.00309" lon="5.53428">
        <ele>1624</ele>
        <time>2013-02-02T09:53:31Z</time>
      </trkpt>
      <trkpt lat="45.00309" lon="5.53428">
        <ele>1624</ele>
        <time>2013-02-02T09:53:36Z</time>
      </trkpt>
      <trkpt lat="45.00308" lon="5.53427">
        <ele>1625</ele>
        <time>2013-02-02T09:53:41Z</time>
      </trkpt>
      <trkpt lat="45.00307" lon="5.53428">
        <ele>1625</ele>
        <time>2013-02-02T09:53:46Z</time>
      </trkpt>
      <trkpt lat="45.00305" lon="5.5343">
        <ele>1626</ele>
        <time>2013-02-02T09:53:51Z</time>
      </trkpt>
      <trkpt lat="45.00303" lon="5.5343">
        <ele>1627</ele>
        <time>2013-02-02T09:53:56Z</time>
      </trkpt>
      <trkpt lat="45.00301" lon="5.53429">
        <ele>1628</ele>
        <time>2013-02-02T09:54:01Z</time>
      </trkpt>
      <trkpt lat="45.00299" lon="5.53429">
        <ele>1629</ele>
        <time>2013-02-02T09:54:06Z</time>
      </trkpt>
      <trkpt lat="45.00298" lon="5.53428">
        <ele>1630</ele>
        <time>2013-02-02T09:54:11Z</time>
      </trkpt>
      <trkpt lat="45.00298" lon="5.53428">
        <ele>1630</ele>
        <time>2013-02-02T09:54:16Z</time>
      </trkpt>
      <trkpt lat="45.00298" lon="5.53427">
        <ele>1631</ele>
        <time>2013-02-02T09:54:21Z</time>
      </trkpt>
      <trkpt lat="45.00296" lon="5.53423">
        <ele>1632</ele>
        <time>2013-02-02T09:54:26Z</time>
      </trkpt>
      <trkpt lat="45.00293" lon="5.5342">
        <ele>1633</ele>
        <time>2013-02-02T09:54:31Z</time>
      </trkpt>
      <trkpt lat="45.00292" lon="5.53418">
        <ele>1634</ele>
        <time>2013-02-02T09:54:36Z</time>
      </trkpt>
      <trkpt lat="45.00289" lon="5.53414">
        <ele>1634</ele>
        <time>2013-02-02T09:54:41Z</time>
      </trkpt>
      <trkpt lat="45.00286" lon="5.53409">
        <ele>1635</ele>
        <time>2013-02-02T09:54:46Z</time>
      </trkpt>
      <trkpt lat="45.00284" lon="5.53405">
        <ele>1636</ele>
        <time>2013-02-02T09:54:51Z</time>
      </trkpt>
      <trkpt lat="45.00282" lon="5.53403">
        <ele>1637</ele>
        <time>2013-02-02T09:54:56Z</time>
      </trkpt>
      <trkpt lat="45.00279" lon="5.534">
        <ele>1637</ele>
        <time>2013-02-02T09:55:01Z</time>
      </trkpt>
      <trkpt lat="45.00275" lon="5.53397">
        <ele>1638</ele>
        <time>2013-02-02T09:55:06Z</time>
      </trkpt>
      <trkpt lat="45.00272" lon="5.53394">
        <ele>1639</ele>
        <time>2013-02-02T09:55:11Z</time>
      </trkpt>
      <trkpt lat="45.00268" lon="5.53392">
        <ele>1639</ele>
        <time>2013-02-02T09:55:16Z</time>
      </trkpt>
      <trkpt lat="45.00264" lon="5.53389">
        <ele>1640</ele>
        <time>2013-02-02T09:55:21Z</time>
      </trkpt>
      <trkpt lat="45.00261" lon="5.53389">
        <ele>1640</ele>
        <time>2013-02-02T09:55:26Z</time>
      </trkpt>
      <trkpt lat="45.00258" lon="5.53389">
        <ele>1642</ele>
        <time>2013-02-02T09:55:31Z</time>
      </trkpt>
      <trkpt lat="45.00256" lon="5.5339">
        <ele>1643</ele>
        <time>2013-02-02T09:55:36Z</time>
      </trkpt>
      <trkpt lat="45.00253" lon="5.53392">
        <ele>1643</ele>
        <time>2013-02-02T09:55:41Z</time>
      </trkpt>
      <trkpt lat="45.0025" lon="5.53396">
        <ele>1644</ele>
        <time>2013-02-02T09:55:46Z</time>
      </trkpt>
      <trkpt lat="45.00248" lon="5.53399">
        <ele>1644</ele>
        <time>2013-02-02T09:55:51Z</time>
      </trkpt>
      <trkpt lat="45.00245" lon="5.53402">
        <ele>1644</ele>
        <time>2013-02-02T09:55:56Z</time>
      </trkpt>
      <trkpt lat="45.0024" lon="5.53413">
        <ele>1629</ele>
        <time>2013-02-02T10:05:06Z</time>
      </trkpt>
      <trkpt lat="45.00239" lon="5.53416">
        <ele>1636</ele>
        <time>2013-02-02T10:07:01Z</time>
      </trkpt>
      <trkpt lat="45.00239" lon="5.53419">
        <ele>1638</ele>
        <time>2013-02-02T10:07:06Z</time>
      </trkpt>
      <trkpt lat="45.00239" lon="5.53422">
        <ele>1639</ele>
        <time>2013-02-02T10:07:11Z</time>
      </trkpt>
      <trkpt lat="45.00239" lon="5.53426">
        <ele>1640</ele>
        <time>2013-02-02T10:07:16Z</time>
      </trkpt>
      <trkpt lat="45.00242" lon="5.53425">
        <ele>1641</ele>
        <time>2013-02-02T10:07:21Z</time>
      </trkpt>
      <trkpt lat="45.00244" lon="5.53424">
        <ele>1642</ele>
        <time>2013-02-02T10:07:26Z</time>
      </trkpt>
      <trkpt lat="45.00246" lon="5.53425">
        <ele>1644</ele>
        <time>2013-02-02T10:07:31Z</time>
      </trkpt>
      <trkpt lat="45.00245" lon="5.53429">
        <ele>1645</ele>
        <time>2013-02-02T10:07:36Z</time>
      </trkpt>
      <trkpt lat="45.00244" lon="5.53432">
        <ele>1646</ele>
        <time>2013-02-02T10:07:41Z</time>
      </trkpt>
      <trkpt lat="45.00242" lon="5.53436">
        <ele>1647</ele>
        <time>2013-02-02T10:07:46Z</time>
      </trkpt>
      <trkpt lat="45.00242" lon="5.53436">
        <ele>1648</ele>
        <time>2013-02-02T10:07:51Z</time>
      </trkpt>
      <trkpt lat="45.00242" lon="5.53435">
        <ele>1648</ele>
        <time>2013-02-02T10:07:56Z</time>
      </trkpt>
      <trkpt lat="45.00242" lon="5.53438">
        <ele>1648</ele>
        <time>2013-02-02T10:08:01Z</time>
      </trkpt>
      <trkpt lat="45.00242" lon="5.53442">
        <ele>1649</ele>
        <time>2013-02-02T10:08:06Z</time>
      </trkpt>
      <trkpt lat="45.00241" lon="5.53443">
        <ele>1649</ele>
        <time>2013-02-02T10:08:11Z</time>
      </trkpt>
      <trkpt lat="45.00241" lon="5.53443">
        <ele>1649</ele>
        <time>2013-02-02T10:08:16Z</time>
      </trkpt>
      <trkpt lat="45.00241" lon="5.53443">
        <ele>1649</ele>
        <time>2013-02-02T10:08:21Z</time>
      </trkpt>
      <trkpt lat="45.00242" lon="5.53443">
        <ele>1649</ele>
        <time>2013-02-02T10:08:26Z</time>
      </trkpt>
      <trkpt lat="45.0024" lon="5.53447">
        <ele>1650</ele>
        <time>2013-02-02T10:08:31Z</time>
      </trkpt>
      <trkpt lat="45.00239" lon="5.53451">
        <ele>1650</ele>
        <time>2013-02-02T10:08:36Z</time>
      </trkpt>
      <trkpt lat="45.00237" lon="5.53454">
        <ele>1650</ele>
        <time>2013-02-02T10:08:41Z</time>
      </trkpt>
      <trkpt lat="45.00235" lon="5.53454">
        <ele>1651</ele>
        <time>2013-02-02T10:08:46Z</time>
      </trkpt>
      <trkpt lat="45.00233" lon="5.53456">
        <ele>1650</ele>
        <time>2013-02-02T10:08:51Z</time>
      </trkpt>
      <trkpt lat="45.00232" lon="5.53457">
        <ele>1649</ele>
        <time>2013-02-02T10:08:56Z</time>
      </trkpt>
      <trkpt lat="45.00231" lon="5.53459">
        <ele>1648</ele>
        <time>2013-02-02T10:09:01Z</time>
      </trkpt>
      <trkpt lat="45.00231" lon="5.53459">
        <ele>1648</ele>
        <time>2013-02-02T10:09:06Z</time>
      </trkpt>
      <trkpt lat="45.0023" lon="5.53459">
        <ele>1647</ele>
        <time>2013-02-02T10:09:11Z</time>
      </trkpt>
      <trkpt lat="45.00229" lon="5.53461">
        <ele>1647</ele>
        <time>2013-02-02T10:09:16Z</time>
      </trkpt>
      <trkpt lat="45.00221" lon="5.5347">
        <ele>1644</ele>
        <time>2013-02-02T10:09:21Z</time>
      </trkpt>
      <trkpt lat="45.00219" lon="5.53475">
        <ele>1642</ele>
        <time>2013-02-02T10:09:26Z</time>
      </trkpt>
      <trkpt lat="45.00214" lon="5.53474">
        <ele>1641</ele>
        <time>2013-02-02T10:09:31Z</time>
      </trkpt>
      <trkpt lat="45.00213" lon="5.53475">
        <ele>1641</ele>
        <time>2013-02-02T10:09:36Z</time>
      </trkpt>
      <trkpt lat="45.00213" lon="5.53475">
        <ele>1641</ele>
        <time>2013-02-02T10:09:41Z</time>
      </trkpt>
      <trkpt lat="45.00212" lon="5.53478">
        <ele>1641</ele>
        <time>2013-02-02T10:09:46Z</time>
      </trkpt>
      <trkpt lat="45.0021" lon="5.5348">
        <ele>1641</ele>
        <time>2013-02-02T10:09:51Z</time>
      </trkpt>
      <trkpt lat="45.00209" lon="5.53483">
        <ele>1642</ele>
        <time>2013-02-02T10:09:56Z</time>
      </trkpt>
      <trkpt lat="45.00206" lon="5.53491">
        <ele>1639</ele>
        <time>2013-02-02T10:10:01Z</time>
      </trkpt>
      <trkpt lat="45.00202" lon="5.53504">
        <ele>1636</ele>
        <time>2013-02-02T10:10:06Z</time>
      </trkpt>
      <trkpt lat="45.00202" lon="5.53515">
        <ele>1633</ele>
        <time>2013-02-02T10:10:11Z</time>
      </trkpt>
      <trkpt lat="45.00202" lon="5.53517">
        <ele>1632</ele>
        <time>2013-02-02T10:10:16Z</time>
      </trkpt>
      <trkpt lat="45.00202" lon="5.53517">
        <ele>1633</ele>
        <time>2013-02-02T10:10:21Z</time>
      </trkpt>
      <trkpt lat="45.00202" lon="5.53517">
        <ele>1634</ele>
        <time>2013-02-02T10:10:26Z</time>
      </trkpt>
      <trkpt lat="45.00202" lon="5.53517">
        <ele>1634</ele>
        <time>2013-02-02T10:10:31Z</time>
      </trkpt>
      <trkpt lat="45.00203" lon="5.53516">
        <ele>1633</ele>
        <time>2013-02-02T10:10:36Z</time>
      </trkpt>
      <trkpt lat="45.00203" lon="5.53517">
        <ele>1633</ele>
        <time>2013-02-02T10:10:41Z</time>
      </trkpt>
      <trkpt lat="45.00202" lon="5.5352">
        <ele>1633</ele>
        <time>2013-02-02T10:10:46Z</time>
      </trkpt>
      <trkpt lat="45.002" lon="5.53522">
        <ele>1634</ele>
        <time>2013-02-02T10:10:51Z</time>
      </trkpt>
      <trkpt lat="45.00196" lon="5.53529">
        <ele>1632</ele>
        <time>2013-02-02T10:10:56Z</time>
      </trkpt>
      <trkpt lat="45.00184" lon="5.5354">
        <ele>1631</ele>
        <time>2013-02-02T10:11:01Z</time>
      </trkpt>
      <trkpt lat="45.00178" lon="5.53542">
        <ele>1630</ele>
        <time>2013-02-02T10:11:06Z</time>
      </trkpt>
      <trkpt lat="45.00178" lon="5.53542">
        <ele>1628</ele>
        <time>2013-02-02T10:11:11Z</time>
      </trkpt>
      <trkpt lat="45.00179" lon="5.53544">
        <ele>1627</ele>
        <time>2013-02-02T10:11:16Z</time>
      </trkpt>
      <trkpt lat="45.00179" lon="5.53547">
        <ele>1625</ele>
        <time>2013-02-02T10:11:21Z</time>
      </trkpt>
      <trkpt lat="45.00177" lon="5.53556">
        <ele>1623</ele>
        <time>2013-02-02T10:11:26Z</time>
      </trkpt>
      <trkpt lat="45.00175" lon="5.53565">
        <ele>1623</ele>
        <time>2013-02-02T10:11:31Z</time>
      </trkpt>
      <trkpt lat="45.0017" lon="5.53571">
        <ele>1623</ele>
        <time>2013-02-02T10:11:36Z</time>
      </trkpt>
      <trkpt lat="45.00166" lon="5.53574">
        <ele>1622</ele>
        <time>2013-02-02T10:11:41Z</time>
      </trkpt>
      <trkpt lat="45.00166" lon="5.53575">
        <ele>1621</ele>
        <time>2013-02-02T10:11:46Z</time>
      </trkpt>
      <trkpt lat="45.00166" lon="5.53575">
        <ele>1620</ele>
        <time>2013-02-02T10:11:51Z</time>
      </trkpt>
      <trkpt lat="45.00166" lon="5.53575">
        <ele>1620</ele>
        <time>2013-02-02T10:11:56Z</time>
      </trkpt>
      <trkpt lat="45.00166" lon="5.53576">
        <ele>1619</ele>
        <time>2013-02-02T10:12:01Z</time>
      </trkpt>
      <trkpt lat="45.00166" lon="5.53576">
        <ele>1618</ele>
        <time>2013-02-02T10:12:06Z</time>
      </trkpt>
      <trkpt lat="45.00166" lon="5.53576">
        <ele>1617</ele>
        <time>2013-02-02T10:12:11Z</time>
      </trkpt>
      <trkpt lat="45.00166" lon="5.53576">
        <ele>1616</ele>
        <time>2013-02-02T10:12:16Z</time>
      </trkpt>
      <trkpt lat="45.00166" lon="5.53577">
        <ele>1616</ele>
        <time>2013-02-02T10:12:21Z</time>
      </trkpt>
      <trkpt lat="45.00166" lon="5.53577">
        <ele>1614</ele>
        <time>2013-02-02T10:12:26Z</time>
      </trkpt>
      <trkpt lat="45.00167" lon="5.53577">
        <ele>1612</ele>
        <time>2013-02-02T10:12:31Z</time>
      </trkpt>
      <trkpt lat="45.00167" lon="5.53577">
        <ele>1611</ele>
        <time>2013-02-02T10:12:36Z</time>
      </trkpt>
      <trkpt lat="45.00167" lon="5.53577">
        <ele>1610</ele>
        <time>2013-02-02T10:12:41Z</time>
      </trkpt>
      <trkpt lat="45.00167" lon="5.53576">
        <ele>1611</ele>
        <time>2013-02-02T10:12:46Z</time>
      </trkpt>
      <trkpt lat="45.00166" lon="5.53576">
        <ele>1611</ele>
        <time>2013-02-02T10:12:51Z</time>
      </trkpt>
      <trkpt lat="45.00166" lon="5.53576">
        <ele>1611</ele>
        <time>2013-02-02T10:12:56Z</time>
      </trkpt>
      <trkpt lat="45.00166" lon="5.53576">
        <ele>1611</ele>
        <time>2013-02-02T10:13:01Z</time>
      </trkpt>
      <trkpt lat="45.00166" lon="5.53576">
        <ele>1612</ele>
        <time>2013-02-02T10:13:06Z</time>
      </trkpt>
      <trkpt lat="45.00165" lon="5.53576">
        <ele>1612</ele>
        <time>2013-02-02T10:13:11Z</time>
      </trkpt>
      <trkpt lat="45.00162" lon="5.53573">
        <ele>1613</ele>
        <time>2013-02-02T10:13:16Z</time>
      </trkpt>
      <trkpt lat="45.0016" lon="5.53571">
        <ele>1615</ele>
        <time>2013-02-02T10:13:21Z</time>
      </trkpt>
      <trkpt lat="45.00159" lon="5.5357">
        <ele>1616</ele>
        <time>2013-02-02T10:13:26Z</time>
      </trkpt>
      <trkpt lat="45.00156" lon="5.5357">
        <ele>1617</ele>
        <time>2013-02-02T10:13:31Z</time>
      </trkpt>
      <trkpt lat="45.00153" lon="5.53571">
        <ele>1619</ele>
        <time>2013-02-02T10:13:36Z</time>
      </trkpt>
      <trkpt lat="45.00151" lon="5.5357">
        <ele>1620</ele>
        <time>2013-02-02T10:13:41Z</time>
      </trkpt>
      <trkpt lat="45.00149" lon="5.53569">
        <ele>1622</ele>
        <time>2013-02-02T10:13:46Z</time>
      </trkpt>
      <trkpt lat="45.00148" lon="5.53572">
        <ele>1622</ele>
        <time>2013-02-02T10:13:51Z</time>
      </trkpt>
      <trkpt lat="45.0015" lon="5.53577">
        <ele>1623</ele>
        <time>2013-02-02T10:13:56Z</time>
      </trkpt>
      <trkpt lat="45.0015" lon="5.5358">
        <ele>1623</ele>
        <time>2013-02-02T10:14:01Z</time>
      </trkpt>
      <trkpt lat="45.0015" lon="5.5358">
        <ele>1623</ele>
        <time>2013-02-02T10:14:06Z</time>
      </trkpt>
      <trkpt lat="45.00151" lon="5.53581">
        <ele>1623</ele>
        <time>2013-02-02T10:14:11Z</time>
      </trkpt>
      <trkpt lat="45.00152" lon="5.53584">
        <ele>1623</ele>
        <time>2013-02-02T10:14:16Z</time>
      </trkpt>
      <trkpt lat="45.00153" lon="5.53586">
        <ele>1624</ele>
        <time>2013-02-02T10:14:21Z</time>
      </trkpt>
      <trkpt lat="45.00153" lon="5.53587">
        <ele>1625</ele>
        <time>2013-02-02T10:14:26Z</time>
      </trkpt>
      <trkpt lat="45.00153" lon="5.53591">
        <ele>1625</ele>
        <time>2013-02-02T10:14:31Z</time>
      </trkpt>
      <trkpt lat="45.00152" lon="5.53593">
        <ele>1626</ele>
        <time>2013-02-02T10:14:36Z</time>
      </trkpt>
      <trkpt lat="45.00151" lon="5.53594">
        <ele>1625</ele>
        <time>2013-02-02T10:14:41Z</time>
      </trkpt>
      <trkpt lat="45.0015" lon="5.53594">
        <ele>1626</ele>
        <time>2013-02-02T10:14:46Z</time>
      </trkpt>
      <trkpt lat="45.00149" lon="5.53596">
        <ele>1626</ele>
        <time>2013-02-02T10:14:51Z</time>
      </trkpt>
      <trkpt lat="45.0015" lon="5.536">
        <ele>1626</ele>
        <time>2013-02-02T10:14:56Z</time>
      </trkpt>
      <trkpt lat="45.00152" lon="5.53604">
        <ele>1626</ele>
        <time>2013-02-02T10:15:01Z</time>
      </trkpt>
      <trkpt lat="45.00153" lon="5.53604">
        <ele>1626</ele>
        <time>2013-02-02T10:15:06Z</time>
      </trkpt>
      <trkpt lat="45.00153" lon="5.53605">
        <ele>1628</ele>
        <time>2013-02-02T10:15:11Z</time>
      </trkpt>
      <trkpt lat="45.00153" lon="5.53605">
        <ele>1627</ele>
        <time>2013-02-02T10:15:16Z</time>
      </trkpt>
      <trkpt lat="45.00155" lon="5.53607">
        <ele>1627</ele>
        <time>2013-02-02T10:15:21Z</time>
      </trkpt>
      <trkpt lat="45.00156" lon="5.53609">
        <ele>1628</ele>
        <time>2013-02-02T10:15:26Z</time>
      </trkpt>
      <trkpt lat="45.00156" lon="5.5361">
        <ele>1629</ele>
        <time>2013-02-02T10:15:31Z</time>
      </trkpt>
      <trkpt lat="45.00153" lon="5.53611">
        <ele>1630</ele>
        <time>2013-02-02T10:15:36Z</time>
      </trkpt>
      <trkpt lat="45.0015" lon="5.53612">
        <ele>1631</ele>
        <time>2013-02-02T10:15:41Z</time>
      </trkpt>
      <trkpt lat="45.00147" lon="5.53612">
        <ele>1631</ele>
        <time>2013-02-02T10:15:46Z</time>
      </trkpt>
      <trkpt lat="45.00145" lon="5.53612">
        <ele>1632</ele>
        <time>2013-02-02T10:15:51Z</time>
      </trkpt>
      <trkpt lat="45.00143" lon="5.53612">
        <ele>1633</ele>
        <time>2013-02-02T10:15:56Z</time>
      </trkpt>
      <trkpt lat="45.00144" lon="5.53612">
        <ele>1635</ele>
        <time>2013-02-02T10:16:01Z</time>
      </trkpt>
      <trkpt lat="45.00146" lon="5.53612">
        <ele>1637</ele>
        <time>2013-02-02T10:16:06Z</time>
      </trkpt>
      <trkpt lat="45.00147" lon="5.53612">
        <ele>1638</ele>
        <time>2013-02-02T10:16:11Z</time>
      </trkpt>
      <trkpt lat="45.00148" lon="5.53612">
        <ele>1638</ele>
        <time>2013-02-02T10:16:16Z</time>
      </trkpt>
      <trkpt lat="45.00149" lon="5.53614">
        <ele>1638</ele>
        <time>2013-02-02T10:16:21Z</time>
      </trkpt>
      <trkpt lat="45.0015" lon="5.53613">
        <ele>1639</ele>
        <time>2013-02-02T10:16:26Z</time>
      </trkpt>
      <trkpt lat="45.0015" lon="5.53613">
        <ele>1640</ele>
        <time>2013-02-02T10:16:31Z</time>
      </trkpt>
      <trkpt lat="45.00151" lon="5.53613">
        <ele>1641</ele>
        <time>2013-02-02T10:16:36Z</time>
      </trkpt>
      <trkpt lat="45.0015" lon="5.53615">
        <ele>1640</ele>
        <time>2013-02-02T10:16:41Z</time>
      </trkpt>
      <trkpt lat="45.00149" lon="5.53619">
        <ele>1640</ele>
        <time>2013-02-02T10:16:46Z</time>
      </trkpt>
      <trkpt lat="45.00148" lon="5.53623">
        <ele>1641</ele>
        <time>2013-02-02T10:16:51Z</time>
      </trkpt>
      <trkpt lat="45.00147" lon="5.53625">
        <ele>1642</ele>
        <time>2013-02-02T10:16:56Z</time>
      </trkpt>
      <trkpt lat="45.00148" lon="5.53629">
        <ele>1645</ele>
        <time>2013-02-02T10:17:01Z</time>
      </trkpt>
      <trkpt lat="45.00151" lon="5.53633">
        <ele>1649</ele>
        <time>2013-02-02T10:17:06Z</time>
      </trkpt>
      <trkpt lat="45.00152" lon="5.53635">
        <ele>1652</ele>
        <time>2013-02-02T10:17:11Z</time>
      </trkpt>
      <trkpt lat="45.00149" lon="5.53635">
        <ele>1652</ele>
        <time>2013-02-02T10:17:16Z</time>
      </trkpt>
      <trkpt lat="45.00147" lon="5.53636">
        <ele>1668</ele>
        <time>2013-02-02T10:18:16Z</time>
      </trkpt>
      <trkpt lat="45.00148" lon="5.53638">
        <ele>1670</ele>
        <time>2013-02-02T10:18:21Z</time>
      </trkpt>
      <trkpt lat="45.00152" lon="5.53641">
        <ele>1674</ele>
        <time>2013-02-02T10:18:26Z</time>
      </trkpt>
      <trkpt lat="45.00155" lon="5.53644">
        <ele>1677</ele>
        <time>2013-02-02T10:18:31Z</time>
      </trkpt>
      <trkpt lat="45.00158" lon="5.53646">
        <ele>1680</ele>
        <time>2013-02-02T10:18:36Z</time>
      </trkpt>
      <trkpt lat="45.0016" lon="5.53651">
        <ele>1680</ele>
        <time>2013-02-02T10:18:41Z</time>
      </trkpt>
      <trkpt lat="45.00159" lon="5.53654">
        <ele>1678</ele>
        <time>2013-02-02T10:18:46Z</time>
      </trkpt>
      <trkpt lat="45.00158" lon="5.53654">
        <ele>1674</ele>
        <time>2013-02-02T10:18:51Z</time>
      </trkpt>
      <trkpt lat="45.00157" lon="5.53655">
        <ele>1671</ele>
        <time>2013-02-02T10:18:56Z</time>
      </trkpt>
      <trkpt lat="45.00157" lon="5.53657">
        <ele>1668</ele>
        <time>2013-02-02T10:19:01Z</time>
      </trkpt>
      <trkpt lat="45.00156" lon="5.5366">
        <ele>1663</ele>
        <time>2013-02-02T10:19:06Z</time>
      </trkpt>
      <trkpt lat="45.00155" lon="5.53665">
        <ele>1660</ele>
        <time>2013-02-02T10:19:11Z</time>
      </trkpt>
      <trkpt lat="45.00155" lon="5.53672">
        <ele>1658</ele>
        <time>2013-02-02T10:19:16Z</time>
      </trkpt>
      <trkpt lat="45.00153" lon="5.53677">
        <ele>1657</ele>
        <time>2013-02-02T10:19:21Z</time>
      </trkpt>
      <trkpt lat="45.00152" lon="5.53683">
        <ele>1657</ele>
        <time>2013-02-02T10:19:26Z</time>
      </trkpt>
      <trkpt lat="45.00151" lon="5.53685">
        <ele>1656</ele>
        <time>2013-02-02T10:19:31Z</time>
      </trkpt>
      <trkpt lat="45.0015" lon="5.53685">
        <ele>1656</ele>
        <time>2013-02-02T10:19:36Z</time>
      </trkpt>
      <trkpt lat="45.00148" lon="5.53684">
        <ele>1655</ele>
        <time>2013-02-02T10:19:41Z</time>
      </trkpt>
      <trkpt lat="45.00145" lon="5.53685">
        <ele>1655</ele>
        <time>2013-02-02T10:19:46Z</time>
      </trkpt>
      <trkpt lat="45.00144" lon="5.53689">
        <ele>1672</ele>
        <time>2013-02-02T10:21:01Z</time>
      </trkpt>
      <trkpt lat="45.00142" lon="5.53689">
        <ele>1669</ele>
        <time>2013-02-02T10:21:06Z</time>
      </trkpt>
      <trkpt lat="45.00139" lon="5.53688">
        <ele>1662</ele>
        <time>2013-02-02T10:21:11Z</time>
      </trkpt>
      <trkpt lat="45.00138" lon="5.53689">
        <ele>1660</ele>
        <time>2013-02-02T10:21:16Z</time>
      </trkpt>
      <trkpt lat="45.00137" lon="5.5369">
        <ele>1661</ele>
        <time>2013-02-02T10:21:21Z</time>
      </trkpt>
      <trkpt lat="45.00136" lon="5.53692">
        <ele>1667</ele>
        <time>2013-02-02T10:21:26Z</time>
      </trkpt>
      <trkpt lat="45.00136" lon="5.53692">
        <ele>1672</ele>
        <time>2013-02-02T10:21:31Z</time>
      </trkpt>
      <trkpt lat="45.0014" lon="5.53694">
        <ele>1672</ele>
        <time>2013-02-02T10:21:36Z</time>
      </trkpt>
      <trkpt lat="45.00143" lon="5.53696">
        <ele>1669</ele>
        <time>2013-02-02T10:21:41Z</time>
      </trkpt>
      <trkpt lat="45.00145" lon="5.53698">
        <ele>1665</ele>
        <time>2013-02-02T10:21:46Z</time>
      </trkpt>
      <trkpt lat="45.00144" lon="5.53706">
        <ele>1668</ele>
        <time>2013-02-02T10:24:46Z</time>
      </trkpt>
      <trkpt lat="45.00142" lon="5.5371">
        <ele>1665</ele>
        <time>2013-02-02T10:24:51Z</time>
      </trkpt>
      <trkpt lat="45.00142" lon="5.53715">
        <ele>1663</ele>
        <time>2013-02-02T10:24:56Z</time>
      </trkpt>
      <trkpt lat="45.00139" lon="5.53719">
        <ele>1663</ele>
        <time>2013-02-02T10:25:01Z</time>
      </trkpt>
      <trkpt lat="45.00137" lon="5.53721">
        <ele>1666</ele>
        <time>2013-02-02T10:25:06Z</time>
      </trkpt>
      <trkpt lat="45.0014" lon="5.53724">
        <ele>1670</ele>
        <time>2013-02-02T10:25:11Z</time>
      </trkpt>
      <trkpt lat="45.0014" lon="5.53725">
        <ele>1670</ele>
        <time>2013-02-02T10:25:16Z</time>
      </trkpt>
      <trkpt lat="45.00141" lon="5.53733">
        <ele>1661</ele>
        <time>2013-02-02T10:25:21Z</time>
      </trkpt>
      <trkpt lat="45.0014" lon="5.53742">
        <ele>1656</ele>
        <time>2013-02-02T10:25:26Z</time>
      </trkpt>
      <trkpt lat="45.00137" lon="5.53747">
        <ele>1655</ele>
        <time>2013-02-02T10:25:31Z</time>
      </trkpt>
      <trkpt lat="45.00138" lon="5.53756">
        <ele>1645</ele>
        <time>2013-02-02T10:25:36Z</time>
      </trkpt>
      <trkpt lat="45.00135" lon="5.53758">
        <ele>1644</ele>
        <time>2013-02-02T10:25:41Z</time>
      </trkpt>
      <trkpt lat="45.00127" lon="5.53756">
        <ele>1645</ele>
        <time>2013-02-02T10:25:46Z</time>
      </trkpt>
      <trkpt lat="45.00121" lon="5.53755">
        <ele>1648</ele>
        <time>2013-02-02T10:25:51Z</time>
      </trkpt>
      <trkpt lat="45.00115" lon="5.53755">
        <ele>1652</ele>
        <time>2013-02-02T10:25:56Z</time>
      </trkpt>
      <trkpt lat="45.00112" lon="5.53758">
        <ele>1653</ele>
        <time>2013-02-02T10:26:01Z</time>
      </trkpt>
      <trkpt lat="45.00111" lon="5.5376">
        <ele>1657</ele>
        <time>2013-02-02T10:26:06Z</time>
      </trkpt>
      <trkpt lat="45.00107" lon="5.53759">
        <ele>1661</ele>
        <time>2013-02-02T10:26:11Z</time>
      </trkpt>
      <trkpt lat="45.00104" lon="5.53761">
        <ele>1662</ele>
        <time>2013-02-02T10:26:16Z</time>
      </trkpt>
      <trkpt lat="45.00101" lon="5.53765">
        <ele>1662</ele>
        <time>2013-02-02T10:26:21Z</time>
      </trkpt>
      <trkpt lat="45.00098" lon="5.53769">
        <ele>1665</ele>
        <time>2013-02-02T10:26:26Z</time>
      </trkpt>
      <trkpt lat="45.00096" lon="5.5377">
        <ele>1666</ele>
        <time>2013-02-02T10:26:31Z</time>
      </trkpt>
      <trkpt lat="45.00095" lon="5.5377">
        <ele>1667</ele>
        <time>2013-02-02T10:26:36Z</time>
      </trkpt>
      <trkpt lat="45.00098" lon="5.53771">
        <ele>1662</ele>
        <time>2013-02-02T10:26:41Z</time>
      </trkpt>
      <trkpt lat="45.00099" lon="5.53772">
        <ele>1660</ele>
        <time>2013-02-02T10:26:46Z</time>
      </trkpt>
      <trkpt lat="45.001" lon="5.53773">
        <ele>1659</ele>
        <time>2013-02-02T10:26:51Z</time>
      </trkpt>
      <trkpt lat="45.00101" lon="5.53774">
        <ele>1658</ele>
        <time>2013-02-02T10:26:56Z</time>
      </trkpt>
      <trkpt lat="45.00101" lon="5.53775">
        <ele>1658</ele>
        <time>2013-02-02T10:27:01Z</time>
      </trkpt>
      <trkpt lat="45.001" lon="5.53776">
        <ele>1659</ele>
        <time>2013-02-02T10:27:06Z</time>
      </trkpt>
      <trkpt lat="45.00098" lon="5.53777">
        <ele>1661</ele>
        <time>2013-02-02T10:27:11Z</time>
      </trkpt>
      <trkpt lat="45.00099" lon="5.53776">
        <ele>1662</ele>
        <time>2013-02-02T10:27:16Z</time>
      </trkpt>
      <trkpt lat="45.001" lon="5.5378">
        <ele>1663</ele>
        <time>2013-02-02T10:27:21Z</time>
      </trkpt>
      <trkpt lat="45.001" lon="5.53784">
        <ele>1662</ele>
        <time>2013-02-02T10:27:26Z</time>
      </trkpt>
      <trkpt lat="45.001" lon="5.53791">
        <ele>1664</ele>
        <time>2013-02-02T10:27:31Z</time>
      </trkpt>
      <trkpt lat="45.001" lon="5.53797">
        <ele>1666</ele>
        <time>2013-02-02T10:27:36Z</time>
      </trkpt>
      <trkpt lat="45.00101" lon="5.53799">
        <ele>1669</ele>
        <time>2013-02-02T10:27:41Z</time>
      </trkpt>
      <trkpt lat="45.00102" lon="5.53805">
        <ele>1669</ele>
        <time>2013-02-02T10:27:46Z</time>
      </trkpt>
      <trkpt lat="45.00103" lon="5.53811">
        <ele>1668</ele>
        <time>2013-02-02T10:27:51Z</time>
      </trkpt>
      <trkpt lat="45.00105" lon="5.53812">
        <ele>1672</ele>
        <time>2013-02-02T10:27:56Z</time>
      </trkpt>
      <trkpt lat="45.00105" lon="5.53817">
        <ele>1674</ele>
        <time>2013-02-02T10:28:01Z</time>
      </trkpt>
      <trkpt lat="45.00108" lon="5.53823">
        <ele>1672</ele>
        <time>2013-02-02T10:28:06Z</time>
      </trkpt>
      <trkpt lat="45.0011" lon="5.53828">
        <ele>1672</ele>
        <time>2013-02-02T10:28:11Z</time>
      </trkpt>
      <trkpt lat="45.00109" lon="5.53833">
        <ele>1672</ele>
        <time>2013-02-02T10:28:16Z</time>
      </trkpt>
      <trkpt lat="45.0011" lon="5.53842">
        <ele>1668</ele>
        <time>2013-02-02T10:28:21Z</time>
      </trkpt>
      <trkpt lat="45.00108" lon="5.53848">
        <ele>1672</ele>
        <time>2013-02-02T10:28:26Z</time>
      </trkpt>
      <trkpt lat="45.00107" lon="5.53853">
        <ele>1678</ele>
        <time>2013-02-02T10:28:31Z</time>
      </trkpt>
      <trkpt lat="45.00105" lon="5.53857">
        <ele>1681</ele>
        <time>2013-02-02T10:28:36Z</time>
      </trkpt>
      <trkpt lat="45.00107" lon="5.53864">
        <ele>1679</ele>
        <time>2013-02-02T10:28:41Z</time>
      </trkpt>
      <trkpt lat="45.00107" lon="5.53862">
        <ele>1684</ele>
        <time>2013-02-02T10:28:46Z</time>
      </trkpt>
      <trkpt lat="45.00107" lon="5.53861">
        <ele>1684</ele>
        <time>2013-02-02T10:28:51Z</time>
      </trkpt>
      <trkpt lat="45.0011" lon="5.53866">
        <ele>1676</ele>
        <time>2013-02-02T10:28:56Z</time>
      </trkpt>
      <trkpt lat="45.00114" lon="5.53871">
        <ele>1672</ele>
        <time>2013-02-02T10:29:01Z</time>
      </trkpt>
      <trkpt lat="45.00116" lon="5.53872">
        <ele>1669</ele>
        <time>2013-02-02T10:29:06Z</time>
      </trkpt>
      <trkpt lat="45.00114" lon="5.53871">
        <ele>1669</ele>
        <time>2013-02-02T10:29:11Z</time>
      </trkpt>
      <trkpt lat="45.00115" lon="5.53872">
        <ele>1669</ele>
        <time>2013-02-02T10:29:16Z</time>
      </trkpt>
      <trkpt lat="45.00114" lon="5.53872">
        <ele>1671</ele>
        <time>2013-02-02T10:29:21Z</time>
      </trkpt>
      <trkpt lat="45.00113" lon="5.53869">
        <ele>1673</ele>
        <time>2013-02-02T10:29:26Z</time>
      </trkpt>
      <trkpt lat="45.00113" lon="5.53867">
        <ele>1677</ele>
        <time>2013-02-02T10:29:31Z</time>
      </trkpt>
      <trkpt lat="45.00112" lon="5.53865">
        <ele>1682</ele>
        <time>2013-02-02T10:29:36Z</time>
      </trkpt>
      <trkpt lat="45.00111" lon="5.53866">
        <ele>1685</ele>
        <time>2013-02-02T10:29:41Z</time>
      </trkpt>
      <trkpt lat="45.00111" lon="5.53867">
        <ele>1685</ele>
        <time>2013-02-02T10:29:46Z</time>
      </trkpt>
      <trkpt lat="45.00111" lon="5.5387">
        <ele>1681</ele>
        <time>2013-02-02T10:29:51Z</time>
      </trkpt>
      <trkpt lat="45.00111" lon="5.53871">
        <ele>1683</ele>
        <time>2013-02-02T10:29:56Z</time>
      </trkpt>
      <trkpt lat="45.0011" lon="5.5387">
        <ele>1689</ele>
        <time>2013-02-02T10:30:01Z</time>
      </trkpt>
      <trkpt lat="45.0011" lon="5.53869">
        <ele>1693</ele>
        <time>2013-02-02T10:30:06Z</time>
      </trkpt>
      <trkpt lat="45.00111" lon="5.53867">
        <ele>1692</ele>
        <time>2013-02-02T10:30:11Z</time>
      </trkpt>
      <trkpt lat="45.00116" lon="5.53869">
        <ele>1687</ele>
        <time>2013-02-02T10:30:16Z</time>
      </trkpt>
      <trkpt lat="45.00119" lon="5.53871">
        <ele>1686</ele>
        <time>2013-02-02T10:30:21Z</time>
      </trkpt>
      <trkpt lat="45.00122" lon="5.53873">
        <ele>1687</ele>
        <time>2013-02-02T10:30:26Z</time>
      </trkpt>
      <trkpt lat="45.00122" lon="5.53875">
        <ele>1688</ele>
        <time>2013-02-02T10:30:31Z</time>
      </trkpt>
      <trkpt lat="45.00122" lon="5.53875">
        <ele>1686</ele>
        <time>2013-02-02T10:30:36Z</time>
      </trkpt>
      <trkpt lat="45.00121" lon="5.53877">
        <ele>1686</ele>
        <time>2013-02-02T10:30:41Z</time>
      </trkpt>
      <trkpt lat="45.00121" lon="5.53883">
        <ele>1686</ele>
        <time>2013-02-02T10:30:46Z</time>
      </trkpt>
      <trkpt lat="45.00123" lon="5.5389">
        <ele>1682</ele>
        <time>2013-02-02T10:30:51Z</time>
      </trkpt>
      <trkpt lat="45.00125" lon="5.53896">
        <ele>1676</ele>
        <time>2013-02-02T10:30:56Z</time>
      </trkpt>
      <trkpt lat="45.00124" lon="5.53899">
        <ele>1674</ele>
        <time>2013-02-02T10:31:01Z</time>
      </trkpt>
      <trkpt lat="45.00121" lon="5.53898">
        <ele>1677</ele>
        <time>2013-02-02T10:31:06Z</time>
      </trkpt>
      <trkpt lat="45.00118" lon="5.53897">
        <ele>1682</ele>
        <time>2013-02-02T10:31:11Z</time>
      </trkpt>
      <trkpt lat="45.00116" lon="5.53896">
        <ele>1688</ele>
        <time>2013-02-02T10:31:16Z</time>
      </trkpt>
      <trkpt lat="45.00115" lon="5.53896">
        <ele>1693</ele>
        <time>2013-02-02T10:31:21Z</time>
      </trkpt>
      <trkpt lat="45.00114" lon="5.53894">
        <ele>1700</ele>
        <time>2013-02-02T10:31:26Z</time>
      </trkpt>
      <trkpt lat="45.00113" lon="5.53892">
        <ele>1705</ele>
        <time>2013-02-02T10:31:31Z</time>
      </trkpt>
      <trkpt lat="45.00112" lon="5.53891">
        <ele>1708</ele>
        <time>2013-02-02T10:31:36Z</time>
      </trkpt>
      <trkpt lat="45.00112" lon="5.53891">
        <ele>1709</ele>
        <time>2013-02-02T10:31:41Z</time>
      </trkpt>
      <trkpt lat="45.00112" lon="5.53891">
        <ele>1709</ele>
        <time>2013-02-02T10:31:46Z</time>
      </trkpt>
      <trkpt lat="45.00112" lon="5.53891">
        <ele>1709</ele>
        <time>2013-02-02T10:31:51Z</time>
      </trkpt>
      <trkpt lat="45.00111" lon="5.5389">
        <ele>1711</ele>
        <time>2013-02-02T10:31:56Z</time>
      </trkpt>
      <trkpt lat="45.00111" lon="5.5389">
        <ele>1712</ele>
        <time>2013-02-02T10:32:01Z</time>
      </trkpt>
      <trkpt lat="45.00111" lon="5.5389">
        <ele>1712</ele>
        <time>2013-02-02T10:32:06Z</time>
      </trkpt>
      <trkpt lat="45.00111" lon="5.5389">
        <ele>1711</ele>
        <time>2013-02-02T10:32:11Z</time>
      </trkpt>
      <trkpt lat="45.00113" lon="5.53892">
        <ele>1706</ele>
        <time>2013-02-02T10:32:16Z</time>
      </trkpt>
      <trkpt lat="45.00117" lon="5.53894">
        <ele>1700</ele>
        <time>2013-02-02T10:32:21Z</time>
      </trkpt>
      <trkpt lat="45.00121" lon="5.53894">
        <ele>1694</ele>
        <time>2013-02-02T10:32:26Z</time>
      </trkpt>
      <trkpt lat="45.00124" lon="5.53894">
        <ele>1689</ele>
        <time>2013-02-02T10:32:31Z</time>
      </trkpt>
      <trkpt lat="45.00126" lon="5.53895">
        <ele>1682</ele>
        <time>2013-02-02T10:32:36Z</time>
      </trkpt>
      <trkpt lat="45.00126" lon="5.53895">
        <ele>1677</ele>
        <time>2013-02-02T10:32:41Z</time>
      </trkpt>
      <trkpt lat="45.00127" lon="5.53896">
        <ele>1673</ele>
        <time>2013-02-02T10:32:46Z</time>
      </trkpt>
      <trkpt lat="45.00127" lon="5.53897">
        <ele>1670</ele>
        <time>2013-02-02T10:32:51Z</time>
      </trkpt>
      <trkpt lat="45.00126" lon="5.53896">
        <ele>1674</ele>
        <time>2013-02-02T10:32:56Z</time>
      </trkpt>
      <trkpt lat="45.00126" lon="5.53895">
        <ele>1674</ele>
        <time>2013-02-02T10:33:01Z</time>
      </trkpt>
      <trkpt lat="45.0013" lon="5.53898">
        <ele>1670</ele>
        <time>2013-02-02T10:33:06Z</time>
      </trkpt>
      <trkpt lat="45.00128" lon="5.53895">
        <ele>1677</ele>
        <time>2013-02-02T10:33:11Z</time>
      </trkpt>
      <trkpt lat="45.00126" lon="5.53894">
        <ele>1681</ele>
        <time>2013-02-02T10:33:16Z</time>
      </trkpt>
      <trkpt lat="45.00124" lon="5.53894">
        <ele>1684</ele>
        <time>2013-02-02T10:33:21Z</time>
      </trkpt>
      <trkpt lat="45.00121" lon="5.53894">
        <ele>1687</ele>
        <time>2013-02-02T10:33:26Z</time>
      </trkpt>
      <trkpt lat="45.00119" lon="5.53894">
        <ele>1689</ele>
        <time>2013-02-02T10:33:31Z</time>
      </trkpt>
      <trkpt lat="45.00118" lon="5.53894">
        <ele>1690</ele>
        <time>2013-02-02T10:33:36Z</time>
      </trkpt>
      <trkpt lat="45.00118" lon="5.53894">
        <ele>1692</ele>
        <time>2013-02-02T10:33:41Z</time>
      </trkpt>
      <trkpt lat="45.00117" lon="5.53894">
        <ele>1693</ele>
        <time>2013-02-02T10:33:46Z</time>
      </trkpt>
      <trkpt lat="45.00117" lon="5.53894">
        <ele>1694</ele>
        <time>2013-02-02T10:33:51Z</time>
      </trkpt>
      <trkpt lat="45.00116" lon="5.53894">
        <ele>1694</ele>
        <time>2013-02-02T10:33:56Z</time>
      </trkpt>
      <trkpt lat="45.00116" lon="5.53894">
        <ele>1695</ele>
        <time>2013-02-02T10:34:01Z</time>
      </trkpt>
      <trkpt lat="45.00116" lon="5.53894">
        <ele>1695</ele>
        <time>2013-02-02T10:34:06Z</time>
      </trkpt>
      <trkpt lat="45.00116" lon="5.53894">
        <ele>1696</ele>
        <time>2013-02-02T10:34:11Z</time>
      </trkpt>
      <trkpt lat="45.00115" lon="5.53894">
        <ele>1696</ele>
        <time>2013-02-02T10:34:16Z</time>
      </trkpt>
      <trkpt lat="45.00115" lon="5.53894">
        <ele>1697</ele>
        <time>2013-02-02T10:34:21Z</time>
      </trkpt>
      <trkpt lat="45.00115" lon="5.53894">
        <ele>1697</ele>
        <time>2013-02-02T10:34:26Z</time>
      </trkpt>
      <trkpt lat="45.00115" lon="5.53894">
        <ele>1697</ele>
        <time>2013-02-02T10:34:31Z</time>
      </trkpt>
      <trkpt lat="45.00115" lon="5.53894">
        <ele>1698</ele>
        <time>2013-02-02T10:34:36Z</time>
      </trkpt>
      <trkpt lat="45.00115" lon="5.53894">
        <ele>1698</ele>
        <time>2013-02-02T10:34:41Z</time>
      </trkpt>
      <trkpt lat="45.00115" lon="5.53894">
        <ele>1698</ele>
        <time>2013-02-02T10:34:46Z</time>
      </trkpt>
      <trkpt lat="45.00115" lon="5.53894">
        <ele>1699</ele>
        <time>2013-02-02T10:34:51Z</time>
      </trkpt>
      <trkpt lat="45.00115" lon="5.53894">
        <ele>1699</ele>
        <time>2013-02-02T10:34:56Z</time>
      </trkpt>
      <trkpt lat="45.00115" lon="5.53894">
        <ele>1699</ele>
        <time>2013-02-02T10:35:01Z</time>
      </trkpt>
      <trkpt lat="45.00115" lon="5.53894">
        <ele>1699</ele>
        <time>2013-02-02T10:35:06Z</time>
      </trkpt>
      <trkpt lat="45.00114" lon="5.53894">
        <ele>1699</ele>
        <time>2013-02-02T10:35:11Z</time>
      </trkpt>
      <trkpt lat="45.00114" lon="5.53894">
        <ele>1700</ele>
        <time>2013-02-02T10:35:16Z</time>
      </trkpt>
      <trkpt lat="45.00114" lon="5.53893">
        <ele>1700</ele>
        <time>2013-02-02T10:35:21Z</time>
      </trkpt>
      <trkpt lat="45.00114" lon="5.53893">
        <ele>1700</ele>
        <time>2013-02-02T10:35:26Z</time>
      </trkpt>
      <trkpt lat="45.00114" lon="5.53893">
        <ele>1700</ele>
        <time>2013-02-02T10:35:31Z</time>
      </trkpt>
      <trkpt lat="45.00114" lon="5.53893">
        <ele>1700</ele>
        <time>2013-02-02T10:35:36Z</time>
      </trkpt>
      <trkpt lat="45.00114" lon="5.53893">
        <ele>1700</ele>
        <time>2013-02-02T10:35:41Z</time>
      </trkpt>
      <trkpt lat="45.00114" lon="5.53893">
        <ele>1700</ele>
        <time>2013-02-02T10:35:46Z</time>
      </trkpt>
      <trkpt lat="45.00114" lon="5.53893">
        <ele>1700</ele>
        <time>2013-02-02T10:35:51Z</time>
      </trkpt>
      <trkpt lat="45.00114" lon="5.53894">
        <ele>1700</ele>
        <time>2013-02-02T10:35:56Z</time>
      </trkpt>
      <trkpt lat="45.00114" lon="5.53894">
        <ele>1701</ele>
        <time>2013-02-02T10:36:01Z</time>
      </trkpt>
      <trkpt lat="45.00114" lon="5.53894">
        <ele>1701</ele>
        <time>2013-02-02T10:36:06Z</time>
      </trkpt>
      <trkpt lat="45.00114" lon="5.53894">
        <ele>1701</ele>
        <time>2013-02-02T10:36:11Z</time>
      </trkpt>
      <trkpt lat="45.00114" lon="5.53894">
        <ele>1701</ele>
        <time>2013-02-02T10:36:16Z</time>
      </trkpt>
      <trkpt lat="45.00114" lon="5.53894">
        <ele>1701</ele>
        <time>2013-02-02T10:36:21Z</time>
      </trkpt>
      <trkpt lat="45.00114" lon="5.53894">
        <ele>1701</ele>
        <time>2013-02-02T10:36:26Z</time>
      </trkpt>
      <trkpt lat="45.00114" lon="5.53894">
        <ele>1701</ele>
        <time>2013-02-02T10:36:31Z</time>
      </trkpt>
      <trkpt lat="45.00114" lon="5.53894">
        <ele>1701</ele>
        <time>2013-02-02T10:36:36Z</time>
      </trkpt>
      <trkpt lat="45.00114" lon="5.53894">
        <ele>1701</ele>
        <time>2013-02-02T10:36:41Z</time>
      </trkpt>
      <trkpt lat="45.00114" lon="5.53894">
        <ele>1701</ele>
        <time>2013-02-02T10:36:46Z</time>
      </trkpt>
      <trkpt lat="45.00114" lon="5.53894">
        <ele>1701</ele>
        <time>2013-02-02T10:36:51Z</time>
      </trkpt>
      <trkpt lat="45.00114" lon="5.53895">
        <ele>1701</ele>
        <time>2013-02-02T10:36:56Z</time>
      </trkpt>
      <trkpt lat="45.00114" lon="5.53894">
        <ele>1701</ele>
        <time>2013-02-02T10:37:01Z</time>
      </trkpt>
      <trkpt lat="45.00113" lon="5.53894">
        <ele>1701</ele>
        <time>2013-02-02T10:37:06Z</time>
      </trkpt>
      <trkpt lat="45.00114" lon="5.53894">
        <ele>1702</ele>
        <time>2013-02-02T10:37:11Z</time>
      </trkpt>
      <trkpt lat="45.00114" lon="5.53894">
        <ele>1702</ele>
        <time>2013-02-02T10:37:16Z</time>
      </trkpt>
      <trkpt lat="45.00114" lon="5.53894">
        <ele>1702</ele>
        <time>2013-02-02T10:37:21Z</time>
      </trkpt>
      <trkpt lat="45.00114" lon="5.53894">
        <ele>1702</ele>
        <time>2013-02-02T10:37:26Z</time>
      </trkpt>
      <trkpt lat="45.00114" lon="5.53894">
        <ele>1702</ele>
        <time>2013-02-02T10:37:31Z</time>
      </trkpt>
      <trkpt lat="45.00114" lon="5.53894">
        <ele>1702</ele>
        <time>2013-02-02T10:37:36Z</time>
      </trkpt>
      <trkpt lat="45.00114" lon="5.53894">
        <ele>1702</ele>
        <time>2013-02-02T10:37:41Z</time>
      </trkpt>
      <trkpt lat="45.00114" lon="5.53894">
        <ele>1702</ele>
        <time>2013-02-02T10:37:46Z</time>
      </trkpt>
      <trkpt lat="45.00114" lon="5.53894">
        <ele>1702</ele>
        <time>2013-02-02T10:37:51Z</time>
      </trkpt>
      <trkpt lat="45.00114" lon="5.53894">
        <ele>1702</ele>
        <time>2013-02-02T10:37:56Z</time>
      </trkpt>
      <trkpt lat="45.00114" lon="5.53894">
        <ele>1702</ele>
        <time>2013-02-02T10:38:01Z</time>
      </trkpt>
      <trkpt lat="45.00114" lon="5.53894">
        <ele>1702</ele>
        <time>2013-02-02T10:38:06Z</time>
      </trkpt>
      <trkpt lat="45.00113" lon="5.53894">
        <ele>1702</ele>
        <time>2013-02-02T10:38:11Z</time>
      </trkpt>
      <trkpt lat="45.00111" lon="5.53894">
        <ele>1702</ele>
        <time>2013-02-02T10:38:16Z</time>
      </trkpt>
      <trkpt lat="45.00109" lon="5.53896">
        <ele>1703</ele>
        <time>2013-02-02T10:38:21Z</time>
      </trkpt>
      <trkpt lat="45.00108" lon="5.53897">
        <ele>1703</ele>
        <time>2013-02-02T10:38:26Z</time>
      </trkpt>
      <trkpt lat="45.00107" lon="5.53897">
        <ele>1704</ele>
        <time>2013-02-02T10:38:31Z</time>
      </trkpt>
      <trkpt lat="45.00106" lon="5.53897">
        <ele>1704</ele>
        <time>2013-02-02T10:38:36Z</time>
      </trkpt>
      <trkpt lat="45.00107" lon="5.53898">
        <ele>1706</ele>
        <time>2013-02-02T10:38:41Z</time>
      </trkpt>
      <trkpt lat="45.00107" lon="5.53898">
        <ele>1706</ele>
        <time>2013-02-02T10:38:46Z</time>
      </trkpt>
      <trkpt lat="45.00108" lon="5.53898">
        <ele>1707</ele>
        <time>2013-02-02T10:38:51Z</time>
      </trkpt>
      <trkpt lat="45.00108" lon="5.539">
        <ele>1708</ele>
        <time>2013-02-02T10:38:56Z</time>
      </trkpt>
      <trkpt lat="45.00107" lon="5.53902">
        <ele>1708</ele>
        <time>2013-02-02T10:39:01Z</time>
      </trkpt>
      <trkpt lat="45.00105" lon="5.53903">
        <ele>1707</ele>
        <time>2013-02-02T10:39:06Z</time>
      </trkpt>
      <trkpt lat="45.00103" lon="5.53905">
        <ele>1707</ele>
        <time>2013-02-02T10:39:11Z</time>
      </trkpt>
      <trkpt lat="45.00103" lon="5.53908">
        <ele>1708</ele>
        <time>2013-02-02T10:39:16Z</time>
      </trkpt>
      <trkpt lat="45.00104" lon="5.5391">
        <ele>1709</ele>
        <time>2013-02-02T10:39:21Z</time>
      </trkpt>
      <trkpt lat="45.00104" lon="5.5391">
        <ele>1709</ele>
        <time>2013-02-02T10:39:26Z</time>
      </trkpt>
      <trkpt lat="45.00104" lon="5.5391">
        <ele>1709</ele>
        <time>2013-02-02T10:39:31Z</time>
      </trkpt>
      <trkpt lat="45.00105" lon="5.5391">
        <ele>1709</ele>
        <time>2013-02-02T10:39:36Z</time>
      </trkpt>
      <trkpt lat="45.00106" lon="5.53913">
        <ele>1710</ele>
        <time>2013-02-02T10:39:41Z</time>
      </trkpt>
      <trkpt lat="45.00106" lon="5.53915">
        <ele>1710</ele>
        <time>2013-02-02T10:39:46Z</time>
      </trkpt>
      <trkpt lat="45.00105" lon="5.53917">
        <ele>1710</ele>
        <time>2013-02-02T10:39:51Z</time>
      </trkpt>
      <trkpt lat="45.00104" lon="5.53919">
        <ele>1711</ele>
        <time>2013-02-02T10:39:56Z</time>
      </trkpt>
      <trkpt lat="45.00104" lon="5.53919">
        <ele>1711</ele>
        <time>2013-02-02T10:40:01Z</time>
      </trkpt>
      <trkpt lat="45.00104" lon="5.5392">
        <ele>1712</ele>
        <time>2013-02-02T10:40:06Z</time>
      </trkpt>
      <trkpt lat="45.00104" lon="5.53922">
        <ele>1713</ele>
        <time>2013-02-02T10:40:11Z</time>
      </trkpt>
      <trkpt lat="45.00104" lon="5.53923">
        <ele>1714</ele>
        <time>2013-02-02T10:40:16Z</time>
      </trkpt>
      <trkpt lat="45.00105" lon="5.53923">
        <ele>1714</ele>
        <time>2013-02-02T10:40:21Z</time>
      </trkpt>
      <trkpt lat="45.00105" lon="5.53926">
        <ele>1715</ele>
        <time>2013-02-02T10:40:26Z</time>
      </trkpt>
      <trkpt lat="45.00105" lon="5.5393">
        <ele>1715</ele>
        <time>2013-02-02T10:40:31Z</time>
      </trkpt>
      <trkpt lat="45.00105" lon="5.53932">
        <ele>1715</ele>
        <time>2013-02-02T10:40:36Z</time>
      </trkpt>
      <trkpt lat="45.00105" lon="5.53933">
        <ele>1715</ele>
        <time>2013-02-02T10:40:41Z</time>
      </trkpt>
      <trkpt lat="45.00105" lon="5.53937">
        <ele>1716</ele>
        <time>2013-02-02T10:40:46Z</time>
      </trkpt>
      <trkpt lat="45.00105" lon="5.53941">
        <ele>1716</ele>
        <time>2013-02-02T10:40:51Z</time>
      </trkpt>
      <trkpt lat="45.00105" lon="5.53944">
        <ele>1717</ele>
        <time>2013-02-02T10:40:56Z</time>
      </trkpt>
      <trkpt lat="45.00106" lon="5.53947">
        <ele>1718</ele>
        <time>2013-02-02T10:41:01Z</time>
      </trkpt>
      <trkpt lat="45.00107" lon="5.53948">
        <ele>1718</ele>
        <time>2013-02-02T10:41:06Z</time>
      </trkpt>
      <trkpt lat="45.00107" lon="5.53948">
        <ele>1718</ele>
        <time>2013-02-02T10:41:11Z</time>
      </trkpt>
      <trkpt lat="45.00107" lon="5.53948">
        <ele>1720</ele>
        <time>2013-02-02T10:41:16Z</time>
      </trkpt>
      <trkpt lat="45.00107" lon="5.53947">
        <ele>1721</ele>
        <time>2013-02-02T10:41:21Z</time>
      </trkpt>
      <trkpt lat="45.00107" lon="5.53947">
        <ele>1721</ele>
        <time>2013-02-02T10:41:26Z</time>
      </trkpt>
      <trkpt lat="45.00107" lon="5.53947">
        <ele>1721</ele>
        <time>2013-02-02T10:41:31Z</time>
      </trkpt>
      <trkpt lat="45.00107" lon="5.53947">
        <ele>1720</ele>
        <time>2013-02-02T10:41:36Z</time>
      </trkpt>
      <trkpt lat="45.00108" lon="5.53947">
        <ele>1720</ele>
        <time>2013-02-02T10:41:41Z</time>
      </trkpt>
      <trkpt lat="45.00107" lon="5.53947">
        <ele>1718</ele>
        <time>2013-02-02T10:41:46Z</time>
      </trkpt>
      <trkpt lat="45.00107" lon="5.53946">
        <ele>1717</ele>
        <time>2013-02-02T10:41:51Z</time>
      </trkpt>
      <trkpt lat="45.00108" lon="5.53945">
        <ele>1717</ele>
        <time>2013-02-02T10:41:56Z</time>
      </trkpt>
      <trkpt lat="45.00108" lon="5.53945">
        <ele>1717</ele>
        <time>2013-02-02T10:42:01Z</time>
      </trkpt>
      <trkpt lat="45.0011" lon="5.53944">
        <ele>1718</ele>
        <time>2013-02-02T10:42:06Z</time>
      </trkpt>
      <trkpt lat="45.00109" lon="5.53941">
        <ele>1718</ele>
        <time>2013-02-02T10:42:11Z</time>
      </trkpt>
      <trkpt lat="45.00107" lon="5.53935">
        <ele>1716</ele>
        <time>2013-02-02T10:42:16Z</time>
      </trkpt>
      <trkpt lat="45.00107" lon="5.53932">
        <ele>1715</ele>
        <time>2013-02-02T10:42:21Z</time>
      </trkpt>
      <trkpt lat="45.00105" lon="5.53931">
        <ele>1714</ele>
        <time>2013-02-02T10:42:26Z</time>
      </trkpt>
      <trkpt lat="45.00102" lon="5.53929">
        <ele>1714</ele>
        <time>2013-02-02T10:42:31Z</time>
      </trkpt>
      <trkpt lat="45.001" lon="5.53927">
        <ele>1715</ele>
        <time>2013-02-02T10:42:36Z</time>
      </trkpt>
      <trkpt lat="45.00099" lon="5.53926">
        <ele>1716</ele>
        <time>2013-02-02T10:42:41Z</time>
      </trkpt>
      <trkpt lat="45.00098" lon="5.53925">
        <ele>1717</ele>
        <time>2013-02-02T10:42:46Z</time>
      </trkpt>
      <trkpt lat="45.00097" lon="5.53924">
        <ele>1717</ele>
        <time>2013-02-02T10:42:51Z</time>
      </trkpt>
      <trkpt lat="45.00097" lon="5.53924">
        <ele>1717</ele>
        <time>2013-02-02T10:42:56Z</time>
      </trkpt>
      <trkpt lat="45.00096" lon="5.53924">
        <ele>1717</ele>
        <time>2013-02-02T10:43:01Z</time>
      </trkpt>
      <trkpt lat="45.00096" lon="5.53925">
        <ele>1717</ele>
        <time>2013-02-02T10:43:06Z</time>
      </trkpt>
      <trkpt lat="45.00095" lon="5.53924">
        <ele>1718</ele>
        <time>2013-02-02T10:43:11Z</time>
      </trkpt>
      <trkpt lat="45.00094" lon="5.53923">
        <ele>1718</ele>
        <time>2013-02-02T10:43:16Z</time>
      </trkpt>
      <trkpt lat="45.00094" lon="5.53922">
        <ele>1718</ele>
        <time>2013-02-02T10:43:21Z</time>
      </trkpt>
      <trkpt lat="45.00094" lon="5.53922">
        <ele>1718</ele>
        <time>2013-02-02T10:43:26Z</time>
      </trkpt>
      <trkpt lat="45.00092" lon="5.53922">
        <ele>1725</ele>
        <time>2013-02-02T10:44:26Z</time>
      </trkpt>
      <trkpt lat="45.00092" lon="5.53922">
        <ele>1725</ele>
        <time>2013-02-02T10:44:31Z</time>
      </trkpt>
      <trkpt lat="45.00091" lon="5.5392">
        <ele>1725</ele>
        <time>2013-02-02T10:44:36Z</time>
      </trkpt>
      <trkpt lat="45.00091" lon="5.5392">
        <ele>1726</ele>
        <time>2013-02-02T10:44:41Z</time>
      </trkpt>
      <trkpt lat="45.0009" lon="5.53919">
        <ele>1726</ele>
        <time>2013-02-02T10:44:46Z</time>
      </trkpt>
      <trkpt lat="45.0009" lon="5.53919">
        <ele>1725</ele>
        <time>2013-02-02T10:44:51Z</time>
      </trkpt>
      <trkpt lat="45.00089" lon="5.53918">
        <ele>1725</ele>
        <time>2013-02-02T10:44:56Z</time>
      </trkpt>
      <trkpt lat="45.00087" lon="5.53916">
        <ele>1725</ele>
        <time>2013-02-02T10:45:01Z</time>
      </trkpt>
      <trkpt lat="45.00085" lon="5.53915">
        <ele>1724</ele>
        <time>2013-02-02T10:45:06Z</time>
      </trkpt>
      <trkpt lat="45.00081" lon="5.53913">
        <ele>1724</ele>
        <time>2013-02-02T10:45:11Z</time>
      </trkpt>
      <trkpt lat="45.00077" lon="5.5391">
        <ele>1724</ele>
        <time>2013-02-02T10:45:16Z</time>
      </trkpt>
      <trkpt lat="45.00073" lon="5.53908">
        <ele>1724</ele>
        <time>2013-02-02T10:45:21Z</time>
      </trkpt>
      <trkpt lat="45.0007" lon="5.53906">
        <ele>1725</ele>
        <time>2013-02-02T10:45:26Z</time>
      </trkpt>
      <trkpt lat="45.00062" lon="5.53905">
        <ele>1727</ele>
        <time>2013-02-02T10:47:56Z</time>
      </trkpt>
      <trkpt lat="45.00059" lon="5.53904">
        <ele>1726</ele>
        <time>2013-02-02T10:48:01Z</time>
      </trkpt>
      <trkpt lat="45.00057" lon="5.53905">
        <ele>1726</ele>
        <time>2013-02-02T10:48:06Z</time>
      </trkpt>
      <trkpt lat="45.00056" lon="5.53906">
        <ele>1726</ele>
        <time>2013-02-02T10:48:11Z</time>
      </trkpt>
      <trkpt lat="45.00055" lon="5.53906">
        <ele>1726</ele>
        <time>2013-02-02T10:48:16Z</time>
      </trkpt>
      <trkpt lat="45.00055" lon="5.53906">
        <ele>1726</ele>
        <time>2013-02-02T10:48:21Z</time>
      </trkpt>
      <trkpt lat="45.00056" lon="5.53906">
        <ele>1726</ele>
        <time>2013-02-02T10:48:26Z</time>
      </trkpt>
      <trkpt lat="45.00056" lon="5.53906">
        <ele>1725</ele>
        <time>2013-02-02T10:48:31Z</time>
      </trkpt>
      <trkpt lat="45.00056" lon="5.53906">
        <ele>1725</ele>
        <time>2013-02-02T10:48:36Z</time>
      </trkpt>
      <trkpt lat="45.00056" lon="5.53906">
        <ele>1725</ele>
        <time>2013-02-02T10:48:41Z</time>
      </trkpt>
      <trkpt lat="45.00056" lon="5.53907">
        <ele>1724</ele>
        <time>2013-02-02T10:48:46Z</time>
      </trkpt>
      <trkpt lat="45.00053" lon="5.53909">
        <ele>1725</ele>
        <time>2013-02-02T10:48:51Z</time>
      </trkpt>
      <trkpt lat="45.00049" lon="5.53913">
        <ele>1725</ele>
        <time>2013-02-02T10:48:56Z</time>
      </trkpt>
      <trkpt lat="45.00046" lon="5.53913">
        <ele>1725</ele>
        <time>2013-02-02T10:49:01Z</time>
      </trkpt>
      <trkpt lat="45.00046" lon="5.53913">
        <ele>1725</ele>
        <time>2013-02-02T10:49:06Z</time>
      </trkpt>
      <trkpt lat="45.00046" lon="5.53913">
        <ele>1725</ele>
        <time>2013-02-02T10:49:11Z</time>
      </trkpt>
      <trkpt lat="45.00046" lon="5.53913">
        <ele>1725</ele>
        <time>2013-02-02T10:49:16Z</time>
      </trkpt>
      <trkpt lat="45.00046" lon="5.53913">
        <ele>1725</ele>
        <time>2013-02-02T10:49:21Z</time>
      </trkpt>
      <trkpt lat="45.00045" lon="5.53913">
        <ele>1726</ele>
        <time>2013-02-02T10:49:26Z</time>
      </trkpt>
      <trkpt lat="45.00042" lon="5.53914">
        <ele>1726</ele>
        <time>2013-02-02T10:49:31Z</time>
      </trkpt>
      <trkpt lat="45.0004" lon="5.53915">
        <ele>1726</ele>
        <time>2013-02-02T10:49:36Z</time>
      </trkpt>
      <trkpt lat="45.00038" lon="5.53917">
        <ele>1725</ele>
        <time>2013-02-02T10:49:41Z</time>
      </trkpt>
      <trkpt lat="45.00038" lon="5.53918">
        <ele>1725</ele>
        <time>2013-02-02T10:49:46Z</time>
      </trkpt>
      <trkpt lat="45.00036" lon="5.53919">
        <ele>1725</ele>
        <time>2013-02-02T10:49:51Z</time>
      </trkpt>
      <trkpt lat="45.00034" lon="5.5392">
        <ele>1726</ele>
        <time>2013-02-02T10:49:56Z</time>
      </trkpt>
      <trkpt lat="45.00032" lon="5.53921">
        <ele>1727</ele>
        <time>2013-02-02T10:50:01Z</time>
      </trkpt>
      <trkpt lat="45.0003" lon="5.53921">
        <ele>1727</ele>
        <time>2013-02-02T10:50:06Z</time>
      </trkpt>
      <trkpt lat="45.00028" lon="5.5392">
        <ele>1728</ele>
        <time>2013-02-02T10:50:11Z</time>
      </trkpt>
      <trkpt lat="45.00026" lon="5.5392">
        <ele>1729</ele>
        <time>2013-02-02T10:50:16Z</time>
      </trkpt>
      <trkpt lat="45.00024" lon="5.5392">
        <ele>1730</ele>
        <time>2013-02-02T10:50:21Z</time>
      </trkpt>
      <trkpt lat="45.00023" lon="5.53919">
        <ele>1731</ele>
        <time>2013-02-02T10:50:26Z</time>
      </trkpt>
      <trkpt lat="45.00023" lon="5.53919">
        <ele>1731</ele>
        <time>2013-02-02T10:50:31Z</time>
      </trkpt>
      <trkpt lat="45.00021" lon="5.5392">
        <ele>1731</ele>
        <time>2013-02-02T10:50:36Z</time>
      </trkpt>
      <trkpt lat="45.00019" lon="5.5392">
        <ele>1732</ele>
        <time>2013-02-02T10:50:41Z</time>
      </trkpt>
      <trkpt lat="45.00017" lon="5.53921">
        <ele>1732</ele>
        <time>2013-02-02T10:50:46Z</time>
      </trkpt>
      <trkpt lat="45.00015" lon="5.53922">
        <ele>1733</ele>
        <time>2013-02-02T10:50:51Z</time>
      </trkpt>
      <trkpt lat="45.00013" lon="5.53923">
        <ele>1734</ele>
        <time>2013-02-02T10:50:56Z</time>
      </trkpt>
      <trkpt lat="45.0001" lon="5.53923">
        <ele>1734</ele>
        <time>2013-02-02T10:51:01Z</time>
      </trkpt>
      <trkpt lat="45.00009" lon="5.53922">
        <ele>1735</ele>
        <time>2013-02-02T10:51:06Z</time>
      </trkpt>
      <trkpt lat="45.00007" lon="5.53922">
        <ele>1735</ele>
        <time>2013-02-02T10:51:11Z</time>
      </trkpt>
      <trkpt lat="45.00005" lon="5.53921">
        <ele>1736</ele>
        <time>2013-02-02T10:51:16Z</time>
      </trkpt>
      <trkpt lat="45.00004" lon="5.5392">
        <ele>1736</ele>
        <time>2013-02-02T10:51:21Z</time>
      </trkpt>
      <trkpt lat="45.00002" lon="5.5392">
        <ele>1737</ele>
        <time>2013-02-02T10:51:26Z</time>
      </trkpt>
      <trkpt lat="45" lon="5.53919">
        <ele>1737</ele>
        <time>2013-02-02T10:51:31Z</time>
      </trkpt>
      <trkpt lat="45" lon="5.53919">
        <ele>1738</ele>
        <time>2013-02-02T10:51:36Z</time>
      </trkpt>
      <trkpt lat="44.99999" lon="5.53919">
        <ele>1738</ele>
        <time>2013-02-02T10:51:41Z</time>
      </trkpt>
      <trkpt lat="44.99999" lon="5.53919">
        <ele>1739</ele>
        <time>2013-02-02T10:51:46Z</time>
      </trkpt>
      <trkpt lat="44.99997" lon="5.5392">
        <ele>1739</ele>
        <time>2013-02-02T10:51:51Z</time>
      </trkpt>
      <trkpt lat="44.99997" lon="5.53921">
        <ele>1740</ele>
        <time>2013-02-02T10:51:56Z</time>
      </trkpt>
      <trkpt lat="44.99999" lon="5.53925">
        <ele>1741</ele>
        <time>2013-02-02T10:52:01Z</time>
      </trkpt>
      <trkpt lat="45" lon="5.53928">
        <ele>1741</ele>
        <time>2013-02-02T10:52:06Z</time>
      </trkpt>
      <trkpt lat="45" lon="5.53931">
        <ele>1742</ele>
        <time>2013-02-02T10:52:11Z</time>
      </trkpt>
      <trkpt lat="45.00001" lon="5.53932">
        <ele>1742</ele>
        <time>2013-02-02T10:52:16Z</time>
      </trkpt>
      <trkpt lat="45.00001" lon="5.53932">
        <ele>1742</ele>
        <time>2013-02-02T10:52:21Z</time>
      </trkpt>
      <trkpt lat="45.00001" lon="5.53932">
        <ele>1742</ele>
        <time>2013-02-02T10:52:26Z</time>
      </trkpt>
      <trkpt lat="45.00001" lon="5.53932">
        <ele>1742</ele>
        <time>2013-02-02T10:52:31Z</time>
      </trkpt>
      <trkpt lat="45.00001" lon="5.53932">
        <ele>1742</ele>
        <time>2013-02-02T10:52:36Z</time>
      </trkpt>
      <trkpt lat="45.00001" lon="5.53932">
        <ele>1742</ele>
        <time>2013-02-02T10:52:41Z</time>
      </trkpt>
      <trkpt lat="45.00001" lon="5.53932">
        <ele>1742</ele>
        <time>2013-02-02T10:52:46Z</time>
      </trkpt>
      <trkpt lat="45.00002" lon="5.53934">
        <ele>1742</ele>
        <time>2013-02-02T10:52:51Z</time>
      </trkpt>
      <trkpt lat="45.00004" lon="5.53937">
        <ele>1743</ele>
        <time>2013-02-02T10:52:56Z</time>
      </trkpt>
      <trkpt lat="45.00004" lon="5.53941">
        <ele>1744</ele>
        <time>2013-02-02T10:53:01Z</time>
      </trkpt>
      <trkpt lat="45.00005" lon="5.53944">
        <ele>1745</ele>
        <time>2013-02-02T10:53:06Z</time>
      </trkpt>
      <trkpt lat="45.00007" lon="5.53947">
        <ele>1745</ele>
        <time>2013-02-02T10:53:11Z</time>
      </trkpt>
      <trkpt lat="45.00007" lon="5.53949">
        <ele>1746</ele>
        <time>2013-02-02T10:53:16Z</time>
      </trkpt>
      <trkpt lat="45.00007" lon="5.53949">
        <ele>1746</ele>
        <time>2013-02-02T10:53:21Z</time>
      </trkpt>
      <trkpt lat="45.00008" lon="5.5395">
        <ele>1746</ele>
        <time>2013-02-02T10:53:26Z</time>
      </trkpt>
      <trkpt lat="45.00008" lon="5.53951">
        <ele>1746</ele>
        <time>2013-02-02T10:53:31Z</time>
      </trkpt>
      <trkpt lat="45.0001" lon="5.53952">
        <ele>1747</ele>
        <time>2013-02-02T10:53:36Z</time>
      </trkpt>
      <trkpt lat="45.00009" lon="5.53952">
        <ele>1747</ele>
        <time>2013-02-02T10:53:41Z</time>
      </trkpt>
      <trkpt lat="45.00007" lon="5.53953">
        <ele>1747</ele>
        <time>2013-02-02T10:53:46Z</time>
      </trkpt>
      <trkpt lat="45.00004" lon="5.53953">
        <ele>1748</ele>
        <time>2013-02-02T10:53:51Z</time>
      </trkpt>
      <trkpt lat="45.00001" lon="5.53953">
        <ele>1749</ele>
        <time>2013-02-02T10:53:56Z</time>
      </trkpt>
      <trkpt lat="44.99998" lon="5.53952">
        <ele>1750</ele>
        <time>2013-02-02T10:54:01Z</time>
      </trkpt>
      <trkpt lat="44.99995" lon="5.53952">
        <ele>1750</ele>
        <time>2013-02-02T10:54:06Z</time>
      </trkpt>
      <trkpt lat="44.99992" lon="5.53952">
        <ele>1751</ele>
        <time>2013-02-02T10:54:11Z</time>
      </trkpt>
      <trkpt lat="44.9999" lon="5.53952">
        <ele>1751</ele>
        <time>2013-02-02T10:54:16Z</time>
      </trkpt>
      <trkpt lat="44.99988" lon="5.53954">
        <ele>1752</ele>
        <time>2013-02-02T10:54:21Z</time>
      </trkpt>
      <trkpt lat="44.99987" lon="5.53956">
        <ele>1752</ele>
        <time>2013-02-02T10:54:26Z</time>
      </trkpt>
      <trkpt lat="44.99987" lon="5.53956">
        <ele>1752</ele>
        <time>2013-02-02T10:54:31Z</time>
      </trkpt>
      <trkpt lat="44.99985" lon="5.53956">
        <ele>1752</ele>
        <time>2013-02-02T10:54:36Z</time>
      </trkpt>
      <trkpt lat="44.99986" lon="5.53956">
        <ele>1752</ele>
        <time>2013-02-02T10:54:41Z</time>
      </trkpt>
      <trkpt lat="44.99986" lon="5.53956">
        <ele>1751</ele>
        <time>2013-02-02T10:54:46Z</time>
      </trkpt>
      <trkpt lat="44.99986" lon="5.53956">
        <ele>1751</ele>
        <time>2013-02-02T10:54:51Z</time>
      </trkpt>
      <trkpt lat="44.99986" lon="5.53956">
        <ele>1751</ele>
        <time>2013-02-02T10:54:56Z</time>
      </trkpt>
      <trkpt lat="44.99986" lon="5.53956">
        <ele>1750</ele>
        <time>2013-02-02T10:55:01Z</time>
      </trkpt>
      <trkpt lat="44.99986" lon="5.53956">
        <ele>1750</ele>
        <time>2013-02-02T10:55:06Z</time>
      </trkpt>
      <trkpt lat="44.99986" lon="5.53956">
        <ele>1750</ele>
        <time>2013-02-02T10:55:11Z</time>
      </trkpt>
      <trkpt lat="44.99986" lon="5.53955">
        <ele>1750</ele>
        <time>2013-02-02T10:55:16Z</time>
      </trkpt>
      <trkpt lat="44.99985" lon="5.53955">
        <ele>1750</ele>
        <time>2013-02-02T10:55:21Z</time>
      </trkpt>
      <trkpt lat="44.99984" lon="5.53957">
        <ele>1749</ele>
        <time>2013-02-02T10:55:26Z</time>
      </trkpt>
      <trkpt lat="44.99982" lon="5.53962">
        <ele>1749</ele>
        <time>2013-02-02T10:55:31Z</time>
      </trkpt>
      <trkpt lat="44.9998" lon="5.53969">
        <ele>1749</ele>
        <time>2013-02-02T10:55:36Z</time>
      </trkpt>
      <trkpt lat="44.99978" lon="5.53973">
        <ele>1750</ele>
        <time>2013-02-02T10:55:41Z</time>
      </trkpt>
      <trkpt lat="44.99975" lon="5.53977">
        <ele>1750</ele>
        <time>2013-02-02T10:55:46Z</time>
      </trkpt>
      <trkpt lat="44.99971" lon="5.5398">
        <ele>1752</ele>
        <time>2013-02-02T10:55:51Z</time>
      </trkpt>
      <trkpt lat="44.99969" lon="5.53983">
        <ele>1753</ele>
        <time>2013-02-02T10:55:56Z</time>
      </trkpt>
      <trkpt lat="44.99968" lon="5.53984">
        <ele>1754</ele>
        <time>2013-02-02T10:56:01Z</time>
      </trkpt>
      <trkpt lat="44.99968" lon="5.53984">
        <ele>1754</ele>
        <time>2013-02-02T10:56:06Z</time>
      </trkpt>
      <trkpt lat="44.99968" lon="5.53984">
        <ele>1754</ele>
        <time>2013-02-02T10:56:11Z</time>
      </trkpt>
      <trkpt lat="44.99968" lon="5.53984">
        <ele>1754</ele>
        <time>2013-02-02T10:56:16Z</time>
      </trkpt>
      <trkpt lat="44.99967" lon="5.53984">
        <ele>1755</ele>
        <time>2013-02-02T10:56:21Z</time>
      </trkpt>
      <trkpt lat="44.99967" lon="5.53984">
        <ele>1755</ele>
        <time>2013-02-02T10:56:26Z</time>
      </trkpt>
      <trkpt lat="44.99967" lon="5.53984">
        <ele>1755</ele>
        <time>2013-02-02T10:56:31Z</time>
      </trkpt>
      <trkpt lat="44.99968" lon="5.53984">
        <ele>1755</ele>
        <time>2013-02-02T10:56:36Z</time>
      </trkpt>
      <trkpt lat="44.99968" lon="5.53984">
        <ele>1754</ele>
        <time>2013-02-02T10:56:41Z</time>
      </trkpt>
      <trkpt lat="44.99968" lon="5.53984">
        <ele>1754</ele>
        <time>2013-02-02T10:56:46Z</time>
      </trkpt>
      <trkpt lat="44.99967" lon="5.53984">
        <ele>1754</ele>
        <time>2013-02-02T10:56:51Z</time>
      </trkpt>
      <trkpt lat="44.99968" lon="5.53984">
        <ele>1754</ele>
        <time>2013-02-02T10:56:56Z</time>
      </trkpt>
      <trkpt lat="44.99967" lon="5.53984">
        <ele>1754</ele>
        <time>2013-02-02T10:57:01Z</time>
      </trkpt>
      <trkpt lat="44.99967" lon="5.53984">
        <ele>1755</ele>
        <time>2013-02-02T10:57:06Z</time>
      </trkpt>
      <trkpt lat="44.99967" lon="5.53984">
        <ele>1755</ele>
        <time>2013-02-02T10:57:11Z</time>
      </trkpt>
      <trkpt lat="44.99967" lon="5.53983">
        <ele>1755</ele>
        <time>2013-02-02T10:57:16Z</time>
      </trkpt>
      <trkpt lat="44.99967" lon="5.53983">
        <ele>1755</ele>
        <time>2013-02-02T10:57:21Z</time>
      </trkpt>
      <trkpt lat="44.99967" lon="5.53983">
        <ele>1755</ele>
        <time>2013-02-02T10:57:26Z</time>
      </trkpt>
      <trkpt lat="44.99967" lon="5.53984">
        <ele>1756</ele>
        <time>2013-02-02T10:57:31Z</time>
      </trkpt>
      <trkpt lat="44.99967" lon="5.53985">
        <ele>1755</ele>
        <time>2013-02-02T10:57:36Z</time>
      </trkpt>
      <trkpt lat="44.99966" lon="5.53986">
        <ele>1756</ele>
        <time>2013-02-02T10:57:41Z</time>
      </trkpt>
      <trkpt lat="44.99965" lon="5.5399">
        <ele>1756</ele>
        <time>2013-02-02T10:57:46Z</time>
      </trkpt>
      <trkpt lat="44.99963" lon="5.53993">
        <ele>1756</ele>
        <time>2013-02-02T10:57:51Z</time>
      </trkpt>
      <trkpt lat="44.9996" lon="5.53996">
        <ele>1756</ele>
        <time>2013-02-02T10:57:56Z</time>
      </trkpt>
      <trkpt lat="44.99959" lon="5.53998">
        <ele>1757</ele>
        <time>2013-02-02T10:58:01Z</time>
      </trkpt>
      <trkpt lat="44.99957" lon="5.54001">
        <ele>1757</ele>
        <time>2013-02-02T10:58:06Z</time>
      </trkpt>
      <trkpt lat="44.99955" lon="5.54006">
        <ele>1758</ele>
        <time>2013-02-02T10:58:11Z</time>
      </trkpt>
      <trkpt lat="44.99951" lon="5.54011">
        <ele>1757</ele>
        <time>2013-02-02T10:58:16Z</time>
      </trkpt>
      <trkpt lat="44.99948" lon="5.54016">
        <ele>1757</ele>
        <time>2013-02-02T10:58:21Z</time>
      </trkpt>
      <trkpt lat="44.99947" lon="5.5402">
        <ele>1757</ele>
        <time>2013-02-02T10:58:26Z</time>
      </trkpt>
      <trkpt lat="44.99945" lon="5.54022">
        <ele>1757</ele>
        <time>2013-02-02T10:58:31Z</time>
      </trkpt>
      <trkpt lat="44.99943" lon="5.54027">
        <ele>1757</ele>
        <time>2013-02-02T10:58:36Z</time>
      </trkpt>
      <trkpt lat="44.99942" lon="5.54032">
        <ele>1757</ele>
        <time>2013-02-02T10:58:41Z</time>
      </trkpt>
      <trkpt lat="44.99943" lon="5.54033">
        <ele>1757</ele>
        <time>2013-02-02T10:58:46Z</time>
      </trkpt>
      <trkpt lat="44.99942" lon="5.54033">
        <ele>1758</ele>
        <time>2013-02-02T10:58:51Z</time>
      </trkpt>
      <trkpt lat="44.99942" lon="5.54034">
        <ele>1759</ele>
        <time>2013-02-02T10:58:56Z</time>
      </trkpt>
      <trkpt lat="44.99943" lon="5.54037">
        <ele>1759</ele>
        <time>2013-02-02T10:59:01Z</time>
      </trkpt>
      <trkpt lat="44.99944" lon="5.5404">
        <ele>1759</ele>
        <time>2013-02-02T10:59:06Z</time>
      </trkpt>
      <trkpt lat="44.99945" lon="5.54041">
        <ele>1759</ele>
        <time>2013-02-02T10:59:11Z</time>
      </trkpt>
      <trkpt lat="44.99945" lon="5.54043">
        <ele>1759</ele>
        <time>2013-02-02T10:59:16Z</time>
      </trkpt>
      <trkpt lat="44.99946" lon="5.54045">
        <ele>1759</ele>
        <time>2013-02-02T10:59:21Z</time>
      </trkpt>
      <trkpt lat="44.99945" lon="5.54048">
        <ele>1759</ele>
        <time>2013-02-02T10:59:26Z</time>
      </trkpt>
      <trkpt lat="44.99944" lon="5.54051">
        <ele>1760</ele>
        <time>2013-02-02T10:59:31Z</time>
      </trkpt>
      <trkpt lat="44.99942" lon="5.54054">
        <ele>1760</ele>
        <time>2013-02-02T10:59:36Z</time>
      </trkpt>
      <trkpt lat="44.99942" lon="5.54056">
        <ele>1761</ele>
        <time>2013-02-02T10:59:41Z</time>
      </trkpt>
      <trkpt lat="44.99943" lon="5.54059">
        <ele>1762</ele>
        <time>2013-02-02T10:59:46Z</time>
      </trkpt>
      <trkpt lat="44.99943" lon="5.54061">
        <ele>1762</ele>
        <time>2013-02-02T10:59:51Z</time>
      </trkpt>
      <trkpt lat="44.99943" lon="5.54064">
        <ele>1762</ele>
        <time>2013-02-02T10:59:56Z</time>
      </trkpt>
      <trkpt lat="44.99942" lon="5.54067">
        <ele>1763</ele>
        <time>2013-02-02T11:00:01Z</time>
      </trkpt>
      <trkpt lat="44.99942" lon="5.54068">
        <ele>1763</ele>
        <time>2013-02-02T11:00:06Z</time>
      </trkpt>
      <trkpt lat="44.99943" lon="5.54069">
        <ele>1762</ele>
        <time>2013-02-02T11:00:11Z</time>
      </trkpt>
      <trkpt lat="44.99943" lon="5.54072">
        <ele>1762</ele>
        <time>2013-02-02T11:00:16Z</time>
      </trkpt>
      <trkpt lat="44.99942" lon="5.54075">
        <ele>1762</ele>
        <time>2013-02-02T11:00:21Z</time>
      </trkpt>
      <trkpt lat="44.99942" lon="5.54077">
        <ele>1763</ele>
        <time>2013-02-02T11:00:26Z</time>
      </trkpt>
      <trkpt lat="44.99942" lon="5.54079">
        <ele>1763</ele>
        <time>2013-02-02T11:00:31Z</time>
      </trkpt>
      <trkpt lat="44.99942" lon="5.54081">
        <ele>1764</ele>
        <time>2013-02-02T11:00:36Z</time>
      </trkpt>
      <trkpt lat="44.99942" lon="5.54084">
        <ele>1764</ele>
        <time>2013-02-02T11:00:41Z</time>
      </trkpt>
      <trkpt lat="44.99942" lon="5.54087">
        <ele>1765</ele>
        <time>2013-02-02T11:00:46Z</time>
      </trkpt>
      <trkpt lat="44.99942" lon="5.5409">
        <ele>1766</ele>
        <time>2013-02-02T11:00:51Z</time>
      </trkpt>
      <trkpt lat="44.99942" lon="5.54092">
        <ele>1766</ele>
        <time>2013-02-02T11:00:56Z</time>
      </trkpt>
      <trkpt lat="44.99942" lon="5.54096">
        <ele>1767</ele>
        <time>2013-02-02T11:01:01Z</time>
      </trkpt>
      <trkpt lat="44.99942" lon="5.54099">
        <ele>1768</ele>
        <time>2013-02-02T11:01:06Z</time>
      </trkpt>
      <trkpt lat="44.99942" lon="5.54103">
        <ele>1768</ele>
        <time>2013-02-02T11:01:11Z</time>
      </trkpt>
      <trkpt lat="44.99942" lon="5.54106">
        <ele>1768</ele>
        <time>2013-02-02T11:01:16Z</time>
      </trkpt>
      <trkpt lat="44.99942" lon="5.54109">
        <ele>1769</ele>
        <time>2013-02-02T11:01:21Z</time>
      </trkpt>
      <trkpt lat="44.99941" lon="5.54109">
        <ele>1769</ele>
        <time>2013-02-02T11:01:26Z</time>
      </trkpt>
      <trkpt lat="44.9994" lon="5.54112">
        <ele>1769</ele>
        <time>2013-02-02T11:01:31Z</time>
      </trkpt>
      <trkpt lat="44.99938" lon="5.54115">
        <ele>1770</ele>
        <time>2013-02-02T11:01:36Z</time>
      </trkpt>
      <trkpt lat="44.99936" lon="5.54116">
        <ele>1770</ele>
        <time>2013-02-02T11:01:41Z</time>
      </trkpt>
      <trkpt lat="44.99935" lon="5.54118">
        <ele>1770</ele>
        <time>2013-02-02T11:01:46Z</time>
      </trkpt>
      <trkpt lat="44.99934" lon="5.54119">
        <ele>1771</ele>
        <time>2013-02-02T11:01:51Z</time>
      </trkpt>
      <trkpt lat="44.99934" lon="5.54119">
        <ele>1771</ele>
        <time>2013-02-02T11:01:56Z</time>
      </trkpt>
      <trkpt lat="44.99934" lon="5.54119">
        <ele>1771</ele>
        <time>2013-02-02T11:02:01Z</time>
      </trkpt>
      <trkpt lat="44.99932" lon="5.54121">
        <ele>1772</ele>
        <time>2013-02-02T11:02:06Z</time>
      </trkpt>
      <trkpt lat="44.9993" lon="5.54121">
        <ele>1773</ele>
        <time>2013-02-02T11:02:11Z</time>
      </trkpt>
      <trkpt lat="44.99928" lon="5.54119">
        <ele>1774</ele>
        <time>2013-02-02T11:02:16Z</time>
      </trkpt>
      <trkpt lat="44.99926" lon="5.54117">
        <ele>1774</ele>
        <time>2013-02-02T11:02:21Z</time>
      </trkpt>
      <trkpt lat="44.99923" lon="5.54116">
        <ele>1775</ele>
        <time>2013-02-02T11:02:26Z</time>
      </trkpt>
      <trkpt lat="44.99921" lon="5.54115">
        <ele>1775</ele>
        <time>2013-02-02T11:02:31Z</time>
      </trkpt>
      <trkpt lat="44.9992" lon="5.54115">
        <ele>1776</ele>
        <time>2013-02-02T11:02:36Z</time>
      </trkpt>
      <trkpt lat="44.9992" lon="5.54115">
        <ele>1776</ele>
        <time>2013-02-02T11:02:41Z</time>
      </trkpt>
      <trkpt lat="44.9992" lon="5.54115">
        <ele>1776</ele>
        <time>2013-02-02T11:02:46Z</time>
      </trkpt>
      <trkpt lat="44.99919" lon="5.54115">
        <ele>1776</ele>
        <time>2013-02-02T11:02:51Z</time>
      </trkpt>
      <trkpt lat="44.99918" lon="5.5412">
        <ele>1777</ele>
        <time>2013-02-02T11:02:56Z</time>
      </trkpt>
      <trkpt lat="44.99917" lon="5.54126">
        <ele>1778</ele>
        <time>2013-02-02T11:03:01Z</time>
      </trkpt>
      <trkpt lat="44.99916" lon="5.54133">
        <ele>1777</ele>
        <time>2013-02-02T11:03:06Z</time>
      </trkpt>
      <trkpt lat="44.99915" lon="5.54141">
        <ele>1776</ele>
        <time>2013-02-02T11:03:11Z</time>
      </trkpt>
      <trkpt lat="44.99913" lon="5.54146">
        <ele>1775</ele>
        <time>2013-02-02T11:03:16Z</time>
      </trkpt>
      <trkpt lat="44.99913" lon="5.54148">
        <ele>1775</ele>
        <time>2013-02-02T11:03:21Z</time>
      </trkpt>
      <trkpt lat="44.99913" lon="5.54147">
        <ele>1775</ele>
        <time>2013-02-02T11:03:26Z</time>
      </trkpt>
      <trkpt lat="44.99915" lon="5.54142">
        <ele>1776</ele>
        <time>2013-02-02T11:03:31Z</time>
      </trkpt>
      <trkpt lat="44.99918" lon="5.54139">
        <ele>1776</ele>
        <time>2013-02-02T11:03:36Z</time>
      </trkpt>
      <trkpt lat="44.99918" lon="5.54139">
        <ele>1775</ele>
        <time>2013-02-02T11:03:41Z</time>
      </trkpt>
      <trkpt lat="44.99918" lon="5.54139">
        <ele>1775</ele>
        <time>2013-02-02T11:03:46Z</time>
      </trkpt>
      <trkpt lat="44.99922" lon="5.54137">
        <ele>1773</ele>
        <time>2013-02-02T11:03:51Z</time>
      </trkpt>
      <trkpt lat="44.99936" lon="5.54131">
        <ele>1769</ele>
        <time>2013-02-02T11:03:56Z</time>
      </trkpt>
      <trkpt lat="44.99938" lon="5.5413">
        <ele>1768</ele>
        <time>2013-02-02T11:04:01Z</time>
      </trkpt>
      <trkpt lat="44.99938" lon="5.54132">
        <ele>1767</ele>
        <time>2013-02-02T11:04:06Z</time>
      </trkpt>
      <trkpt lat="44.99938" lon="5.54132">
        <ele>1767</ele>
        <time>2013-02-02T11:04:11Z</time>
      </trkpt>
      <trkpt lat="44.99938" lon="5.54132">
        <ele>1767</ele>
        <time>2013-02-02T11:04:16Z</time>
      </trkpt>
      <trkpt lat="44.99938" lon="5.54132">
        <ele>1767</ele>
        <time>2013-02-02T11:04:21Z</time>
      </trkpt>
      <trkpt lat="44.99938" lon="5.54132">
        <ele>1767</ele>
        <time>2013-02-02T11:04:26Z</time>
      </trkpt>
      <trkpt lat="44.99938" lon="5.54132">
        <ele>1767</ele>
        <time>2013-02-02T11:04:31Z</time>
      </trkpt>
      <trkpt lat="44.99937" lon="5.54134">
        <ele>1767</ele>
        <time>2013-02-02T11:04:36Z</time>
      </trkpt>
      <trkpt lat="44.99935" lon="5.54138">
        <ele>1766</ele>
        <time>2013-02-02T11:04:41Z</time>
      </trkpt>
      <trkpt lat="44.99934" lon="5.54143">
        <ele>1766</ele>
        <time>2013-02-02T11:04:46Z</time>
      </trkpt>
      <trkpt lat="44.99933" lon="5.54151">
        <ele>1764</ele>
        <time>2013-02-02T11:04:51Z</time>
      </trkpt>
      <trkpt lat="44.9993" lon="5.54163">
        <ele>1762</ele>
        <time>2013-02-02T11:04:56Z</time>
      </trkpt>
      <trkpt lat="44.99924" lon="5.54178">
        <ele>1758</ele>
        <time>2013-02-02T11:05:01Z</time>
      </trkpt>
      <trkpt lat="44.99913" lon="5.54197">
        <ele>1753</ele>
        <time>2013-02-02T11:05:06Z</time>
      </trkpt>
      <trkpt lat="44.99909" lon="5.54206">
        <ele>1752</ele>
        <time>2013-02-02T11:05:11Z</time>
      </trkpt>
      <trkpt lat="44.99907" lon="5.54209">
        <ele>1752</ele>
        <time>2013-02-02T11:05:16Z</time>
      </trkpt>
      <trkpt lat="44.99905" lon="5.54212">
        <ele>1752</ele>
        <time>2013-02-02T11:05:21Z</time>
      </trkpt>
      <trkpt lat="44.99903" lon="5.54215">
        <ele>1752</ele>
        <time>2013-02-02T11:05:26Z</time>
      </trkpt>
      <trkpt lat="44.99901" lon="5.54216">
        <ele>1752</ele>
        <time>2013-02-02T11:05:31Z</time>
      </trkpt>
      <trkpt lat="44.99896" lon="5.54224">
        <ele>1750</ele>
        <time>2013-02-02T11:05:36Z</time>
      </trkpt>
      <trkpt lat="44.99888" lon="5.54232">
        <ele>1749</ele>
        <time>2013-02-02T11:05:41Z</time>
      </trkpt>
      <trkpt lat="44.99885" lon="5.54234">
        <ele>1749</ele>
        <time>2013-02-02T11:05:46Z</time>
      </trkpt>
      <trkpt lat="44.99881" lon="5.54234">
        <ele>1749</ele>
        <time>2013-02-02T11:05:51Z</time>
      </trkpt>
      <trkpt lat="44.99878" lon="5.54235">
        <ele>1750</ele>
        <time>2013-02-02T11:05:56Z</time>
      </trkpt>
      <trkpt lat="44.99874" lon="5.54235">
        <ele>1750</ele>
        <time>2013-02-02T11:06:01Z</time>
      </trkpt>
      <trkpt lat="44.99872" lon="5.54235">
        <ele>1750</ele>
        <time>2013-02-02T11:06:06Z</time>
      </trkpt>
      <trkpt lat="44.99872" lon="5.54236">
        <ele>1750</ele>
        <time>2013-02-02T11:06:11Z</time>
      </trkpt>
      <trkpt lat="44.99872" lon="5.54236">
        <ele>1750</ele>
        <time>2013-02-02T11:06:16Z</time>
      </trkpt>
      <trkpt lat="44.99871" lon="5.54235">
        <ele>1750</ele>
        <time>2013-02-02T11:06:21Z</time>
      </trkpt>
      <trkpt lat="44.99871" lon="5.54235">
        <ele>1750</ele>
        <time>2013-02-02T11:06:26Z</time>
      </trkpt>
      <trkpt lat="44.99871" lon="5.54235">
        <ele>1750</ele>
        <time>2013-02-02T11:06:31Z</time>
      </trkpt>
      <trkpt lat="44.9987" lon="5.54236">
        <ele>1750</ele>
        <time>2013-02-02T11:06:36Z</time>
      </trkpt>
      <trkpt lat="44.99864" lon="5.54235">
        <ele>1749</ele>
        <time>2013-02-02T11:06:41Z</time>
      </trkpt>
      <trkpt lat="44.9986" lon="5.54235">
        <ele>1749</ele>
        <time>2013-02-02T11:06:46Z</time>
      </trkpt>
      <trkpt lat="44.99857" lon="5.54234">
        <ele>1748</ele>
        <time>2013-02-02T11:06:51Z</time>
      </trkpt>
      <trkpt lat="44.99852" lon="5.54232">
        <ele>1748</ele>
        <time>2013-02-02T11:06:56Z</time>
      </trkpt>
      <trkpt lat="44.99849" lon="5.54228">
        <ele>1748</ele>
        <time>2013-02-02T11:07:01Z</time>
      </trkpt>
      <trkpt lat="44.99846" lon="5.54223">
        <ele>1748</ele>
        <time>2013-02-02T11:07:06Z</time>
      </trkpt>
      <trkpt lat="44.99843" lon="5.54218">
        <ele>1748</ele>
        <time>2013-02-02T11:07:11Z</time>
      </trkpt>
      <trkpt lat="44.9984" lon="5.54215">
        <ele>1749</ele>
        <time>2013-02-02T11:07:16Z</time>
      </trkpt>
      <trkpt lat="44.99837" lon="5.54214">
        <ele>1750</ele>
        <time>2013-02-02T11:07:21Z</time>
      </trkpt>
      <trkpt lat="44.99835" lon="5.54215">
        <ele>1750</ele>
        <time>2013-02-02T11:07:26Z</time>
      </trkpt>
      <trkpt lat="44.99831" lon="5.54217">
        <ele>1750</ele>
        <time>2013-02-02T11:07:31Z</time>
      </trkpt>
      <trkpt lat="44.99828" lon="5.54218">
        <ele>1750</ele>
        <time>2013-02-02T11:07:36Z</time>
      </trkpt>
      <trkpt lat="44.99828" lon="5.54218">
        <ele>1750</ele>
        <time>2013-02-02T11:07:41Z</time>
      </trkpt>
      <trkpt lat="44.99828" lon="5.54218">
        <ele>1750</ele>
        <time>2013-02-02T11:07:46Z</time>
      </trkpt>
      <trkpt lat="44.99828" lon="5.54218">
        <ele>1750</ele>
        <time>2013-02-02T11:07:51Z</time>
      </trkpt>
      <trkpt lat="44.99827" lon="5.54217">
        <ele>1750</ele>
        <time>2013-02-02T11:07:56Z</time>
      </trkpt>
      <trkpt lat="44.99822" lon="5.54215">
        <ele>1750</ele>
        <time>2013-02-02T11:08:01Z</time>
      </trkpt>
      <trkpt lat="44.99819" lon="5.5421">
        <ele>1751</ele>
        <time>2013-02-02T11:08:06Z</time>
      </trkpt>
      <trkpt lat="44.99815" lon="5.54207">
        <ele>1751</ele>
        <time>2013-02-02T11:08:11Z</time>
      </trkpt>
      <trkpt lat="44.99813" lon="5.54205">
        <ele>1751</ele>
        <time>2013-02-02T11:08:16Z</time>
      </trkpt>
      <trkpt lat="44.99809" lon="5.54203">
        <ele>1752</ele>
        <time>2013-02-02T11:08:21Z</time>
      </trkpt>
      <trkpt lat="44.99806" lon="5.54201">
        <ele>1752</ele>
        <time>2013-02-02T11:08:26Z</time>
      </trkpt>
      <trkpt lat="44.99803" lon="5.542">
        <ele>1753</ele>
        <time>2013-02-02T11:08:31Z</time>
      </trkpt>
      <trkpt lat="44.99799" lon="5.54199">
        <ele>1754</ele>
        <time>2013-02-02T11:08:36Z</time>
      </trkpt>
      <trkpt lat="44.99796" lon="5.54198">
        <ele>1754</ele>
        <time>2013-02-02T11:08:41Z</time>
      </trkpt>
      <trkpt lat="44.99792" lon="5.54197">
        <ele>1754</ele>
        <time>2013-02-02T11:08:46Z</time>
      </trkpt>
      <trkpt lat="44.9979" lon="5.54197">
        <ele>1755</ele>
        <time>2013-02-02T11:08:51Z</time>
      </trkpt>
      <trkpt lat="44.99787" lon="5.54196">
        <ele>1756</ele>
        <time>2013-02-02T11:08:56Z</time>
      </trkpt>
      <trkpt lat="44.99784" lon="5.54196">
        <ele>1756</ele>
        <time>2013-02-02T11:09:01Z</time>
      </trkpt>
      <trkpt lat="44.9978" lon="5.54198">
        <ele>1756</ele>
        <time>2013-02-02T11:09:06Z</time>
      </trkpt>
      <trkpt lat="44.99777" lon="5.54199">
        <ele>1757</ele>
        <time>2013-02-02T11:09:11Z</time>
      </trkpt>
      <trkpt lat="44.99775" lon="5.54203">
        <ele>1757</ele>
        <time>2013-02-02T11:09:16Z</time>
      </trkpt>
      <trkpt lat="44.99773" lon="5.54205">
        <ele>1757</ele>
        <time>2013-02-02T11:09:21Z</time>
      </trkpt>
      <trkpt lat="44.99772" lon="5.54203">
        <ele>1758</ele>
        <time>2013-02-02T11:09:26Z</time>
      </trkpt>
      <trkpt lat="44.99771" lon="5.542">
        <ele>1759</ele>
        <time>2013-02-02T11:09:31Z</time>
      </trkpt>
      <trkpt lat="44.99769" lon="5.54198">
        <ele>1761</ele>
        <time>2013-02-02T11:09:36Z</time>
      </trkpt>
      <trkpt lat="44.99767" lon="5.54197">
        <ele>1762</ele>
        <time>2013-02-02T11:09:41Z</time>
      </trkpt>
      <trkpt lat="44.99764" lon="5.54198">
        <ele>1762</ele>
        <time>2013-02-02T11:09:46Z</time>
      </trkpt>
      <trkpt lat="44.9976" lon="5.542">
        <ele>1762</ele>
        <time>2013-02-02T11:09:51Z</time>
      </trkpt>
      <trkpt lat="44.99757" lon="5.54199">
        <ele>1762</ele>
        <time>2013-02-02T11:09:56Z</time>
      </trkpt>
      <trkpt lat="44.99756" lon="5.54195">
        <ele>1763</ele>
        <time>2013-02-02T11:10:01Z</time>
      </trkpt>
      <trkpt lat="44.99756" lon="5.54192">
        <ele>1764</ele>
        <time>2013-02-02T11:10:06Z</time>
      </trkpt>
      <trkpt lat="44.99754" lon="5.54189">
        <ele>1765</ele>
        <time>2013-02-02T11:10:11Z</time>
      </trkpt>
      <trkpt lat="44.99752" lon="5.54185">
        <ele>1765</ele>
        <time>2013-02-02T11:10:16Z</time>
      </trkpt>
      <trkpt lat="44.9975" lon="5.54181">
        <ele>1765</ele>
        <time>2013-02-02T11:10:21Z</time>
      </trkpt>
      <trkpt lat="44.99749" lon="5.54177">
        <ele>1766</ele>
        <time>2013-02-02T11:10:26Z</time>
      </trkpt>
      <trkpt lat="44.99746" lon="5.54177">
        <ele>1766</ele>
        <time>2013-02-02T11:10:31Z</time>
      </trkpt>
      <trkpt lat="44.99743" lon="5.54178">
        <ele>1766</ele>
        <time>2013-02-02T11:10:36Z</time>
      </trkpt>
      <trkpt lat="44.9974" lon="5.54179">
        <ele>1767</ele>
        <time>2013-02-02T11:10:41Z</time>
      </trkpt>
      <trkpt lat="44.99738" lon="5.54178">
        <ele>1767</ele>
        <time>2013-02-02T11:10:46Z</time>
      </trkpt>
      <trkpt lat="44.99735" lon="5.54178">
        <ele>1768</ele>
        <time>2013-02-02T11:10:51Z</time>
      </trkpt>
      <trkpt lat="44.99732" lon="5.54179">
        <ele>1768</ele>
        <time>2013-02-02T11:10:56Z</time>
      </trkpt>
      <trkpt lat="44.9973" lon="5.54177">
        <ele>1769</ele>
        <time>2013-02-02T11:11:01Z</time>
      </trkpt>
      <trkpt lat="44.9973" lon="5.54176">
        <ele>1769</ele>
        <time>2013-02-02T11:11:06Z</time>
      </trkpt>
      <trkpt lat="44.9973" lon="5.54176">
        <ele>1769</ele>
        <time>2013-02-02T11:11:11Z</time>
      </trkpt>
      <trkpt lat="44.9973" lon="5.54176">
        <ele>1769</ele>
        <time>2013-02-02T11:11:16Z</time>
      </trkpt>
      <trkpt lat="44.9973" lon="5.54176">
        <ele>1769</ele>
        <time>2013-02-02T11:11:21Z</time>
      </trkpt>
      <trkpt lat="44.9973" lon="5.54176">
        <ele>1769</ele>
        <time>2013-02-02T11:11:26Z</time>
      </trkpt>
      <trkpt lat="44.9973" lon="5.54176">
        <ele>1769</ele>
        <time>2013-02-02T11:11:31Z</time>
      </trkpt>
      <trkpt lat="44.9973" lon="5.54176">
        <ele>1768</ele>
        <time>2013-02-02T11:11:36Z</time>
      </trkpt>
      <trkpt lat="44.9973" lon="5.54176">
        <ele>1768</ele>
        <time>2013-02-02T11:11:41Z</time>
      </trkpt>
      <trkpt lat="44.99731" lon="5.54176">
        <ele>1768</ele>
        <time>2013-02-02T11:11:46Z</time>
      </trkpt>
      <trkpt lat="44.99731" lon="5.54176">
        <ele>1768</ele>
        <time>2013-02-02T11:11:51Z</time>
      </trkpt>
      <trkpt lat="44.99731" lon="5.54176">
        <ele>1768</ele>
        <time>2013-02-02T11:11:56Z</time>
      </trkpt>
      <trkpt lat="44.99731" lon="5.54176">
        <ele>1768</ele>
        <time>2013-02-02T11:12:01Z</time>
      </trkpt>
      <trkpt lat="44.99731" lon="5.54177">
        <ele>1768</ele>
        <time>2013-02-02T11:12:06Z</time>
      </trkpt>
      <trkpt lat="44.99731" lon="5.54177">
        <ele>1768</ele>
        <time>2013-02-02T11:12:11Z</time>
      </trkpt>
      <trkpt lat="44.99731" lon="5.54177">
        <ele>1768</ele>
        <time>2013-02-02T11:12:16Z</time>
      </trkpt>
      <trkpt lat="44.99731" lon="5.54177">
        <ele>1768</ele>
        <time>2013-02-02T11:12:21Z</time>
      </trkpt>
      <trkpt lat="44.99731" lon="5.54177">
        <ele>1768</ele>
        <time>2013-02-02T11:12:26Z</time>
      </trkpt>
      <trkpt lat="44.99731" lon="5.54177">
        <ele>1768</ele>
        <time>2013-02-02T11:12:31Z</time>
      </trkpt>
      <trkpt lat="44.99731" lon="5.54177">
        <ele>1768</ele>
        <time>2013-02-02T11:12:36Z</time>
      </trkpt>
      <trkpt lat="44.99731" lon="5.54177">
        <ele>1768</ele>
        <time>2013-02-02T11:12:41Z</time>
      </trkpt>
      <trkpt lat="44.99731" lon="5.54177">
        <ele>1768</ele>
        <time>2013-02-02T11:12:46Z</time>
      </trkpt>
      <trkpt lat="44.99731" lon="5.54177">
        <ele>1768</ele>
        <time>2013-02-02T11:12:51Z</time>
      </trkpt>
      <trkpt lat="44.99731" lon="5.54177">
        <ele>1768</ele>
        <time>2013-02-02T11:12:56Z</time>
      </trkpt>
      <trkpt lat="44.99731" lon="5.54177">
        <ele>1768</ele>
        <time>2013-02-02T11:13:01Z</time>
      </trkpt>
      <trkpt lat="44.99732" lon="5.54177">
        <ele>1769</ele>
        <time>2013-02-02T11:13:06Z</time>
      </trkpt>
      <trkpt lat="44.99732" lon="5.54177">
        <ele>1769</ele>
        <time>2013-02-02T11:13:11Z</time>
      </trkpt>
      <trkpt lat="44.99732" lon="5.54177">
        <ele>1769</ele>
        <time>2013-02-02T11:13:16Z</time>
      </trkpt>
      <trkpt lat="44.99731" lon="5.54176">
        <ele>1770</ele>
        <time>2013-02-02T11:13:21Z</time>
      </trkpt>
      <trkpt lat="44.99731" lon="5.54176">
        <ele>1770</ele>
        <time>2013-02-02T11:13:26Z</time>
      </trkpt>
      <trkpt lat="44.99731" lon="5.54176">
        <ele>1770</ele>
        <time>2013-02-02T11:13:31Z</time>
      </trkpt>
      <trkpt lat="44.9973" lon="5.54173">
        <ele>1770</ele>
        <time>2013-02-02T11:13:36Z</time>
      </trkpt>
      <trkpt lat="44.99729" lon="5.54169">
        <ele>1771</ele>
        <time>2013-02-02T11:13:41Z</time>
      </trkpt>
      <trkpt lat="44.99727" lon="5.54165">
        <ele>1772</ele>
        <time>2013-02-02T11:13:46Z</time>
      </trkpt>
      <trkpt lat="44.99726" lon="5.54161">
        <ele>1773</ele>
        <time>2013-02-02T11:13:51Z</time>
      </trkpt>
      <trkpt lat="44.99724" lon="5.54157">
        <ele>1773</ele>
        <time>2013-02-02T11:13:56Z</time>
      </trkpt>
      <trkpt lat="44.99722" lon="5.54156">
        <ele>1774</ele>
        <time>2013-02-02T11:14:01Z</time>
      </trkpt>
      <trkpt lat="44.99719" lon="5.54156">
        <ele>1775</ele>
        <time>2013-02-02T11:14:06Z</time>
      </trkpt>
      <trkpt lat="44.99715" lon="5.54157">
        <ele>1775</ele>
        <time>2013-02-02T11:14:11Z</time>
      </trkpt>
      <trkpt lat="44.99712" lon="5.54157">
        <ele>1776</ele>
        <time>2013-02-02T11:14:16Z</time>
      </trkpt>
      <trkpt lat="44.99709" lon="5.54157">
        <ele>1777</ele>
        <time>2013-02-02T11:14:21Z</time>
      </trkpt>
      <trkpt lat="44.99707" lon="5.54155">
        <ele>1777</ele>
        <time>2013-02-02T11:14:26Z</time>
      </trkpt>
      <trkpt lat="44.99705" lon="5.54151">
        <ele>1777</ele>
        <time>2013-02-02T11:14:31Z</time>
      </trkpt>
      <trkpt lat="44.99703" lon="5.54147">
        <ele>1777</ele>
        <time>2013-02-02T11:14:36Z</time>
      </trkpt>
      <trkpt lat="44.99699" lon="5.54144">
        <ele>1777</ele>
        <time>2013-02-02T11:14:41Z</time>
      </trkpt>
      <trkpt lat="44.99695" lon="5.5414">
        <ele>1777</ele>
        <time>2013-02-02T11:14:46Z</time>
      </trkpt>
      <trkpt lat="44.99691" lon="5.54136">
        <ele>1777</ele>
        <time>2013-02-02T11:14:51Z</time>
      </trkpt>
      <trkpt lat="44.9969" lon="5.54135">
        <ele>1777</ele>
        <time>2013-02-02T11:14:56Z</time>
      </trkpt>
      <trkpt lat="44.9969" lon="5.54135">
        <ele>1777</ele>
        <time>2013-02-02T11:15:01Z</time>
      </trkpt>
      <trkpt lat="44.99687" lon="5.54133">
        <ele>1777</ele>
        <time>2013-02-02T11:15:06Z</time>
      </trkpt>
      <trkpt lat="44.99683" lon="5.54134">
        <ele>1777</ele>
        <time>2013-02-02T11:15:11Z</time>
      </trkpt>
      <trkpt lat="44.9968" lon="5.54136">
        <ele>1777</ele>
        <time>2013-02-02T11:15:16Z</time>
      </trkpt>
      <trkpt lat="44.99677" lon="5.54138">
        <ele>1778</ele>
        <time>2013-02-02T11:15:21Z</time>
      </trkpt>
      <trkpt lat="44.99674" lon="5.5414">
        <ele>1779</ele>
        <time>2013-02-02T11:15:26Z</time>
      </trkpt>
      <trkpt lat="44.99671" lon="5.54142">
        <ele>1779</ele>
        <time>2013-02-02T11:15:31Z</time>
      </trkpt>
      <trkpt lat="44.99668" lon="5.54144">
        <ele>1780</ele>
        <time>2013-02-02T11:15:36Z</time>
      </trkpt>
      <trkpt lat="44.99665" lon="5.54146">
        <ele>1780</ele>
        <time>2013-02-02T11:15:41Z</time>
      </trkpt>
      <trkpt lat="44.99662" lon="5.54147">
        <ele>1781</ele>
        <time>2013-02-02T11:15:46Z</time>
      </trkpt>
      <trkpt lat="44.9966" lon="5.54148">
        <ele>1781</ele>
        <time>2013-02-02T11:15:51Z</time>
      </trkpt>
      <trkpt lat="44.99657" lon="5.54149">
        <ele>1782</ele>
        <time>2013-02-02T11:15:56Z</time>
      </trkpt>
      <trkpt lat="44.99654" lon="5.5415">
        <ele>1783</ele>
        <time>2013-02-02T11:16:01Z</time>
      </trkpt>
      <trkpt lat="44.99651" lon="5.54151">
        <ele>1783</ele>
        <time>2013-02-02T11:16:06Z</time>
      </trkpt>
      <trkpt lat="44.99648" lon="5.54152">
        <ele>1784</ele>
        <time>2013-02-02T11:16:11Z</time>
      </trkpt>
      <trkpt lat="44.99646" lon="5.54154">
        <ele>1784</ele>
        <time>2013-02-02T11:16:16Z</time>
      </trkpt>
      <trkpt lat="44.99643" lon="5.54155">
        <ele>1785</ele>
        <time>2013-02-02T11:16:21Z</time>
      </trkpt>
      <trkpt lat="44.9964" lon="5.54156">
        <ele>1785</ele>
        <time>2013-02-02T11:16:26Z</time>
      </trkpt>
      <trkpt lat="44.99637" lon="5.54158">
        <ele>1786</ele>
        <time>2013-02-02T11:16:31Z</time>
      </trkpt>
      <trkpt lat="44.99633" lon="5.54159">
        <ele>1786</ele>
        <time>2013-02-02T11:16:36Z</time>
      </trkpt>
      <trkpt lat="44.9963" lon="5.54161">
        <ele>1787</ele>
        <time>2013-02-02T11:16:41Z</time>
      </trkpt>
      <trkpt lat="44.99627" lon="5.54163">
        <ele>1787</ele>
        <time>2013-02-02T11:16:46Z</time>
      </trkpt>
      <trkpt lat="44.99624" lon="5.54165">
        <ele>1788</ele>
        <time>2013-02-02T11:16:51Z</time>
      </trkpt>
      <trkpt lat="44.99622" lon="5.54168">
        <ele>1789</ele>
        <time>2013-02-02T11:16:56Z</time>
      </trkpt>
      <trkpt lat="44.99619" lon="5.5417">
        <ele>1789</ele>
        <time>2013-02-02T11:17:01Z</time>
      </trkpt>
      <trkpt lat="44.99617" lon="5.54173">
        <ele>1790</ele>
        <time>2013-02-02T11:17:06Z</time>
      </trkpt>
      <trkpt lat="44.99615" lon="5.54175">
        <ele>1791</ele>
        <time>2013-02-02T11:17:11Z</time>
      </trkpt>
      <trkpt lat="44.99613" lon="5.54177">
        <ele>1791</ele>
        <time>2013-02-02T11:17:16Z</time>
      </trkpt>
      <trkpt lat="44.9961" lon="5.5418">
        <ele>1792</ele>
        <time>2013-02-02T11:17:21Z</time>
      </trkpt>
      <trkpt lat="44.99609" lon="5.5418">
        <ele>1792</ele>
        <time>2013-02-02T11:17:26Z</time>
      </trkpt>
      <trkpt lat="44.99609" lon="5.5418">
        <ele>1792</ele>
        <time>2013-02-02T11:17:31Z</time>
      </trkpt>
      <trkpt lat="44.99609" lon="5.54181">
        <ele>1792</ele>
        <time>2013-02-02T11:17:36Z</time>
      </trkpt>
      <trkpt lat="44.99606" lon="5.54184">
        <ele>1793</ele>
        <time>2013-02-02T11:17:41Z</time>
      </trkpt>
      <trkpt lat="44.99603" lon="5.54185">
        <ele>1794</ele>
        <time>2013-02-02T11:17:46Z</time>
      </trkpt>
      <trkpt lat="44.99599" lon="5.54186">
        <ele>1795</ele>
        <time>2013-02-02T11:17:51Z</time>
      </trkpt>
      <trkpt lat="44.99596" lon="5.54188">
        <ele>1795</ele>
        <time>2013-02-02T11:17:56Z</time>
      </trkpt>
      <trkpt lat="44.99593" lon="5.54189">
        <ele>1796</ele>
        <time>2013-02-02T11:18:01Z</time>
      </trkpt>
      <trkpt lat="44.9959" lon="5.5419">
        <ele>1797</ele>
        <time>2013-02-02T11:18:06Z</time>
      </trkpt>
      <trkpt lat="44.99587" lon="5.54191">
        <ele>1798</ele>
        <time>2013-02-02T11:18:11Z</time>
      </trkpt>
      <trkpt lat="44.99584" lon="5.54192">
        <ele>1798</ele>
        <time>2013-02-02T11:18:16Z</time>
      </trkpt>
      <trkpt lat="44.99581" lon="5.54191">
        <ele>1799</ele>
        <time>2013-02-02T11:18:21Z</time>
      </trkpt>
      <trkpt lat="44.99578" lon="5.54191">
        <ele>1799</ele>
        <time>2013-02-02T11:18:26Z</time>
      </trkpt>
      <trkpt lat="44.99576" lon="5.5419">
        <ele>1800</ele>
        <time>2013-02-02T11:18:31Z</time>
      </trkpt>
      <trkpt lat="44.99574" lon="5.54189">
        <ele>1800</ele>
        <time>2013-02-02T11:18:36Z</time>
      </trkpt>
      <trkpt lat="44.99573" lon="5.54185">
        <ele>1801</ele>
        <time>2013-02-02T11:18:41Z</time>
      </trkpt>
      <trkpt lat="44.99573" lon="5.54184">
        <ele>1801</ele>
        <time>2013-02-02T11:18:46Z</time>
      </trkpt>
      <trkpt lat="44.99573" lon="5.54184">
        <ele>1801</ele>
        <time>2013-02-02T11:18:51Z</time>
      </trkpt>
      <trkpt lat="44.99573" lon="5.54184">
        <ele>1801</ele>
        <time>2013-02-02T11:18:56Z</time>
      </trkpt>
      <trkpt lat="44.99574" lon="5.54184">
        <ele>1801</ele>
        <time>2013-02-02T11:19:01Z</time>
      </trkpt>
      <trkpt lat="44.99574" lon="5.54184">
        <ele>1801</ele>
        <time>2013-02-02T11:19:06Z</time>
      </trkpt>
      <trkpt lat="44.99573" lon="5.54183">
        <ele>1802</ele>
        <time>2013-02-02T11:19:11Z</time>
      </trkpt>
      <trkpt lat="44.99571" lon="5.54182">
        <ele>1802</ele>
        <time>2013-02-02T11:19:16Z</time>
      </trkpt>
      <trkpt lat="44.99571" lon="5.54182">
        <ele>1802</ele>
        <time>2013-02-02T11:19:21Z</time>
      </trkpt>
      <trkpt lat="44.99571" lon="5.54182">
        <ele>1802</ele>
        <time>2013-02-02T11:19:26Z</time>
      </trkpt>
      <trkpt lat="44.99571" lon="5.54182">
        <ele>1802</ele>
        <time>2013-02-02T11:19:31Z</time>
      </trkpt>
      <trkpt lat="44.99571" lon="5.54182">
        <ele>1802</ele>
        <time>2013-02-02T11:19:36Z</time>
      </trkpt>
      <trkpt lat="44.99571" lon="5.54182">
        <ele>1802</ele>
        <time>2013-02-02T11:19:41Z</time>
      </trkpt>
      <trkpt lat="44.99571" lon="5.54182">
        <ele>1802</ele>
        <time>2013-02-02T11:19:46Z</time>
      </trkpt>
      <trkpt lat="44.99571" lon="5.54182">
        <ele>1802</ele>
        <time>2013-02-02T11:19:51Z</time>
      </trkpt>
      <trkpt lat="44.99571" lon="5.54182">
        <ele>1802</ele>
        <time>2013-02-02T11:19:56Z</time>
      </trkpt>
      <trkpt lat="44.99571" lon="5.54182">
        <ele>1802</ele>
        <time>2013-02-02T11:20:01Z</time>
      </trkpt>
      <trkpt lat="44.99571" lon="5.54182">
        <ele>1802</ele>
        <time>2013-02-02T11:20:06Z</time>
      </trkpt>
      <trkpt lat="44.99571" lon="5.54182">
        <ele>1802</ele>
        <time>2013-02-02T11:20:11Z</time>
      </trkpt>
      <trkpt lat="44.99571" lon="5.54182">
        <ele>1802</ele>
        <time>2013-02-02T11:20:16Z</time>
      </trkpt>
      <trkpt lat="44.99569" lon="5.54184">
        <ele>1802</ele>
        <time>2013-02-02T11:20:21Z</time>
      </trkpt>
      <trkpt lat="44.99566" lon="5.54186">
        <ele>1802</ele>
        <time>2013-02-02T11:20:26Z</time>
      </trkpt>
      <trkpt lat="44.99563" lon="5.54188">
        <ele>1803</ele>
        <time>2013-02-02T11:20:31Z</time>
      </trkpt>
      <trkpt lat="44.99561" lon="5.5419">
        <ele>1804</ele>
        <time>2013-02-02T11:20:36Z</time>
      </trkpt>
      <trkpt lat="44.99559" lon="5.54193">
        <ele>1804</ele>
        <time>2013-02-02T11:20:41Z</time>
      </trkpt>
      <trkpt lat="44.99557" lon="5.54196">
        <ele>1804</ele>
        <time>2013-02-02T11:20:46Z</time>
      </trkpt>
      <trkpt lat="44.99555" lon="5.54199">
        <ele>1805</ele>
        <time>2013-02-02T11:20:51Z</time>
      </trkpt>
      <trkpt lat="44.99553" lon="5.54202">
        <ele>1805</ele>
        <time>2013-02-02T11:20:56Z</time>
      </trkpt>
      <trkpt lat="44.99551" lon="5.54206">
        <ele>1806</ele>
        <time>2013-02-02T11:21:01Z</time>
      </trkpt>
      <trkpt lat="44.9955" lon="5.5421">
        <ele>1806</ele>
        <time>2013-02-02T11:21:06Z</time>
      </trkpt>
      <trkpt lat="44.99549" lon="5.54214">
        <ele>1807</ele>
        <time>2013-02-02T11:21:11Z</time>
      </trkpt>
      <trkpt lat="44.99547" lon="5.54217">
        <ele>1807</ele>
        <time>2013-02-02T11:21:16Z</time>
      </trkpt>
      <trkpt lat="44.99545" lon="5.54219">
        <ele>1808</ele>
        <time>2013-02-02T11:21:21Z</time>
      </trkpt>
      <trkpt lat="44.99543" lon="5.54216">
        <ele>1809</ele>
        <time>2013-02-02T11:21:26Z</time>
      </trkpt>
      <trkpt lat="44.99542" lon="5.54213">
        <ele>1809</ele>
        <time>2013-02-02T11:21:31Z</time>
      </trkpt>
      <trkpt lat="44.99539" lon="5.5421">
        <ele>1810</ele>
        <time>2013-02-02T11:21:36Z</time>
      </trkpt>
      <trkpt lat="44.99537" lon="5.54208">
        <ele>1810</ele>
        <time>2013-02-02T11:21:41Z</time>
      </trkpt>
      <trkpt lat="44.99534" lon="5.54207">
        <ele>1811</ele>
        <time>2013-02-02T11:21:46Z</time>
      </trkpt>
      <trkpt lat="44.99532" lon="5.54208">
        <ele>1811</ele>
        <time>2013-02-02T11:21:51Z</time>
      </trkpt>
      <trkpt lat="44.99529" lon="5.5421">
        <ele>1812</ele>
        <time>2013-02-02T11:21:56Z</time>
      </trkpt>
      <trkpt lat="44.99527" lon="5.54211">
        <ele>1812</ele>
        <time>2013-02-02T11:22:01Z</time>
      </trkpt>
      <trkpt lat="44.99525" lon="5.54213">
        <ele>1813</ele>
        <time>2013-02-02T11:22:06Z</time>
      </trkpt>
      <trkpt lat="44.99524" lon="5.54214">
        <ele>1814</ele>
        <time>2013-02-02T11:22:11Z</time>
      </trkpt>
      <trkpt lat="44.99523" lon="5.54215">
        <ele>1814</ele>
        <time>2013-02-02T11:22:16Z</time>
      </trkpt>
      <trkpt lat="44.99523" lon="5.54215">
        <ele>1814</ele>
        <time>2013-02-02T11:22:21Z</time>
      </trkpt>
      <trkpt lat="44.99522" lon="5.54217">
        <ele>1815</ele>
        <time>2013-02-02T11:22:26Z</time>
      </trkpt>
      <trkpt lat="44.99519" lon="5.54217">
        <ele>1816</ele>
        <time>2013-02-02T11:22:31Z</time>
      </trkpt>
      <trkpt lat="44.99517" lon="5.54215">
        <ele>1816</ele>
        <time>2013-02-02T11:22:36Z</time>
      </trkpt>
      <trkpt lat="44.99514" lon="5.54213">
        <ele>1817</ele>
        <time>2013-02-02T11:22:41Z</time>
      </trkpt>
      <trkpt lat="44.99512" lon="5.54211">
        <ele>1818</ele>
        <time>2013-02-02T11:22:46Z</time>
      </trkpt>
      <trkpt lat="44.99511" lon="5.54208">
        <ele>1818</ele>
        <time>2013-02-02T11:22:51Z</time>
      </trkpt>
      <trkpt lat="44.99511" lon="5.54204">
        <ele>1819</ele>
        <time>2013-02-02T11:22:56Z</time>
      </trkpt>
      <trkpt lat="44.99511" lon="5.542">
        <ele>1820</ele>
        <time>2013-02-02T11:23:01Z</time>
      </trkpt>
      <trkpt lat="44.9951" lon="5.54197">
        <ele>1820</ele>
        <time>2013-02-02T11:23:06Z</time>
      </trkpt>
      <trkpt lat="44.9951" lon="5.54194">
        <ele>1820</ele>
        <time>2013-02-02T11:23:11Z</time>
      </trkpt>
      <trkpt lat="44.99509" lon="5.5419">
        <ele>1821</ele>
        <time>2013-02-02T11:23:16Z</time>
      </trkpt>
      <trkpt lat="44.99508" lon="5.54186">
        <ele>1821</ele>
        <time>2013-02-02T11:23:21Z</time>
      </trkpt>
      <trkpt lat="44.99507" lon="5.54185">
        <ele>1822</ele>
        <time>2013-02-02T11:23:26Z</time>
      </trkpt>
      <trkpt lat="44.99508" lon="5.54185">
        <ele>1822</ele>
        <time>2013-02-02T11:23:31Z</time>
      </trkpt>
      <trkpt lat="44.99508" lon="5.54185">
        <ele>1822</ele>
        <time>2013-02-02T11:23:36Z</time>
      </trkpt>
      <trkpt lat="44.99508" lon="5.54185">
        <ele>1822</ele>
        <time>2013-02-02T11:23:41Z</time>
      </trkpt>
      <trkpt lat="44.99507" lon="5.54187">
        <ele>1822</ele>
        <time>2013-02-02T11:23:46Z</time>
      </trkpt>
      <trkpt lat="44.99505" lon="5.5419">
        <ele>1823</ele>
        <time>2013-02-02T11:23:51Z</time>
      </trkpt>
      <trkpt lat="44.99504" lon="5.54192">
        <ele>1823</ele>
        <time>2013-02-02T11:23:56Z</time>
      </trkpt>
      <trkpt lat="44.99504" lon="5.54192">
        <ele>1823</ele>
        <time>2013-02-02T11:24:01Z</time>
      </trkpt>
      <trkpt lat="44.99504" lon="5.54192">
        <ele>1824</ele>
        <time>2013-02-02T11:24:06Z</time>
      </trkpt>
      <trkpt lat="44.99504" lon="5.54192">
        <ele>1824</ele>
        <time>2013-02-02T11:24:11Z</time>
      </trkpt>
      <trkpt lat="44.99503" lon="5.54192">
        <ele>1824</ele>
        <time>2013-02-02T11:24:16Z</time>
      </trkpt>
      <trkpt lat="44.99504" lon="5.54192">
        <ele>1824</ele>
        <time>2013-02-02T11:24:21Z</time>
      </trkpt>
      <trkpt lat="44.99504" lon="5.54192">
        <ele>1824</ele>
        <time>2013-02-02T11:24:26Z</time>
      </trkpt>
      <trkpt lat="44.99504" lon="5.54192">
        <ele>1823</ele>
        <time>2013-02-02T11:24:31Z</time>
      </trkpt>
      <trkpt lat="44.99504" lon="5.54192">
        <ele>1824</ele>
        <time>2013-02-02T11:24:36Z</time>
      </trkpt>
      <trkpt lat="44.99504" lon="5.54192">
        <ele>1824</ele>
        <time>2013-02-02T11:24:41Z</time>
      </trkpt>
      <trkpt lat="44.99504" lon="5.54192">
        <ele>1824</ele>
        <time>2013-02-02T11:24:46Z</time>
      </trkpt>
      <trkpt lat="44.99503" lon="5.54192">
        <ele>1824</ele>
        <time>2013-02-02T11:24:51Z</time>
      </trkpt>
      <trkpt lat="44.99503" lon="5.54193">
        <ele>1823</ele>
        <time>2013-02-02T11:24:56Z</time>
      </trkpt>
      <trkpt lat="44.99502" lon="5.54195">
        <ele>1824</ele>
        <time>2013-02-02T11:25:01Z</time>
      </trkpt>
      <trkpt lat="44.99501" lon="5.54196">
        <ele>1824</ele>
        <time>2013-02-02T11:25:06Z</time>
      </trkpt>
      <trkpt lat="44.99501" lon="5.54195">
        <ele>1823</ele>
        <time>2013-02-02T11:25:11Z</time>
      </trkpt>
      <trkpt lat="44.99501" lon="5.54195">
        <ele>1823</ele>
        <time>2013-02-02T11:25:16Z</time>
      </trkpt>
      <trkpt lat="44.995" lon="5.54196">
        <ele>1824</ele>
        <time>2013-02-02T11:25:21Z</time>
      </trkpt>
      <trkpt lat="44.995" lon="5.54195">
        <ele>1824</ele>
        <time>2013-02-02T11:25:26Z</time>
      </trkpt>
      <trkpt lat="44.995" lon="5.54196">
        <ele>1824</ele>
        <time>2013-02-02T11:25:31Z</time>
      </trkpt>
      <trkpt lat="44.99498" lon="5.54199">
        <ele>1824</ele>
        <time>2013-02-02T11:25:36Z</time>
      </trkpt>
      <trkpt lat="44.99497" lon="5.54201">
        <ele>1824</ele>
        <time>2013-02-02T11:25:41Z</time>
      </trkpt>
      <trkpt lat="44.99496" lon="5.54203">
        <ele>1825</ele>
        <time>2013-02-02T11:25:46Z</time>
      </trkpt>
      <trkpt lat="44.99494" lon="5.54207">
        <ele>1825</ele>
        <time>2013-02-02T11:25:51Z</time>
      </trkpt>
      <trkpt lat="44.99492" lon="5.5421">
        <ele>1826</ele>
        <time>2013-02-02T11:25:56Z</time>
      </trkpt>
      <trkpt lat="44.9949" lon="5.54213">
        <ele>1826</ele>
        <time>2013-02-02T11:26:01Z</time>
      </trkpt>
      <trkpt lat="44.99488" lon="5.54217">
        <ele>1827</ele>
        <time>2013-02-02T11:26:06Z</time>
      </trkpt>
      <trkpt lat="44.99486" lon="5.5422">
        <ele>1827</ele>
        <time>2013-02-02T11:26:11Z</time>
      </trkpt>
      <trkpt lat="44.99485" lon="5.5422">
        <ele>1828</ele>
        <time>2013-02-02T11:26:16Z</time>
      </trkpt>
      <trkpt lat="44.99483" lon="5.54217">
        <ele>1828</ele>
        <time>2013-02-02T11:26:21Z</time>
      </trkpt>
      <trkpt lat="44.99482" lon="5.54214">
        <ele>1829</ele>
        <time>2013-02-02T11:26:26Z</time>
      </trkpt>
      <trkpt lat="44.99481" lon="5.54212">
        <ele>1829</ele>
        <time>2013-02-02T11:26:31Z</time>
      </trkpt>
      <trkpt lat="44.99481" lon="5.54209">
        <ele>1830</ele>
        <time>2013-02-02T11:26:36Z</time>
      </trkpt>
      <trkpt lat="44.99481" lon="5.54206">
        <ele>1831</ele>
        <time>2013-02-02T11:26:41Z</time>
      </trkpt>
      <trkpt lat="44.9948" lon="5.54203">
        <ele>1831</ele>
        <time>2013-02-02T11:26:46Z</time>
      </trkpt>
      <trkpt lat="44.9948" lon="5.542">
        <ele>1832</ele>
        <time>2013-02-02T11:26:51Z</time>
      </trkpt>
      <trkpt lat="44.99479" lon="5.54197">
        <ele>1832</ele>
        <time>2013-02-02T11:26:56Z</time>
      </trkpt>
      <trkpt lat="44.99479" lon="5.54195">
        <ele>1833</ele>
        <time>2013-02-02T11:27:01Z</time>
      </trkpt>
      <trkpt lat="44.99479" lon="5.54194">
        <ele>1833</ele>
        <time>2013-02-02T11:27:06Z</time>
      </trkpt>
      <trkpt lat="44.99478" lon="5.54192">
        <ele>1834</ele>
        <time>2013-02-02T11:27:11Z</time>
      </trkpt>
      <trkpt lat="44.99477" lon="5.54188">
        <ele>1834</ele>
        <time>2013-02-02T11:27:16Z</time>
      </trkpt>
      <trkpt lat="44.99477" lon="5.54184">
        <ele>1835</ele>
        <time>2013-02-02T11:27:21Z</time>
      </trkpt>
      <trkpt lat="44.99476" lon="5.54181">
        <ele>1835</ele>
        <time>2013-02-02T11:27:26Z</time>
      </trkpt>
      <trkpt lat="44.99476" lon="5.54179">
        <ele>1836</ele>
        <time>2013-02-02T11:27:31Z</time>
      </trkpt>
      <trkpt lat="44.99474" lon="5.54181">
        <ele>1837</ele>
        <time>2013-02-02T11:27:36Z</time>
      </trkpt>
      <trkpt lat="44.99473" lon="5.54182">
        <ele>1837</ele>
        <time>2013-02-02T11:27:41Z</time>
      </trkpt>
      <trkpt lat="44.99473" lon="5.54182">
        <ele>1837</ele>
        <time>2013-02-02T11:27:46Z</time>
      </trkpt>
      <trkpt lat="44.99473" lon="5.54183">
        <ele>1837</ele>
        <time>2013-02-02T11:27:51Z</time>
      </trkpt>
      <trkpt lat="44.9947" lon="5.54186">
        <ele>1838</ele>
        <time>2013-02-02T11:27:56Z</time>
      </trkpt>
      <trkpt lat="44.99468" lon="5.54189">
        <ele>1838</ele>
        <time>2013-02-02T11:28:01Z</time>
      </trkpt>
      <trkpt lat="44.99466" lon="5.54192">
        <ele>1839</ele>
        <time>2013-02-02T11:28:06Z</time>
      </trkpt>
      <trkpt lat="44.99464" lon="5.54194">
        <ele>1840</ele>
        <time>2013-02-02T11:28:11Z</time>
      </trkpt>
      <trkpt lat="44.99462" lon="5.54196">
        <ele>1840</ele>
        <time>2013-02-02T11:28:16Z</time>
      </trkpt>
      <trkpt lat="44.99461" lon="5.54197">
        <ele>1840</ele>
        <time>2013-02-02T11:28:21Z</time>
      </trkpt>
      <trkpt lat="44.99459" lon="5.54199">
        <ele>1841</ele>
        <time>2013-02-02T11:28:26Z</time>
      </trkpt>
      <trkpt lat="44.99459" lon="5.54201">
        <ele>1841</ele>
        <time>2013-02-02T11:28:31Z</time>
      </trkpt>
      <trkpt lat="44.99458" lon="5.54201">
        <ele>1841</ele>
        <time>2013-02-02T11:28:36Z</time>
      </trkpt>
      <trkpt lat="44.99458" lon="5.542">
        <ele>1841</ele>
        <time>2013-02-02T11:28:41Z</time>
      </trkpt>
      <trkpt lat="44.99459" lon="5.54198">
        <ele>1841</ele>
        <time>2013-02-02T11:28:46Z</time>
      </trkpt>
      <trkpt lat="44.99459" lon="5.54195">
        <ele>1841</ele>
        <time>2013-02-02T11:28:51Z</time>
      </trkpt>
      <trkpt lat="44.99459" lon="5.54191">
        <ele>1842</ele>
        <time>2013-02-02T11:28:56Z</time>
      </trkpt>
      <trkpt lat="44.99459" lon="5.54188">
        <ele>1842</ele>
        <time>2013-02-02T11:29:01Z</time>
      </trkpt>
      <trkpt lat="44.99459" lon="5.54185">
        <ele>1843</ele>
        <time>2013-02-02T11:29:06Z</time>
      </trkpt>
      <trkpt lat="44.99459" lon="5.54183">
        <ele>1843</ele>
        <time>2013-02-02T11:29:11Z</time>
      </trkpt>
      <trkpt lat="44.99459" lon="5.54182">
        <ele>1843</ele>
        <time>2013-02-02T11:29:16Z</time>
      </trkpt>
      <trkpt lat="44.99459" lon="5.54183">
        <ele>1843</ele>
        <time>2013-02-02T11:29:21Z</time>
      </trkpt>
      <trkpt lat="44.99459" lon="5.54183">
        <ele>1843</ele>
        <time>2013-02-02T11:29:26Z</time>
      </trkpt>
      <trkpt lat="44.99459" lon="5.54183">
        <ele>1843</ele>
        <time>2013-02-02T11:29:31Z</time>
      </trkpt>
      <trkpt lat="44.99459" lon="5.54183">
        <ele>1842</ele>
        <time>2013-02-02T11:29:36Z</time>
      </trkpt>
      <trkpt lat="44.99459" lon="5.54183">
        <ele>1842</ele>
        <time>2013-02-02T11:29:41Z</time>
      </trkpt>
      <trkpt lat="44.99459" lon="5.54184">
        <ele>1842</ele>
        <time>2013-02-02T11:29:46Z</time>
      </trkpt>
      <trkpt lat="44.99459" lon="5.54184">
        <ele>1842</ele>
        <time>2013-02-02T11:29:51Z</time>
      </trkpt>
      <trkpt lat="44.99459" lon="5.54183">
        <ele>1842</ele>
        <time>2013-02-02T11:29:56Z</time>
      </trkpt>
      <trkpt lat="44.99459" lon="5.54184">
        <ele>1842</ele>
        <time>2013-02-02T11:30:01Z</time>
      </trkpt>
      <trkpt lat="44.99459" lon="5.54184">
        <ele>1842</ele>
        <time>2013-02-02T11:30:06Z</time>
      </trkpt>
      <trkpt lat="44.99459" lon="5.54184">
        <ele>1842</ele>
        <time>2013-02-02T11:30:11Z</time>
      </trkpt>
      <trkpt lat="44.99459" lon="5.54182">
        <ele>1842</ele>
        <time>2013-02-02T11:30:16Z</time>
      </trkpt>
      <trkpt lat="44.99459" lon="5.54179">
        <ele>1843</ele>
        <time>2013-02-02T11:30:21Z</time>
      </trkpt>
      <trkpt lat="44.9946" lon="5.54175">
        <ele>1843</ele>
        <time>2013-02-02T11:30:26Z</time>
      </trkpt>
      <trkpt lat="44.99459" lon="5.54174">
        <ele>1844</ele>
        <time>2013-02-02T11:30:31Z</time>
      </trkpt>
      <trkpt lat="44.99458" lon="5.54175">
        <ele>1844</ele>
        <time>2013-02-02T11:30:36Z</time>
      </trkpt>
      <trkpt lat="44.99456" lon="5.54178">
        <ele>1844</ele>
        <time>2013-02-02T11:30:41Z</time>
      </trkpt>
      <trkpt lat="44.99455" lon="5.5418">
        <ele>1845</ele>
        <time>2013-02-02T11:30:46Z</time>
      </trkpt>
      <trkpt lat="44.99453" lon="5.54182">
        <ele>1845</ele>
        <time>2013-02-02T11:30:51Z</time>
      </trkpt>
      <trkpt lat="44.99452" lon="5.54184">
        <ele>1846</ele>
        <time>2013-02-02T11:30:56Z</time>
      </trkpt>
      <trkpt lat="44.9945" lon="5.54185">
        <ele>1846</ele>
        <time>2013-02-02T11:31:01Z</time>
      </trkpt>
      <trkpt lat="44.9945" lon="5.54184">
        <ele>1846</ele>
        <time>2013-02-02T11:31:06Z</time>
      </trkpt>
      <trkpt lat="44.99451" lon="5.54182">
        <ele>1847</ele>
        <time>2013-02-02T11:31:11Z</time>
      </trkpt>
      <trkpt lat="44.99451" lon="5.54178">
        <ele>1847</ele>
        <time>2013-02-02T11:31:16Z</time>
      </trkpt>
      <trkpt lat="44.99452" lon="5.54175">
        <ele>1848</ele>
        <time>2013-02-02T11:31:21Z</time>
      </trkpt>
      <trkpt lat="44.99452" lon="5.54172">
        <ele>1848</ele>
        <time>2013-02-02T11:31:26Z</time>
      </trkpt>
      <trkpt lat="44.99452" lon="5.54171">
        <ele>1848</ele>
        <time>2013-02-02T11:31:31Z</time>
      </trkpt>
      <trkpt lat="44.99451" lon="5.54171">
        <ele>1849</ele>
        <time>2013-02-02T11:31:36Z</time>
      </trkpt>
      <trkpt lat="44.9945" lon="5.54172">
        <ele>1849</ele>
        <time>2013-02-02T11:31:41Z</time>
      </trkpt>
      <trkpt lat="44.99449" lon="5.54174">
        <ele>1849</ele>
        <time>2013-02-02T11:31:46Z</time>
      </trkpt>
      <trkpt lat="44.99448" lon="5.54176">
        <ele>1849</ele>
        <time>2013-02-02T11:31:51Z</time>
      </trkpt>
      <trkpt lat="44.99446" lon="5.54179">
        <ele>1850</ele>
        <time>2013-02-02T11:31:56Z</time>
      </trkpt>
      <trkpt lat="44.99445" lon="5.54181">
        <ele>1850</ele>
        <time>2013-02-02T11:32:01Z</time>
      </trkpt>
      <trkpt lat="44.99443" lon="5.54184">
        <ele>1850</ele>
        <time>2013-02-02T11:32:06Z</time>
      </trkpt>
      <trkpt lat="44.99442" lon="5.54187">
        <ele>1850</ele>
        <time>2013-02-02T11:32:11Z</time>
      </trkpt>
      <trkpt lat="44.9944" lon="5.5419">
        <ele>1851</ele>
        <time>2013-02-02T11:32:16Z</time>
      </trkpt>
      <trkpt lat="44.99439" lon="5.54193">
        <ele>1851</ele>
        <time>2013-02-02T11:32:21Z</time>
      </trkpt>
      <trkpt lat="44.99437" lon="5.54195">
        <ele>1852</ele>
        <time>2013-02-02T11:32:26Z</time>
      </trkpt>
      <trkpt lat="44.99436" lon="5.54197">
        <ele>1852</ele>
        <time>2013-02-02T11:32:31Z</time>
      </trkpt>
      <trkpt lat="44.99434" lon="5.542">
        <ele>1853</ele>
        <time>2013-02-02T11:32:36Z</time>
      </trkpt>
      <trkpt lat="44.99433" lon="5.54202">
        <ele>1853</ele>
        <time>2013-02-02T11:32:41Z</time>
      </trkpt>
      <trkpt lat="44.99432" lon="5.54204">
        <ele>1854</ele>
        <time>2013-02-02T11:32:46Z</time>
      </trkpt>
      <trkpt lat="44.99431" lon="5.54205">
        <ele>1854</ele>
        <time>2013-02-02T11:32:51Z</time>
      </trkpt>
      <trkpt lat="44.9943" lon="5.54206">
        <ele>1854</ele>
        <time>2013-02-02T11:32:56Z</time>
      </trkpt>
      <trkpt lat="44.9943" lon="5.54207">
        <ele>1854</ele>
        <time>2013-02-02T11:33:01Z</time>
      </trkpt>
      <trkpt lat="44.9943" lon="5.54207">
        <ele>1854</ele>
        <time>2013-02-02T11:33:06Z</time>
      </trkpt>
      <trkpt lat="44.9943" lon="5.54207">
        <ele>1854</ele>
        <time>2013-02-02T11:33:11Z</time>
      </trkpt>
      <trkpt lat="44.9943" lon="5.54207">
        <ele>1854</ele>
        <time>2013-02-02T11:33:16Z</time>
      </trkpt>
      <trkpt lat="44.99429" lon="5.54209">
        <ele>1855</ele>
        <time>2013-02-02T11:33:21Z</time>
      </trkpt>
      <trkpt lat="44.99427" lon="5.54212">
        <ele>1855</ele>
        <time>2013-02-02T11:33:26Z</time>
      </trkpt>
      <trkpt lat="44.99426" lon="5.54215">
        <ele>1855</ele>
        <time>2013-02-02T11:33:31Z</time>
      </trkpt>
      <trkpt lat="44.99426" lon="5.54218">
        <ele>1856</ele>
        <time>2013-02-02T11:33:36Z</time>
      </trkpt>
      <trkpt lat="44.9943" lon="5.54215">
        <ele>1853</ele>
        <time>2013-02-02T11:34:46Z</time>
      </trkpt>
      <trkpt lat="44.9943" lon="5.54215">
        <ele>1853</ele>
        <time>2013-02-02T11:34:51Z</time>
      </trkpt>
      <trkpt lat="44.9943" lon="5.54215">
        <ele>1853</ele>
        <time>2013-02-02T11:34:56Z</time>
      </trkpt>
      <trkpt lat="44.99429" lon="5.54217">
        <ele>1854</ele>
        <time>2013-02-02T11:35:01Z</time>
      </trkpt>
      <trkpt lat="44.99428" lon="5.54217">
        <ele>1854</ele>
        <time>2013-02-02T11:35:06Z</time>
      </trkpt>
      <trkpt lat="44.99428" lon="5.54217">
        <ele>1854</ele>
        <time>2013-02-02T11:35:11Z</time>
      </trkpt>
      <trkpt lat="44.99428" lon="5.54217">
        <ele>1854</ele>
        <time>2013-02-02T11:35:16Z</time>
      </trkpt>
      <trkpt lat="44.99428" lon="5.54217">
        <ele>1854</ele>
        <time>2013-02-02T11:35:21Z</time>
      </trkpt>
      <trkpt lat="44.99428" lon="5.54217">
        <ele>1854</ele>
        <time>2013-02-02T11:35:26Z</time>
      </trkpt>
      <trkpt lat="44.99428" lon="5.54217">
        <ele>1854</ele>
        <time>2013-02-02T11:35:31Z</time>
      </trkpt>
      <trkpt lat="44.99428" lon="5.54217">
        <ele>1854</ele>
        <time>2013-02-02T11:35:36Z</time>
      </trkpt>
      <trkpt lat="44.99428" lon="5.54216">
        <ele>1854</ele>
        <time>2013-02-02T11:35:41Z</time>
      </trkpt>
      <trkpt lat="44.99428" lon="5.54216">
        <ele>1854</ele>
        <time>2013-02-02T11:35:46Z</time>
      </trkpt>
      <trkpt lat="44.99428" lon="5.54216">
        <ele>1854</ele>
        <time>2013-02-02T11:35:51Z</time>
      </trkpt>
      <trkpt lat="44.99428" lon="5.54216">
        <ele>1854</ele>
        <time>2013-02-02T11:35:56Z</time>
      </trkpt>
      <trkpt lat="44.99429" lon="5.54217">
        <ele>1854</ele>
        <time>2013-02-02T11:36:01Z</time>
      </trkpt>
      <trkpt lat="44.99429" lon="5.54217">
        <ele>1854</ele>
        <time>2013-02-02T11:36:06Z</time>
      </trkpt>
      <trkpt lat="44.99428" lon="5.54216">
        <ele>1854</ele>
        <time>2013-02-02T11:36:11Z</time>
      </trkpt>
      <trkpt lat="44.99429" lon="5.54217">
        <ele>1854</ele>
        <time>2013-02-02T11:36:16Z</time>
      </trkpt>
      <trkpt lat="44.99429" lon="5.54218">
        <ele>1853</ele>
        <time>2013-02-02T11:36:21Z</time>
      </trkpt>
      <trkpt lat="44.99429" lon="5.54218">
        <ele>1853</ele>
        <time>2013-02-02T11:36:26Z</time>
      </trkpt>
      <trkpt lat="44.9943" lon="5.54219">
        <ele>1853</ele>
        <time>2013-02-02T11:36:31Z</time>
      </trkpt>
      <trkpt lat="44.9943" lon="5.54218">
        <ele>1852</ele>
        <time>2013-02-02T11:36:36Z</time>
      </trkpt>
      <trkpt lat="44.99431" lon="5.54219">
        <ele>1852</ele>
        <time>2013-02-02T11:36:41Z</time>
      </trkpt>
      <trkpt lat="44.9943" lon="5.54219">
        <ele>1853</ele>
        <time>2013-02-02T11:36:46Z</time>
      </trkpt>
      <trkpt lat="44.99429" lon="5.54221">
        <ele>1854</ele>
        <time>2013-02-02T11:36:51Z</time>
      </trkpt>
      <trkpt lat="44.99428" lon="5.54225">
        <ele>1854</ele>
        <time>2013-02-02T11:36:56Z</time>
      </trkpt>
      <trkpt lat="44.99427" lon="5.54228">
        <ele>1854</ele>
        <time>2013-02-02T11:37:01Z</time>
      </trkpt>
      <trkpt lat="44.99427" lon="5.5423">
        <ele>1855</ele>
        <time>2013-02-02T11:37:06Z</time>
      </trkpt>
      <trkpt lat="44.99427" lon="5.54231">
        <ele>1855</ele>
        <time>2013-02-02T11:37:11Z</time>
      </trkpt>
      <trkpt lat="44.99425" lon="5.54236">
        <ele>1854</ele>
        <time>2013-02-02T11:47:36Z</time>
      </trkpt>
      <trkpt lat="44.99425" lon="5.54236">
        <ele>1853</ele>
        <time>2013-02-02T11:47:41Z</time>
      </trkpt>
      <trkpt lat="44.99425" lon="5.54238">
        <ele>1852</ele>
        <time>2013-02-02T11:47:46Z</time>
      </trkpt>
      <trkpt lat="44.99426" lon="5.54243">
        <ele>1852</ele>
        <time>2013-02-02T11:47:51Z</time>
      </trkpt>
      <trkpt lat="44.9943" lon="5.54247">
        <ele>1851</ele>
        <time>2013-02-02T11:47:56Z</time>
      </trkpt>
      <trkpt lat="44.99431" lon="5.54247">
        <ele>1851</ele>
        <time>2013-02-02T11:48:01Z</time>
      </trkpt>
      <trkpt lat="44.99431" lon="5.54247">
        <ele>1851</ele>
        <time>2013-02-02T11:48:06Z</time>
      </trkpt>
      <trkpt lat="44.99431" lon="5.54247">
        <ele>1851</ele>
        <time>2013-02-02T11:48:11Z</time>
      </trkpt>
      <trkpt lat="44.99431" lon="5.54247">
        <ele>1850</ele>
        <time>2013-02-02T11:48:16Z</time>
      </trkpt>
      <trkpt lat="44.99431" lon="5.54247">
        <ele>1850</ele>
        <time>2013-02-02T11:48:21Z</time>
      </trkpt>
      <trkpt lat="44.99431" lon="5.54247">
        <ele>1850</ele>
        <time>2013-02-02T11:48:26Z</time>
      </trkpt>
      <trkpt lat="44.99431" lon="5.54248">
        <ele>1850</ele>
        <time>2013-02-02T11:48:31Z</time>
      </trkpt>
      <trkpt lat="44.99431" lon="5.54248">
        <ele>1850</ele>
        <time>2013-02-02T11:48:36Z</time>
      </trkpt>
      <trkpt lat="44.99431" lon="5.54248">
        <ele>1849</ele>
        <time>2013-02-02T11:48:41Z</time>
      </trkpt>
      <trkpt lat="44.99431" lon="5.54248">
        <ele>1850</ele>
        <time>2013-02-02T11:48:46Z</time>
      </trkpt>
      <trkpt lat="44.99431" lon="5.54248">
        <ele>1850</ele>
        <time>2013-02-02T11:48:51Z</time>
      </trkpt>
      <trkpt lat="44.99431" lon="5.54248">
        <ele>1850</ele>
        <time>2013-02-02T11:48:56Z</time>
      </trkpt>
      <trkpt lat="44.99431" lon="5.54248">
        <ele>1850</ele>
        <time>2013-02-02T11:49:01Z</time>
      </trkpt>
      <trkpt lat="44.99431" lon="5.54248">
        <ele>1849</ele>
        <time>2013-02-02T11:49:06Z</time>
      </trkpt>
      <trkpt lat="44.99431" lon="5.54248">
        <ele>1849</ele>
        <time>2013-02-02T11:49:11Z</time>
      </trkpt>
      <trkpt lat="44.99431" lon="5.54248">
        <ele>1850</ele>
        <time>2013-02-02T11:49:16Z</time>
      </trkpt>
      <trkpt lat="44.99431" lon="5.54248">
        <ele>1850</ele>
        <time>2013-02-02T11:49:21Z</time>
      </trkpt>
      <trkpt lat="44.99431" lon="5.54248">
        <ele>1850</ele>
        <time>2013-02-02T11:49:26Z</time>
      </trkpt>
      <trkpt lat="44.99434" lon="5.54247">
        <ele>1851</ele>
        <time>2013-02-02T11:56:21Z</time>
      </trkpt>
      <trkpt lat="44.99434" lon="5.54246">
        <ele>1851</ele>
        <time>2013-02-02T11:56:26Z</time>
      </trkpt>
      <trkpt lat="44.99434" lon="5.54246">
        <ele>1851</ele>
        <time>2013-02-02T11:56:31Z</time>
      </trkpt>
      <trkpt lat="44.99435" lon="5.54246">
        <ele>1851</ele>
        <time>2013-02-02T11:56:36Z</time>
      </trkpt>
      <trkpt lat="44.99438" lon="5.54232">
        <ele>1848</ele>
        <time>2013-02-02T11:56:41Z</time>
      </trkpt>
      <trkpt lat="44.99447" lon="5.54233">
        <ele>1841</ele>
        <time>2013-02-02T11:56:46Z</time>
      </trkpt>
      <trkpt lat="44.9945" lon="5.54214">
        <ele>1838</ele>
        <time>2013-02-02T11:56:51Z</time>
      </trkpt>
      <trkpt lat="44.99455" lon="5.54227">
        <ele>1836</ele>
        <time>2013-02-02T11:56:56Z</time>
      </trkpt>
      <trkpt lat="44.99461" lon="5.54215">
        <ele>1833</ele>
        <time>2013-02-02T11:57:01Z</time>
      </trkpt>
      <trkpt lat="44.99463" lon="5.54219">
        <ele>1832</ele>
        <time>2013-02-02T11:57:06Z</time>
      </trkpt>
      <trkpt lat="44.99463" lon="5.54219">
        <ele>1832</ele>
        <time>2013-02-02T11:57:11Z</time>
      </trkpt>
      <trkpt lat="44.99463" lon="5.54219">
        <ele>1831</ele>
        <time>2013-02-02T11:57:16Z</time>
      </trkpt>
      <trkpt lat="44.99463" lon="5.5422">
        <ele>1831</ele>
        <time>2013-02-02T11:57:21Z</time>
      </trkpt>
      <trkpt lat="44.99463" lon="5.5422">
        <ele>1830</ele>
        <time>2013-02-02T11:57:26Z</time>
      </trkpt>
      <trkpt lat="44.99463" lon="5.5422">
        <ele>1830</ele>
        <time>2013-02-02T11:57:31Z</time>
      </trkpt>
      <trkpt lat="44.99471" lon="5.54217">
        <ele>1827</ele>
        <time>2013-02-02T11:57:36Z</time>
      </trkpt>
      <trkpt lat="44.99482" lon="5.54216">
        <ele>1823</ele>
        <time>2013-02-02T11:57:41Z</time>
      </trkpt>
      <trkpt lat="44.99489" lon="5.5422">
        <ele>1820</ele>
        <time>2013-02-02T11:57:46Z</time>
      </trkpt>
      <trkpt lat="44.99497" lon="5.54227">
        <ele>1818</ele>
        <time>2013-02-02T11:57:51Z</time>
      </trkpt>
      <trkpt lat="44.995" lon="5.5422">
        <ele>1816</ele>
        <time>2013-02-02T11:57:56Z</time>
      </trkpt>
      <trkpt lat="44.99501" lon="5.54222">
        <ele>1816</ele>
        <time>2013-02-02T11:58:01Z</time>
      </trkpt>
      <trkpt lat="44.99502" lon="5.54223">
        <ele>1815</ele>
        <time>2013-02-02T11:58:06Z</time>
      </trkpt>
      <trkpt lat="44.99506" lon="5.54223">
        <ele>1813</ele>
        <time>2013-02-02T11:58:11Z</time>
      </trkpt>
      <trkpt lat="44.99507" lon="5.54222">
        <ele>1813</ele>
        <time>2013-02-02T11:58:16Z</time>
      </trkpt>
      <trkpt lat="44.99508" lon="5.54222">
        <ele>1812</ele>
        <time>2013-02-02T11:58:21Z</time>
      </trkpt>
      <trkpt lat="44.99515" lon="5.54223">
        <ele>1811</ele>
        <time>2013-02-02T11:58:26Z</time>
      </trkpt>
      <trkpt lat="44.99523" lon="5.54218">
        <ele>1808</ele>
        <time>2013-02-02T11:58:31Z</time>
      </trkpt>
      <trkpt lat="44.99532" lon="5.54207">
        <ele>1805</ele>
        <time>2013-02-02T11:58:36Z</time>
      </trkpt>
      <trkpt lat="44.99542" lon="5.54216">
        <ele>1803</ele>
        <time>2013-02-02T11:58:41Z</time>
      </trkpt>
      <trkpt lat="44.99556" lon="5.54232">
        <ele>1799</ele>
        <time>2013-02-02T11:58:46Z</time>
      </trkpt>
      <trkpt lat="44.99574" lon="5.54242">
        <ele>1796</ele>
        <time>2013-02-02T11:58:51Z</time>
      </trkpt>
      <trkpt lat="44.99575" lon="5.54242">
        <ele>1796</ele>
        <time>2013-02-02T11:58:56Z</time>
      </trkpt>
      <trkpt lat="44.99575" lon="5.54242">
        <ele>1796</ele>
        <time>2013-02-02T11:59:01Z</time>
      </trkpt>
      <trkpt lat="44.99576" lon="5.54242">
        <ele>1796</ele>
        <time>2013-02-02T11:59:06Z</time>
      </trkpt>
      <trkpt lat="44.99575" lon="5.54242">
        <ele>1796</ele>
        <time>2013-02-02T11:59:11Z</time>
      </trkpt>
      <trkpt lat="44.99576" lon="5.54242">
        <ele>1796</ele>
        <time>2013-02-02T11:59:16Z</time>
      </trkpt>
      <trkpt lat="44.99578" lon="5.54242">
        <ele>1797</ele>
        <time>2013-02-02T11:59:21Z</time>
      </trkpt>
      <trkpt lat="44.99579" lon="5.54243">
        <ele>1798</ele>
        <time>2013-02-02T11:59:26Z</time>
      </trkpt>
      <trkpt lat="44.99579" lon="5.54242">
        <ele>1797</ele>
        <time>2013-02-02T11:59:31Z</time>
      </trkpt>
      <trkpt lat="44.99579" lon="5.54242">
        <ele>1797</ele>
        <time>2013-02-02T11:59:36Z</time>
      </trkpt>
      <trkpt lat="44.99579" lon="5.54243">
        <ele>1796</ele>
        <time>2013-02-02T11:59:41Z</time>
      </trkpt>
      <trkpt lat="44.99579" lon="5.54242">
        <ele>1797</ele>
        <time>2013-02-02T11:59:46Z</time>
      </trkpt>
      <trkpt lat="44.99578" lon="5.54241">
        <ele>1798</ele>
        <time>2013-02-02T11:59:51Z</time>
      </trkpt>
      <trkpt lat="44.99578" lon="5.54241">
        <ele>1797</ele>
        <time>2013-02-02T11:59:56Z</time>
      </trkpt>
      <trkpt lat="44.99579" lon="5.54241">
        <ele>1797</ele>
        <time>2013-02-02T12:00:01Z</time>
      </trkpt>
      <trkpt lat="44.99579" lon="5.54241">
        <ele>1796</ele>
        <time>2013-02-02T12:00:06Z</time>
      </trkpt>
      <trkpt lat="44.99579" lon="5.54241">
        <ele>1796</ele>
        <time>2013-02-02T12:00:11Z</time>
      </trkpt>
      <trkpt lat="44.99579" lon="5.54241">
        <ele>1795</ele>
        <time>2013-02-02T12:00:16Z</time>
      </trkpt>
      <trkpt lat="44.99578" lon="5.5424">
        <ele>1795</ele>
        <time>2013-02-02T12:00:21Z</time>
      </trkpt>
      <trkpt lat="44.99577" lon="5.54239">
        <ele>1798</ele>
        <time>2013-02-02T12:00:26Z</time>
      </trkpt>
      <trkpt lat="44.99585" lon="5.54226">
        <ele>1795</ele>
        <time>2013-02-02T12:00:31Z</time>
      </trkpt>
      <trkpt lat="44.99603" lon="5.54239">
        <ele>1792</ele>
        <time>2013-02-02T12:00:36Z</time>
      </trkpt>
      <trkpt lat="44.99611" lon="5.54224">
        <ele>1787</ele>
        <time>2013-02-02T12:00:41Z</time>
      </trkpt>
      <trkpt lat="44.99625" lon="5.54219">
        <ele>1782</ele>
        <time>2013-02-02T12:00:46Z</time>
      </trkpt>
      <trkpt lat="44.99632" lon="5.54221">
        <ele>1779</ele>
        <time>2013-02-02T12:00:51Z</time>
      </trkpt>
      <trkpt lat="44.99645" lon="5.54236">
        <ele>1775</ele>
        <time>2013-02-02T12:00:56Z</time>
      </trkpt>
      <trkpt lat="44.9965" lon="5.54225">
        <ele>1771</ele>
        <time>2013-02-02T12:01:01Z</time>
      </trkpt>
      <trkpt lat="44.99656" lon="5.54221">
        <ele>1767</ele>
        <time>2013-02-02T12:01:06Z</time>
      </trkpt>
      <trkpt lat="44.99659" lon="5.54226">
        <ele>1766</ele>
        <time>2013-02-02T12:01:11Z</time>
      </trkpt>
      <trkpt lat="44.99658" lon="5.54224">
        <ele>1765</ele>
        <time>2013-02-02T12:01:16Z</time>
      </trkpt>
      <trkpt lat="44.99658" lon="5.54225">
        <ele>1765</ele>
        <time>2013-02-02T12:01:21Z</time>
      </trkpt>
      <trkpt lat="44.99658" lon="5.54225">
        <ele>1765</ele>
        <time>2013-02-02T12:01:26Z</time>
      </trkpt>
      <trkpt lat="44.99658" lon="5.54224">
        <ele>1766</ele>
        <time>2013-02-02T12:01:31Z</time>
      </trkpt>
      <trkpt lat="44.99658" lon="5.54224">
        <ele>1766</ele>
        <time>2013-02-02T12:01:36Z</time>
      </trkpt>
      <trkpt lat="44.99662" lon="5.54227">
        <ele>1765</ele>
        <time>2013-02-02T12:01:41Z</time>
      </trkpt>
      <trkpt lat="44.99672" lon="5.54234">
        <ele>1763</ele>
        <time>2013-02-02T12:01:46Z</time>
      </trkpt>
      <trkpt lat="44.99683" lon="5.54236">
        <ele>1761</ele>
        <time>2013-02-02T12:01:51Z</time>
      </trkpt>
      <trkpt lat="44.99694" lon="5.54236">
        <ele>1757</ele>
        <time>2013-02-02T12:01:56Z</time>
      </trkpt>
      <trkpt lat="44.9971" lon="5.54256">
        <ele>1753</ele>
        <time>2013-02-02T12:02:01Z</time>
      </trkpt>
      <trkpt lat="44.99721" lon="5.54268">
        <ele>1750</ele>
        <time>2013-02-02T12:02:06Z</time>
      </trkpt>
      <trkpt lat="44.99738" lon="5.54259">
        <ele>1746</ele>
        <time>2013-02-02T12:02:11Z</time>
      </trkpt>
      <trkpt lat="44.99751" lon="5.54247">
        <ele>1744</ele>
        <time>2013-02-02T12:02:16Z</time>
      </trkpt>
      <trkpt lat="44.99755" lon="5.54246">
        <ele>1743</ele>
        <time>2013-02-02T12:02:21Z</time>
      </trkpt>
      <trkpt lat="44.99757" lon="5.54247">
        <ele>1741</ele>
        <time>2013-02-02T12:02:26Z</time>
      </trkpt>
      <trkpt lat="44.99764" lon="5.54249">
        <ele>1741</ele>
        <time>2013-02-02T12:02:31Z</time>
      </trkpt>
      <trkpt lat="44.99777" lon="5.54247">
        <ele>1739</ele>
        <time>2013-02-02T12:02:36Z</time>
      </trkpt>
      <trkpt lat="44.99796" lon="5.54244">
        <ele>1735</ele>
        <time>2013-02-02T12:02:41Z</time>
      </trkpt>
      <trkpt lat="44.99802" lon="5.54242">
        <ele>1736</ele>
        <time>2013-02-02T12:02:46Z</time>
      </trkpt>
      <trkpt lat="44.99803" lon="5.5424">
        <ele>1738</ele>
        <time>2013-02-02T12:02:51Z</time>
      </trkpt>
      <trkpt lat="44.99804" lon="5.54238">
        <ele>1739</ele>
        <time>2013-02-02T12:02:56Z</time>
      </trkpt>
      <trkpt lat="44.99805" lon="5.54238">
        <ele>1741</ele>
        <time>2013-02-02T12:03:01Z</time>
      </trkpt>
      <trkpt lat="44.99806" lon="5.54237">
        <ele>1742</ele>
        <time>2013-02-02T12:03:06Z</time>
      </trkpt>
      <trkpt lat="44.99806" lon="5.54237">
        <ele>1742</ele>
        <time>2013-02-02T12:03:11Z</time>
      </trkpt>
      <trkpt lat="44.99807" lon="5.54238">
        <ele>1743</ele>
        <time>2013-02-02T12:03:16Z</time>
      </trkpt>
      <trkpt lat="44.99807" lon="5.54238">
        <ele>1743</ele>
        <time>2013-02-02T12:03:21Z</time>
      </trkpt>
      <trkpt lat="44.99807" lon="5.54238">
        <ele>1744</ele>
        <time>2013-02-02T12:03:26Z</time>
      </trkpt>
      <trkpt lat="44.99809" lon="5.54239">
        <ele>1744</ele>
        <time>2013-02-02T12:03:31Z</time>
      </trkpt>
      <trkpt lat="44.9981" lon="5.54238">
        <ele>1744</ele>
        <time>2013-02-02T12:03:36Z</time>
      </trkpt>
      <trkpt lat="44.99811" lon="5.54239">
        <ele>1744</ele>
        <time>2013-02-02T12:03:41Z</time>
      </trkpt>
      <trkpt lat="44.99812" lon="5.54239">
        <ele>1745</ele>
        <time>2013-02-02T12:03:46Z</time>
      </trkpt>
      <trkpt lat="44.99813" lon="5.54238">
        <ele>1745</ele>
        <time>2013-02-02T12:03:51Z</time>
      </trkpt>
      <trkpt lat="44.99814" lon="5.54238">
        <ele>1745</ele>
        <time>2013-02-02T12:03:56Z</time>
      </trkpt>
      <trkpt lat="44.99814" lon="5.54238">
        <ele>1745</ele>
        <time>2013-02-02T12:04:01Z</time>
      </trkpt>
      <trkpt lat="44.99814" lon="5.54238">
        <ele>1745</ele>
        <time>2013-02-02T12:04:06Z</time>
      </trkpt>
      <trkpt lat="44.99815" lon="5.54238">
        <ele>1745</ele>
        <time>2013-02-02T12:04:11Z</time>
      </trkpt>
      <trkpt lat="44.99816" lon="5.54238">
        <ele>1745</ele>
        <time>2013-02-02T12:04:16Z</time>
      </trkpt>
      <trkpt lat="44.99818" lon="5.54238">
        <ele>1745</ele>
        <time>2013-02-02T12:04:21Z</time>
      </trkpt>
      <trkpt lat="44.99821" lon="5.54239">
        <ele>1745</ele>
        <time>2013-02-02T12:04:26Z</time>
      </trkpt>
      <trkpt lat="44.99824" lon="5.5424">
        <ele>1744</ele>
        <time>2013-02-02T12:04:31Z</time>
      </trkpt>
      <trkpt lat="44.99833" lon="5.54242">
        <ele>1743</ele>
        <time>2013-02-02T12:04:36Z</time>
      </trkpt>
      <trkpt lat="44.99846" lon="5.54242">
        <ele>1741</ele>
        <time>2013-02-02T12:04:41Z</time>
      </trkpt>
      <trkpt lat="44.99849" lon="5.54241">
        <ele>1742</ele>
        <time>2013-02-02T12:04:46Z</time>
      </trkpt>
      <trkpt lat="44.99853" lon="5.5424">
        <ele>1742</ele>
        <time>2013-02-02T12:04:51Z</time>
      </trkpt>
      <trkpt lat="44.99856" lon="5.54239">
        <ele>1743</ele>
        <time>2013-02-02T12:04:56Z</time>
      </trkpt>
      <trkpt lat="44.99859" lon="5.54239">
        <ele>1744</ele>
        <time>2013-02-02T12:05:01Z</time>
      </trkpt>
      <trkpt lat="44.99862" lon="5.54236">
        <ele>1745</ele>
        <time>2013-02-02T12:05:06Z</time>
      </trkpt>
      <trkpt lat="44.99865" lon="5.54235">
        <ele>1745</ele>
        <time>2013-02-02T12:05:11Z</time>
      </trkpt>
      <trkpt lat="44.99868" lon="5.54234">
        <ele>1745</ele>
        <time>2013-02-02T12:05:16Z</time>
      </trkpt>
      <trkpt lat="44.99871" lon="5.54232">
        <ele>1746</ele>
        <time>2013-02-02T12:05:21Z</time>
      </trkpt>
      <trkpt lat="44.99874" lon="5.5423">
        <ele>1747</ele>
        <time>2013-02-02T12:05:26Z</time>
      </trkpt>
      <trkpt lat="44.99876" lon="5.54228">
        <ele>1746</ele>
        <time>2013-02-02T12:05:31Z</time>
      </trkpt>
      <trkpt lat="44.99877" lon="5.54226">
        <ele>1746</ele>
        <time>2013-02-02T12:05:36Z</time>
      </trkpt>
      <trkpt lat="44.99878" lon="5.54225">
        <ele>1744</ele>
        <time>2013-02-02T12:05:41Z</time>
      </trkpt>
      <trkpt lat="44.99878" lon="5.54224">
        <ele>1743</ele>
        <time>2013-02-02T12:05:46Z</time>
      </trkpt>
      <trkpt lat="44.9988" lon="5.54222">
        <ele>1743</ele>
        <time>2013-02-02T12:05:51Z</time>
      </trkpt>
      <trkpt lat="44.99881" lon="5.54221">
        <ele>1744</ele>
        <time>2013-02-02T12:05:56Z</time>
      </trkpt>
      <trkpt lat="44.99883" lon="5.5422">
        <ele>1744</ele>
        <time>2013-02-02T12:06:01Z</time>
      </trkpt>
      <trkpt lat="44.99884" lon="5.54218">
        <ele>1744</ele>
        <time>2013-02-02T12:06:06Z</time>
      </trkpt>
      <trkpt lat="44.99886" lon="5.54216">
        <ele>1743</ele>
        <time>2013-02-02T12:06:11Z</time>
      </trkpt>
      <trkpt lat="44.99886" lon="5.54215">
        <ele>1742</ele>
        <time>2013-02-02T12:06:16Z</time>
      </trkpt>
      <trkpt lat="44.99886" lon="5.54214">
        <ele>1743</ele>
        <time>2013-02-02T12:06:21Z</time>
      </trkpt>
      <trkpt lat="44.99887" lon="5.54212">
        <ele>1743</ele>
        <time>2013-02-02T12:06:26Z</time>
      </trkpt>
      <trkpt lat="44.99888" lon="5.5421">
        <ele>1743</ele>
        <time>2013-02-02T12:06:31Z</time>
      </trkpt>
      <trkpt lat="44.9989" lon="5.54206">
        <ele>1743</ele>
        <time>2013-02-02T12:06:36Z</time>
      </trkpt>
      <trkpt lat="44.99892" lon="5.54204">
        <ele>1743</ele>
        <time>2013-02-02T12:06:41Z</time>
      </trkpt>
      <trkpt lat="44.99894" lon="5.54203">
        <ele>1743</ele>
        <time>2013-02-02T12:06:46Z</time>
      </trkpt>
      <trkpt lat="44.99897" lon="5.54202">
        <ele>1743</ele>
        <time>2013-02-02T12:06:51Z</time>
      </trkpt>
      <trkpt lat="44.99897" lon="5.542">
        <ele>1745</ele>
        <time>2013-02-02T12:06:56Z</time>
      </trkpt>
      <trkpt lat="44.99899" lon="5.54199">
        <ele>1745</ele>
        <time>2013-02-02T12:07:01Z</time>
      </trkpt>
      <trkpt lat="44.99903" lon="5.54199">
        <ele>1745</ele>
        <time>2013-02-02T12:07:06Z</time>
      </trkpt>
      <trkpt lat="44.99904" lon="5.54195">
        <ele>1745</ele>
        <time>2013-02-02T12:07:11Z</time>
      </trkpt>
      <trkpt lat="44.99905" lon="5.54193">
        <ele>1744</ele>
        <time>2013-02-02T12:07:16Z</time>
      </trkpt>
      <trkpt lat="44.99906" lon="5.54192">
        <ele>1745</ele>
        <time>2013-02-02T12:07:21Z</time>
      </trkpt>
      <trkpt lat="44.99908" lon="5.54192">
        <ele>1745</ele>
        <time>2013-02-02T12:07:26Z</time>
      </trkpt>
      <trkpt lat="44.9991" lon="5.5419">
        <ele>1746</ele>
        <time>2013-02-02T12:07:31Z</time>
      </trkpt>
      <trkpt lat="44.99912" lon="5.5419">
        <ele>1747</ele>
        <time>2013-02-02T12:07:36Z</time>
      </trkpt>
      <trkpt lat="44.99914" lon="5.54187">
        <ele>1748</ele>
        <time>2013-02-02T12:07:41Z</time>
      </trkpt>
      <trkpt lat="44.99914" lon="5.54186">
        <ele>1746</ele>
        <time>2013-02-02T12:07:46Z</time>
      </trkpt>
      <trkpt lat="44.99915" lon="5.54184">
        <ele>1744</ele>
        <time>2013-02-02T12:07:51Z</time>
      </trkpt>
      <trkpt lat="44.99912" lon="5.54187">
        <ele>1760</ele>
        <time>2013-02-02T12:08:01Z</time>
      </trkpt>
      <trkpt lat="44.99915" lon="5.54183">
        <ele>1757</ele>
        <time>2013-02-02T12:08:06Z</time>
      </trkpt>
      <trkpt lat="44.99916" lon="5.54182">
        <ele>1756</ele>
        <time>2013-02-02T12:08:11Z</time>
      </trkpt>
      <trkpt lat="44.99918" lon="5.5418">
        <ele>1756</ele>
        <time>2013-02-02T12:08:16Z</time>
      </trkpt>
      <trkpt lat="44.99919" lon="5.54179">
        <ele>1756</ele>
        <time>2013-02-02T12:08:21Z</time>
      </trkpt>
      <trkpt lat="44.99922" lon="5.54179">
        <ele>1756</ele>
        <time>2013-02-02T12:08:26Z</time>
      </trkpt>
      <trkpt lat="44.99922" lon="5.54178">
        <ele>1756</ele>
        <time>2013-02-02T12:08:31Z</time>
      </trkpt>
      <trkpt lat="44.99922" lon="5.54178">
        <ele>1758</ele>
        <time>2013-02-02T12:08:36Z</time>
      </trkpt>
      <trkpt lat="44.99921" lon="5.54176">
        <ele>1757</ele>
        <time>2013-02-02T12:08:41Z</time>
      </trkpt>
      <trkpt lat="44.99922" lon="5.54175">
        <ele>1757</ele>
        <time>2013-02-02T12:08:46Z</time>
      </trkpt>
      <trkpt lat="44.99923" lon="5.54176">
        <ele>1756</ele>
        <time>2013-02-02T12:08:51Z</time>
      </trkpt>
      <trkpt lat="44.99923" lon="5.54176">
        <ele>1755</ele>
        <time>2013-02-02T12:08:56Z</time>
      </trkpt>
      <trkpt lat="44.99923" lon="5.54174">
        <ele>1755</ele>
        <time>2013-02-02T12:09:01Z</time>
      </trkpt>
      <trkpt lat="44.99923" lon="5.54174">
        <ele>1754</ele>
        <time>2013-02-02T12:09:06Z</time>
      </trkpt>
      <trkpt lat="44.99924" lon="5.54173">
        <ele>1754</ele>
        <time>2013-02-02T12:09:11Z</time>
      </trkpt>
      <trkpt lat="44.99924" lon="5.54173">
        <ele>1754</ele>
        <time>2013-02-02T12:09:16Z</time>
      </trkpt>
      <trkpt lat="44.99924" lon="5.54171">
        <ele>1754</ele>
        <time>2013-02-02T12:09:21Z</time>
      </trkpt>
      <trkpt lat="44.99925" lon="5.54169">
        <ele>1752</ele>
        <time>2013-02-02T12:09:26Z</time>
      </trkpt>
      <trkpt lat="44.99926" lon="5.54168">
        <ele>1750</ele>
        <time>2013-02-02T12:09:31Z</time>
      </trkpt>
      <trkpt lat="44.99927" lon="5.54165">
        <ele>1749</ele>
        <time>2013-02-02T12:09:36Z</time>
      </trkpt>
      <trkpt lat="44.99927" lon="5.54164">
        <ele>1749</ele>
        <time>2013-02-02T12:09:41Z</time>
      </trkpt>
      <trkpt lat="44.99928" lon="5.54163">
        <ele>1749</ele>
        <time>2013-02-02T12:09:46Z</time>
      </trkpt>
      <trkpt lat="44.99928" lon="5.54162">
        <ele>1750</ele>
        <time>2013-02-02T12:09:51Z</time>
      </trkpt>
      <trkpt lat="44.99928" lon="5.54161">
        <ele>1750</ele>
        <time>2013-02-02T12:09:56Z</time>
      </trkpt>
      <trkpt lat="44.99928" lon="5.5416">
        <ele>1750</ele>
        <time>2013-02-02T12:10:01Z</time>
      </trkpt>
      <trkpt lat="44.99929" lon="5.54158">
        <ele>1749</ele>
        <time>2013-02-02T12:10:06Z</time>
      </trkpt>
      <trkpt lat="44.9993" lon="5.54156">
        <ele>1749</ele>
        <time>2013-02-02T12:10:11Z</time>
      </trkpt>
      <trkpt lat="44.9993" lon="5.54155">
        <ele>1748</ele>
        <time>2013-02-02T12:10:16Z</time>
      </trkpt>
      <trkpt lat="44.9993" lon="5.54154">
        <ele>1750</ele>
        <time>2013-02-02T12:10:21Z</time>
      </trkpt>
      <trkpt lat="44.9993" lon="5.54153">
        <ele>1750</ele>
        <time>2013-02-02T12:10:26Z</time>
      </trkpt>
      <trkpt lat="44.99931" lon="5.54151">
        <ele>1751</ele>
        <time>2013-02-02T12:10:31Z</time>
      </trkpt>
      <trkpt lat="44.99931" lon="5.5415">
        <ele>1752</ele>
        <time>2013-02-02T12:10:36Z</time>
      </trkpt>
      <trkpt lat="44.99931" lon="5.54149">
        <ele>1750</ele>
        <time>2013-02-02T12:10:41Z</time>
      </trkpt>
      <trkpt lat="44.99931" lon="5.54146">
        <ele>1749</ele>
        <time>2013-02-02T12:10:46Z</time>
      </trkpt>
      <trkpt lat="44.99932" lon="5.54145">
        <ele>1748</ele>
        <time>2013-02-02T12:10:51Z</time>
      </trkpt>
      <trkpt lat="44.99932" lon="5.54145">
        <ele>1749</ele>
        <time>2013-02-02T12:10:56Z</time>
      </trkpt>
      <trkpt lat="44.99933" lon="5.54142">
        <ele>1765</ele>
        <time>2013-02-02T12:28:46Z</time>
      </trkpt>
      <trkpt lat="44.99933" lon="5.5414">
        <ele>1766</ele>
        <time>2013-02-02T12:28:51Z</time>
      </trkpt>
      <trkpt lat="44.99933" lon="5.54137">
        <ele>1766</ele>
        <time>2013-02-02T12:28:56Z</time>
      </trkpt>
      <trkpt lat="44.99934" lon="5.54135">
        <ele>1767</ele>
        <time>2013-02-02T12:29:01Z</time>
      </trkpt>
      <trkpt lat="44.99934" lon="5.54133">
        <ele>1767</ele>
        <time>2013-02-02T12:29:06Z</time>
      </trkpt>
      <trkpt lat="44.99934" lon="5.5413">
        <ele>1768</ele>
        <time>2013-02-02T12:29:11Z</time>
      </trkpt>
      <trkpt lat="44.99935" lon="5.54127">
        <ele>1768</ele>
        <time>2013-02-02T12:29:16Z</time>
      </trkpt>
      <trkpt lat="44.99936" lon="5.54124">
        <ele>1769</ele>
        <time>2013-02-02T12:29:21Z</time>
      </trkpt>
      <trkpt lat="44.99936" lon="5.54121">
        <ele>1769</ele>
        <time>2013-02-02T12:29:26Z</time>
      </trkpt>
      <trkpt lat="44.99937" lon="5.5412">
        <ele>1769</ele>
        <time>2013-02-02T12:29:31Z</time>
      </trkpt>
      <trkpt lat="44.99937" lon="5.5412">
        <ele>1769</ele>
        <time>2013-02-02T12:29:36Z</time>
      </trkpt>
      <trkpt lat="44.99938" lon="5.54116">
        <ele>1770</ele>
        <time>2013-02-02T12:29:41Z</time>
      </trkpt>
      <trkpt lat="44.99941" lon="5.54106">
        <ele>1769</ele>
        <time>2013-02-02T12:29:46Z</time>
      </trkpt>
      <trkpt lat="44.99937" lon="5.54084">
        <ele>1766</ele>
        <time>2013-02-02T12:29:51Z</time>
      </trkpt>
      <trkpt lat="44.99946" lon="5.5407">
        <ele>1764</ele>
        <time>2013-02-02T12:29:56Z</time>
      </trkpt>
      <trkpt lat="44.99953" lon="5.54044">
        <ele>1759</ele>
        <time>2013-02-02T12:30:01Z</time>
      </trkpt>
      <trkpt lat="44.99959" lon="5.54022">
        <ele>1757</ele>
        <time>2013-02-02T12:30:06Z</time>
      </trkpt>
      <trkpt lat="44.99959" lon="5.54019">
        <ele>1757</ele>
        <time>2013-02-02T12:30:11Z</time>
      </trkpt>
      <trkpt lat="44.99959" lon="5.54017">
        <ele>1757</ele>
        <time>2013-02-02T12:30:16Z</time>
      </trkpt>
      <trkpt lat="44.99958" lon="5.54015">
        <ele>1757</ele>
        <time>2013-02-02T12:30:21Z</time>
      </trkpt>
      <trkpt lat="44.99959" lon="5.54011">
        <ele>1756</ele>
        <time>2013-02-02T12:30:26Z</time>
      </trkpt>
      <trkpt lat="44.99961" lon="5.54003">
        <ele>1756</ele>
        <time>2013-02-02T12:30:31Z</time>
      </trkpt>
      <trkpt lat="44.99962" lon="5.53993">
        <ele>1755</ele>
        <time>2013-02-02T12:30:36Z</time>
      </trkpt>
      <trkpt lat="44.99963" lon="5.53988">
        <ele>1755</ele>
        <time>2013-02-02T12:30:41Z</time>
      </trkpt>
      <trkpt lat="44.99966" lon="5.53981">
        <ele>1754</ele>
        <time>2013-02-02T12:30:46Z</time>
      </trkpt>
      <trkpt lat="44.99975" lon="5.53972">
        <ele>1750</ele>
        <time>2013-02-02T12:30:51Z</time>
      </trkpt>
      <trkpt lat="44.99975" lon="5.53968">
        <ele>1749</ele>
        <time>2013-02-02T12:30:56Z</time>
      </trkpt>
      <trkpt lat="44.99975" lon="5.53967">
        <ele>1749</ele>
        <time>2013-02-02T12:31:01Z</time>
      </trkpt>
      <trkpt lat="44.99976" lon="5.53968">
        <ele>1750</ele>
        <time>2013-02-02T12:31:06Z</time>
      </trkpt>
      <trkpt lat="44.99976" lon="5.53968">
        <ele>1750</ele>
        <time>2013-02-02T12:31:11Z</time>
      </trkpt>
      <trkpt lat="44.99976" lon="5.53968">
        <ele>1750</ele>
        <time>2013-02-02T12:31:16Z</time>
      </trkpt>
      <trkpt lat="44.99976" lon="5.53968">
        <ele>1750</ele>
        <time>2013-02-02T12:31:21Z</time>
      </trkpt>
      <trkpt lat="44.99976" lon="5.53968">
        <ele>1749</ele>
        <time>2013-02-02T12:31:26Z</time>
      </trkpt>
      <trkpt lat="44.99976" lon="5.53968">
        <ele>1749</ele>
        <time>2013-02-02T12:31:31Z</time>
      </trkpt>
      <trkpt lat="44.99976" lon="5.53969">
        <ele>1749</ele>
        <time>2013-02-02T12:31:36Z</time>
      </trkpt>
      <trkpt lat="44.99976" lon="5.53969">
        <ele>1749</ele>
        <time>2013-02-02T12:31:41Z</time>
      </trkpt>
      <trkpt lat="44.99976" lon="5.53969">
        <ele>1749</ele>
        <time>2013-02-02T12:31:46Z</time>
      </trkpt>
      <trkpt lat="44.99976" lon="5.53969">
        <ele>1749</ele>
        <time>2013-02-02T12:31:51Z</time>
      </trkpt>
      <trkpt lat="44.99979" lon="5.53969">
        <ele>1751</ele>
        <time>2013-02-02T12:31:56Z</time>
      </trkpt>
      <trkpt lat="44.99979" lon="5.5397">
        <ele>1752</ele>
        <time>2013-02-02T12:32:01Z</time>
      </trkpt>
      <trkpt lat="44.99979" lon="5.53969">
        <ele>1752</ele>
        <time>2013-02-02T12:32:06Z</time>
      </trkpt>
      <trkpt lat="44.9998" lon="5.53964">
        <ele>1751</ele>
        <time>2013-02-02T12:32:11Z</time>
      </trkpt>
      <trkpt lat="44.99984" lon="5.53952">
        <ele>1749</ele>
        <time>2013-02-02T12:32:16Z</time>
      </trkpt>
      <trkpt lat="44.99983" lon="5.53951">
        <ele>1748</ele>
        <time>2013-02-02T12:32:21Z</time>
      </trkpt>
      <trkpt lat="44.99982" lon="5.53949">
        <ele>1747</ele>
        <time>2013-02-02T12:32:26Z</time>
      </trkpt>
      <trkpt lat="44.99983" lon="5.53944">
        <ele>1746</ele>
        <time>2013-02-02T12:32:31Z</time>
      </trkpt>
      <trkpt lat="44.99983" lon="5.53942">
        <ele>1745</ele>
        <time>2013-02-02T12:32:36Z</time>
      </trkpt>
      <trkpt lat="44.99983" lon="5.5394">
        <ele>1744</ele>
        <time>2013-02-02T12:32:41Z</time>
      </trkpt>
      <trkpt lat="44.99981" lon="5.53938">
        <ele>1743</ele>
        <time>2013-02-02T12:32:46Z</time>
      </trkpt>
      <trkpt lat="44.99984" lon="5.53936">
        <ele>1742</ele>
        <time>2013-02-02T12:32:51Z</time>
      </trkpt>
      <trkpt lat="44.99987" lon="5.53935">
        <ele>1743</ele>
        <time>2013-02-02T12:32:56Z</time>
      </trkpt>
      <trkpt lat="44.99994" lon="5.53935">
        <ele>1741</ele>
        <time>2013-02-02T12:33:01Z</time>
      </trkpt>
      <trkpt lat="45.00006" lon="5.53941">
        <ele>1739</ele>
        <time>2013-02-02T12:33:06Z</time>
      </trkpt>
      <trkpt lat="45.00018" lon="5.53945">
        <ele>1737</ele>
        <time>2013-02-02T12:33:11Z</time>
      </trkpt>
      <trkpt lat="45.00024" lon="5.53948">
        <ele>1736</ele>
        <time>2013-02-02T12:33:16Z</time>
      </trkpt>
      <trkpt lat="45.00025" lon="5.53948">
        <ele>1736</ele>
        <time>2013-02-02T12:33:21Z</time>
      </trkpt>
      <trkpt lat="45.00027" lon="5.53939">
        <ele>1733</ele>
        <time>2013-02-02T12:33:26Z</time>
      </trkpt>
      <trkpt lat="45.00023" lon="5.53927">
        <ele>1730</ele>
        <time>2013-02-02T12:33:31Z</time>
      </trkpt>
      <trkpt lat="45.00026" lon="5.53926">
        <ele>1728</ele>
        <time>2013-02-02T12:33:36Z</time>
      </trkpt>
      <trkpt lat="45.00029" lon="5.53926">
        <ele>1727</ele>
        <time>2013-02-02T12:33:41Z</time>
      </trkpt>
      <trkpt lat="45.00029" lon="5.53926">
        <ele>1727</ele>
        <time>2013-02-02T12:33:46Z</time>
      </trkpt>
      <trkpt lat="45.00034" lon="5.5392">
        <ele>1724</ele>
        <time>2013-02-02T12:33:51Z</time>
      </trkpt>
      <trkpt lat="45.0005" lon="5.53912">
        <ele>1722</ele>
        <time>2013-02-02T12:33:56Z</time>
      </trkpt>
      <trkpt lat="45.00054" lon="5.53908">
        <ele>1721</ele>
        <time>2013-02-02T12:34:01Z</time>
      </trkpt>
      <trkpt lat="45.00058" lon="5.53907">
        <ele>1720</ele>
        <time>2013-02-02T12:34:06Z</time>
      </trkpt>
      <trkpt lat="45.00059" lon="5.53907">
        <ele>1721</ele>
        <time>2013-02-02T12:34:11Z</time>
      </trkpt>
      <trkpt lat="45.00062" lon="5.53907">
        <ele>1720</ele>
        <time>2013-02-02T12:34:16Z</time>
      </trkpt>
      <trkpt lat="45.00065" lon="5.53907">
        <ele>1720</ele>
        <time>2013-02-02T12:34:21Z</time>
      </trkpt>
      <trkpt lat="45.00075" lon="5.53913">
        <ele>1719</ele>
        <time>2013-02-02T12:34:26Z</time>
      </trkpt>
      <trkpt lat="45.00076" lon="5.53915">
        <ele>1719</ele>
        <time>2013-02-02T12:34:31Z</time>
      </trkpt>
      <trkpt lat="45.00078" lon="5.53915">
        <ele>1719</ele>
        <time>2013-02-02T12:34:36Z</time>
      </trkpt>
      <trkpt lat="45.00079" lon="5.53916">
        <ele>1719</ele>
        <time>2013-02-02T12:34:41Z</time>
      </trkpt>
      <trkpt lat="45.00082" lon="5.53917">
        <ele>1719</ele>
        <time>2013-02-02T12:34:46Z</time>
      </trkpt>
      <trkpt lat="45.00084" lon="5.53918">
        <ele>1719</ele>
        <time>2013-02-02T12:34:51Z</time>
      </trkpt>
      <trkpt lat="45.00085" lon="5.53919">
        <ele>1719</ele>
        <time>2013-02-02T12:34:56Z</time>
      </trkpt>
      <trkpt lat="45.00085" lon="5.53919">
        <ele>1719</ele>
        <time>2013-02-02T12:35:01Z</time>
      </trkpt>
      <trkpt lat="45.00085" lon="5.53919">
        <ele>1719</ele>
        <time>2013-02-02T12:35:06Z</time>
      </trkpt>
      <trkpt lat="45.00085" lon="5.53919">
        <ele>1719</ele>
        <time>2013-02-02T12:35:11Z</time>
      </trkpt>
      <trkpt lat="45.00085" lon="5.53919">
        <ele>1718</ele>
        <time>2013-02-02T12:35:16Z</time>
      </trkpt>
      <trkpt lat="45.00088" lon="5.5392">
        <ele>1717</ele>
        <time>2013-02-02T12:35:21Z</time>
      </trkpt>
      <trkpt lat="45.00091" lon="5.53923">
        <ele>1718</ele>
        <time>2013-02-02T12:35:26Z</time>
      </trkpt>
      <trkpt lat="45.00095" lon="5.53924">
        <ele>1718</ele>
        <time>2013-02-02T12:35:31Z</time>
      </trkpt>
      <trkpt lat="45.00095" lon="5.53925">
        <ele>1719</ele>
        <time>2013-02-02T12:35:36Z</time>
      </trkpt>
      <trkpt lat="45.00098" lon="5.53925">
        <ele>1719</ele>
        <time>2013-02-02T12:35:41Z</time>
      </trkpt>
      <trkpt lat="45.00098" lon="5.53925">
        <ele>1718</ele>
        <time>2013-02-02T12:35:46Z</time>
      </trkpt>
      <trkpt lat="45.00099" lon="5.53922">
        <ele>1717</ele>
        <time>2013-02-02T12:35:51Z</time>
      </trkpt>
      <trkpt lat="45.001" lon="5.53917">
        <ele>1715</ele>
        <time>2013-02-02T12:35:56Z</time>
      </trkpt>
      <trkpt lat="45.00101" lon="5.53916">
        <ele>1714</ele>
        <time>2013-02-02T12:36:01Z</time>
      </trkpt>
      <trkpt lat="45.00106" lon="5.5391">
        <ele>1712</ele>
        <time>2013-02-02T12:36:06Z</time>
      </trkpt>
      <trkpt lat="45.00106" lon="5.539">
        <ele>1709</ele>
        <time>2013-02-02T12:36:11Z</time>
      </trkpt>
      <trkpt lat="45.00107" lon="5.53896">
        <ele>1706</ele>
        <time>2013-02-02T12:36:16Z</time>
      </trkpt>
      <trkpt lat="45.00116" lon="5.53886">
        <ele>1703</ele>
        <time>2013-02-02T12:36:21Z</time>
      </trkpt>
      <trkpt lat="45.00113" lon="5.53887">
        <ele>1702</ele>
        <time>2013-02-02T12:36:26Z</time>
      </trkpt>
      <trkpt lat="45.00113" lon="5.53887">
        <ele>1701</ele>
        <time>2013-02-02T12:36:31Z</time>
      </trkpt>
      <trkpt lat="45.00113" lon="5.53887">
        <ele>1700</ele>
        <time>2013-02-02T12:36:36Z</time>
      </trkpt>
      <trkpt lat="45.00113" lon="5.53887">
        <ele>1700</ele>
        <time>2013-02-02T12:36:41Z</time>
      </trkpt>
      <trkpt lat="45.00113" lon="5.53888">
        <ele>1699</ele>
        <time>2013-02-02T12:36:46Z</time>
      </trkpt>
      <trkpt lat="45.00113" lon="5.53887">
        <ele>1699</ele>
        <time>2013-02-02T12:36:51Z</time>
      </trkpt>
      <trkpt lat="45.00113" lon="5.53887">
        <ele>1699</ele>
        <time>2013-02-02T12:36:56Z</time>
      </trkpt>
      <trkpt lat="45.00113" lon="5.53887">
        <ele>1699</ele>
        <time>2013-02-02T12:37:01Z</time>
      </trkpt>
      <trkpt lat="45.00113" lon="5.53887">
        <ele>1699</ele>
        <time>2013-02-02T12:37:06Z</time>
      </trkpt>
      <trkpt lat="45.00111" lon="5.53886">
        <ele>1698</ele>
        <time>2013-02-02T12:37:11Z</time>
      </trkpt>
      <trkpt lat="45.00106" lon="5.53882">
        <ele>1697</ele>
        <time>2013-02-02T12:37:16Z</time>
      </trkpt>
      <trkpt lat="45.00105" lon="5.53881">
        <ele>1697</ele>
        <time>2013-02-02T12:37:21Z</time>
      </trkpt>
      <trkpt lat="45.00106" lon="5.53882">
        <ele>1697</ele>
        <time>2013-02-02T12:37:26Z</time>
      </trkpt>
      <trkpt lat="45.00107" lon="5.53882">
        <ele>1698</ele>
        <time>2013-02-02T12:37:31Z</time>
      </trkpt>
      <trkpt lat="45.00108" lon="5.53882">
        <ele>1698</ele>
        <time>2013-02-02T12:37:36Z</time>
      </trkpt>
      <trkpt lat="45.00108" lon="5.53882">
        <ele>1698</ele>
        <time>2013-02-02T12:37:41Z</time>
      </trkpt>
      <trkpt lat="45.00108" lon="5.53883">
        <ele>1698</ele>
        <time>2013-02-02T12:37:46Z</time>
      </trkpt>
      <trkpt lat="45.00108" lon="5.53882">
        <ele>1697</ele>
        <time>2013-02-02T12:37:51Z</time>
      </trkpt>
      <trkpt lat="45.00108" lon="5.53882">
        <ele>1698</ele>
        <time>2013-02-02T12:37:56Z</time>
      </trkpt>
      <trkpt lat="45.00107" lon="5.53882">
        <ele>1698</ele>
        <time>2013-02-02T12:38:01Z</time>
      </trkpt>
      <trkpt lat="45.00108" lon="5.53882">
        <ele>1697</ele>
        <time>2013-02-02T12:38:06Z</time>
      </trkpt>
      <trkpt lat="45.00108" lon="5.53882">
        <ele>1697</ele>
        <time>2013-02-02T12:38:11Z</time>
      </trkpt>
      <trkpt lat="45.00107" lon="5.53879">
        <ele>1696</ele>
        <time>2013-02-02T12:38:16Z</time>
      </trkpt>
      <trkpt lat="45.00108" lon="5.53865">
        <ele>1693</ele>
        <time>2013-02-02T12:38:21Z</time>
      </trkpt>
      <trkpt lat="45.00109" lon="5.53841">
        <ele>1689</ele>
        <time>2013-02-02T12:38:26Z</time>
      </trkpt>
      <trkpt lat="45.00108" lon="5.53839">
        <ele>1689</ele>
        <time>2013-02-02T12:38:31Z</time>
      </trkpt>
      <trkpt lat="45.00113" lon="5.53842">
        <ele>1693</ele>
        <time>2013-02-02T12:40:11Z</time>
      </trkpt>
      <trkpt lat="45.00112" lon="5.53841">
        <ele>1692</ele>
        <time>2013-02-02T12:40:16Z</time>
      </trkpt>
      <trkpt lat="45.00111" lon="5.53841">
        <ele>1692</ele>
        <time>2013-02-02T12:40:21Z</time>
      </trkpt>
      <trkpt lat="45.0011" lon="5.53841">
        <ele>1691</ele>
        <time>2013-02-02T12:40:26Z</time>
      </trkpt>
      <trkpt lat="45.00108" lon="5.53841">
        <ele>1692</ele>
        <time>2013-02-02T12:40:31Z</time>
      </trkpt>
      <trkpt lat="45.00107" lon="5.53841">
        <ele>1692</ele>
        <time>2013-02-02T12:40:36Z</time>
      </trkpt>
      <trkpt lat="45.00107" lon="5.53841">
        <ele>1692</ele>
        <time>2013-02-02T12:40:41Z</time>
      </trkpt>
      <trkpt lat="45.00105" lon="5.5383">
        <ele>1691</ele>
        <time>2013-02-02T12:40:46Z</time>
      </trkpt>
      <trkpt lat="45.001" lon="5.53802">
        <ele>1687</ele>
        <time>2013-02-02T12:40:51Z</time>
      </trkpt>
      <trkpt lat="45.00097" lon="5.53782">
        <ele>1683</ele>
        <time>2013-02-02T12:40:56Z</time>
      </trkpt>
      <trkpt lat="45.00097" lon="5.53776">
        <ele>1681</ele>
        <time>2013-02-02T12:41:01Z</time>
      </trkpt>
      <trkpt lat="45.00104" lon="5.53759">
        <ele>1678</ele>
        <time>2013-02-02T12:41:06Z</time>
      </trkpt>
      <trkpt lat="45.00111" lon="5.53742">
        <ele>1675</ele>
        <time>2013-02-02T12:41:11Z</time>
      </trkpt>
      <trkpt lat="45.00119" lon="5.53737">
        <ele>1676</ele>
        <time>2013-02-02T12:41:16Z</time>
      </trkpt>
      <trkpt lat="45.00124" lon="5.53722">
        <ele>1673</ele>
        <time>2013-02-02T12:41:21Z</time>
      </trkpt>
      <trkpt lat="45.00129" lon="5.53701">
        <ele>1666</ele>
        <time>2013-02-02T12:41:26Z</time>
      </trkpt>
      <trkpt lat="45.00133" lon="5.53679">
        <ele>1660</ele>
        <time>2013-02-02T12:41:31Z</time>
      </trkpt>
      <trkpt lat="45.00141" lon="5.53651">
        <ele>1653</ele>
        <time>2013-02-02T12:41:36Z</time>
      </trkpt>
      <trkpt lat="45.00152" lon="5.53623">
        <ele>1645</ele>
        <time>2013-02-02T12:41:41Z</time>
      </trkpt>
      <trkpt lat="45.00152" lon="5.53614">
        <ele>1640</ele>
        <time>2013-02-02T12:41:46Z</time>
      </trkpt>
      <trkpt lat="45.00145" lon="5.53613">
        <ele>1638</ele>
        <time>2013-02-02T12:41:51Z</time>
      </trkpt>
      <trkpt lat="45.00144" lon="5.53613">
        <ele>1639</ele>
        <time>2013-02-02T12:41:56Z</time>
      </trkpt>
      <trkpt lat="45.00144" lon="5.53608">
        <ele>1638</ele>
        <time>2013-02-02T12:42:01Z</time>
      </trkpt>
      <trkpt lat="45.00145" lon="5.53606">
        <ele>1638</ele>
        <time>2013-02-02T12:42:06Z</time>
      </trkpt>
      <trkpt lat="45.00147" lon="5.53606">
        <ele>1639</ele>
        <time>2013-02-02T12:42:11Z</time>
      </trkpt>
      <trkpt lat="45.00147" lon="5.53605">
        <ele>1638</ele>
        <time>2013-02-02T12:42:16Z</time>
      </trkpt>
      <trkpt lat="45.00148" lon="5.53605">
        <ele>1637</ele>
        <time>2013-02-02T12:42:21Z</time>
      </trkpt>
      <trkpt lat="45.00152" lon="5.53602">
        <ele>1636</ele>
        <time>2013-02-02T12:42:26Z</time>
      </trkpt>
      <trkpt lat="45.0015" lon="5.53599">
        <ele>1635</ele>
        <time>2013-02-02T12:42:31Z</time>
      </trkpt>
      <trkpt lat="45.00152" lon="5.53587">
        <ele>1632</ele>
        <time>2013-02-02T12:42:36Z</time>
      </trkpt>
      <trkpt lat="45.00156" lon="5.53585">
        <ele>1631</ele>
        <time>2013-02-02T12:42:41Z</time>
      </trkpt>
      <trkpt lat="45.00162" lon="5.53583">
        <ele>1631</ele>
        <time>2013-02-02T12:42:46Z</time>
      </trkpt>
      <trkpt lat="45.00162" lon="5.53581">
        <ele>1631</ele>
        <time>2013-02-02T12:42:51Z</time>
      </trkpt>
      <trkpt lat="45.00161" lon="5.53576">
        <ele>1630</ele>
        <time>2013-02-02T12:42:56Z</time>
      </trkpt>
      <trkpt lat="45.00161" lon="5.53576">
        <ele>1630</ele>
        <time>2013-02-02T12:43:01Z</time>
      </trkpt>
      <trkpt lat="45.0016" lon="5.53576">
        <ele>1631</ele>
        <time>2013-02-02T12:43:06Z</time>
      </trkpt>
      <trkpt lat="45.0016" lon="5.53576">
        <ele>1631</ele>
        <time>2013-02-02T12:43:11Z</time>
      </trkpt>
      <trkpt lat="45.0016" lon="5.53576">
        <ele>1630</ele>
        <time>2013-02-02T12:43:16Z</time>
      </trkpt>
      <trkpt lat="45.00163" lon="5.53577">
        <ele>1629</ele>
        <time>2013-02-02T12:50:30Z</time>
      </trkpt>
      <trkpt lat="45.00163" lon="5.53577">
        <ele>1628</ele>
        <time>2013-02-02T12:50:35Z</time>
      </trkpt>
      <trkpt lat="45.00162" lon="5.53577">
        <ele>1627</ele>
        <time>2013-02-02T12:50:40Z</time>
      </trkpt>
      <trkpt lat="45.00162" lon="5.53576">
        <ele>1626</ele>
        <time>2013-02-02T12:50:45Z</time>
      </trkpt>
      <trkpt lat="45.00163" lon="5.53577">
        <ele>1626</ele>
        <time>2013-02-02T12:50:50Z</time>
      </trkpt>
      <trkpt lat="45.00165" lon="5.53578">
        <ele>1625</ele>
        <time>2013-02-02T12:50:55Z</time>
      </trkpt>
      <trkpt lat="45.00165" lon="5.53577">
        <ele>1624</ele>
        <time>2013-02-02T12:51:00Z</time>
      </trkpt>
      <trkpt lat="45.00167" lon="5.53577">
        <ele>1625</ele>
        <time>2013-02-02T12:51:05Z</time>
      </trkpt>
      <trkpt lat="45.00167" lon="5.53577">
        <ele>1623</ele>
        <time>2013-02-02T12:51:10Z</time>
      </trkpt>
      <trkpt lat="45.0017" lon="5.53578">
        <ele>1624</ele>
        <time>2013-02-02T12:51:15Z</time>
      </trkpt>
      <trkpt lat="45.00172" lon="5.53578">
        <ele>1621</ele>
        <time>2013-02-02T12:51:20Z</time>
      </trkpt>
      <trkpt lat="45.00171" lon="5.53578">
        <ele>1621</ele>
        <time>2013-02-02T12:51:25Z</time>
      </trkpt>
      <trkpt lat="45.0017" lon="5.53578">
        <ele>1621</ele>
        <time>2013-02-02T12:51:30Z</time>
      </trkpt>
      <trkpt lat="45.0017" lon="5.53578">
        <ele>1621</ele>
        <time>2013-02-02T12:51:35Z</time>
      </trkpt>
      <trkpt lat="45.0017" lon="5.53578">
        <ele>1621</ele>
        <time>2013-02-02T12:51:40Z</time>
      </trkpt>
      <trkpt lat="45.00169" lon="5.53578">
        <ele>1622</ele>
        <time>2013-02-02T12:51:45Z</time>
      </trkpt>
      <trkpt lat="45.0017" lon="5.53578">
        <ele>1622</ele>
        <time>2013-02-02T12:51:50Z</time>
      </trkpt>
      <trkpt lat="45.0017" lon="5.53577">
        <ele>1622</ele>
        <time>2013-02-02T12:51:55Z</time>
      </trkpt>
      <trkpt lat="45.0017" lon="5.53577">
        <ele>1622</ele>
        <time>2013-02-02T12:52:00Z</time>
      </trkpt>
      <trkpt lat="45.00171" lon="5.53575">
        <ele>1622</ele>
        <time>2013-02-02T12:52:05Z</time>
      </trkpt>
      <trkpt lat="45.0017" lon="5.53573">
        <ele>1623</ele>
        <time>2013-02-02T12:52:10Z</time>
      </trkpt>
      <trkpt lat="45.00169" lon="5.53572">
        <ele>1624</ele>
        <time>2013-02-02T12:52:15Z</time>
      </trkpt>
      <trkpt lat="45.00169" lon="5.5357">
        <ele>1625</ele>
        <time>2013-02-02T12:52:20Z</time>
      </trkpt>
      <trkpt lat="45.00169" lon="5.53569">
        <ele>1626</ele>
        <time>2013-02-02T12:52:25Z</time>
      </trkpt>
      <trkpt lat="45.00173" lon="5.53566">
        <ele>1625</ele>
        <time>2013-02-02T12:52:30Z</time>
      </trkpt>
      <trkpt lat="45.00174" lon="5.53567">
        <ele>1624</ele>
        <time>2013-02-02T12:52:35Z</time>
      </trkpt>
      <trkpt lat="45.00176" lon="5.53564">
        <ele>1624</ele>
        <time>2013-02-02T12:52:40Z</time>
      </trkpt>
      <trkpt lat="45.00176" lon="5.53559">
        <ele>1625</ele>
        <time>2013-02-02T12:52:45Z</time>
      </trkpt>
      <trkpt lat="45.00177" lon="5.53553">
        <ele>1626</ele>
        <time>2013-02-02T12:52:50Z</time>
      </trkpt>
      <trkpt lat="45.00177" lon="5.53548">
        <ele>1626</ele>
        <time>2013-02-02T12:52:55Z</time>
      </trkpt>
      <trkpt lat="45.00178" lon="5.53545">
        <ele>1627</ele>
        <time>2013-02-02T12:53:00Z</time>
      </trkpt>
      <trkpt lat="45.00178" lon="5.53545">
        <ele>1628</ele>
        <time>2013-02-02T12:53:05Z</time>
      </trkpt>
      <trkpt lat="45.00179" lon="5.53546">
        <ele>1627</ele>
        <time>2013-02-02T12:53:10Z</time>
      </trkpt>
      <trkpt lat="45.00178" lon="5.53546">
        <ele>1627</ele>
        <time>2013-02-02T12:53:15Z</time>
      </trkpt>
      <trkpt lat="45.00178" lon="5.53545">
        <ele>1627</ele>
        <time>2013-02-02T12:53:20Z</time>
      </trkpt>
      <trkpt lat="45.00179" lon="5.53543">
        <ele>1629</ele>
        <time>2013-02-02T12:53:25Z</time>
      </trkpt>
      <trkpt lat="45.00179" lon="5.53543">
        <ele>1628</ele>
        <time>2013-02-02T12:53:30Z</time>
      </trkpt>
      <trkpt lat="45.00179" lon="5.53543">
        <ele>1628</ele>
        <time>2013-02-02T12:53:35Z</time>
      </trkpt>
      <trkpt lat="45.00179" lon="5.53543">
        <ele>1628</ele>
        <time>2013-02-02T12:53:40Z</time>
      </trkpt>
      <trkpt lat="45.00179" lon="5.53543">
        <ele>1628</ele>
        <time>2013-02-02T12:53:45Z</time>
      </trkpt>
      <trkpt lat="45.00179" lon="5.53544">
        <ele>1627</ele>
        <time>2013-02-02T12:53:50Z</time>
      </trkpt>
      <trkpt lat="45.00178" lon="5.53543">
        <ele>1627</ele>
        <time>2013-02-02T12:53:55Z</time>
      </trkpt>
      <trkpt lat="45.00177" lon="5.53542">
        <ele>1626</ele>
        <time>2013-02-02T12:54:00Z</time>
      </trkpt>
      <trkpt lat="45.00177" lon="5.53542">
        <ele>1626</ele>
        <time>2013-02-02T12:54:05Z</time>
      </trkpt>
      <trkpt lat="45.00177" lon="5.53542">
        <ele>1626</ele>
        <time>2013-02-02T12:54:10Z</time>
      </trkpt>
      <trkpt lat="45.00177" lon="5.53542">
        <ele>1625</ele>
        <time>2013-02-02T12:54:15Z</time>
      </trkpt>
      <trkpt lat="45.00176" lon="5.53541">
        <ele>1626</ele>
        <time>2013-02-02T12:54:20Z</time>
      </trkpt>
      <trkpt lat="45.00176" lon="5.5354">
        <ele>1628</ele>
        <time>2013-02-02T12:54:25Z</time>
      </trkpt>
      <trkpt lat="45.00176" lon="5.53539">
        <ele>1629</ele>
        <time>2013-02-02T12:54:30Z</time>
      </trkpt>
      <trkpt lat="45.00175" lon="5.53539">
        <ele>1629</ele>
        <time>2013-02-02T12:54:35Z</time>
      </trkpt>
      <trkpt lat="45.00175" lon="5.5354">
        <ele>1629</ele>
        <time>2013-02-02T12:54:40Z</time>
      </trkpt>
      <trkpt lat="45.00175" lon="5.53539">
        <ele>1630</ele>
        <time>2013-02-02T12:54:45Z</time>
      </trkpt>
      <trkpt lat="45.00175" lon="5.5354">
        <ele>1629</ele>
        <time>2013-02-02T12:54:50Z</time>
      </trkpt>
      <trkpt lat="45.00175" lon="5.53539">
        <ele>1628</ele>
        <time>2013-02-02T12:54:55Z</time>
      </trkpt>
      <trkpt lat="45.00176" lon="5.5354">
        <ele>1627</ele>
        <time>2013-02-02T12:55:00Z</time>
      </trkpt>
      <trkpt lat="45.00176" lon="5.53541">
        <ele>1627</ele>
        <time>2013-02-02T12:55:05Z</time>
      </trkpt>
      <trkpt lat="45.00176" lon="5.5354">
        <ele>1625</ele>
        <time>2013-02-02T12:55:10Z</time>
      </trkpt>
      <trkpt lat="45.00176" lon="5.53541">
        <ele>1625</ele>
        <time>2013-02-02T12:55:15Z</time>
      </trkpt>
      <trkpt lat="45.00176" lon="5.53541">
        <ele>1625</ele>
        <time>2013-02-02T12:55:20Z</time>
      </trkpt>
      <trkpt lat="45.00176" lon="5.53541">
        <ele>1626</ele>
        <time>2013-02-02T12:55:25Z</time>
      </trkpt>
      <trkpt lat="45.00176" lon="5.53541">
        <ele>1626</ele>
        <time>2013-02-02T12:55:30Z</time>
      </trkpt>
      <trkpt lat="45.00177" lon="5.53541">
        <ele>1627</ele>
        <time>2013-02-02T12:55:35Z</time>
      </trkpt>
      <trkpt lat="45.00176" lon="5.5354">
        <ele>1627</ele>
        <time>2013-02-02T12:55:40Z</time>
      </trkpt>
      <trkpt lat="45.00178" lon="5.53537">
        <ele>1628</ele>
        <time>2013-02-02T12:55:45Z</time>
      </trkpt>
      <trkpt lat="45.0018" lon="5.53535">
        <ele>1629</ele>
        <time>2013-02-02T12:55:50Z</time>
      </trkpt>
      <trkpt lat="45.00182" lon="5.53535">
        <ele>1629</ele>
        <time>2013-02-02T12:55:55Z</time>
      </trkpt>
      <trkpt lat="45.00185" lon="5.53534">
        <ele>1629</ele>
        <time>2013-02-02T12:56:00Z</time>
      </trkpt>
      <trkpt lat="45.00188" lon="5.53534">
        <ele>1628</ele>
        <time>2013-02-02T12:56:05Z</time>
      </trkpt>
      <trkpt lat="45.00189" lon="5.53532">
        <ele>1629</ele>
        <time>2013-02-02T12:56:10Z</time>
      </trkpt>
      <trkpt lat="45.0019" lon="5.5353">
        <ele>1630</ele>
        <time>2013-02-02T12:56:15Z</time>
      </trkpt>
      <trkpt lat="45.00191" lon="5.53528">
        <ele>1632</ele>
        <time>2013-02-02T12:56:20Z</time>
      </trkpt>
      <trkpt lat="45.00193" lon="5.53526">
        <ele>1632</ele>
        <time>2013-02-02T12:56:25Z</time>
      </trkpt>
      <trkpt lat="45.00195" lon="5.53524">
        <ele>1633</ele>
        <time>2013-02-02T12:56:30Z</time>
      </trkpt>
      <trkpt lat="45.00197" lon="5.53521">
        <ele>1634</ele>
        <time>2013-02-02T12:56:35Z</time>
      </trkpt>
      <trkpt lat="45.00198" lon="5.53517">
        <ele>1636</ele>
        <time>2013-02-02T12:56:40Z</time>
      </trkpt>
      <trkpt lat="45.00199" lon="5.53513">
        <ele>1638</ele>
        <time>2013-02-02T12:56:45Z</time>
      </trkpt>
      <trkpt lat="45.00199" lon="5.5351">
        <ele>1639</ele>
        <time>2013-02-02T12:56:50Z</time>
      </trkpt>
      <trkpt lat="45.002" lon="5.53506">
        <ele>1640</ele>
        <time>2013-02-02T12:56:55Z</time>
      </trkpt>
      <trkpt lat="45.002" lon="5.53502">
        <ele>1640</ele>
        <time>2013-02-02T12:57:00Z</time>
      </trkpt>
      <trkpt lat="45.00201" lon="5.53498">
        <ele>1640</ele>
        <time>2013-02-02T12:57:05Z</time>
      </trkpt>
      <trkpt lat="45.00202" lon="5.53495">
        <ele>1641</ele>
        <time>2013-02-02T12:57:10Z</time>
      </trkpt>
      <trkpt lat="45.00203" lon="5.53492">
        <ele>1641</ele>
        <time>2013-02-02T12:57:15Z</time>
      </trkpt>
      <trkpt lat="45.00204" lon="5.53489">
        <ele>1641</ele>
        <time>2013-02-02T12:57:20Z</time>
      </trkpt>
      <trkpt lat="45.00205" lon="5.53485">
        <ele>1642</ele>
        <time>2013-02-02T12:57:25Z</time>
      </trkpt>
      <trkpt lat="45.00206" lon="5.53482">
        <ele>1642</ele>
        <time>2013-02-02T12:57:30Z</time>
      </trkpt>
      <trkpt lat="45.00208" lon="5.53479">
        <ele>1642</ele>
        <time>2013-02-02T12:57:35Z</time>
      </trkpt>
      <trkpt lat="45.0021" lon="5.53474">
        <ele>1642</ele>
        <time>2013-02-02T12:57:40Z</time>
      </trkpt>
      <trkpt lat="45.00212" lon="5.53472">
        <ele>1643</ele>
        <time>2013-02-02T12:57:45Z</time>
      </trkpt>
      <trkpt lat="45.00213" lon="5.5347">
        <ele>1643</ele>
        <time>2013-02-02T12:57:50Z</time>
      </trkpt>
      <trkpt lat="45.00215" lon="5.53468">
        <ele>1644</ele>
        <time>2013-02-02T12:57:55Z</time>
      </trkpt>
      <trkpt lat="45.00216" lon="5.53467">
        <ele>1644</ele>
        <time>2013-02-02T12:58:00Z</time>
      </trkpt>
      <trkpt lat="45.00217" lon="5.53467">
        <ele>1644</ele>
        <time>2013-02-02T12:58:05Z</time>
      </trkpt>
      <trkpt lat="45.00217" lon="5.53467">
        <ele>1644</ele>
        <time>2013-02-02T12:58:10Z</time>
      </trkpt>
      <trkpt lat="45.00218" lon="5.53467">
        <ele>1644</ele>
        <time>2013-02-02T12:58:15Z</time>
      </trkpt>
      <trkpt lat="45.00219" lon="5.53464">
        <ele>1644</ele>
        <time>2013-02-02T12:58:20Z</time>
      </trkpt>
      <trkpt lat="45.00221" lon="5.53462">
        <ele>1644</ele>
        <time>2013-02-02T12:58:25Z</time>
      </trkpt>
      <trkpt lat="45.00222" lon="5.5346">
        <ele>1646</ele>
        <time>2013-02-02T12:58:30Z</time>
      </trkpt>
      <trkpt lat="45.00224" lon="5.53458">
        <ele>1646</ele>
        <time>2013-02-02T12:58:35Z</time>
      </trkpt>
      <trkpt lat="45.00226" lon="5.53456">
        <ele>1647</ele>
        <time>2013-02-02T12:58:40Z</time>
      </trkpt>
      <trkpt lat="45.00228" lon="5.53454">
        <ele>1649</ele>
        <time>2013-02-02T12:58:45Z</time>
      </trkpt>
      <trkpt lat="45.00232" lon="5.53452">
        <ele>1650</ele>
        <time>2013-02-02T12:58:50Z</time>
      </trkpt>
      <trkpt lat="45.00236" lon="5.53448">
        <ele>1651</ele>
        <time>2013-02-02T12:58:55Z</time>
      </trkpt>
      <trkpt lat="45.0024" lon="5.53445">
        <ele>1651</ele>
        <time>2013-02-02T12:59:00Z</time>
      </trkpt>
      <trkpt lat="45.00242" lon="5.53445">
        <ele>1652</ele>
        <time>2013-02-02T12:59:05Z</time>
      </trkpt>
      <trkpt lat="45.00242" lon="5.53445">
        <ele>1652</ele>
        <time>2013-02-02T12:59:10Z</time>
      </trkpt>
      <trkpt lat="45.00243" lon="5.53445">
        <ele>1652</ele>
        <time>2013-02-02T12:59:15Z</time>
      </trkpt>
      <trkpt lat="45.00243" lon="5.53445">
        <ele>1652</ele>
        <time>2013-02-02T12:59:20Z</time>
      </trkpt>
      <trkpt lat="45.00243" lon="5.53445">
        <ele>1652</ele>
        <time>2013-02-02T12:59:25Z</time>
      </trkpt>
      <trkpt lat="45.00244" lon="5.53445">
        <ele>1652</ele>
        <time>2013-02-02T12:59:30Z</time>
      </trkpt>
      <trkpt lat="45.00244" lon="5.53445">
        <ele>1652</ele>
        <time>2013-02-02T12:59:35Z</time>
      </trkpt>
      <trkpt lat="45.00244" lon="5.53444">
        <ele>1652</ele>
        <time>2013-02-02T12:59:40Z</time>
      </trkpt>
      <trkpt lat="45.00244" lon="5.53445">
        <ele>1652</ele>
        <time>2013-02-02T12:59:45Z</time>
      </trkpt>
      <trkpt lat="45.00244" lon="5.53445">
        <ele>1652</ele>
        <time>2013-02-02T12:59:50Z</time>
      </trkpt>
      <trkpt lat="45.00245" lon="5.53445">
        <ele>1651</ele>
        <time>2013-02-02T12:59:55Z</time>
      </trkpt>
      <trkpt lat="45.00245" lon="5.53446">
        <ele>1651</ele>
        <time>2013-02-02T13:00:00Z</time>
      </trkpt>
      <trkpt lat="45.00245" lon="5.53446">
        <ele>1651</ele>
        <time>2013-02-02T13:00:05Z</time>
      </trkpt>
      <trkpt lat="45.00245" lon="5.53446">
        <ele>1650</ele>
        <time>2013-02-02T13:00:10Z</time>
      </trkpt>
      <trkpt lat="45.00245" lon="5.53447">
        <ele>1650</ele>
        <time>2013-02-02T13:00:15Z</time>
      </trkpt>
      <trkpt lat="45.00245" lon="5.53447">
        <ele>1650</ele>
        <time>2013-02-02T13:00:20Z</time>
      </trkpt>
      <trkpt lat="45.00245" lon="5.53447">
        <ele>1650</ele>
        <time>2013-02-02T13:00:25Z</time>
      </trkpt>
      <trkpt lat="45.00246" lon="5.53447">
        <ele>1650</ele>
        <time>2013-02-02T13:00:30Z</time>
      </trkpt>
      <trkpt lat="45.00246" lon="5.53447">
        <ele>1650</ele>
        <time>2013-02-02T13:00:35Z</time>
      </trkpt>
      <trkpt lat="45.00246" lon="5.53447">
        <ele>1650</ele>
        <time>2013-02-02T13:00:40Z</time>
      </trkpt>
      <trkpt lat="45.00246" lon="5.53447">
        <ele>1650</ele>
        <time>2013-02-02T13:00:45Z</time>
      </trkpt>
      <trkpt lat="45.00245" lon="5.53447">
        <ele>1650</ele>
        <time>2013-02-02T13:00:50Z</time>
      </trkpt>
      <trkpt lat="45.00245" lon="5.53447">
        <ele>1650</ele>
        <time>2013-02-02T13:00:55Z</time>
      </trkpt>
      <trkpt lat="45.00245" lon="5.53447">
        <ele>1650</ele>
        <time>2013-02-02T13:01:00Z</time>
      </trkpt>
      <trkpt lat="45.00246" lon="5.53447">
        <ele>1650</ele>
        <time>2013-02-02T13:01:05Z</time>
      </trkpt>
      <trkpt lat="45.00246" lon="5.53447">
        <ele>1650</ele>
        <time>2013-02-02T13:01:10Z</time>
      </trkpt>
      <trkpt lat="45.00246" lon="5.53447">
        <ele>1651</ele>
        <time>2013-02-02T13:01:15Z</time>
      </trkpt>
      <trkpt lat="45.00246" lon="5.53447">
        <ele>1651</ele>
        <time>2013-02-02T13:01:20Z</time>
      </trkpt>
      <trkpt lat="45.00246" lon="5.53447">
        <ele>1651</ele>
        <time>2013-02-02T13:01:25Z</time>
      </trkpt>
      <trkpt lat="45.00246" lon="5.53447">
        <ele>1651</ele>
        <time>2013-02-02T13:01:30Z</time>
      </trkpt>
      <trkpt lat="45.00246" lon="5.53447">
        <ele>1650</ele>
        <time>2013-02-02T13:01:35Z</time>
      </trkpt>
      <trkpt lat="45.00246" lon="5.53447">
        <ele>1650</ele>
        <time>2013-02-02T13:01:40Z</time>
      </trkpt>
      <trkpt lat="45.00246" lon="5.53447">
        <ele>1650</ele>
        <time>2013-02-02T13:01:45Z</time>
      </trkpt>
      <trkpt lat="45.00246" lon="5.53447">
        <ele>1650</ele>
        <time>2013-02-02T13:01:50Z</time>
      </trkpt>
      <trkpt lat="45.00246" lon="5.53447">
        <ele>1650</ele>
        <time>2013-02-02T13:01:55Z</time>
      </trkpt>
      <trkpt lat="45.00245" lon="5.53447">
        <ele>1650</ele>
        <time>2013-02-02T13:02:00Z</time>
      </trkpt>
      <trkpt lat="45.00245" lon="5.53446">
        <ele>1650</ele>
        <time>2013-02-02T13:02:05Z</time>
      </trkpt>
      <trkpt lat="45.00245" lon="5.53446">
        <ele>1650</ele>
        <time>2013-02-02T13:02:10Z</time>
      </trkpt>
      <trkpt lat="45.00245" lon="5.53446">
        <ele>1651</ele>
        <time>2013-02-02T13:02:15Z</time>
      </trkpt>
      <trkpt lat="45.00245" lon="5.53446">
        <ele>1651</ele>
        <time>2013-02-02T13:02:20Z</time>
      </trkpt>
      <trkpt lat="45.00245" lon="5.53446">
        <ele>1651</ele>
        <time>2013-02-02T13:02:25Z</time>
      </trkpt>
      <trkpt lat="45.00245" lon="5.53446">
        <ele>1651</ele>
        <time>2013-02-02T13:02:30Z</time>
      </trkpt>
      <trkpt lat="45.00245" lon="5.53446">
        <ele>1650</ele>
        <time>2013-02-02T13:02:35Z</time>
      </trkpt>
      <trkpt lat="45.00245" lon="5.53446">
        <ele>1650</ele>
        <time>2013-02-02T13:02:40Z</time>
      </trkpt>
      <trkpt lat="45.00245" lon="5.53446">
        <ele>1650</ele>
        <time>2013-02-02T13:02:45Z</time>
      </trkpt>
      <trkpt lat="45.00245" lon="5.53446">
        <ele>1650</ele>
        <time>2013-02-02T13:02:50Z</time>
      </trkpt>
      <trkpt lat="45.00245" lon="5.53446">
        <ele>1650</ele>
        <time>2013-02-02T13:02:55Z</time>
      </trkpt>
      <trkpt lat="45.00245" lon="5.53445">
        <ele>1650</ele>
        <time>2013-02-02T13:03:00Z</time>
      </trkpt>
      <trkpt lat="45.00245" lon="5.53445">
        <ele>1650</ele>
        <time>2013-02-02T13:03:05Z</time>
      </trkpt>
      <trkpt lat="45.00244" lon="5.53445">
        <ele>1650</ele>
        <time>2013-02-02T13:03:10Z</time>
      </trkpt>
      <trkpt lat="45.00244" lon="5.53445">
        <ele>1650</ele>
        <time>2013-02-02T13:03:15Z</time>
      </trkpt>
      <trkpt lat="45.00244" lon="5.53445">
        <ele>1650</ele>
        <time>2013-02-02T13:03:20Z</time>
      </trkpt>
      <trkpt lat="45.00244" lon="5.53445">
        <ele>1650</ele>
        <time>2013-02-02T13:03:25Z</time>
      </trkpt>
      <trkpt lat="45.00243" lon="5.53445">
        <ele>1650</ele>
        <time>2013-02-02T13:03:30Z</time>
      </trkpt>
      <trkpt lat="45.00243" lon="5.53445">
        <ele>1650</ele>
        <time>2013-02-02T13:03:35Z</time>
      </trkpt>
      <trkpt lat="45.00244" lon="5.53445">
        <ele>1650</ele>
        <time>2013-02-02T13:03:40Z</time>
      </trkpt>
      <trkpt lat="45.00247" lon="5.5344">
        <ele>1652</ele>
        <time>2013-02-02T13:09:20Z</time>
      </trkpt>
      <trkpt lat="45.0025" lon="5.53442">
        <ele>1652</ele>
        <time>2013-02-02T13:09:25Z</time>
      </trkpt>
      <trkpt lat="45.00262" lon="5.53449">
        <ele>1650</ele>
        <time>2013-02-02T13:09:30Z</time>
      </trkpt>
      <trkpt lat="45.00272" lon="5.5346">
        <ele>1648</ele>
        <time>2013-02-02T13:09:35Z</time>
      </trkpt>
      <trkpt lat="45.00285" lon="5.53471">
        <ele>1646</ele>
        <time>2013-02-02T13:09:40Z</time>
      </trkpt>
      <trkpt lat="45.00301" lon="5.53482">
        <ele>1642</ele>
        <time>2013-02-02T13:09:45Z</time>
      </trkpt>
      <trkpt lat="45.00314" lon="5.53491">
        <ele>1638</ele>
        <time>2013-02-02T13:09:50Z</time>
      </trkpt>
      <trkpt lat="45.00311" lon="5.53465">
        <ele>1635</ele>
        <time>2013-02-02T13:09:55Z</time>
      </trkpt>
      <trkpt lat="45.00306" lon="5.53448">
        <ele>1633</ele>
        <time>2013-02-02T13:10:00Z</time>
      </trkpt>
      <trkpt lat="45.00315" lon="5.53441">
        <ele>1629</ele>
        <time>2013-02-02T13:10:05Z</time>
      </trkpt>
      <trkpt lat="45.00316" lon="5.53415">
        <ele>1625</ele>
        <time>2013-02-02T13:10:10Z</time>
      </trkpt>
      <trkpt lat="45.00319" lon="5.53415">
        <ele>1624</ele>
        <time>2013-02-02T13:10:15Z</time>
      </trkpt>
      <trkpt lat="45.00322" lon="5.53421">
        <ele>1623</ele>
        <time>2013-02-02T13:10:20Z</time>
      </trkpt>
      <trkpt lat="45.0033" lon="5.5343">
        <ele>1622</ele>
        <time>2013-02-02T13:10:25Z</time>
      </trkpt>
      <trkpt lat="45.00342" lon="5.53424">
        <ele>1616</ele>
        <time>2013-02-02T13:10:30Z</time>
      </trkpt>
      <trkpt lat="45.00349" lon="5.53408">
        <ele>1610</ele>
        <time>2013-02-02T13:10:35Z</time>
      </trkpt>
      <trkpt lat="45.00362" lon="5.53412">
        <ele>1604</ele>
        <time>2013-02-02T13:10:40Z</time>
      </trkpt>
      <trkpt lat="45.00372" lon="5.53403">
        <ele>1598</ele>
        <time>2013-02-02T13:10:45Z</time>
      </trkpt>
      <trkpt lat="45.00374" lon="5.53382">
        <ele>1591</ele>
        <time>2013-02-02T13:10:50Z</time>
      </trkpt>
      <trkpt lat="45.00388" lon="5.53374">
        <ele>1584</ele>
        <time>2013-02-02T13:10:55Z</time>
      </trkpt>
      <trkpt lat="45.00403" lon="5.53351">
        <ele>1575</ele>
        <time>2013-02-02T13:11:00Z</time>
      </trkpt>
      <trkpt lat="45.00411" lon="5.53351">
        <ele>1572</ele>
        <time>2013-02-02T13:11:05Z</time>
      </trkpt>
      <trkpt lat="45.00412" lon="5.53351">
        <ele>1572</ele>
        <time>2013-02-02T13:11:10Z</time>
      </trkpt>
      <trkpt lat="45.00412" lon="5.53352">
        <ele>1573</ele>
        <time>2013-02-02T13:11:15Z</time>
      </trkpt>
      <trkpt lat="45.00414" lon="5.53352">
        <ele>1573</ele>
        <time>2013-02-02T13:11:20Z</time>
      </trkpt>
      <trkpt lat="45.00414" lon="5.53353">
        <ele>1572</ele>
        <time>2013-02-02T13:11:25Z</time>
      </trkpt>
      <trkpt lat="45.00414" lon="5.53354">
        <ele>1570</ele>
        <time>2013-02-02T13:11:30Z</time>
      </trkpt>
      <trkpt lat="45.00413" lon="5.53354">
        <ele>1569</ele>
        <time>2013-02-02T13:11:35Z</time>
      </trkpt>
      <trkpt lat="45.00412" lon="5.53355">
        <ele>1569</ele>
        <time>2013-02-02T13:11:40Z</time>
      </trkpt>
      <trkpt lat="45.00413" lon="5.53354">
        <ele>1569</ele>
        <time>2013-02-02T13:11:45Z</time>
      </trkpt>
      <trkpt lat="45.00414" lon="5.53353">
        <ele>1572</ele>
        <time>2013-02-02T13:11:50Z</time>
      </trkpt>
      <trkpt lat="45.00415" lon="5.53353">
        <ele>1574</ele>
        <time>2013-02-02T13:11:55Z</time>
      </trkpt>
      <trkpt lat="45.00417" lon="5.53352">
        <ele>1576</ele>
        <time>2013-02-02T13:12:00Z</time>
      </trkpt>
      <trkpt lat="45.00418" lon="5.53352">
        <ele>1577</ele>
        <time>2013-02-02T13:12:05Z</time>
      </trkpt>
      <trkpt lat="45.00418" lon="5.53352">
        <ele>1578</ele>
        <time>2013-02-02T13:12:10Z</time>
      </trkpt>
      <trkpt lat="45.00419" lon="5.53353">
        <ele>1578</ele>
        <time>2013-02-02T13:12:15Z</time>
      </trkpt>
      <trkpt lat="45.00419" lon="5.53353">
        <ele>1579</ele>
        <time>2013-02-02T13:12:20Z</time>
      </trkpt>
      <trkpt lat="45.00419" lon="5.53353">
        <ele>1578</ele>
        <time>2013-02-02T13:12:25Z</time>
      </trkpt>
      <trkpt lat="45.00417" lon="5.53353">
        <ele>1576</ele>
        <time>2013-02-02T13:12:30Z</time>
      </trkpt>
      <trkpt lat="45.00415" lon="5.53354">
        <ele>1573</ele>
        <time>2013-02-02T13:12:35Z</time>
      </trkpt>
      <trkpt lat="45.00414" lon="5.53354">
        <ele>1572</ele>
        <time>2013-02-02T13:12:40Z</time>
      </trkpt>
      <trkpt lat="45.00414" lon="5.53355">
        <ele>1570</ele>
        <time>2013-02-02T13:12:45Z</time>
      </trkpt>
      <trkpt lat="45.00414" lon="5.53355">
        <ele>1570</ele>
        <time>2013-02-02T13:12:50Z</time>
      </trkpt>
      <trkpt lat="45.00414" lon="5.53355">
        <ele>1570</ele>
        <time>2013-02-02T13:12:55Z</time>
      </trkpt>
      <trkpt lat="45.00414" lon="5.53355">
        <ele>1569</ele>
        <time>2013-02-02T13:13:00Z</time>
      </trkpt>
      <trkpt lat="45.00414" lon="5.53355">
        <ele>1570</ele>
        <time>2013-02-02T13:13:05Z</time>
      </trkpt>
      <trkpt lat="45.00414" lon="5.53355">
        <ele>1571</ele>
        <time>2013-02-02T13:13:10Z</time>
      </trkpt>
      <trkpt lat="45.00419" lon="5.53358">
        <ele>1570</ele>
        <time>2013-02-02T13:13:15Z</time>
      </trkpt>
      <trkpt lat="45.00432" lon="5.53368">
        <ele>1567</ele>
        <time>2013-02-02T13:13:20Z</time>
      </trkpt>
      <trkpt lat="45.00435" lon="5.53371">
        <ele>1565</ele>
        <time>2013-02-02T13:13:25Z</time>
      </trkpt>
      <trkpt lat="45.00435" lon="5.53372">
        <ele>1564</ele>
        <time>2013-02-02T13:13:30Z</time>
      </trkpt>
      <trkpt lat="45.00436" lon="5.5337">
        <ele>1563</ele>
        <time>2013-02-02T13:13:35Z</time>
      </trkpt>
      <trkpt lat="45.0044" lon="5.53365">
        <ele>1561</ele>
        <time>2013-02-02T13:13:40Z</time>
      </trkpt>
      <trkpt lat="45.0044" lon="5.53365">
        <ele>1561</ele>
        <time>2013-02-02T13:13:45Z</time>
      </trkpt>
      <trkpt lat="45.00441" lon="5.53366">
        <ele>1560</ele>
        <time>2013-02-02T13:13:50Z</time>
      </trkpt>
      <trkpt lat="45.00451" lon="5.53372">
        <ele>1559</ele>
        <time>2013-02-02T13:13:55Z</time>
      </trkpt>
      <trkpt lat="45.00463" lon="5.53376">
        <ele>1557</ele>
        <time>2013-02-02T13:14:00Z</time>
      </trkpt>
      <trkpt lat="45.00479" lon="5.53377">
        <ele>1553</ele>
        <time>2013-02-02T13:14:05Z</time>
      </trkpt>
      <trkpt lat="45.00491" lon="5.53379">
        <ele>1551</ele>
        <time>2013-02-02T13:14:10Z</time>
      </trkpt>
      <trkpt lat="45.00493" lon="5.5338">
        <ele>1550</ele>
        <time>2013-02-02T13:14:15Z</time>
      </trkpt>
      <trkpt lat="45.00501" lon="5.5338">
        <ele>1548</ele>
        <time>2013-02-02T13:14:20Z</time>
      </trkpt>
      <trkpt lat="45.00509" lon="5.53378">
        <ele>1547</ele>
        <time>2013-02-02T13:14:25Z</time>
      </trkpt>
      <trkpt lat="45.00522" lon="5.5337">
        <ele>1542</ele>
        <time>2013-02-02T13:14:30Z</time>
      </trkpt>
      <trkpt lat="45.00538" lon="5.53373">
        <ele>1538</ele>
        <time>2013-02-02T13:14:35Z</time>
      </trkpt>
      <trkpt lat="45.00556" lon="5.53367">
        <ele>1533</ele>
        <time>2013-02-02T13:14:40Z</time>
      </trkpt>
      <trkpt lat="45.00558" lon="5.53364">
        <ele>1531</ele>
        <time>2013-02-02T13:14:45Z</time>
      </trkpt>
      <trkpt lat="45.0057" lon="5.53352">
        <ele>1527</ele>
        <time>2013-02-02T13:14:50Z</time>
      </trkpt>
      <trkpt lat="45.00582" lon="5.53348">
        <ele>1524</ele>
        <time>2013-02-02T13:14:55Z</time>
      </trkpt>
      <trkpt lat="45.00601" lon="5.5335">
        <ele>1520</ele>
        <time>2013-02-02T13:15:00Z</time>
      </trkpt>
      <trkpt lat="45.00623" lon="5.5335">
        <ele>1515</ele>
        <time>2013-02-02T13:15:05Z</time>
      </trkpt>
      <trkpt lat="45.00642" lon="5.53354">
        <ele>1510</ele>
        <time>2013-02-02T13:15:10Z</time>
      </trkpt>
      <trkpt lat="45.00662" lon="5.53356">
        <ele>1505</ele>
        <time>2013-02-02T13:15:15Z</time>
      </trkpt>
      <trkpt lat="45.00681" lon="5.53348">
        <ele>1500</ele>
        <time>2013-02-02T13:15:20Z</time>
      </trkpt>
      <trkpt lat="45.00688" lon="5.53341">
        <ele>1495</ele>
        <time>2013-02-02T13:15:25Z</time>
      </trkpt>
      <trkpt lat="45.00688" lon="5.5334">
        <ele>1494</ele>
        <time>2013-02-02T13:15:30Z</time>
      </trkpt>
      <trkpt lat="45.00688" lon="5.5334">
        <ele>1495</ele>
        <time>2013-02-02T13:15:35Z</time>
      </trkpt>
      <trkpt lat="45.00689" lon="5.5334">
        <ele>1495</ele>
        <time>2013-02-02T13:15:40Z</time>
      </trkpt>
      <trkpt lat="45.00694" lon="5.53341">
        <ele>1495</ele>
        <time>2013-02-02T13:15:45Z</time>
      </trkpt>
      <trkpt lat="45.00702" lon="5.53342">
        <ele>1495</ele>
        <time>2013-02-02T13:15:50Z</time>
      </trkpt>
      <trkpt lat="45.00702" lon="5.5334">
        <ele>1494</ele>
        <time>2013-02-02T13:15:55Z</time>
      </trkpt>
      <trkpt lat="45.007" lon="5.53337">
        <ele>1494</ele>
        <time>2013-02-02T13:16:00Z</time>
      </trkpt>
      <trkpt lat="45.007" lon="5.53337">
        <ele>1494</ele>
        <time>2013-02-02T13:16:05Z</time>
      </trkpt>
      <trkpt lat="45.007" lon="5.53337">
        <ele>1494</ele>
        <time>2013-02-02T13:16:10Z</time>
      </trkpt>
      <trkpt lat="45.00701" lon="5.53337">
        <ele>1493</ele>
        <time>2013-02-02T13:16:15Z</time>
      </trkpt>
      <trkpt lat="45.00701" lon="5.53337">
        <ele>1493</ele>
        <time>2013-02-02T13:16:20Z</time>
      </trkpt>
      <trkpt lat="45.00703" lon="5.53339">
        <ele>1493</ele>
        <time>2013-02-02T13:16:25Z</time>
      </trkpt>
      <trkpt lat="45.00704" lon="5.53337">
        <ele>1492</ele>
        <time>2013-02-02T13:16:30Z</time>
      </trkpt>
      <trkpt lat="45.00704" lon="5.53338">
        <ele>1492</ele>
        <time>2013-02-02T13:16:35Z</time>
      </trkpt>
      <trkpt lat="45.00705" lon="5.53337">
        <ele>1492</ele>
        <time>2013-02-02T13:16:40Z</time>
      </trkpt>
      <trkpt lat="45.00705" lon="5.53337">
        <ele>1492</ele>
        <time>2013-02-02T13:16:45Z</time>
      </trkpt>
      <trkpt lat="45.00708" lon="5.53336">
        <ele>1492</ele>
        <time>2013-02-02T13:16:50Z</time>
      </trkpt>
      <trkpt lat="45.00721" lon="5.5333">
        <ele>1491</ele>
        <time>2013-02-02T13:16:55Z</time>
      </trkpt>
      <trkpt lat="45.00737" lon="5.53331">
        <ele>1489</ele>
        <time>2013-02-02T13:17:00Z</time>
      </trkpt>
      <trkpt lat="45.00742" lon="5.5333">
        <ele>1489</ele>
        <time>2013-02-02T13:17:05Z</time>
      </trkpt>
      <trkpt lat="45.00743" lon="5.53331">
        <ele>1488</ele>
        <time>2013-02-02T13:17:10Z</time>
      </trkpt>
      <trkpt lat="45.00747" lon="5.53332">
        <ele>1489</ele>
        <time>2013-02-02T13:17:15Z</time>
      </trkpt>
      <trkpt lat="45.00757" lon="5.53331">
        <ele>1488</ele>
        <time>2013-02-02T13:17:20Z</time>
      </trkpt>
      <trkpt lat="45.0077" lon="5.53327">
        <ele>1484</ele>
        <time>2013-02-02T13:17:25Z</time>
      </trkpt>
      <trkpt lat="45.00768" lon="5.53325">
        <ele>1484</ele>
        <time>2013-02-02T13:17:30Z</time>
      </trkpt>
      <trkpt lat="45.00777" lon="5.53317">
        <ele>1481</ele>
        <time>2013-02-02T13:17:35Z</time>
      </trkpt>
      <trkpt lat="45.00792" lon="5.53312">
        <ele>1478</ele>
        <time>2013-02-02T13:17:40Z</time>
      </trkpt>
      <trkpt lat="45.00809" lon="5.53313">
        <ele>1475</ele>
        <time>2013-02-02T13:17:45Z</time>
      </trkpt>
      <trkpt lat="45.00824" lon="5.53316">
        <ele>1472</ele>
        <time>2013-02-02T13:17:50Z</time>
      </trkpt>
      <trkpt lat="45.00844" lon="5.53316">
        <ele>1469</ele>
        <time>2013-02-02T13:17:55Z</time>
      </trkpt>
      <trkpt lat="45.00849" lon="5.53319">
        <ele>1466</ele>
        <time>2013-02-02T13:18:00Z</time>
      </trkpt>
      <trkpt lat="45.00858" lon="5.53329">
        <ele>1463</ele>
        <time>2013-02-02T13:18:05Z</time>
      </trkpt>
      <trkpt lat="45.00872" lon="5.53342">
        <ele>1459</ele>
        <time>2013-02-02T13:18:10Z</time>
      </trkpt>
      <trkpt lat="45.00891" lon="5.53353">
        <ele>1455</ele>
        <time>2013-02-02T13:18:15Z</time>
      </trkpt>
      <trkpt lat="45.00905" lon="5.53363">
        <ele>1452</ele>
        <time>2013-02-02T13:18:20Z</time>
      </trkpt>
      <trkpt lat="45.0097" lon="5.53343">
        <ele>1441</ele>
        <time>2013-02-02T14:06:00Z</time>
      </trkpt>
      <trkpt lat="45.00972" lon="5.53344">
        <ele>1441</ele>
        <time>2013-02-02T14:06:05Z</time>
      </trkpt>
      <trkpt lat="45.00984" lon="5.53344">
        <ele>1442</ele>
        <time>2013-02-02T14:06:10Z</time>
      </trkpt>
      <trkpt lat="45.01004" lon="5.53346">
        <ele>1436</ele>
        <time>2013-02-02T14:06:15Z</time>
      </trkpt>
      <trkpt lat="45.01025" lon="5.5334">
        <ele>1430</ele>
        <time>2013-02-02T14:06:20Z</time>
      </trkpt>
      <trkpt lat="45.01046" lon="5.53326">
        <ele>1424</ele>
        <time>2013-02-02T14:06:25Z</time>
      </trkpt>
      <trkpt lat="45.01066" lon="5.5331">
        <ele>1418</ele>
        <time>2013-02-02T14:06:30Z</time>
      </trkpt>
      <trkpt lat="45.01081" lon="5.53295">
        <ele>1412</ele>
        <time>2013-02-02T14:06:35Z</time>
      </trkpt>
      <trkpt lat="45.01097" lon="5.53288">
        <ele>1407</ele>
        <time>2013-02-02T14:06:40Z</time>
      </trkpt>
      <trkpt lat="45.01115" lon="5.53274">
        <ele>1402</ele>
        <time>2013-02-02T14:06:45Z</time>
      </trkpt>
      <trkpt lat="45.01132" lon="5.53257">
        <ele>1398</ele>
        <time>2013-02-02T14:06:50Z</time>
      </trkpt>
      <trkpt lat="45.01151" lon="5.53264">
        <ele>1392</ele>
        <time>2013-02-02T14:06:55Z</time>
      </trkpt>
      <trkpt lat="45.01171" lon="5.53275">
        <ele>1386</ele>
        <time>2013-02-02T14:07:00Z</time>
      </trkpt>
      <trkpt lat="45.01192" lon="5.5328">
        <ele>1381</ele>
        <time>2013-02-02T14:07:05Z</time>
      </trkpt>
      <trkpt lat="45.01213" lon="5.5327">
        <ele>1375</ele>
        <time>2013-02-02T14:07:10Z</time>
      </trkpt>
      <trkpt lat="45.01239" lon="5.53258">
        <ele>1368</ele>
        <time>2013-02-02T14:07:15Z</time>
      </trkpt>
      <trkpt lat="45.01265" lon="5.53245">
        <ele>1361</ele>
        <time>2013-02-02T14:07:20Z</time>
      </trkpt>
      <trkpt lat="45.01291" lon="5.53235">
        <ele>1354</ele>
        <time>2013-02-02T14:07:25Z</time>
      </trkpt>
      <trkpt lat="45.01311" lon="5.53222">
        <ele>1351</ele>
        <time>2013-02-02T14:07:30Z</time>
      </trkpt>
      <trkpt lat="45.01332" lon="5.53223">
        <ele>1348</ele>
        <time>2013-02-02T14:07:35Z</time>
      </trkpt>
      <trkpt lat="45.01357" lon="5.53222">
        <ele>1344</ele>
        <time>2013-02-02T14:07:40Z</time>
      </trkpt>
      <trkpt lat="45.01385" lon="5.53214">
        <ele>1338</ele>
        <time>2013-02-02T14:07:45Z</time>
      </trkpt>
      <trkpt lat="45.01409" lon="5.53191">
        <ele>1334</ele>
        <time>2013-02-02T14:07:50Z</time>
      </trkpt>
      <trkpt lat="45.01436" lon="5.53184">
        <ele>1330</ele>
        <time>2013-02-02T14:07:55Z</time>
      </trkpt>
      <trkpt lat="45.01455" lon="5.53173">
        <ele>1327</ele>
        <time>2013-02-02T14:08:00Z</time>
      </trkpt>
      <trkpt lat="45.01477" lon="5.53171">
        <ele>1323</ele>
        <time>2013-02-02T14:08:05Z</time>
      </trkpt>
      <trkpt lat="45.01499" lon="5.53172">
        <ele>1319</ele>
        <time>2013-02-02T14:08:10Z</time>
      </trkpt>
      <trkpt lat="45.01521" lon="5.53172">
        <ele>1314</ele>
        <time>2013-02-02T14:08:15Z</time>
      </trkpt>
      <trkpt lat="45.01545" lon="5.53165">
        <ele>1308</ele>
        <time>2013-02-02T14:08:20Z</time>
      </trkpt>
      <trkpt lat="45.01563" lon="5.53153">
        <ele>1302</ele>
        <time>2013-02-02T14:08:25Z</time>
      </trkpt>
      <trkpt lat="45.01585" lon="5.53135">
        <ele>1294</ele>
        <time>2013-02-02T14:08:30Z</time>
      </trkpt>
      <trkpt lat="45.0161" lon="5.53123">
        <ele>1286</ele>
        <time>2013-02-02T14:08:35Z</time>
      </trkpt>
      <trkpt lat="45.01634" lon="5.53115">
        <ele>1280</ele>
        <time>2013-02-02T14:08:40Z</time>
      </trkpt>
      <trkpt lat="45.01656" lon="5.53102">
        <ele>1273</ele>
        <time>2013-02-02T14:08:45Z</time>
      </trkpt>
      <trkpt lat="45.01677" lon="5.53088">
        <ele>1266</ele>
        <time>2013-02-02T14:08:50Z</time>
      </trkpt>
      <trkpt lat="45.017" lon="5.53077">
        <ele>1259</ele>
        <time>2013-02-02T14:08:55Z</time>
      </trkpt>
      <trkpt lat="45.0172" lon="5.53063">
        <ele>1253</ele>
        <time>2013-02-02T14:09:00Z</time>
      </trkpt>
      <trkpt lat="45.01744" lon="5.53031">
        <ele>1247</ele>
        <time>2013-02-02T14:09:05Z</time>
      </trkpt>
      <trkpt lat="45.01767" lon="5.53001">
        <ele>1244</ele>
        <time>2013-02-02T14:09:10Z</time>
      </trkpt>
      <trkpt lat="45.0179" lon="5.52988">
        <ele>1242</ele>
        <time>2013-02-02T14:09:15Z</time>
      </trkpt>
      <trkpt lat="45.01806" lon="5.52981">
        <ele>1241</ele>
        <time>2013-02-02T14:09:20Z</time>
      </trkpt>
      <trkpt lat="45.01816" lon="5.52982">
        <ele>1241</ele>
        <time>2013-02-02T14:09:25Z</time>
      </trkpt>
      <trkpt lat="45.0182" lon="5.52983">
        <ele>1241</ele>
        <time>2013-02-02T14:09:30Z</time>
      </trkpt>
      <trkpt lat="45.01822" lon="5.52983">
        <ele>1241</ele>
        <time>2013-02-02T14:09:35Z</time>
      </trkpt>
      <trkpt lat="45.01824" lon="5.52986">
        <ele>1241</ele>
        <time>2013-02-02T14:09:40Z</time>
      </trkpt>
      <trkpt lat="45.01826" lon="5.52991">
        <ele>1241</ele>
        <time>2013-02-02T14:09:45Z</time>
      </trkpt>
      <trkpt lat="45.01829" lon="5.52996">
        <ele>1242</ele>
        <time>2013-02-02T14:09:50Z</time>
      </trkpt>
      <trkpt lat="45.01831" lon="5.53">
        <ele>1242</ele>
        <time>2013-02-02T14:09:55Z</time>
      </trkpt>
      <trkpt lat="45.01835" lon="5.53004">
        <ele>1242</ele>
        <time>2013-02-02T14:10:00Z</time>
      </trkpt>
      <trkpt lat="45.01839" lon="5.53005">
        <ele>1242</ele>
        <time>2013-02-02T14:10:05Z</time>
      </trkpt>
      <trkpt lat="45.01846" lon="5.53004">
        <ele>1242</ele>
        <time>2013-02-02T14:10:10Z</time>
      </trkpt>
      <trkpt lat="45.01854" lon="5.53001">
        <ele>1242</ele>
        <time>2013-02-02T14:10:15Z</time>
      </trkpt>
      <trkpt lat="45.01861" lon="5.52994">
        <ele>1242</ele>
        <time>2013-02-02T14:10:20Z</time>
      </trkpt>
      <trkpt lat="45.0187" lon="5.52986">
        <ele>1242</ele>
        <time>2013-02-02T14:10:25Z</time>
      </trkpt>
      <trkpt lat="45.0188" lon="5.52977">
        <ele>1241</ele>
        <time>2013-02-02T14:10:30Z</time>
      </trkpt>
      <trkpt lat="45.01885" lon="5.5297">
        <ele>1241</ele>
        <time>2013-02-02T14:10:35Z</time>
      </trkpt>
      <trkpt lat="45.01889" lon="5.52967">
        <ele>1241</ele>
        <time>2013-02-02T14:10:40Z</time>
      </trkpt>
      <trkpt lat="45.01896" lon="5.52965">
        <ele>1241</ele>
        <time>2013-02-02T14:10:45Z</time>
      </trkpt>
      <trkpt lat="45.01904" lon="5.52962">
        <ele>1241</ele>
        <time>2013-02-02T14:10:50Z</time>
      </trkpt>
      <trkpt lat="45.01915" lon="5.52961">
        <ele>1241</ele>
        <time>2013-02-02T14:10:55Z</time>
      </trkpt>
      <trkpt lat="45.01924" lon="5.52961">
        <ele>1242</ele>
        <time>2013-02-02T14:11:00Z</time>
      </trkpt>
      <trkpt lat="45.01933" lon="5.52961">
        <ele>1242</ele>
        <time>2013-02-02T14:11:05Z</time>
      </trkpt>
      <trkpt lat="45.01943" lon="5.5296">
        <ele>1242</ele>
        <time>2013-02-02T14:11:10Z</time>
      </trkpt>
      <trkpt lat="45.01953" lon="5.52958">
        <ele>1241</ele>
        <time>2013-02-02T14:11:15Z</time>
      </trkpt>
      <trkpt lat="45.01963" lon="5.52957">
        <ele>1241</ele>
        <time>2013-02-02T14:11:20Z</time>
      </trkpt>
      <trkpt lat="45.01975" lon="5.52956">
        <ele>1241</ele>
        <time>2013-02-02T14:11:25Z</time>
      </trkpt>
      <trkpt lat="45.01985" lon="5.52955">
        <ele>1241</ele>
        <time>2013-02-02T14:11:30Z</time>
      </trkpt>
      <trkpt lat="45.01996" lon="5.52956">
        <ele>1242</ele>
        <time>2013-02-02T14:11:35Z</time>
      </trkpt>
      <trkpt lat="45.0201" lon="5.52953">
        <ele>1242</ele>
        <time>2013-02-02T14:11:40Z</time>
      </trkpt>
      <trkpt lat="45.02024" lon="5.52948">
        <ele>1241</ele>
        <time>2013-02-02T14:11:45Z</time>
      </trkpt>
      <trkpt lat="45.02033" lon="5.52945">
        <ele>1241</ele>
        <time>2013-02-02T14:11:50Z</time>
      </trkpt>
      <trkpt lat="45.02037" lon="5.52942">
        <ele>1241</ele>
        <time>2013-02-02T14:11:55Z</time>
      </trkpt>
      <trkpt lat="45.0204" lon="5.52936">
        <ele>1240</ele>
        <time>2013-02-02T14:12:00Z</time>
      </trkpt>
      <trkpt lat="45.02043" lon="5.52926">
        <ele>1240</ele>
        <time>2013-02-02T14:12:05Z</time>
      </trkpt>
      <trkpt lat="45.0205" lon="5.52923">
        <ele>1239</ele>
        <time>2013-02-02T14:12:10Z</time>
      </trkpt>
      <trkpt lat="45.02054" lon="5.52921">
        <ele>1238</ele>
        <time>2013-02-02T14:12:15Z</time>
      </trkpt>
      <trkpt lat="45.0206" lon="5.52918">
        <ele>1239</ele>
        <time>2013-02-02T14:12:20Z</time>
      </trkpt>
      <trkpt lat="45.02068" lon="5.52918">
        <ele>1237</ele>
        <time>2013-02-02T14:12:25Z</time>
      </trkpt>
      <trkpt lat="45.02077" lon="5.52913">
        <ele>1234</ele>
        <time>2013-02-02T14:12:30Z</time>
      </trkpt>
      <trkpt lat="45.02085" lon="5.5291">
        <ele>1231</ele>
        <time>2013-02-02T14:12:35Z</time>
      </trkpt>
      <trkpt lat="45.02092" lon="5.52905">
        <ele>1229</ele>
        <time>2013-02-02T14:12:40Z</time>
      </trkpt>
      <trkpt lat="45.02097" lon="5.52899">
        <ele>1229</ele>
        <time>2013-02-02T14:12:45Z</time>
      </trkpt>
      <trkpt lat="45.02102" lon="5.52891">
        <ele>1228</ele>
        <time>2013-02-02T14:12:50Z</time>
      </trkpt>
      <trkpt lat="45.0211" lon="5.52881">
        <ele>1228</ele>
        <time>2013-02-02T14:12:55Z</time>
      </trkpt>
      <trkpt lat="45.02115" lon="5.52869">
        <ele>1227</ele>
        <time>2013-02-02T14:13:00Z</time>
      </trkpt>
    </trkseg>
  </trk>
</gpx>